<?xml version="1.0" encoding="UTF-8"?>
<gpx version="1.1" creator="2bulu-scraper" xmlns="http://www.topografix.com/GPX/1/1">
  <metadata><name>峨眉山报国寺-万年寺-金顶</name><desc>source: 2bulu.com trackId=84798282; exported 2026-09-01T16:06:08.119Z</desc>
    <bounds minlat="29.5225794" minlon="103.3268463" maxlat="29.583119" maxlon="103.4415062"/>
    <link href="https://www.2bulu.com/track/t-BFG4%252B8cmGEzp%252FR2KBg5Tzw%253D%253D.htm"><text>2bulu 源页面</text></link>
  </metadata>
  <wpt lat="29.5702524" lon="103.433028"><ele>702</ele><name>
        </name></wpt>
  <wpt lat="29.5718234" lon="103.4276693"><ele>899</ele><name>
        </name></wpt>
  <wpt lat="29.5689299" lon="103.419837"><ele>896</ele><name>
        </name></wpt>
  <wpt lat="29.5666586" lon="103.4079091"><ele>772</ele><name>
        </name></wpt>
  <wpt lat="29.5711372" lon="103.4024083"><ele>730</ele><name>
        </name></wpt>
  <wpt lat="29.5719904" lon="103.4012808"><ele>733</ele><name>
        </name></wpt>
  <wpt lat="29.5784862" lon="103.3888487"><ele>769</ele><name>
        </name></wpt>
  <wpt lat="29.5813046" lon="103.3843245"><ele>921</ele><name>
        </name></wpt>
  <wpt lat="29.5813292" lon="103.3842744"><ele>924</ele><name>
        </name></wpt>
  <wpt lat="29.5818125" lon="103.3828282"><ele>955</ele><name>
        </name></wpt>
  <wpt lat="29.5830847" lon="103.3798805"><ele>962</ele><name>
        </name></wpt>
  <wpt lat="29.5815269" lon="103.3762649"><ele>1138</ele><name>
        </name></wpt>
  <wpt lat="29.5800481" lon="103.3755082"><ele>1211</ele><name>
        </name></wpt>
  <wpt lat="29.5782609" lon="103.3716171"><ele>1390</ele><name>
        </name></wpt>
  <wpt lat="29.5775338" lon="103.3710748"><ele>1432</ele><name>
        </name></wpt>
  <wpt lat="29.5774889" lon="103.3710848"><ele>1430</ele><name>
        </name></wpt>
  <wpt lat="29.573778" lon="103.362335"><ele>1575</ele><name>
        </name></wpt>
  <wpt lat="29.5684921" lon="103.3596877"><ele>1693</ele><name>
        </name></wpt>
  <wpt lat="29.5681666" lon="103.3595902"><ele>1695</ele><name>
        </name></wpt>
  <wpt lat="29.5641372" lon="103.3564822"><ele>1871</ele><name>
        </name></wpt>
  <wpt lat="29.5641451" lon="103.3563951"><ele>1871</ele><name>
        </name></wpt>
  <wpt lat="29.563402" lon="103.3472088"><ele>1780</ele><name>
        </name></wpt>
  <wpt lat="29.5588288" lon="103.3443156"><ele>2021</ele><name>
        </name></wpt>
  <wpt lat="29.5580613" lon="103.3439131"><ele>2028</ele><name>
        </name></wpt>
  <wpt lat="29.551471" lon="103.3442557"><ele>2229</ele><name>
        </name></wpt>
  <wpt lat="29.5468929" lon="103.3394945"><ele>2360</ele><name>
        </name></wpt>
  <wpt lat="29.5356801" lon="103.3340114"><ele>2463</ele><name>
        </name></wpt>
  <wpt lat="29.5348595" lon="103.3329574"><ele>2497</ele><name>
        </name></wpt>
  <wpt lat="29.5303919" lon="103.327035"><ele>2803</ele><name>
        </name></wpt>
  <wpt lat="29.5255328" lon="103.3343533"><ele>2966</ele><name>
        </name></wpt>
  <wpt lat="29.5227315" lon="103.334814"><ele>3004</ele><name>
        </name></wpt>
  <trk><name>峨眉山报国寺-万年寺-金顶</name>
      <trkseg>
        <trkpt lat="29.5705104" lon="103.4415062"><ele>497.5</ele><time>2026-05-23T14:00:59.000Z</time></trkpt>
        <trkpt lat="29.5704641" lon="103.4414615"><ele>497.5</ele><time>2026-05-23T14:01:03.000Z</time></trkpt>
        <trkpt lat="29.570413" lon="103.4414187"><ele>497.24</ele><time>2026-05-23T14:01:07.000Z</time></trkpt>
        <trkpt lat="29.5703611" lon="103.4413804"><ele>497.6</ele><time>2026-05-23T14:01:11.000Z</time></trkpt>
        <trkpt lat="29.5703136" lon="103.4413386"><ele>498.04</ele><time>2026-05-23T14:01:15.000Z</time></trkpt>
        <trkpt lat="29.5702756" lon="103.4412912"><ele>498.04</ele><time>2026-05-23T14:01:19.000Z</time></trkpt>
        <trkpt lat="29.5702427" lon="103.4412509"><ele>498.05</ele><time>2026-05-23T14:01:23.000Z</time></trkpt>
        <trkpt lat="29.5701978" lon="103.4412266"><ele>497.73</ele><time>2026-05-23T14:01:27.000Z</time></trkpt>
        <trkpt lat="29.5701466" lon="103.441205"><ele>497.88</ele><time>2026-05-23T14:01:31.000Z</time></trkpt>
        <trkpt lat="29.5700984" lon="103.4411824"><ele>498.24</ele><time>2026-05-23T14:01:35.000Z</time></trkpt>
        <trkpt lat="29.5700534" lon="103.4411531"><ele>498.8</ele><time>2026-05-23T14:01:39.000Z</time></trkpt>
        <trkpt lat="29.5700086" lon="103.4411218"><ele>498.98</ele><time>2026-05-23T14:01:43.000Z</time></trkpt>
        <trkpt lat="29.5699597" lon="103.4410889"><ele>498.88</ele><time>2026-05-23T14:01:47.000Z</time></trkpt>
        <trkpt lat="29.5699144" lon="103.441051"><ele>498.79</ele><time>2026-05-23T14:01:51.000Z</time></trkpt>
        <trkpt lat="29.5698645" lon="103.441018"><ele>499.03</ele><time>2026-05-23T14:01:55.000Z</time></trkpt>
        <trkpt lat="29.569811" lon="103.4409978"><ele>499.09</ele><time>2026-05-23T14:01:59.000Z</time></trkpt>
        <trkpt lat="29.5697552" lon="103.440992"><ele>498.52</ele><time>2026-05-23T14:02:03.000Z</time></trkpt>
        <trkpt lat="29.5697006" lon="103.4409875"><ele>497.98</ele><time>2026-05-23T14:02:07.000Z</time></trkpt>
        <trkpt lat="29.5696507" lon="103.4409722"><ele>497.53</ele><time>2026-05-23T14:02:11.000Z</time></trkpt>
        <trkpt lat="29.5695999" lon="103.440955"><ele>497.46</ele><time>2026-05-23T14:02:15.000Z</time></trkpt>
        <trkpt lat="29.5695432" lon="103.4409457"><ele>497.85</ele><time>2026-05-23T14:02:19.000Z</time></trkpt>
        <trkpt lat="29.569475" lon="103.4409457"><ele>497.76</ele><time>2026-05-23T14:02:23.000Z</time></trkpt>
        <trkpt lat="29.5694069" lon="103.4409469"><ele>497.45</ele><time>2026-05-23T14:02:27.000Z</time></trkpt>
        <trkpt lat="29.5693486" lon="103.4409467"><ele>497.26</ele><time>2026-05-23T14:02:31.000Z</time></trkpt>
        <trkpt lat="29.5692846" lon="103.4409382"><ele>497.91</ele><time>2026-05-23T14:02:37.000Z</time></trkpt>
        <trkpt lat="29.5692264" lon="103.4409387"><ele>497.9</ele><time>2026-05-23T14:02:41.000Z</time></trkpt>
        <trkpt lat="29.5691747" lon="103.4409429"><ele>497.67</ele><time>2026-05-23T14:02:45.000Z</time></trkpt>
        <trkpt lat="29.5691646" lon="103.4408973"><ele>498.1</ele><time>2026-05-23T14:02:49.000Z</time></trkpt>
        <trkpt lat="29.5691631" lon="103.4408405"><ele>498.16</ele><time>2026-05-23T14:02:56.000Z</time></trkpt>
        <trkpt lat="29.5691536" lon="103.4407822"><ele>498.18</ele><time>2026-05-23T14:03:00.000Z</time></trkpt>
        <trkpt lat="29.5691437" lon="103.4407223"><ele>497.98</ele><time>2026-05-23T14:03:04.000Z</time></trkpt>
        <trkpt lat="29.5691151" lon="103.4406717"><ele>496.65</ele><time>2026-05-23T14:03:08.000Z</time></trkpt>
        <trkpt lat="29.5690769" lon="103.4406399"><ele>494.75</ele><time>2026-05-23T14:03:12.000Z</time></trkpt>
        <trkpt lat="29.5690296" lon="103.440611"><ele>492.55</ele><time>2026-05-23T14:03:16.000Z</time></trkpt>
        <trkpt lat="29.5690081" lon="103.4405552"><ele>491.5</ele><time>2026-05-23T14:03:20.000Z</time></trkpt>
        <trkpt lat="29.5690136" lon="103.4404826"><ele>491.2</ele><time>2026-05-23T14:03:24.000Z</time></trkpt>
        <trkpt lat="29.5690185" lon="103.440406"><ele>491.25</ele><time>2026-05-23T14:03:28.000Z</time></trkpt>
        <trkpt lat="29.569015" lon="103.4403253"><ele>491.75</ele><time>2026-05-23T14:03:32.000Z</time></trkpt>
        <trkpt lat="29.5689944" lon="103.4402486"><ele>492.77</ele><time>2026-05-23T14:03:36.000Z</time></trkpt>
        <trkpt lat="29.5689617" lon="103.4401852"><ele>493.84</ele><time>2026-05-23T14:03:40.000Z</time></trkpt>
        <trkpt lat="29.5689208" lon="103.4401322"><ele>494.59</ele><time>2026-05-23T14:03:44.000Z</time></trkpt>
        <trkpt lat="29.5688883" lon="103.4400744"><ele>495.55</ele><time>2026-05-23T14:03:48.000Z</time></trkpt>
        <trkpt lat="29.5688522" lon="103.4400133"><ele>496.58</ele><time>2026-05-23T14:03:52.000Z</time></trkpt>
        <trkpt lat="29.56881" lon="103.4399499"><ele>497.55</ele><time>2026-05-23T14:03:56.000Z</time></trkpt>
        <trkpt lat="29.5687723" lon="103.4399007"><ele>497.63</ele><time>2026-05-23T14:04:00.000Z</time></trkpt>
        <trkpt lat="29.568734" lon="103.4398579"><ele>497</ele><time>2026-05-23T14:04:04.000Z</time></trkpt>
        <trkpt lat="29.5686957" lon="103.4398143"><ele>496.58</ele><time>2026-05-23T14:04:08.000Z</time></trkpt>
        <trkpt lat="29.5686675" lon="103.4397643"><ele>496.89</ele><time>2026-05-23T14:04:12.000Z</time></trkpt>
        <trkpt lat="29.568635" lon="103.4397069"><ele>497.63</ele><time>2026-05-23T14:04:16.000Z</time></trkpt>
        <trkpt lat="29.5686016" lon="103.4396439"><ele>499.04</ele><time>2026-05-23T14:04:20.000Z</time></trkpt>
        <trkpt lat="29.5685718" lon="103.4395922"><ele>499.73</ele><time>2026-05-23T14:04:22.000Z</time></trkpt>
        <trkpt lat="29.5685434" lon="103.4395474"><ele>499.22</ele><time>2026-05-23T14:04:24.000Z</time></trkpt>
        <trkpt lat="29.5685205" lon="103.4395015"><ele>498.65</ele><time>2026-05-23T14:04:26.000Z</time></trkpt>
        <trkpt lat="29.568486" lon="103.4394329"><ele>498.96</ele><time>2026-05-23T14:04:30.000Z</time></trkpt>
        <trkpt lat="29.5684392" lon="103.4393825"><ele>499.2</ele><time>2026-05-23T14:04:34.000Z</time></trkpt>
        <trkpt lat="29.5683791" lon="103.4393616"><ele>500.15</ele><time>2026-05-23T14:04:38.000Z</time></trkpt>
        <trkpt lat="29.5683373" lon="103.4393223"><ele>500.26</ele><time>2026-05-23T14:04:42.000Z</time></trkpt>
        <trkpt lat="29.568289" lon="103.4392845"><ele>500.54</ele><time>2026-05-23T14:04:46.000Z</time></trkpt>
        <trkpt lat="29.5682355" lon="103.4392479"><ele>500.55</ele><time>2026-05-23T14:04:50.000Z</time></trkpt>
        <trkpt lat="29.5681757" lon="103.4392081"><ele>501.63</ele><time>2026-05-23T14:04:54.000Z</time></trkpt>
        <trkpt lat="29.5681225" lon="103.4391575"><ele>503.05</ele><time>2026-05-23T14:04:58.000Z</time></trkpt>
        <trkpt lat="29.5680725" lon="103.4391035"><ele>504.31</ele><time>2026-05-23T14:05:02.000Z</time></trkpt>
        <trkpt lat="29.5680301" lon="103.4390416"><ele>504.25</ele><time>2026-05-23T14:05:06.000Z</time></trkpt>
        <trkpt lat="29.5679915" lon="103.4389789"><ele>505.27</ele><time>2026-05-23T14:05:10.000Z</time></trkpt>
        <trkpt lat="29.5679596" lon="103.4389179"><ele>505.83</ele><time>2026-05-23T14:05:14.000Z</time></trkpt>
        <trkpt lat="29.5679226" lon="103.4388616"><ele>506.61</ele><time>2026-05-23T14:05:18.000Z</time></trkpt>
        <trkpt lat="29.5678774" lon="103.4388136"><ele>507.1</ele><time>2026-05-23T14:05:22.000Z</time></trkpt>
        <trkpt lat="29.5678325" lon="103.4387609"><ele>508.44</ele><time>2026-05-23T14:05:26.000Z</time></trkpt>
        <trkpt lat="29.5677873" lon="103.438699"><ele>507.99</ele><time>2026-05-23T14:05:30.000Z</time></trkpt>
        <trkpt lat="29.5677587" lon="103.4386249"><ele>507.02</ele><time>2026-05-23T14:05:34.000Z</time></trkpt>
        <trkpt lat="29.5677173" lon="103.4385699"><ele>505.96</ele><time>2026-05-23T14:05:38.000Z</time></trkpt>
        <trkpt lat="29.5676704" lon="103.4385195"><ele>506.81</ele><time>2026-05-23T14:05:42.000Z</time></trkpt>
        <trkpt lat="29.5676293" lon="103.4384687"><ele>507.6</ele><time>2026-05-23T14:05:46.000Z</time></trkpt>
        <trkpt lat="29.5675635" lon="103.4384066"><ele>508.46</ele><time>2026-05-23T14:05:50.000Z</time></trkpt>
        <trkpt lat="29.5675077" lon="103.4383549"><ele>509.04</ele><time>2026-05-23T14:05:54.000Z</time></trkpt>
        <trkpt lat="29.5674805" lon="103.4383063"><ele>508.35</ele><time>2026-05-23T14:05:58.000Z</time></trkpt>
        <trkpt lat="29.5674478" lon="103.4382376"><ele>506.75</ele><time>2026-05-23T14:06:04.000Z</time></trkpt>
        <trkpt lat="29.5674077" lon="103.4381858"><ele>506.04</ele><time>2026-05-23T14:06:08.000Z</time></trkpt>
        <trkpt lat="29.5673724" lon="103.4381401"><ele>507</ele><time>2026-05-23T14:06:12.000Z</time></trkpt>
        <trkpt lat="29.5673455" lon="103.438084"><ele>508.51</ele><time>2026-05-23T14:06:16.000Z</time></trkpt>
        <trkpt lat="29.5673198" lon="103.4380254"><ele>509.13</ele><time>2026-05-23T14:06:20.000Z</time></trkpt>
        <trkpt lat="29.5672783" lon="103.4379735"><ele>510.83</ele><time>2026-05-23T14:06:24.000Z</time></trkpt>
        <trkpt lat="29.5672403" lon="103.4379147"><ele>512.47</ele><time>2026-05-23T14:06:28.000Z</time></trkpt>
        <trkpt lat="29.5671966" lon="103.4378608"><ele>513.12</ele><time>2026-05-23T14:06:32.000Z</time></trkpt>
        <trkpt lat="29.5671548" lon="103.4378213"><ele>513.12</ele><time>2026-05-23T14:06:36.000Z</time></trkpt>
        <trkpt lat="29.5671151" lon="103.4377734"><ele>513.58</ele><time>2026-05-23T14:06:40.000Z</time></trkpt>
        <trkpt lat="29.5670757" lon="103.4377117"><ele>514.16</ele><time>2026-05-23T14:06:44.000Z</time></trkpt>
        <trkpt lat="29.5670434" lon="103.4376488"><ele>513.98</ele><time>2026-05-23T14:06:48.000Z</time></trkpt>
        <trkpt lat="29.5670178" lon="103.4375921"><ele>513.93</ele><time>2026-05-23T14:06:52.000Z</time></trkpt>
        <trkpt lat="29.566998" lon="103.4375376"><ele>513.65</ele><time>2026-05-23T14:06:56.000Z</time></trkpt>
        <trkpt lat="29.5669685" lon="103.4374797"><ele>512.74</ele><time>2026-05-23T14:07:00.000Z</time></trkpt>
        <trkpt lat="29.5669194" lon="103.4374243"><ele>513.2</ele><time>2026-05-23T14:07:04.000Z</time></trkpt>
        <trkpt lat="29.566875" lon="103.437373"><ele>513.96</ele><time>2026-05-23T14:07:08.000Z</time></trkpt>
        <trkpt lat="29.5668414" lon="103.4373235"><ele>514.84</ele><time>2026-05-23T14:07:12.000Z</time></trkpt>
        <trkpt lat="29.566817" lon="103.4372683"><ele>515.96</ele><time>2026-05-23T14:07:16.000Z</time></trkpt>
        <trkpt lat="29.5667921" lon="103.4372151"><ele>517.25</ele><time>2026-05-23T14:07:20.000Z</time></trkpt>
        <trkpt lat="29.566778" lon="103.4371593"><ele>519.11</ele><time>2026-05-23T14:07:24.000Z</time></trkpt>
        <trkpt lat="29.566752" lon="103.4371121"><ele>520.43</ele><time>2026-05-23T14:07:28.000Z</time></trkpt>
        <trkpt lat="29.5667197" lon="103.4370659"><ele>521.2</ele><time>2026-05-23T14:07:32.000Z</time></trkpt>
        <trkpt lat="29.5666983" lon="103.4370148"><ele>521.86</ele><time>2026-05-23T14:07:36.000Z</time></trkpt>
        <trkpt lat="29.5666713" lon="103.4369475"><ele>522.01</ele><time>2026-05-23T14:07:40.000Z</time></trkpt>
        <trkpt lat="29.5666384" lon="103.4368893"><ele>523</ele><time>2026-05-23T14:07:44.000Z</time></trkpt>
        <trkpt lat="29.5666094" lon="103.4368375"><ele>522.74</ele><time>2026-05-23T14:07:48.000Z</time></trkpt>
        <trkpt lat="29.5665809" lon="103.4367837"><ele>521.98</ele><time>2026-05-23T14:07:52.000Z</time></trkpt>
        <trkpt lat="29.5665446" lon="103.4367286"><ele>519.93</ele><time>2026-05-23T14:07:56.000Z</time></trkpt>
        <trkpt lat="29.566511" lon="103.4366788"><ele>518.52</ele><time>2026-05-23T14:08:00.000Z</time></trkpt>
        <trkpt lat="29.5664661" lon="103.4366304"><ele>518.36</ele><time>2026-05-23T14:08:04.000Z</time></trkpt>
        <trkpt lat="29.5664354" lon="103.4365675"><ele>518.77</ele><time>2026-05-23T14:08:08.000Z</time></trkpt>
        <trkpt lat="29.5663963" lon="103.4364945"><ele>519.19</ele><time>2026-05-23T14:08:12.000Z</time></trkpt>
        <trkpt lat="29.5663642" lon="103.4364167"><ele>520.89</ele><time>2026-05-23T14:08:16.000Z</time></trkpt>
        <trkpt lat="29.5663397" lon="103.4363418"><ele>521.6</ele><time>2026-05-23T14:08:20.000Z</time></trkpt>
        <trkpt lat="29.5663098" lon="103.4362708"><ele>522.78</ele><time>2026-05-23T14:08:24.000Z</time></trkpt>
        <trkpt lat="29.5662911" lon="103.436201"><ele>524.14</ele><time>2026-05-23T14:08:28.000Z</time></trkpt>
        <trkpt lat="29.5662774" lon="103.436125"><ele>525.54</ele><time>2026-05-23T14:08:32.000Z</time></trkpt>
        <trkpt lat="29.5662683" lon="103.4360525"><ele>527.02</ele><time>2026-05-23T14:08:36.000Z</time></trkpt>
        <trkpt lat="29.5662483" lon="103.4359875"><ele>528.11</ele><time>2026-05-23T14:08:40.000Z</time></trkpt>
        <trkpt lat="29.5662342" lon="103.435922"><ele>528.33</ele><time>2026-05-23T14:08:44.000Z</time></trkpt>
        <trkpt lat="29.5662079" lon="103.4358512"><ele>528.58</ele><time>2026-05-23T14:08:48.000Z</time></trkpt>
        <trkpt lat="29.56618" lon="103.4357826"><ele>530.73</ele><time>2026-05-23T14:08:52.000Z</time></trkpt>
        <trkpt lat="29.5661544" lon="103.4357171"><ele>532.64</ele><time>2026-05-23T14:08:56.000Z</time></trkpt>
        <trkpt lat="29.56614" lon="103.4356524"><ele>534.04</ele><time>2026-05-23T14:09:00.000Z</time></trkpt>
        <trkpt lat="29.5661069" lon="103.4355899"><ele>534.17</ele><time>2026-05-23T14:09:04.000Z</time></trkpt>
        <trkpt lat="29.5660865" lon="103.4355309"><ele>535.44</ele><time>2026-05-23T14:09:08.000Z</time></trkpt>
        <trkpt lat="29.5660736" lon="103.4354746"><ele>535.03</ele><time>2026-05-23T14:09:12.000Z</time></trkpt>
        <trkpt lat="29.5660588" lon="103.435412"><ele>535.2</ele><time>2026-05-23T14:09:16.000Z</time></trkpt>
        <trkpt lat="29.5660341" lon="103.4353385"><ele>536.14</ele><time>2026-05-23T14:09:22.000Z</time></trkpt>
        <trkpt lat="29.5660145" lon="103.4352746"><ele>535.63</ele><time>2026-05-23T14:09:26.000Z</time></trkpt>
        <trkpt lat="29.5660022" lon="103.435215"><ele>535.51</ele><time>2026-05-23T14:09:32.000Z</time></trkpt>
        <trkpt lat="29.566036" lon="103.4351727"><ele>533.71</ele><time>2026-05-23T14:09:38.000Z</time></trkpt>
        <trkpt lat="29.5660889" lon="103.4351415"><ele>530.4</ele><time>2026-05-23T14:09:44.000Z</time></trkpt>
        <trkpt lat="29.5661372" lon="103.4351113"><ele>530.05</ele><time>2026-05-23T14:09:50.000Z</time></trkpt>
        <trkpt lat="29.5661673" lon="103.4350648"><ele>531.8</ele><time>2026-05-23T14:09:58.000Z</time></trkpt>
        <trkpt lat="29.566159" lon="103.4350135"><ele>534.08</ele><time>2026-05-23T14:10:04.000Z</time></trkpt>
        <trkpt lat="29.5661162" lon="103.4350104"><ele>535.97</ele><time>2026-05-23T14:10:08.000Z</time></trkpt>
        <trkpt lat="29.5660644" lon="103.4350132"><ele>536.92</ele><time>2026-05-23T14:10:14.000Z</time></trkpt>
        <trkpt lat="29.5660506" lon="103.4349786"><ele>540.39</ele><time>2026-05-23T14:10:20.000Z</time></trkpt>
        <trkpt lat="29.5660642" lon="103.4349077"><ele>541.53</ele><time>2026-05-23T14:10:32.000Z</time></trkpt>
        <trkpt lat="29.5660592" lon="103.4348478"><ele>542.95</ele><time>2026-05-23T14:10:36.000Z</time></trkpt>
        <trkpt lat="29.5660285" lon="103.434802"><ele>543.93</ele><time>2026-05-23T14:10:46.000Z</time></trkpt>
        <trkpt lat="29.5660239" lon="103.4347403"><ele>544.79</ele><time>2026-05-23T14:11:02.000Z</time></trkpt>
        <trkpt lat="29.5660499" lon="103.4346876"><ele>547.62</ele><time>2026-05-23T14:11:10.000Z</time></trkpt>
        <trkpt lat="29.5660916" lon="103.4346535"><ele>551.74</ele><time>2026-05-23T14:11:16.000Z</time></trkpt>
        <trkpt lat="29.5661147" lon="103.4346057"><ele>555.42</ele><time>2026-05-23T14:11:24.000Z</time></trkpt>
        <trkpt lat="29.5661442" lon="103.4345592"><ele>557.59</ele><time>2026-05-23T14:11:34.000Z</time></trkpt>
        <trkpt lat="29.5661702" lon="103.4345132"><ele>559.22</ele><time>2026-05-23T14:11:42.000Z</time></trkpt>
        <trkpt lat="29.5662146" lon="103.4344821"><ele>559.31</ele><time>2026-05-23T14:11:52.000Z</time></trkpt>
        <trkpt lat="29.5662617" lon="103.4344575"><ele>560.06</ele><time>2026-05-23T14:11:56.000Z</time></trkpt>
        <trkpt lat="29.5663072" lon="103.4344328"><ele>561.1</ele><time>2026-05-23T14:12:00.000Z</time></trkpt>
        <trkpt lat="29.5663251" lon="103.4343849"><ele>563.16</ele><time>2026-05-23T14:12:06.000Z</time></trkpt>
        <trkpt lat="29.5663444" lon="103.4343331"><ele>564.71</ele><time>2026-05-23T14:12:12.000Z</time></trkpt>
        <trkpt lat="29.5663707" lon="103.4342828"><ele>567.15</ele><time>2026-05-23T14:12:18.000Z</time></trkpt>
        <trkpt lat="29.5664086" lon="103.4342169"><ele>568.84</ele><time>2026-05-23T14:12:24.000Z</time></trkpt>
        <trkpt lat="29.5664549" lon="103.4341969"><ele>569</ele><time>2026-05-23T14:12:28.000Z</time></trkpt>
        <trkpt lat="29.5664727" lon="103.4341452"><ele>568.96</ele><time>2026-05-23T14:12:36.000Z</time></trkpt>
        <trkpt lat="29.5665062" lon="103.4341143"><ele>569.92</ele><time>2026-05-23T14:12:44.000Z</time></trkpt>
        <trkpt lat="29.566553" lon="103.4340931"><ele>571.16</ele><time>2026-05-23T14:12:52.000Z</time></trkpt>
        <trkpt lat="29.5666068" lon="103.434076"><ele>573.44</ele><time>2026-05-23T14:12:58.000Z</time></trkpt>
        <trkpt lat="29.5666553" lon="103.4340603"><ele>574.47</ele><time>2026-05-23T14:13:04.000Z</time></trkpt>
        <trkpt lat="29.5666964" lon="103.4340347"><ele>576.25</ele><time>2026-05-23T14:13:08.000Z</time></trkpt>
        <trkpt lat="29.5667366" lon="103.4339908"><ele>576.68</ele><time>2026-05-23T14:13:14.000Z</time></trkpt>
        <trkpt lat="29.5667904" lon="103.4339594"><ele>578.04</ele><time>2026-05-23T14:13:20.000Z</time></trkpt>
        <trkpt lat="29.5668358" lon="103.4339181"><ele>579.4</ele><time>2026-05-23T14:13:26.000Z</time></trkpt>
        <trkpt lat="29.566887" lon="103.4338894"><ele>581.06</ele><time>2026-05-23T14:13:32.000Z</time></trkpt>
        <trkpt lat="29.5669365" lon="103.4338881"><ele>582</ele><time>2026-05-23T14:13:36.000Z</time></trkpt>
        <trkpt lat="29.5669751" lon="103.4338539"><ele>583.38</ele><time>2026-05-23T14:13:40.000Z</time></trkpt>
        <trkpt lat="29.5670214" lon="103.4338463"><ele>584.33</ele><time>2026-05-23T14:13:44.000Z</time></trkpt>
        <trkpt lat="29.5670817" lon="103.4338428"><ele>584.68</ele><time>2026-05-23T14:13:50.000Z</time></trkpt>
        <trkpt lat="29.567139" lon="103.4338213"><ele>585.02</ele><time>2026-05-23T14:13:56.000Z</time></trkpt>
        <trkpt lat="29.5671933" lon="103.4337993"><ele>586.42</ele><time>2026-05-23T14:14:02.000Z</time></trkpt>
        <trkpt lat="29.5672429" lon="103.4337752"><ele>587.8</ele><time>2026-05-23T14:14:08.000Z</time></trkpt>
        <trkpt lat="29.567288" lon="103.4337536"><ele>588.62</ele><time>2026-05-23T14:14:12.000Z</time></trkpt>
        <trkpt lat="29.5673024" lon="103.433709"><ele>588.84</ele><time>2026-05-23T14:14:18.000Z</time></trkpt>
        <trkpt lat="29.5673276" lon="103.4336565"><ele>590.14</ele><time>2026-05-23T14:14:24.000Z</time></trkpt>
        <trkpt lat="29.5673709" lon="103.4336227"><ele>590.73</ele><time>2026-05-23T14:14:28.000Z</time></trkpt>
        <trkpt lat="29.567419" lon="103.433608"><ele>592.05</ele><time>2026-05-23T14:14:34.000Z</time></trkpt>
        <trkpt lat="29.5674656" lon="103.4336356"><ele>593.45</ele><time>2026-05-23T14:14:40.000Z</time></trkpt>
        <trkpt lat="29.5675031" lon="103.4336838"><ele>594.76</ele><time>2026-05-23T14:14:46.000Z</time></trkpt>
        <trkpt lat="29.5675423" lon="103.4337281"><ele>596.82</ele><time>2026-05-23T14:14:52.000Z</time></trkpt>
        <trkpt lat="29.5675898" lon="103.4337699"><ele>597.8</ele><time>2026-05-23T14:14:58.000Z</time></trkpt>
        <trkpt lat="29.567636" lon="103.4337909"><ele>597.31</ele><time>2026-05-23T14:15:02.000Z</time></trkpt>
        <trkpt lat="29.5676873" lon="103.433826"><ele>596.51</ele><time>2026-05-23T14:15:08.000Z</time></trkpt>
        <trkpt lat="29.5677221" lon="103.4338755"><ele>595.87</ele><time>2026-05-23T14:15:12.000Z</time></trkpt>
        <trkpt lat="29.5677496" lon="103.4339288"><ele>596.23</ele><time>2026-05-23T14:15:16.000Z</time></trkpt>
        <trkpt lat="29.5677777" lon="103.4339866"><ele>597.61</ele><time>2026-05-23T14:15:20.000Z</time></trkpt>
        <trkpt lat="29.5677976" lon="103.43404"><ele>598.25</ele><time>2026-05-23T14:15:24.000Z</time></trkpt>
        <trkpt lat="29.5678233" lon="103.4340865"><ele>598.54</ele><time>2026-05-23T14:15:28.000Z</time></trkpt>
        <trkpt lat="29.5678563" lon="103.434127"><ele>598.56</ele><time>2026-05-23T14:15:32.000Z</time></trkpt>
        <trkpt lat="29.5679078" lon="103.4341156"><ele>598.74</ele><time>2026-05-23T14:15:38.000Z</time></trkpt>
        <trkpt lat="29.5679596" lon="103.434071"><ele>599.23</ele><time>2026-05-23T14:15:44.000Z</time></trkpt>
        <trkpt lat="29.5680088" lon="103.4340227"><ele>598.79</ele><time>2026-05-23T14:15:50.000Z</time></trkpt>
        <trkpt lat="29.5680472" lon="103.4339758"><ele>599.25</ele><time>2026-05-23T14:15:56.000Z</time></trkpt>
        <trkpt lat="29.5680975" lon="103.4339671"><ele>599.51</ele><time>2026-05-23T14:16:02.000Z</time></trkpt>
        <trkpt lat="29.5681531" lon="103.433976"><ele>599.09</ele><time>2026-05-23T14:16:10.000Z</time></trkpt>
        <trkpt lat="29.5681985" lon="103.4340063"><ele>601.11</ele><time>2026-05-23T14:16:22.000Z</time></trkpt>
        <trkpt lat="29.5682436" lon="103.434008"><ele>604.13</ele><time>2026-05-23T14:16:30.000Z</time></trkpt>
        <trkpt lat="29.5682794" lon="103.4339697"><ele>605.78</ele><time>2026-05-23T14:16:38.000Z</time></trkpt>
        <trkpt lat="29.5683175" lon="103.4339373"><ele>605.81</ele><time>2026-05-23T14:16:46.000Z</time></trkpt>
        <trkpt lat="29.5683673" lon="103.4339024"><ele>606.64</ele><time>2026-05-23T14:16:56.000Z</time></trkpt>
        <trkpt lat="29.568399" lon="103.4338581"><ele>607.85</ele><time>2026-05-23T14:17:02.000Z</time></trkpt>
        <trkpt lat="29.5684327" lon="103.4338131"><ele>608.94</ele><time>2026-05-23T14:17:10.000Z</time></trkpt>
        <trkpt lat="29.5684748" lon="103.4337725"><ele>610</ele><time>2026-05-23T14:17:20.000Z</time></trkpt>
        <trkpt lat="29.5685151" lon="103.4337329"><ele>611.56</ele><time>2026-05-23T14:17:32.000Z</time></trkpt>
        <trkpt lat="29.5685662" lon="103.4337098"><ele>614.23</ele><time>2026-05-23T14:17:42.000Z</time></trkpt>
        <trkpt lat="29.568619" lon="103.4337027"><ele>616.71</ele><time>2026-05-23T14:17:52.000Z</time></trkpt>
        <trkpt lat="29.5686706" lon="103.4336944"><ele>619.87</ele><time>2026-05-23T14:18:04.000Z</time></trkpt>
        <trkpt lat="29.568717" lon="103.4336827"><ele>622.44</ele><time>2026-05-23T14:18:12.000Z</time></trkpt>
        <trkpt lat="29.5687605" lon="103.4336629"><ele>624.48</ele><time>2026-05-23T14:18:26.000Z</time></trkpt>
        <trkpt lat="29.5687984" lon="103.4336343"><ele>628.36</ele><time>2026-05-23T14:18:36.000Z</time></trkpt>
        <trkpt lat="29.5688297" lon="103.4335878"><ele>631.05</ele><time>2026-05-23T14:18:46.000Z</time></trkpt>
        <trkpt lat="29.568872" lon="103.4335488"><ele>632.46</ele><time>2026-05-23T14:18:58.000Z</time></trkpt>
        <trkpt lat="29.5689155" lon="103.4335197"><ele>632.83</ele><time>2026-05-23T14:19:08.000Z</time></trkpt>
        <trkpt lat="29.5689639" lon="103.4335065"><ele>633.71</ele><time>2026-05-23T14:19:18.000Z</time></trkpt>
        <trkpt lat="29.5690166" lon="103.4334929"><ele>634.99</ele><time>2026-05-23T14:19:28.000Z</time></trkpt>
        <trkpt lat="29.5690656" lon="103.4335127"><ele>636.28</ele><time>2026-05-23T14:19:40.000Z</time></trkpt>
        <trkpt lat="29.5691126" lon="103.433542"><ele>640.48</ele><time>2026-05-23T14:19:48.000Z</time></trkpt>
        <trkpt lat="29.5691629" lon="103.4335651"><ele>644.54</ele><time>2026-05-23T14:19:58.000Z</time></trkpt>
        <trkpt lat="29.569217" lon="103.4335751"><ele>648.69</ele><time>2026-05-23T14:20:08.000Z</time></trkpt>
        <trkpt lat="29.5692773" lon="103.4335822"><ele>651.38</ele><time>2026-05-23T14:20:24.000Z</time></trkpt>
        <trkpt lat="29.5693355" lon="103.4335998"><ele>653.85</ele><time>2026-05-23T14:20:30.000Z</time></trkpt>
        <trkpt lat="29.5693731" lon="103.4336459"><ele>655.17</ele><time>2026-05-23T14:20:36.000Z</time></trkpt>
        <trkpt lat="29.5694143" lon="103.4336889"><ele>657.34</ele><time>2026-05-23T14:20:44.000Z</time></trkpt>
        <trkpt lat="29.569465" lon="103.4336983"><ele>660.01</ele><time>2026-05-23T14:20:52.000Z</time></trkpt>
        <trkpt lat="29.5695208" lon="103.4336942"><ele>660.52</ele><time>2026-05-23T14:21:00.000Z</time></trkpt>
        <trkpt lat="29.5695789" lon="103.4336883"><ele>661.22</ele><time>2026-05-23T14:21:08.000Z</time></trkpt>
        <trkpt lat="29.5696273" lon="103.4336757"><ele>662.87</ele><time>2026-05-23T14:21:14.000Z</time></trkpt>
        <trkpt lat="29.5696811" lon="103.433658"><ele>665.36</ele><time>2026-05-23T14:21:22.000Z</time></trkpt>
        <trkpt lat="29.5697329" lon="103.4336498"><ele>667.42</ele><time>2026-05-23T14:21:30.000Z</time></trkpt>
        <trkpt lat="29.5697791" lon="103.4336325"><ele>669.86</ele><time>2026-05-23T14:21:36.000Z</time></trkpt>
        <trkpt lat="29.5698261" lon="103.4336007"><ele>672.29</ele><time>2026-05-23T14:21:44.000Z</time></trkpt>
        <trkpt lat="29.5698751" lon="103.4335748"><ele>675.15</ele><time>2026-05-23T14:21:52.000Z</time></trkpt>
        <trkpt lat="29.5699168" lon="103.4335456"><ele>676.86</ele><time>2026-05-23T14:22:00.000Z</time></trkpt>
        <trkpt lat="29.5699594" lon="103.4335293"><ele>678.59</ele><time>2026-05-23T14:22:06.000Z</time></trkpt>
        <trkpt lat="29.5700062" lon="103.4335119"><ele>679.02</ele><time>2026-05-23T14:22:32.000Z</time></trkpt>
        <trkpt lat="29.5700556" lon="103.4335189"><ele>680.27</ele><time>2026-05-23T14:22:38.000Z</time></trkpt>
        <trkpt lat="29.5700998" lon="103.4335081"><ele>681.13</ele><time>2026-05-23T14:22:56.000Z</time></trkpt>
        <trkpt lat="29.5701179" lon="103.4334628"><ele>682.52</ele><time>2026-05-23T14:23:10.000Z</time></trkpt>
        <trkpt lat="29.5701019" lon="103.4334119"><ele>684.81</ele><time>2026-05-23T14:23:18.000Z</time></trkpt>
        <trkpt lat="29.5701285" lon="103.433376"><ele>686.46</ele><time>2026-05-23T14:23:24.000Z</time></trkpt>
        <trkpt lat="29.5701708" lon="103.4333468"><ele>688.36</ele><time>2026-05-23T14:23:28.000Z</time></trkpt>
        <trkpt lat="29.5701959" lon="103.4332937"><ele>690.91</ele><time>2026-05-23T14:23:34.000Z</time></trkpt>
        <trkpt lat="29.5701993" lon="103.4332304"><ele>692.46</ele><time>2026-05-23T14:23:42.000Z</time></trkpt>
        <trkpt lat="29.570181" lon="103.433173"><ele>692.12</ele><time>2026-05-23T14:23:54.000Z</time></trkpt>
        <trkpt lat="29.5702093" lon="103.4331339"><ele>693.02</ele><time>2026-05-23T14:24:02.000Z</time></trkpt>
        <trkpt lat="29.5702333" lon="103.4330852"><ele>695</ele><time>2026-05-23T14:24:14.000Z</time></trkpt>
        <trkpt lat="29.5702524" lon="103.433028"><ele>697.03</ele><time>2026-05-23T14:24:24.000Z</time></trkpt>
        <trkpt lat="29.5702823" lon="103.4330441"><ele>699.09</ele><time>2026-05-23T14:24:42.000Z</time></trkpt>
        <trkpt lat="29.5703161" lon="103.4330839"><ele>700.31</ele><time>2026-05-23T14:24:46.000Z</time></trkpt>
        <trkpt lat="29.5703587" lon="103.4331293"><ele>700.85</ele><time>2026-05-23T14:24:52.000Z</time></trkpt>
        <trkpt lat="29.5703978" lon="103.4331197"><ele>700.66</ele><time>2026-05-23T14:25:00.000Z</time></trkpt>
        <trkpt lat="29.5704419" lon="103.4330984"><ele>700.7</ele><time>2026-05-23T14:25:06.000Z</time></trkpt>
        <trkpt lat="29.5704861" lon="103.4331117"><ele>700.27</ele><time>2026-05-23T14:25:10.000Z</time></trkpt>
        <trkpt lat="29.570502" lon="103.4330768"><ele>702.02</ele><time>2026-05-23T14:25:20.000Z</time></trkpt>
        <trkpt lat="29.570538" lon="103.4330458"><ele>704.26</ele><time>2026-05-23T14:25:28.000Z</time></trkpt>
        <trkpt lat="29.5705822" lon="103.433022"><ele>707.15</ele><time>2026-05-23T14:25:34.000Z</time></trkpt>
        <trkpt lat="29.5706158" lon="103.4329823"><ele>710.08</ele><time>2026-05-23T14:25:42.000Z</time></trkpt>
        <trkpt lat="29.5706233" lon="103.4329218"><ele>712.03</ele><time>2026-05-23T14:25:48.000Z</time></trkpt>
        <trkpt lat="29.5706305" lon="103.4328502"><ele>713.41</ele><time>2026-05-23T14:25:56.000Z</time></trkpt>
        <trkpt lat="29.5706397" lon="103.4327856"><ele>714.24</ele><time>2026-05-23T14:26:04.000Z</time></trkpt>
        <trkpt lat="29.5706465" lon="103.4327219"><ele>715.18</ele><time>2026-05-23T14:26:10.000Z</time></trkpt>
        <trkpt lat="29.5706671" lon="103.4326585"><ele>715.54</ele><time>2026-05-23T14:26:16.000Z</time></trkpt>
        <trkpt lat="29.5707028" lon="103.4325981"><ele>716.72</ele><time>2026-05-23T14:26:22.000Z</time></trkpt>
        <trkpt lat="29.5707247" lon="103.4325405"><ele>718.13</ele><time>2026-05-23T14:26:28.000Z</time></trkpt>
        <trkpt lat="29.5707376" lon="103.4324738"><ele>719.2</ele><time>2026-05-23T14:26:34.000Z</time></trkpt>
        <trkpt lat="29.5707784" lon="103.4324234"><ele>720.19</ele><time>2026-05-23T14:26:40.000Z</time></trkpt>
        <trkpt lat="29.5708167" lon="103.4323718"><ele>721.02</ele><time>2026-05-23T14:26:48.000Z</time></trkpt>
        <trkpt lat="29.5708414" lon="103.4323136"><ele>722.44</ele><time>2026-05-23T14:26:56.000Z</time></trkpt>
        <trkpt lat="29.5708338" lon="103.4322585"><ele>723.95</ele><time>2026-05-23T14:27:04.000Z</time></trkpt>
        <trkpt lat="29.5708274" lon="103.4321816"><ele>725.69</ele><time>2026-05-23T14:27:14.000Z</time></trkpt>
        <trkpt lat="29.5708292" lon="103.43215"><ele>727.37</ele><time>2026-05-23T14:27:22.000Z</time></trkpt>
        <trkpt lat="29.5708232" lon="103.432106"><ele>730.04</ele><time>2026-05-23T14:27:36.000Z</time></trkpt>
        <trkpt lat="29.57082" lon="103.4320545"><ele>732.15</ele><time>2026-05-23T14:27:48.000Z</time></trkpt>
        <trkpt lat="29.5708059" lon="103.4319998"><ele>732.8</ele><time>2026-05-23T14:27:56.000Z</time></trkpt>
        <trkpt lat="29.5708057" lon="103.4319448"><ele>734.42</ele><time>2026-05-23T14:28:06.000Z</time></trkpt>
        <trkpt lat="29.5707889" lon="103.4318962"><ele>734.8</ele><time>2026-05-23T14:28:14.000Z</time></trkpt>
        <trkpt lat="29.5707915" lon="103.4318446"><ele>736.5</ele><time>2026-05-23T14:28:22.000Z</time></trkpt>
        <trkpt lat="29.5708019" lon="103.4317925"><ele>737.6</ele><time>2026-05-23T14:28:32.000Z</time></trkpt>
        <trkpt lat="29.570811" lon="103.4317407"><ele>739.36</ele><time>2026-05-23T14:28:46.000Z</time></trkpt>
        <trkpt lat="29.5708458" lon="103.4317015"><ele>741</ele><time>2026-05-23T14:28:54.000Z</time></trkpt>
        <trkpt lat="29.5708723" lon="103.4316572"><ele>743.6</ele><time>2026-05-23T14:29:02.000Z</time></trkpt>
        <trkpt lat="29.5709014" lon="103.4316136"><ele>745.29</ele><time>2026-05-23T14:29:18.000Z</time></trkpt>
        <trkpt lat="29.5708886" lon="103.4315617"><ele>747.57</ele><time>2026-05-23T14:29:26.000Z</time></trkpt>
        <trkpt lat="29.5708504" lon="103.4315193"><ele>750.1</ele><time>2026-05-23T14:29:40.000Z</time></trkpt>
        <trkpt lat="29.570839" lon="103.4314669"><ele>751.77</ele><time>2026-05-23T14:29:54.000Z</time></trkpt>
        <trkpt lat="29.5708293" lon="103.4314069"><ele>754.57</ele><time>2026-05-23T14:30:04.000Z</time></trkpt>
        <trkpt lat="29.5708337" lon="103.4313487"><ele>758.06</ele><time>2026-05-23T14:30:12.000Z</time></trkpt>
        <trkpt lat="29.570874" lon="103.431329"><ele>760.71</ele><time>2026-05-23T14:30:18.000Z</time></trkpt>
        <trkpt lat="29.57093" lon="103.4313096"><ele>762.43</ele><time>2026-05-23T14:30:26.000Z</time></trkpt>
        <trkpt lat="29.5709844" lon="103.4312912"><ele>764.18</ele><time>2026-05-23T14:30:36.000Z</time></trkpt>
        <trkpt lat="29.5709844" lon="103.4312912"><ele>764.18</ele><time>2026-05-23T14:31:07.000Z</time></trkpt>
        <trkpt lat="29.5710402" lon="103.4312878"><ele>766.27</ele><time>2026-05-23T14:31:12.000Z</time></trkpt>
        <trkpt lat="29.5710402" lon="103.4312878"><ele>766.27</ele><time>2026-05-23T14:31:15.000Z</time></trkpt>
        <trkpt lat="29.5710402" lon="103.4312878"><ele>766.27</ele><time>2026-05-23T14:31:25.000Z</time></trkpt>
        <trkpt lat="29.5710037" lon="103.4313221"><ele>767.29</ele><time>2026-05-23T14:31:48.000Z</time></trkpt>
        <trkpt lat="29.5710037" lon="103.4313221"><ele>767.29</ele><time>2026-05-23T14:32:19.000Z</time></trkpt>
        <trkpt lat="29.5710037" lon="103.4313221"><ele>767.29</ele><time>2026-05-23T14:32:27.000Z</time></trkpt>
        <trkpt lat="29.5710302" lon="103.4312698"><ele>769.61</ele><time>2026-05-23T14:32:40.000Z</time></trkpt>
        <trkpt lat="29.5710302" lon="103.4312698"><ele>769.61</ele><time>2026-05-23T14:33:19.000Z</time></trkpt>
        <trkpt lat="29.5710584" lon="103.4312115"><ele>769.15</ele><time>2026-05-23T14:33:25.000Z</time></trkpt>
        <trkpt lat="29.5711001" lon="103.4311625"><ele>769.92</ele><time>2026-05-23T14:33:31.000Z</time></trkpt>
        <trkpt lat="29.5711053" lon="103.4311007"><ele>771.73</ele><time>2026-05-23T14:33:35.000Z</time></trkpt>
        <trkpt lat="29.5710686" lon="103.4310434"><ele>771.58</ele><time>2026-05-23T14:33:39.000Z</time></trkpt>
        <trkpt lat="29.5710349" lon="103.4309962"><ele>772</ele><time>2026-05-23T14:33:45.000Z</time></trkpt>
        <trkpt lat="29.571049" lon="103.4309526"><ele>772.82</ele><time>2026-05-23T14:33:53.000Z</time></trkpt>
        <trkpt lat="29.5710469" lon="103.4309007"><ele>773.82</ele><time>2026-05-23T14:34:11.000Z</time></trkpt>
        <trkpt lat="29.5710449" lon="103.4308461"><ele>775.78</ele><time>2026-05-23T14:34:35.000Z</time></trkpt>
        <trkpt lat="29.5710561" lon="103.4307895"><ele>777.97</ele><time>2026-05-23T14:34:47.000Z</time></trkpt>
        <trkpt lat="29.571099" lon="103.4307572"><ele>780.47</ele><time>2026-05-23T14:34:55.000Z</time></trkpt>
        <trkpt lat="29.5711442" lon="103.4307323"><ele>784.01</ele><time>2026-05-23T14:35:11.000Z</time></trkpt>
        <trkpt lat="29.5711492" lon="103.4306892"><ele>786.87</ele><time>2026-05-23T14:35:19.000Z</time></trkpt>
        <trkpt lat="29.5711495" lon="103.4306297"><ele>789.96</ele><time>2026-05-23T14:35:39.000Z</time></trkpt>
        <trkpt lat="29.5711178" lon="103.4305849"><ele>793.29</ele><time>2026-05-23T14:35:59.000Z</time></trkpt>
        <trkpt lat="29.5710793" lon="103.4305406"><ele>796.82</ele><time>2026-05-23T14:36:07.000Z</time></trkpt>
        <trkpt lat="29.5711052" lon="103.4305302"><ele>799.36</ele><time>2026-05-23T14:36:17.000Z</time></trkpt>
        <trkpt lat="29.5711493" lon="103.4305104"><ele>801.35</ele><time>2026-05-23T14:36:27.000Z</time></trkpt>
        <trkpt lat="29.5711986" lon="103.4304995"><ele>803.44</ele><time>2026-05-23T14:36:47.000Z</time></trkpt>
        <trkpt lat="29.571208" lon="103.4304539"><ele>805.71</ele><time>2026-05-23T14:36:59.000Z</time></trkpt>
        <trkpt lat="29.571181" lon="103.4304136"><ele>807.09</ele><time>2026-05-23T14:37:19.000Z</time></trkpt>
        <trkpt lat="29.5711491" lon="103.4303637"><ele>810.86</ele><time>2026-05-23T14:37:29.000Z</time></trkpt>
        <trkpt lat="29.5711326" lon="103.4303027"><ele>812.84</ele><time>2026-05-23T14:37:45.000Z</time></trkpt>
        <trkpt lat="29.5711079" lon="103.4302508"><ele>814.79</ele><time>2026-05-23T14:38:01.000Z</time></trkpt>
        <trkpt lat="29.5710691" lon="103.4302142"><ele>815.38</ele><time>2026-05-23T14:38:25.000Z</time></trkpt>
        <trkpt lat="29.5710319" lon="103.4301798"><ele>818.58</ele><time>2026-05-23T14:38:39.000Z</time></trkpt>
        <trkpt lat="29.5710149" lon="103.4301257"><ele>822.48</ele><time>2026-05-23T14:38:51.000Z</time></trkpt>
        <trkpt lat="29.5710476" lon="103.4300901"><ele>825.77</ele><time>2026-05-23T14:39:03.000Z</time></trkpt>
        <trkpt lat="29.5710476" lon="103.4300901"><ele>825.77</ele><time>2026-05-23T14:39:11.000Z</time></trkpt>
        <trkpt lat="29.5710516" lon="103.4300427"><ele>829.25</ele><time>2026-05-23T14:39:12.000Z</time></trkpt>
        <trkpt lat="29.5710516" lon="103.4300427"><ele>829.25</ele><time>2026-05-23T14:39:18.000Z</time></trkpt>
        <trkpt lat="29.5710747" lon="103.4300605"><ele>838.13</ele><time>2026-05-23T14:39:26.000Z</time></trkpt>
        <trkpt lat="29.5711173" lon="103.4300684"><ele>839.69</ele><time>2026-05-23T14:39:34.000Z</time></trkpt>
        <trkpt lat="29.5711603" lon="103.4300493"><ele>840.02</ele><time>2026-05-23T14:39:48.000Z</time></trkpt>
        <trkpt lat="29.571181" lon="103.4300008"><ele>840.96</ele><time>2026-05-23T14:40:02.000Z</time></trkpt>
        <trkpt lat="29.5712158" lon="103.4299647"><ele>842.06</ele><time>2026-05-23T14:40:08.000Z</time></trkpt>
        <trkpt lat="29.5712291" lon="103.429916"><ele>843.96</ele><time>2026-05-23T14:40:18.000Z</time></trkpt>
        <trkpt lat="29.5712565" lon="103.4298729"><ele>845.44</ele><time>2026-05-23T14:40:28.000Z</time></trkpt>
        <trkpt lat="29.5712973" lon="103.4298489"><ele>848</ele><time>2026-05-23T14:40:46.000Z</time></trkpt>
        <trkpt lat="29.5713382" lon="103.4298187"><ele>850.63</ele><time>2026-05-23T14:41:00.000Z</time></trkpt>
        <trkpt lat="29.5713748" lon="103.4297787"><ele>852.22</ele><time>2026-05-23T14:41:10.000Z</time></trkpt>
        <trkpt lat="29.5714181" lon="103.4297533"><ele>853.42</ele><time>2026-05-23T14:41:32.000Z</time></trkpt>
        <trkpt lat="29.5714642" lon="103.4297415"><ele>857.39</ele><time>2026-05-23T14:41:50.000Z</time></trkpt>
        <trkpt lat="29.5714987" lon="103.4296919"><ele>860.5</ele><time>2026-05-23T14:42:06.000Z</time></trkpt>
        <trkpt lat="29.5715151" lon="103.4296225"><ele>863.8</ele><time>2026-05-23T14:42:14.000Z</time></trkpt>
        <trkpt lat="29.5715301" lon="103.4295656"><ele>865.36</ele><time>2026-05-23T14:42:18.000Z</time></trkpt>
        <trkpt lat="29.5715639" lon="103.429523"><ele>866.11</ele><time>2026-05-23T14:42:26.000Z</time></trkpt>
        <trkpt lat="29.5715698" lon="103.4294734"><ele>867.47</ele><time>2026-05-23T14:42:36.000Z</time></trkpt>
        <trkpt lat="29.5715778" lon="103.4294223"><ele>870.02</ele><time>2026-05-23T14:42:44.000Z</time></trkpt>
        <trkpt lat="29.5715845" lon="103.4293631"><ele>871.53</ele><time>2026-05-23T14:42:50.000Z</time></trkpt>
        <trkpt lat="29.5715749" lon="103.4292997"><ele>873.53</ele><time>2026-05-23T14:42:56.000Z</time></trkpt>
        <trkpt lat="29.5715599" lon="103.4292793"><ele>873.81</ele><time>2026-05-23T14:43:00.000Z</time></trkpt>
        <trkpt lat="29.5715497" lon="103.42923"><ele>873.26</ele><time>2026-05-23T14:43:10.000Z</time></trkpt>
        <trkpt lat="29.5715589" lon="103.4291782"><ele>874.64</ele><time>2026-05-23T14:43:16.000Z</time></trkpt>
        <trkpt lat="29.571586" lon="103.4291266"><ele>875.66</ele><time>2026-05-23T14:43:22.000Z</time></trkpt>
        <trkpt lat="29.5716257" lon="103.4290755"><ele>877.47</ele><time>2026-05-23T14:43:28.000Z</time></trkpt>
        <trkpt lat="29.5716525" lon="103.4290163"><ele>879.72</ele><time>2026-05-23T14:43:36.000Z</time></trkpt>
        <trkpt lat="29.5716724" lon="103.4289621"><ele>881.41</ele><time>2026-05-23T14:43:44.000Z</time></trkpt>
        <trkpt lat="29.5716985" lon="103.4289176"><ele>883.54</ele><time>2026-05-23T14:43:52.000Z</time></trkpt>
        <trkpt lat="29.571709" lon="103.4288654"><ele>884.85</ele><time>2026-05-23T14:44:02.000Z</time></trkpt>
        <trkpt lat="29.5717408" lon="103.4288274"><ele>886.86</ele><time>2026-05-23T14:44:10.000Z</time></trkpt>
        <trkpt lat="29.5717802" lon="103.4287826"><ele>887.44</ele><time>2026-05-23T14:44:16.000Z</time></trkpt>
        <trkpt lat="29.5718272" lon="103.4287564"><ele>887.83</ele><time>2026-05-23T14:44:20.000Z</time></trkpt>
        <trkpt lat="29.5718865" lon="103.4287294"><ele>888.32</ele><time>2026-05-23T14:44:26.000Z</time></trkpt>
        <trkpt lat="29.5719351" lon="103.4286912"><ele>889.04</ele><time>2026-05-23T14:44:32.000Z</time></trkpt>
        <trkpt lat="29.5719688" lon="103.4286452"><ele>889.89</ele><time>2026-05-23T14:44:38.000Z</time></trkpt>
        <trkpt lat="29.5719593" lon="103.4285972"><ele>891.46</ele><time>2026-05-23T14:44:44.000Z</time></trkpt>
        <trkpt lat="29.5719289" lon="103.4285418"><ele>893.03</ele><time>2026-05-23T14:44:50.000Z</time></trkpt>
        <trkpt lat="29.5719261" lon="103.4284818"><ele>894.06</ele><time>2026-05-23T14:45:00.000Z</time></trkpt>
        <trkpt lat="29.5719212" lon="103.4284208"><ele>896.74</ele><time>2026-05-23T14:45:06.000Z</time></trkpt>
        <trkpt lat="29.5718911" lon="103.4283763"><ele>897.67</ele><time>2026-05-23T14:45:12.000Z</time></trkpt>
        <trkpt lat="29.5718804" lon="103.4283213"><ele>897.79</ele><time>2026-05-23T14:45:20.000Z</time></trkpt>
        <trkpt lat="29.571849" lon="103.4282875"><ele>898.29</ele><time>2026-05-23T14:45:26.000Z</time></trkpt>
        <trkpt lat="29.571822" lon="103.4282449"><ele>897.86</ele><time>2026-05-23T14:45:38.000Z</time></trkpt>
        <trkpt lat="29.5717845" lon="103.4282101"><ele>898.03</ele><time>2026-05-23T14:45:46.000Z</time></trkpt>
        <trkpt lat="29.571757" lon="103.4281574"><ele>898.97</ele><time>2026-05-23T14:45:56.000Z</time></trkpt>
        <trkpt lat="29.5717218" lon="103.4281064"><ele>899.71</ele><time>2026-05-23T14:46:02.000Z</time></trkpt>
        <trkpt lat="29.5716797" lon="103.4280712"><ele>900.78</ele><time>2026-05-23T14:46:08.000Z</time></trkpt>
        <trkpt lat="29.5716421" lon="103.4280276"><ele>902.33</ele><time>2026-05-23T14:46:16.000Z</time></trkpt>
        <trkpt lat="29.5716497" lon="103.4279798"><ele>905.19</ele><time>2026-05-23T14:46:24.000Z</time></trkpt>
        <trkpt lat="29.5716816" lon="103.4279343"><ele>907.17</ele><time>2026-05-23T14:46:32.000Z</time></trkpt>
        <trkpt lat="29.5716916" lon="103.4278829"><ele>907.9</ele><time>2026-05-23T14:46:42.000Z</time></trkpt>
        <trkpt lat="29.5717037" lon="103.4278244"><ele>907.67</ele><time>2026-05-23T14:46:50.000Z</time></trkpt>
        <trkpt lat="29.5717331" lon="103.4277646"><ele>907.06</ele><time>2026-05-23T14:46:56.000Z</time></trkpt>
        <trkpt lat="29.5717801" lon="103.4277129"><ele>905.94</ele><time>2026-05-23T14:47:02.000Z</time></trkpt>
        <trkpt lat="29.5718234" lon="103.4276693"><ele>903.25</ele><time>2026-05-23T14:47:06.000Z</time></trkpt>
        <trkpt lat="29.5718643" lon="103.4276088"><ele>901.45</ele><time>2026-05-23T14:47:11.000Z</time></trkpt>
        <trkpt lat="29.5718947" lon="103.4275559"><ele>901.96</ele><time>2026-05-23T14:47:15.000Z</time></trkpt>
        <trkpt lat="29.5719227" lon="103.4275109"><ele>900.81</ele><time>2026-05-23T14:47:19.000Z</time></trkpt>
        <trkpt lat="29.5719509" lon="103.427466"><ele>899.81</ele><time>2026-05-23T14:47:23.000Z</time></trkpt>
        <trkpt lat="29.5719751" lon="103.4274073"><ele>898.95</ele><time>2026-05-23T14:47:27.000Z</time></trkpt>
        <trkpt lat="29.5719893" lon="103.4273464"><ele>899.56</ele><time>2026-05-23T14:47:31.000Z</time></trkpt>
        <trkpt lat="29.5719921" lon="103.4272792"><ele>900.18</ele><time>2026-05-23T14:47:35.000Z</time></trkpt>
        <trkpt lat="29.5719718" lon="103.4272158"><ele>900.52</ele><time>2026-05-23T14:47:39.000Z</time></trkpt>
        <trkpt lat="29.5719285" lon="103.4271697"><ele>900.79</ele><time>2026-05-23T14:47:43.000Z</time></trkpt>
        <trkpt lat="29.5718917" lon="103.4270996"><ele>899.8</ele><time>2026-05-23T14:47:47.000Z</time></trkpt>
        <trkpt lat="29.5718741" lon="103.4270375"><ele>899.91</ele><time>2026-05-23T14:47:49.000Z</time></trkpt>
        <trkpt lat="29.5718769" lon="103.4269715"><ele>900.76</ele><time>2026-05-23T14:47:51.000Z</time></trkpt>
        <trkpt lat="29.5719036" lon="103.4269087"><ele>900.79</ele><time>2026-05-23T14:47:55.000Z</time></trkpt>
        <trkpt lat="29.5719355" lon="103.4268506"><ele>901.23</ele><time>2026-05-23T14:47:59.000Z</time></trkpt>
        <trkpt lat="29.5719959" lon="103.4267894"><ele>901.71</ele><time>2026-05-23T14:48:03.000Z</time></trkpt>
        <trkpt lat="29.5720484" lon="103.4267382"><ele>902.84</ele><time>2026-05-23T14:48:07.000Z</time></trkpt>
        <trkpt lat="29.5720906" lon="103.4266889"><ele>903.32</ele><time>2026-05-23T14:48:11.000Z</time></trkpt>
        <trkpt lat="29.5721486" lon="103.4266438"><ele>903.61</ele><time>2026-05-23T14:48:15.000Z</time></trkpt>
        <trkpt lat="29.5721991" lon="103.4265984"><ele>904.27</ele><time>2026-05-23T14:48:19.000Z</time></trkpt>
        <trkpt lat="29.5722391" lon="103.4265352"><ele>904.42</ele><time>2026-05-23T14:48:23.000Z</time></trkpt>
        <trkpt lat="29.5722699" lon="103.4264882"><ele>904.59</ele><time>2026-05-23T14:48:25.000Z</time></trkpt>
        <trkpt lat="29.5723093" lon="103.4264383"><ele>905.13</ele><time>2026-05-23T14:48:29.000Z</time></trkpt>
        <trkpt lat="29.572356" lon="103.4263867"><ele>905.31</ele><time>2026-05-23T14:48:33.000Z</time></trkpt>
        <trkpt lat="29.5723885" lon="103.4263333"><ele>905.49</ele><time>2026-05-23T14:48:37.000Z</time></trkpt>
        <trkpt lat="29.5723957" lon="103.4262633"><ele>904.3</ele><time>2026-05-23T14:48:41.000Z</time></trkpt>
        <trkpt lat="29.5723961" lon="103.4261931"><ele>903.87</ele><time>2026-05-23T14:48:45.000Z</time></trkpt>
        <trkpt lat="29.5723837" lon="103.4261246"><ele>903.58</ele><time>2026-05-23T14:48:49.000Z</time></trkpt>
        <trkpt lat="29.5723511" lon="103.4260723"><ele>903.54</ele><time>2026-05-23T14:48:55.000Z</time></trkpt>
        <trkpt lat="29.5723433" lon="103.4260188"><ele>903.5</ele><time>2026-05-23T14:48:59.000Z</time></trkpt>
        <trkpt lat="29.572362" lon="103.4259547"><ele>902.79</ele><time>2026-05-23T14:49:03.000Z</time></trkpt>
        <trkpt lat="29.5723511" lon="103.4259046"><ele>901.89</ele><time>2026-05-23T14:49:09.000Z</time></trkpt>
        <trkpt lat="29.5723459" lon="103.425896"><ele>899.01</ele><time>2026-05-23T14:49:11.000Z</time></trkpt>
        <trkpt lat="29.5723622" lon="103.4258573"><ele>897.03</ele><time>2026-05-23T14:49:15.000Z</time></trkpt>
        <trkpt lat="29.5724084" lon="103.425813"><ele>895.32</ele><time>2026-05-23T14:49:19.000Z</time></trkpt>
        <trkpt lat="29.5724643" lon="103.4257645"><ele>893.95</ele><time>2026-05-23T14:49:23.000Z</time></trkpt>
        <trkpt lat="29.5725073" lon="103.4256959"><ele>891.68</ele><time>2026-05-23T14:49:27.000Z</time></trkpt>
        <trkpt lat="29.5724686" lon="103.4256365"><ele>890.97</ele><time>2026-05-23T14:49:31.000Z</time></trkpt>
        <trkpt lat="29.5724503" lon="103.4255724"><ele>890.55</ele><time>2026-05-23T14:49:35.000Z</time></trkpt>
        <trkpt lat="29.5724294" lon="103.4255115"><ele>890.85</ele><time>2026-05-23T14:49:39.000Z</time></trkpt>
        <trkpt lat="29.5724123" lon="103.4254552"><ele>891.58</ele><time>2026-05-23T14:49:43.000Z</time></trkpt>
        <trkpt lat="29.5724062" lon="103.4253908"><ele>891.9</ele><time>2026-05-23T14:49:47.000Z</time></trkpt>
        <trkpt lat="29.5724156" lon="103.4253198"><ele>890.83</ele><time>2026-05-23T14:49:51.000Z</time></trkpt>
        <trkpt lat="29.5724479" lon="103.4252639"><ele>889.83</ele><time>2026-05-23T14:49:55.000Z</time></trkpt>
        <trkpt lat="29.5724552" lon="103.4251997"><ele>890.03</ele><time>2026-05-23T14:49:59.000Z</time></trkpt>
        <trkpt lat="29.5724803" lon="103.4251348"><ele>889.81</ele><time>2026-05-23T14:50:05.000Z</time></trkpt>
        <trkpt lat="29.5725193" lon="103.4250918"><ele>889.2</ele><time>2026-05-23T14:50:11.000Z</time></trkpt>
        <trkpt lat="29.5725338" lon="103.4250391"><ele>889.28</ele><time>2026-05-23T14:50:17.000Z</time></trkpt>
        <trkpt lat="29.5725153" lon="103.4249944"><ele>888.49</ele><time>2026-05-23T14:50:25.000Z</time></trkpt>
        <trkpt lat="29.5725117" lon="103.4249338"><ele>885.83</ele><time>2026-05-23T14:50:31.000Z</time></trkpt>
        <trkpt lat="29.5725229" lon="103.4248747"><ele>883.66</ele><time>2026-05-23T14:50:39.000Z</time></trkpt>
        <trkpt lat="29.57254" lon="103.4248227"><ele>881.64</ele><time>2026-05-23T14:50:45.000Z</time></trkpt>
        <trkpt lat="29.5725711" lon="103.4247729"><ele>879.21</ele><time>2026-05-23T14:50:51.000Z</time></trkpt>
        <trkpt lat="29.5725634" lon="103.4247219"><ele>877.08</ele><time>2026-05-23T14:50:55.000Z</time></trkpt>
        <trkpt lat="29.5725533" lon="103.4246671"><ele>875.79</ele><time>2026-05-23T14:50:59.000Z</time></trkpt>
        <trkpt lat="29.5725385" lon="103.4245975"><ele>875.15</ele><time>2026-05-23T14:51:05.000Z</time></trkpt>
        <trkpt lat="29.572533" lon="103.4245325"><ele>873.89</ele><time>2026-05-23T14:51:09.000Z</time></trkpt>
        <trkpt lat="29.5725418" lon="103.4244709"><ele>871.81</ele><time>2026-05-23T14:51:13.000Z</time></trkpt>
        <trkpt lat="29.5725533" lon="103.4244099"><ele>870.32</ele><time>2026-05-23T14:51:17.000Z</time></trkpt>
        <trkpt lat="29.5725868" lon="103.4243528"><ele>868.67</ele><time>2026-05-23T14:51:21.000Z</time></trkpt>
        <trkpt lat="29.5726185" lon="103.4242849"><ele>867.54</ele><time>2026-05-23T14:51:25.000Z</time></trkpt>
        <trkpt lat="29.5726431" lon="103.4242091"><ele>865.1</ele><time>2026-05-23T14:51:27.000Z</time></trkpt>
        <trkpt lat="29.5726727" lon="103.4241392"><ele>863.99</ele><time>2026-05-23T14:51:29.000Z</time></trkpt>
        <trkpt lat="29.5727116" lon="103.4240737"><ele>863.87</ele><time>2026-05-23T14:51:31.000Z</time></trkpt>
        <trkpt lat="29.5727384" lon="103.4240136"><ele>864</ele><time>2026-05-23T14:51:33.000Z</time></trkpt>
        <trkpt lat="29.5727478" lon="103.4239315"><ele>863.8</ele><time>2026-05-23T14:51:37.000Z</time></trkpt>
        <trkpt lat="29.5727637" lon="103.4238629"><ele>862.55</ele><time>2026-05-23T14:51:41.000Z</time></trkpt>
        <trkpt lat="29.5727795" lon="103.4238007"><ele>863.55</ele><time>2026-05-23T14:51:45.000Z</time></trkpt>
        <trkpt lat="29.5727725" lon="103.4237346"><ele>864.24</ele><time>2026-05-23T14:51:53.000Z</time></trkpt>
        <trkpt lat="29.5727519" lon="103.4236743"><ele>865.03</ele><time>2026-05-23T14:51:57.000Z</time></trkpt>
        <trkpt lat="29.5727306" lon="103.4236045"><ele>865.94</ele><time>2026-05-23T14:52:01.000Z</time></trkpt>
        <trkpt lat="29.5727052" lon="103.4235449"><ele>866.81</ele><time>2026-05-23T14:52:05.000Z</time></trkpt>
        <trkpt lat="29.5726649" lon="103.4235136"><ele>867.23</ele><time>2026-05-23T14:52:09.000Z</time></trkpt>
        <trkpt lat="29.5726208" lon="103.4234836"><ele>867.71</ele><time>2026-05-23T14:52:13.000Z</time></trkpt>
        <trkpt lat="29.5725781" lon="103.4234498"><ele>867.56</ele><time>2026-05-23T14:52:17.000Z</time></trkpt>
        <trkpt lat="29.5725331" lon="103.4234068"><ele>869.02</ele><time>2026-05-23T14:52:21.000Z</time></trkpt>
        <trkpt lat="29.5724855" lon="103.4234042"><ele>869.44</ele><time>2026-05-23T14:52:23.000Z</time></trkpt>
        <trkpt lat="29.5724425" lon="103.4233908"><ele>870.02</ele><time>2026-05-23T14:52:29.000Z</time></trkpt>
        <trkpt lat="29.572393" lon="103.4233628"><ele>872.64</ele><time>2026-05-23T14:52:35.000Z</time></trkpt>
        <trkpt lat="29.57234" lon="103.423346"><ele>874.85</ele><time>2026-05-23T14:52:39.000Z</time></trkpt>
        <trkpt lat="29.5723403" lon="103.4233523"><ele>875.79</ele><time>2026-05-23T14:52:41.000Z</time></trkpt>
        <trkpt lat="29.5722959" lon="103.4233438"><ele>876.58</ele><time>2026-05-23T14:52:47.000Z</time></trkpt>
        <trkpt lat="29.5722475" lon="103.4233333"><ele>878.18</ele><time>2026-05-23T14:52:51.000Z</time></trkpt>
        <trkpt lat="29.5721991" lon="103.4233207"><ele>880.23</ele><time>2026-05-23T14:52:55.000Z</time></trkpt>
        <trkpt lat="29.5721512" lon="103.4233108"><ele>881.1</ele><time>2026-05-23T14:53:01.000Z</time></trkpt>
        <trkpt lat="29.5721164" lon="103.4232864"><ele>883.26</ele><time>2026-05-23T14:53:09.000Z</time></trkpt>
        <trkpt lat="29.5720655" lon="103.423243"><ele>883.76</ele><time>2026-05-23T14:53:17.000Z</time></trkpt>
        <trkpt lat="29.5720114" lon="103.4231956"><ele>884.52</ele><time>2026-05-23T14:53:23.000Z</time></trkpt>
        <trkpt lat="29.5719547" lon="103.42315"><ele>884.44</ele><time>2026-05-23T14:53:29.000Z</time></trkpt>
        <trkpt lat="29.5719094" lon="103.4231134"><ele>884.34</ele><time>2026-05-23T14:53:33.000Z</time></trkpt>
        <trkpt lat="29.5718664" lon="103.423084"><ele>883.83</ele><time>2026-05-23T14:53:37.000Z</time></trkpt>
        <trkpt lat="29.571823" lon="103.4230585"><ele>883.6</ele><time>2026-05-23T14:53:41.000Z</time></trkpt>
        <trkpt lat="29.5717805" lon="103.4230292"><ele>883.94</ele><time>2026-05-23T14:53:45.000Z</time></trkpt>
        <trkpt lat="29.5717366" lon="103.4230026"><ele>884.32</ele><time>2026-05-23T14:53:49.000Z</time></trkpt>
        <trkpt lat="29.5716915" lon="103.4229811"><ele>884.86</ele><time>2026-05-23T14:53:53.000Z</time></trkpt>
        <trkpt lat="29.5716512" lon="103.4229542"><ele>885.27</ele><time>2026-05-23T14:53:57.000Z</time></trkpt>
        <trkpt lat="29.5716055" lon="103.4229147"><ele>884.98</ele><time>2026-05-23T14:54:01.000Z</time></trkpt>
        <trkpt lat="29.5715508" lon="103.422882"><ele>883.89</ele><time>2026-05-23T14:54:05.000Z</time></trkpt>
        <trkpt lat="29.5714922" lon="103.4228329"><ele>883.17</ele><time>2026-05-23T14:54:09.000Z</time></trkpt>
        <trkpt lat="29.5714378" lon="103.4227907"><ele>881.31</ele><time>2026-05-23T14:54:13.000Z</time></trkpt>
        <trkpt lat="29.571398" lon="103.4227515"><ele>881.23</ele><time>2026-05-23T14:54:17.000Z</time></trkpt>
        <trkpt lat="29.5713539" lon="103.4227214"><ele>881.71</ele><time>2026-05-23T14:54:21.000Z</time></trkpt>
        <trkpt lat="29.5713039" lon="103.4226923"><ele>881.74</ele><time>2026-05-23T14:54:25.000Z</time></trkpt>
        <trkpt lat="29.5712608" lon="103.4226647"><ele>882.83</ele><time>2026-05-23T14:54:29.000Z</time></trkpt>
        <trkpt lat="29.5712222" lon="103.4226347"><ele>883.69</ele><time>2026-05-23T14:54:33.000Z</time></trkpt>
        <trkpt lat="29.5711783" lon="103.4225845"><ele>884.16</ele><time>2026-05-23T14:54:37.000Z</time></trkpt>
        <trkpt lat="29.5711174" lon="103.4225365"><ele>884.18</ele><time>2026-05-23T14:54:41.000Z</time></trkpt>
        <trkpt lat="29.5710604" lon="103.4224856"><ele>882.85</ele><time>2026-05-23T14:54:45.000Z</time></trkpt>
        <trkpt lat="29.5710339" lon="103.4224207"><ele>882.41</ele><time>2026-05-23T14:54:49.000Z</time></trkpt>
        <trkpt lat="29.5710192" lon="103.4223491"><ele>882.59</ele><time>2026-05-23T14:54:53.000Z</time></trkpt>
        <trkpt lat="29.5710112" lon="103.4222737"><ele>882.88</ele><time>2026-05-23T14:54:57.000Z</time></trkpt>
        <trkpt lat="29.571001" lon="103.4222136"><ele>883.5</ele><time>2026-05-23T14:54:59.000Z</time></trkpt>
        <trkpt lat="29.570991" lon="103.4221306"><ele>884.94</ele><time>2026-05-23T14:55:03.000Z</time></trkpt>
        <trkpt lat="29.5709662" lon="103.422078"><ele>885.54</ele><time>2026-05-23T14:55:05.000Z</time></trkpt>
        <trkpt lat="29.5709318" lon="103.4220198"><ele>885.72</ele><time>2026-05-23T14:55:09.000Z</time></trkpt>
        <trkpt lat="29.5708916" lon="103.4219588"><ele>885.8</ele><time>2026-05-23T14:55:13.000Z</time></trkpt>
        <trkpt lat="29.570843" lon="103.4218974"><ele>885.97</ele><time>2026-05-23T14:55:17.000Z</time></trkpt>
        <trkpt lat="29.5707907" lon="103.4218421"><ele>886.72</ele><time>2026-05-23T14:55:21.000Z</time></trkpt>
        <trkpt lat="29.5707397" lon="103.4217896"><ele>886.88</ele><time>2026-05-23T14:55:25.000Z</time></trkpt>
        <trkpt lat="29.5706843" lon="103.4217479"><ele>886.49</ele><time>2026-05-23T14:55:29.000Z</time></trkpt>
        <trkpt lat="29.5706227" lon="103.4217043"><ele>886.18</ele><time>2026-05-23T14:55:33.000Z</time></trkpt>
        <trkpt lat="29.5705609" lon="103.421672"><ele>884.84</ele><time>2026-05-23T14:55:37.000Z</time></trkpt>
        <trkpt lat="29.5705021" lon="103.4216406"><ele>882.75</ele><time>2026-05-23T14:55:41.000Z</time></trkpt>
        <trkpt lat="29.5704418" lon="103.4216151"><ele>880.98</ele><time>2026-05-23T14:55:45.000Z</time></trkpt>
        <trkpt lat="29.5703811" lon="103.4215942"><ele>881.07</ele><time>2026-05-23T14:55:49.000Z</time></trkpt>
        <trkpt lat="29.5703159" lon="103.421593"><ele>881.7</ele><time>2026-05-23T14:55:53.000Z</time></trkpt>
        <trkpt lat="29.5702441" lon="103.4215827"><ele>881.55</ele><time>2026-05-23T14:55:57.000Z</time></trkpt>
        <trkpt lat="29.5701662" lon="103.4215822"><ele>883.63</ele><time>2026-05-23T14:56:01.000Z</time></trkpt>
        <trkpt lat="29.5700622" lon="103.421584"><ele>883.56</ele><time>2026-05-23T14:56:05.000Z</time></trkpt>
        <trkpt lat="29.5699874" lon="103.4215632"><ele>884.59</ele><time>2026-05-23T14:56:07.000Z</time></trkpt>
        <trkpt lat="29.5699372" lon="103.4215196"><ele>885.53</ele><time>2026-05-23T14:56:11.000Z</time></trkpt>
        <trkpt lat="29.5698997" lon="103.421468"><ele>887.78</ele><time>2026-05-23T14:56:15.000Z</time></trkpt>
        <trkpt lat="29.569867" lon="103.4214143"><ele>888.67</ele><time>2026-05-23T14:56:19.000Z</time></trkpt>
        <trkpt lat="29.5698385" lon="103.4213588"><ele>889.2</ele><time>2026-05-23T14:56:23.000Z</time></trkpt>
        <trkpt lat="29.5697978" lon="103.4213171"><ele>889.9</ele><time>2026-05-23T14:56:27.000Z</time></trkpt>
        <trkpt lat="29.5697524" lon="103.4212819"><ele>891.19</ele><time>2026-05-23T14:56:31.000Z</time></trkpt>
        <trkpt lat="29.5697151" lon="103.42124"><ele>891.86</ele><time>2026-05-23T14:56:35.000Z</time></trkpt>
        <trkpt lat="29.5696839" lon="103.4211871"><ele>892.16</ele><time>2026-05-23T14:56:39.000Z</time></trkpt>
        <trkpt lat="29.569697" lon="103.4211264"><ele>891.75</ele><time>2026-05-23T14:56:43.000Z</time></trkpt>
        <trkpt lat="29.5696995" lon="103.4210491"><ele>890.59</ele><time>2026-05-23T14:56:49.000Z</time></trkpt>
        <trkpt lat="29.5696837" lon="103.420983"><ele>890.48</ele><time>2026-05-23T14:56:53.000Z</time></trkpt>
        <trkpt lat="29.5696484" lon="103.4209329"><ele>890.51</ele><time>2026-05-23T14:56:57.000Z</time></trkpt>
        <trkpt lat="29.5696057" lon="103.4208794"><ele>890.32</ele><time>2026-05-23T14:57:01.000Z</time></trkpt>
        <trkpt lat="29.569559" lon="103.4208302"><ele>890.63</ele><time>2026-05-23T14:57:05.000Z</time></trkpt>
        <trkpt lat="29.5695178" lon="103.42078"><ele>890.58</ele><time>2026-05-23T14:57:09.000Z</time></trkpt>
        <trkpt lat="29.569475" lon="103.4207371"><ele>890.2</ele><time>2026-05-23T14:57:13.000Z</time></trkpt>
        <trkpt lat="29.5694289" lon="103.4206862"><ele>890.25</ele><time>2026-05-23T14:57:17.000Z</time></trkpt>
        <trkpt lat="29.5693857" lon="103.4206304"><ele>890.39</ele><time>2026-05-23T14:57:21.000Z</time></trkpt>
        <trkpt lat="29.5693412" lon="103.420572"><ele>890.31</ele><time>2026-05-23T14:57:25.000Z</time></trkpt>
        <trkpt lat="29.5692961" lon="103.4205267"><ele>889.46</ele><time>2026-05-23T14:57:29.000Z</time></trkpt>
        <trkpt lat="29.5692481" lon="103.42047"><ele>888.03</ele><time>2026-05-23T14:57:33.000Z</time></trkpt>
        <trkpt lat="29.5692079" lon="103.4204032"><ele>887.31</ele><time>2026-05-23T14:57:37.000Z</time></trkpt>
        <trkpt lat="29.569163" lon="103.4203336"><ele>886.46</ele><time>2026-05-23T14:57:41.000Z</time></trkpt>
        <trkpt lat="29.569125" lon="103.4202889"><ele>886.14</ele><time>2026-05-23T14:57:43.000Z</time></trkpt>
        <trkpt lat="29.5690787" lon="103.4202325"><ele>886.3</ele><time>2026-05-23T14:57:47.000Z</time></trkpt>
        <trkpt lat="29.5690343" lon="103.4201678"><ele>886.92</ele><time>2026-05-23T14:57:51.000Z</time></trkpt>
        <trkpt lat="29.5689934" lon="103.4201034"><ele>887.5</ele><time>2026-05-23T14:57:55.000Z</time></trkpt>
        <trkpt lat="29.5689528" lon="103.4200379"><ele>888.17</ele><time>2026-05-23T14:57:59.000Z</time></trkpt>
        <trkpt lat="29.5689218" lon="103.4199717"><ele>890.18</ele><time>2026-05-23T14:58:03.000Z</time></trkpt>
        <trkpt lat="29.5688974" lon="103.4199168"><ele>891.59</ele><time>2026-05-23T14:58:07.000Z</time></trkpt>
        <trkpt lat="29.5688856" lon="103.4198655"><ele>892.33</ele><time>2026-05-23T14:58:11.000Z</time></trkpt>
        <trkpt lat="29.5689299" lon="103.419837"><ele>893.68</ele><time>2026-05-23T14:58:15.000Z</time></trkpt>
        <trkpt lat="29.5689965" lon="103.4198313"><ele>894.48</ele><time>2026-05-23T14:58:19.000Z</time></trkpt>
        <trkpt lat="29.5690599" lon="103.4198161"><ele>894.52</ele><time>2026-05-23T14:58:23.000Z</time></trkpt>
        <trkpt lat="29.5691246" lon="103.4198084"><ele>893.79</ele><time>2026-05-23T14:58:27.000Z</time></trkpt>
        <trkpt lat="29.5691844" lon="103.419796"><ele>892.73</ele><time>2026-05-23T14:58:32.000Z</time></trkpt>
        <trkpt lat="29.5692353" lon="103.4197756"><ele>892.35</ele><time>2026-05-23T14:58:35.000Z</time></trkpt>
        <trkpt lat="29.5692782" lon="103.419727"><ele>892.21</ele><time>2026-05-23T14:58:41.000Z</time></trkpt>
        <trkpt lat="29.5693232" lon="103.4196976"><ele>892.25</ele><time>2026-05-23T14:58:45.000Z</time></trkpt>
        <trkpt lat="29.5693742" lon="103.4196722"><ele>891.94</ele><time>2026-05-23T14:58:49.000Z</time></trkpt>
        <trkpt lat="29.5694305" lon="103.4196426"><ele>891.36</ele><time>2026-05-23T14:58:53.000Z</time></trkpt>
        <trkpt lat="29.5694859" lon="103.4196187"><ele>891.14</ele><time>2026-05-23T14:58:57.000Z</time></trkpt>
        <trkpt lat="29.5695176" lon="103.4195691"><ele>890.96</ele><time>2026-05-23T14:59:05.000Z</time></trkpt>
        <trkpt lat="29.5695536" lon="103.419514"><ele>890.36</ele><time>2026-05-23T14:59:09.000Z</time></trkpt>
        <trkpt lat="29.5695911" lon="103.4194316"><ele>889.5</ele><time>2026-05-23T14:59:13.000Z</time></trkpt>
        <trkpt lat="29.5696252" lon="103.419365"><ele>888.15</ele><time>2026-05-23T14:59:15.000Z</time></trkpt>
        <trkpt lat="29.569661" lon="103.4193146"><ele>887.19</ele><time>2026-05-23T14:59:17.000Z</time></trkpt>
        <trkpt lat="29.5697179" lon="103.4192494"><ele>886.55</ele><time>2026-05-23T14:59:21.000Z</time></trkpt>
        <trkpt lat="29.5697548" lon="103.4191866"><ele>886.01</ele><time>2026-05-23T14:59:25.000Z</time></trkpt>
        <trkpt lat="29.5697617" lon="103.4191315"><ele>885.44</ele><time>2026-05-23T14:59:27.000Z</time></trkpt>
        <trkpt lat="29.5697479" lon="103.4190462"><ele>884.56</ele><time>2026-05-23T14:59:31.000Z</time></trkpt>
        <trkpt lat="29.5697393" lon="103.4189698"><ele>883.14</ele><time>2026-05-23T14:59:33.000Z</time></trkpt>
        <trkpt lat="29.5697366" lon="103.4188996"><ele>882.57</ele><time>2026-05-23T14:59:35.000Z</time></trkpt>
        <trkpt lat="29.569751" lon="103.418833"><ele>883.42</ele><time>2026-05-23T14:59:39.000Z</time></trkpt>
        <trkpt lat="29.5697785" lon="103.4187429"><ele>885.67</ele><time>2026-05-23T14:59:43.000Z</time></trkpt>
        <trkpt lat="29.5698032" lon="103.418658"><ele>886.91</ele><time>2026-05-23T14:59:47.000Z</time></trkpt>
        <trkpt lat="29.5698186" lon="103.4185658"><ele>887.72</ele><time>2026-05-23T14:59:51.000Z</time></trkpt>
        <trkpt lat="29.5698348" lon="103.4184841"><ele>887.75</ele><time>2026-05-23T14:59:55.000Z</time></trkpt>
        <trkpt lat="29.569842" lon="103.4184118"><ele>887.76</ele><time>2026-05-23T14:59:59.000Z</time></trkpt>
        <trkpt lat="29.5698381" lon="103.4183485"><ele>888.82</ele><time>2026-05-23T15:00:03.000Z</time></trkpt>
        <trkpt lat="29.5698408" lon="103.4182913"><ele>888.72</ele><time>2026-05-23T15:00:07.000Z</time></trkpt>
        <trkpt lat="29.5698549" lon="103.4182225"><ele>888.7</ele><time>2026-05-23T15:00:13.000Z</time></trkpt>
        <trkpt lat="29.5698767" lon="103.4181545"><ele>889.81</ele><time>2026-05-23T15:00:17.000Z</time></trkpt>
        <trkpt lat="29.5699007" lon="103.4180935"><ele>891.02</ele><time>2026-05-23T15:00:19.000Z</time></trkpt>
        <trkpt lat="29.5699012" lon="103.418023"><ele>891.38</ele><time>2026-05-23T15:00:23.000Z</time></trkpt>
        <trkpt lat="29.569897" lon="103.4179526"><ele>888.74</ele><time>2026-05-23T15:00:27.000Z</time></trkpt>
        <trkpt lat="29.5699191" lon="103.4178849"><ele>886.41</ele><time>2026-05-23T15:00:31.000Z</time></trkpt>
        <trkpt lat="29.5699488" lon="103.4178208"><ele>884.58</ele><time>2026-05-23T15:00:35.000Z</time></trkpt>
        <trkpt lat="29.5699867" lon="103.4177441"><ele>883.26</ele><time>2026-05-23T15:00:39.000Z</time></trkpt>
        <trkpt lat="29.5700317" lon="103.4176674"><ele>882.83</ele><time>2026-05-23T15:00:43.000Z</time></trkpt>
        <trkpt lat="29.5700519" lon="103.4175877"><ele>882.93</ele><time>2026-05-23T15:00:47.000Z</time></trkpt>
        <trkpt lat="29.5700488" lon="103.4175222"><ele>883.07</ele><time>2026-05-23T15:00:51.000Z</time></trkpt>
        <trkpt lat="29.5700429" lon="103.4174536"><ele>882.79</ele><time>2026-05-23T15:00:55.000Z</time></trkpt>
        <trkpt lat="29.5700443" lon="103.4173933"><ele>883.2</ele><time>2026-05-23T15:00:59.000Z</time></trkpt>
        <trkpt lat="29.5700534" lon="103.4173403"><ele>882.23</ele><time>2026-05-23T15:01:01.000Z</time></trkpt>
        <trkpt lat="29.5700601" lon="103.4172895"><ele>880.51</ele><time>2026-05-23T15:01:03.000Z</time></trkpt>
        <trkpt lat="29.5700659" lon="103.4172016"><ele>878.16</ele><time>2026-05-23T15:01:07.000Z</time></trkpt>
        <trkpt lat="29.5700839" lon="103.4171418"><ele>877.89</ele><time>2026-05-23T15:01:09.000Z</time></trkpt>
        <trkpt lat="29.5701076" lon="103.4170944"><ele>878.27</ele><time>2026-05-23T15:01:11.000Z</time></trkpt>
        <trkpt lat="29.5701712" lon="103.4170516"><ele>878.86</ele><time>2026-05-23T15:01:15.000Z</time></trkpt>
        <trkpt lat="29.5702547" lon="103.4170286"><ele>879.71</ele><time>2026-05-23T15:01:19.000Z</time></trkpt>
        <trkpt lat="29.5703404" lon="103.4170393"><ele>880.18</ele><time>2026-05-23T15:01:23.000Z</time></trkpt>
        <trkpt lat="29.5704037" lon="103.4170235"><ele>880.37</ele><time>2026-05-23T15:01:27.000Z</time></trkpt>
        <trkpt lat="29.5704082" lon="103.4169737"><ele>881.24</ele><time>2026-05-23T15:01:29.000Z</time></trkpt>
        <trkpt lat="29.5703937" lon="103.4168872"><ele>882.06</ele><time>2026-05-23T15:01:33.000Z</time></trkpt>
        <trkpt lat="29.5703813" lon="103.4168459"><ele>881.91</ele><time>2026-05-23T15:01:35.000Z</time></trkpt>
        <trkpt lat="29.5703609" lon="103.4167786"><ele>881.78</ele><time>2026-05-23T15:01:39.000Z</time></trkpt>
        <trkpt lat="29.5703463" lon="103.4166955"><ele>880.98</ele><time>2026-05-23T15:01:43.000Z</time></trkpt>
        <trkpt lat="29.5703349" lon="103.4166112"><ele>880.79</ele><time>2026-05-23T15:01:47.000Z</time></trkpt>
        <trkpt lat="29.5703287" lon="103.4165192"><ele>878.94</ele><time>2026-05-23T15:01:51.000Z</time></trkpt>
        <trkpt lat="29.570329" lon="103.4164534"><ele>876.99</ele><time>2026-05-23T15:01:53.000Z</time></trkpt>
        <trkpt lat="29.5703382" lon="103.4163658"><ele>874.64</ele><time>2026-05-23T15:01:57.000Z</time></trkpt>
        <trkpt lat="29.5703355" lon="103.4162857"><ele>872.95</ele><time>2026-05-23T15:02:01.000Z</time></trkpt>
        <trkpt lat="29.5703459" lon="103.4162158"><ele>871.39</ele><time>2026-05-23T15:02:05.000Z</time></trkpt>
        <trkpt lat="29.5703861" lon="103.4161576"><ele>870.77</ele><time>2026-05-23T15:02:09.000Z</time></trkpt>
        <trkpt lat="29.5704477" lon="103.4161308"><ele>871.16</ele><time>2026-05-23T15:02:13.000Z</time></trkpt>
        <trkpt lat="29.5705093" lon="103.4161111"><ele>871.1</ele><time>2026-05-23T15:02:17.000Z</time></trkpt>
        <trkpt lat="29.5705629" lon="103.4160837"><ele>869.82</ele><time>2026-05-23T15:02:21.000Z</time></trkpt>
        <trkpt lat="29.5706286" lon="103.4160548"><ele>870.92</ele><time>2026-05-23T15:02:25.000Z</time></trkpt>
        <trkpt lat="29.5706991" lon="103.4160155"><ele>873.41</ele><time>2026-05-23T15:02:29.000Z</time></trkpt>
        <trkpt lat="29.5707026" lon="103.4159625"><ele>876.87</ele><time>2026-05-23T15:02:33.000Z</time></trkpt>
        <trkpt lat="29.570658" lon="103.4159137"><ele>878.86</ele><time>2026-05-23T15:02:39.000Z</time></trkpt>
        <trkpt lat="29.570606" lon="103.4158762"><ele>879.09</ele><time>2026-05-23T15:02:43.000Z</time></trkpt>
        <trkpt lat="29.5705451" lon="103.4158479"><ele>878.76</ele><time>2026-05-23T15:02:49.000Z</time></trkpt>
        <trkpt lat="29.57048" lon="103.4158307"><ele>878.07</ele><time>2026-05-23T15:02:55.000Z</time></trkpt>
        <trkpt lat="29.5704355" lon="103.4157992"><ele>875.84</ele><time>2026-05-23T15:02:59.000Z</time></trkpt>
        <trkpt lat="29.5703948" lon="103.4157461"><ele>873.73</ele><time>2026-05-23T15:03:03.000Z</time></trkpt>
        <trkpt lat="29.5703176" lon="103.4156902"><ele>872.33</ele><time>2026-05-23T15:03:07.000Z</time></trkpt>
        <trkpt lat="29.570262" lon="103.4156561"><ele>870.78</ele><time>2026-05-23T15:03:09.000Z</time></trkpt>
        <trkpt lat="29.5702258" lon="103.4156203"><ele>869.99</ele><time>2026-05-23T15:03:11.000Z</time></trkpt>
        <trkpt lat="29.5701655" lon="103.4155762"><ele>870.91</ele><time>2026-05-23T15:03:15.000Z</time></trkpt>
        <trkpt lat="29.5701024" lon="103.4155532"><ele>872.59</ele><time>2026-05-23T15:03:19.000Z</time></trkpt>
        <trkpt lat="29.5700599" lon="103.4155009"><ele>874.85</ele><time>2026-05-23T15:03:23.000Z</time></trkpt>
        <trkpt lat="29.5700166" lon="103.4154402"><ele>878.18</ele><time>2026-05-23T15:03:29.000Z</time></trkpt>
        <trkpt lat="29.5699692" lon="103.4153921"><ele>880.92</ele><time>2026-05-23T15:03:33.000Z</time></trkpt>
        <trkpt lat="29.5699285" lon="103.4153537"><ele>882.34</ele><time>2026-05-23T15:03:37.000Z</time></trkpt>
        <trkpt lat="29.5698895" lon="103.4153116"><ele>884.5</ele><time>2026-05-23T15:03:41.000Z</time></trkpt>
        <trkpt lat="29.5698711" lon="103.4152529"><ele>886.87</ele><time>2026-05-23T15:03:45.000Z</time></trkpt>
        <trkpt lat="29.5698671" lon="103.4151964"><ele>888.4</ele><time>2026-05-23T15:03:49.000Z</time></trkpt>
        <trkpt lat="29.5698687" lon="103.4151266"><ele>887.67</ele><time>2026-05-23T15:03:53.000Z</time></trkpt>
        <trkpt lat="29.5698671" lon="103.4150498"><ele>887.84</ele><time>2026-05-23T15:03:57.000Z</time></trkpt>
        <trkpt lat="29.5698513" lon="103.4149782"><ele>887.36</ele><time>2026-05-23T15:04:01.000Z</time></trkpt>
        <trkpt lat="29.5698201" lon="103.4149149"><ele>886.34</ele><time>2026-05-23T15:04:05.000Z</time></trkpt>
        <trkpt lat="29.569771" lon="103.4148646"><ele>885.76</ele><time>2026-05-23T15:04:09.000Z</time></trkpt>
        <trkpt lat="29.5697173" lon="103.414809"><ele>885.22</ele><time>2026-05-23T15:04:13.000Z</time></trkpt>
        <trkpt lat="29.5696682" lon="103.4147583"><ele>884.12</ele><time>2026-05-23T15:04:17.000Z</time></trkpt>
        <trkpt lat="29.569612" lon="103.414738"><ele>883.97</ele><time>2026-05-23T15:04:21.000Z</time></trkpt>
        <trkpt lat="29.5695578" lon="103.4147472"><ele>883.85</ele><time>2026-05-23T15:04:25.000Z</time></trkpt>
        <trkpt lat="29.5695001" lon="103.4147763"><ele>883.27</ele><time>2026-05-23T15:04:29.000Z</time></trkpt>
        <trkpt lat="29.5694324" lon="103.4148088"><ele>883.22</ele><time>2026-05-23T15:04:33.000Z</time></trkpt>
        <trkpt lat="29.5693568" lon="103.4148296"><ele>884.5</ele><time>2026-05-23T15:04:37.000Z</time></trkpt>
        <trkpt lat="29.5692836" lon="103.4148344"><ele>885.17</ele><time>2026-05-23T15:04:41.000Z</time></trkpt>
        <trkpt lat="29.5692165" lon="103.4147865"><ele>886.27</ele><time>2026-05-23T15:04:45.000Z</time></trkpt>
        <trkpt lat="29.5691734" lon="103.4147372"><ele>887.63</ele><time>2026-05-23T15:04:49.000Z</time></trkpt>
        <trkpt lat="29.569131" lon="103.4146652"><ele>888.37</ele><time>2026-05-23T15:04:53.000Z</time></trkpt>
        <trkpt lat="29.569097" lon="103.4145822"><ele>887.52</ele><time>2026-05-23T15:04:57.000Z</time></trkpt>
        <trkpt lat="29.5690827" lon="103.4145157"><ele>886.54</ele><time>2026-05-23T15:04:59.000Z</time></trkpt>
        <trkpt lat="29.5690719" lon="103.4144532"><ele>885.44</ele><time>2026-05-23T15:05:01.000Z</time></trkpt>
        <trkpt lat="29.5690928" lon="103.4143838"><ele>884.75</ele><time>2026-05-23T15:05:05.000Z</time></trkpt>
        <trkpt lat="29.5691132" lon="103.4143048"><ele>883.96</ele><time>2026-05-23T15:05:09.000Z</time></trkpt>
        <trkpt lat="29.5691113" lon="103.4142306"><ele>883.35</ele><time>2026-05-23T15:05:13.000Z</time></trkpt>
        <trkpt lat="29.5690996" lon="103.4141506"><ele>883.59</ele><time>2026-05-23T15:05:17.000Z</time></trkpt>
        <trkpt lat="29.5690857" lon="103.4140714"><ele>882.93</ele><time>2026-05-23T15:05:21.000Z</time></trkpt>
        <trkpt lat="29.5690928" lon="103.4140059"><ele>882.13</ele><time>2026-05-23T15:05:25.000Z</time></trkpt>
        <trkpt lat="29.5691202" lon="103.4139546"><ele>881.97</ele><time>2026-05-23T15:05:29.000Z</time></trkpt>
        <trkpt lat="29.5691443" lon="103.4138996"><ele>882.28</ele><time>2026-05-23T15:05:33.000Z</time></trkpt>
        <trkpt lat="29.5691489" lon="103.4138396"><ele>881.79</ele><time>2026-05-23T15:05:37.000Z</time></trkpt>
        <trkpt lat="29.5691213" lon="103.4137861"><ele>881.38</ele><time>2026-05-23T15:05:41.000Z</time></trkpt>
        <trkpt lat="29.5690913" lon="103.4137235"><ele>880.34</ele><time>2026-05-23T15:05:45.000Z</time></trkpt>
        <trkpt lat="29.5690662" lon="103.4136603"><ele>879.37</ele><time>2026-05-23T15:05:49.000Z</time></trkpt>
        <trkpt lat="29.5690396" lon="103.4136078"><ele>878.96</ele><time>2026-05-23T15:05:53.000Z</time></trkpt>
        <trkpt lat="29.5689983" lon="103.4135469"><ele>879.04</ele><time>2026-05-23T15:05:59.000Z</time></trkpt>
        <trkpt lat="29.568976" lon="103.4134616"><ele>879.36</ele><time>2026-05-23T15:06:03.000Z</time></trkpt>
        <trkpt lat="29.5689888" lon="103.413381"><ele>879.53</ele><time>2026-05-23T15:06:07.000Z</time></trkpt>
        <trkpt lat="29.568983" lon="103.4132935"><ele>879.33</ele><time>2026-05-23T15:06:11.000Z</time></trkpt>
        <trkpt lat="29.5689679" lon="103.4132104"><ele>878.31</ele><time>2026-05-23T15:06:15.000Z</time></trkpt>
        <trkpt lat="29.568975" lon="103.4131531"><ele>876.45</ele><time>2026-05-23T15:06:17.000Z</time></trkpt>
        <trkpt lat="29.5690037" lon="103.4131073"><ele>875.46</ele><time>2026-05-23T15:06:19.000Z</time></trkpt>
        <trkpt lat="29.5690477" lon="103.4131125"><ele>874.89</ele><time>2026-05-23T15:06:21.000Z</time></trkpt>
        <trkpt lat="29.5690986" lon="103.4130602"><ele>875.83</ele><time>2026-05-23T15:06:25.000Z</time></trkpt>
        <trkpt lat="29.5691421" lon="103.4129792"><ele>876.69</ele><time>2026-05-23T15:06:29.000Z</time></trkpt>
        <trkpt lat="29.5691709" lon="103.4129204"><ele>876.72</ele><time>2026-05-23T15:06:31.000Z</time></trkpt>
        <trkpt lat="29.5691964" lon="103.4128711"><ele>876.7</ele><time>2026-05-23T15:06:33.000Z</time></trkpt>
        <trkpt lat="29.5692312" lon="103.4128282"><ele>876.48</ele><time>2026-05-23T15:06:35.000Z</time></trkpt>
        <trkpt lat="29.5692681" lon="103.4127944"><ele>876.01</ele><time>2026-05-23T15:06:37.000Z</time></trkpt>
        <trkpt lat="29.5693353" lon="103.4127402"><ele>875.62</ele><time>2026-05-23T15:06:41.000Z</time></trkpt>
        <trkpt lat="29.5694017" lon="103.4127006"><ele>875.47</ele><time>2026-05-23T15:06:45.000Z</time></trkpt>
        <trkpt lat="29.5694274" lon="103.4126458"><ele>875.35</ele><time>2026-05-23T15:06:49.000Z</time></trkpt>
        <trkpt lat="29.569391" lon="103.4125893"><ele>875.57</ele><time>2026-05-23T15:06:53.000Z</time></trkpt>
        <trkpt lat="29.5693542" lon="103.4125243"><ele>874.27</ele><time>2026-05-23T15:06:57.000Z</time></trkpt>
        <trkpt lat="29.5693422" lon="103.4124629"><ele>872.98</ele><time>2026-05-23T15:07:01.000Z</time></trkpt>
        <trkpt lat="29.5693405" lon="103.4124029"><ele>872.93</ele><time>2026-05-23T15:07:05.000Z</time></trkpt>
        <trkpt lat="29.5693196" lon="103.4123412"><ele>872.15</ele><time>2026-05-23T15:07:09.000Z</time></trkpt>
        <trkpt lat="29.5692977" lon="103.4122786"><ele>871.69</ele><time>2026-05-23T15:07:13.000Z</time></trkpt>
        <trkpt lat="29.5693119" lon="103.412222"><ele>872.2</ele><time>2026-05-23T15:07:17.000Z</time></trkpt>
        <trkpt lat="29.5693324" lon="103.4121725"><ele>873.81</ele><time>2026-05-23T15:07:21.000Z</time></trkpt>
        <trkpt lat="29.5692904" lon="103.4121575"><ele>873.32</ele><time>2026-05-23T15:07:25.000Z</time></trkpt>
        <trkpt lat="29.5692465" lon="103.4121848"><ele>871.22</ele><time>2026-05-23T15:07:29.000Z</time></trkpt>
        <trkpt lat="29.5691848" lon="103.4122024"><ele>867.37</ele><time>2026-05-23T15:07:35.000Z</time></trkpt>
        <trkpt lat="29.5691319" lon="103.4122014"><ele>864.03</ele><time>2026-05-23T15:07:39.000Z</time></trkpt>
        <trkpt lat="29.569079" lon="103.4121988"><ele>861.5</ele><time>2026-05-23T15:07:45.000Z</time></trkpt>
        <trkpt lat="29.5690255" lon="103.4121689"><ele>858.09</ele><time>2026-05-23T15:07:51.000Z</time></trkpt>
        <trkpt lat="29.5689774" lon="103.4121326"><ele>855.18</ele><time>2026-05-23T15:07:55.000Z</time></trkpt>
        <trkpt lat="29.5689314" lon="103.4120774"><ele>853.94</ele><time>2026-05-23T15:07:59.000Z</time></trkpt>
        <trkpt lat="29.5688999" lon="103.4120072"><ele>854.99</ele><time>2026-05-23T15:08:03.000Z</time></trkpt>
        <trkpt lat="29.5688787" lon="103.4119447"><ele>855.94</ele><time>2026-05-23T15:08:07.000Z</time></trkpt>
        <trkpt lat="29.568851" lon="103.4118976"><ele>854.19</ele><time>2026-05-23T15:08:11.000Z</time></trkpt>
        <trkpt lat="29.5687976" lon="103.4118736"><ele>852.48</ele><time>2026-05-23T15:08:15.000Z</time></trkpt>
        <trkpt lat="29.5687402" lon="103.4118664"><ele>850.8</ele><time>2026-05-23T15:08:19.000Z</time></trkpt>
        <trkpt lat="29.5686778" lon="103.4118573"><ele>848.83</ele><time>2026-05-23T15:08:23.000Z</time></trkpt>
        <trkpt lat="29.568624" lon="103.4118557"><ele>847.45</ele><time>2026-05-23T15:08:27.000Z</time></trkpt>
        <trkpt lat="29.568569" lon="103.4118284"><ele>845.91</ele><time>2026-05-23T15:08:33.000Z</time></trkpt>
        <trkpt lat="29.5685354" lon="103.4117841"><ele>845.35</ele><time>2026-05-23T15:08:37.000Z</time></trkpt>
        <trkpt lat="29.5685014" lon="103.4117465"><ele>845.91</ele><time>2026-05-23T15:08:41.000Z</time></trkpt>
        <trkpt lat="29.5684727" lon="103.4117048"><ele>845.23</ele><time>2026-05-23T15:08:45.000Z</time></trkpt>
        <trkpt lat="29.5684413" lon="103.4116608"><ele>844.08</ele><time>2026-05-23T15:08:49.000Z</time></trkpt>
        <trkpt lat="29.5684126" lon="103.4116097"><ele>841.74</ele><time>2026-05-23T15:08:53.000Z</time></trkpt>
        <trkpt lat="29.5684113" lon="103.4115252"><ele>840.67</ele><time>2026-05-23T15:08:57.000Z</time></trkpt>
        <trkpt lat="29.5684191" lon="103.4114481"><ele>838.51</ele><time>2026-05-23T15:08:59.000Z</time></trkpt>
        <trkpt lat="29.5684298" lon="103.4113825"><ele>837.31</ele><time>2026-05-23T15:09:01.000Z</time></trkpt>
        <trkpt lat="29.5684366" lon="103.4113174"><ele>836.77</ele><time>2026-05-23T15:09:03.000Z</time></trkpt>
        <trkpt lat="29.5684677" lon="103.4112555"><ele>836.44</ele><time>2026-05-23T15:09:05.000Z</time></trkpt>
        <trkpt lat="29.5685002" lon="103.4112022"><ele>836.13</ele><time>2026-05-23T15:09:07.000Z</time></trkpt>
        <trkpt lat="29.5685141" lon="103.4111497"><ele>835.76</ele><time>2026-05-23T15:09:09.000Z</time></trkpt>
        <trkpt lat="29.5685197" lon="103.4110962"><ele>835.73</ele><time>2026-05-23T15:09:11.000Z</time></trkpt>
        <trkpt lat="29.5685362" lon="103.4110028"><ele>836.01</ele><time>2026-05-23T15:09:15.000Z</time></trkpt>
        <trkpt lat="29.5685576" lon="103.4109254"><ele>836.61</ele><time>2026-05-23T15:09:17.000Z</time></trkpt>
        <trkpt lat="29.5685816" lon="103.4108457"><ele>837.21</ele><time>2026-05-23T15:09:19.000Z</time></trkpt>
        <trkpt lat="29.5686049" lon="103.4107745"><ele>837.59</ele><time>2026-05-23T15:09:21.000Z</time></trkpt>
        <trkpt lat="29.5686219" lon="103.410718"><ele>838.17</ele><time>2026-05-23T15:09:23.000Z</time></trkpt>
        <trkpt lat="29.5686378" lon="103.4106614"><ele>838.54</ele><time>2026-05-23T15:09:25.000Z</time></trkpt>
        <trkpt lat="29.5686508" lon="103.4106009"><ele>838.84</ele><time>2026-05-23T15:09:27.000Z</time></trkpt>
        <trkpt lat="29.5686652" lon="103.4105371"><ele>838.35</ele><time>2026-05-23T15:09:31.000Z</time></trkpt>
        <trkpt lat="29.5686581" lon="103.4104803"><ele>837.11</ele><time>2026-05-23T15:09:35.000Z</time></trkpt>
        <trkpt lat="29.5686534" lon="103.410424"><ele>836.27</ele><time>2026-05-23T15:09:39.000Z</time></trkpt>
        <trkpt lat="29.5686498" lon="103.4103643"><ele>835.44</ele><time>2026-05-23T15:09:43.000Z</time></trkpt>
        <trkpt lat="29.5686369" lon="103.410305"><ele>834.28</ele><time>2026-05-23T15:09:47.000Z</time></trkpt>
        <trkpt lat="29.5686188" lon="103.4102369"><ele>833.4</ele><time>2026-05-23T15:09:51.000Z</time></trkpt>
        <trkpt lat="29.5686211" lon="103.4101542"><ele>833.28</ele><time>2026-05-23T15:09:55.000Z</time></trkpt>
        <trkpt lat="29.5686057" lon="103.41007"><ele>833.83</ele><time>2026-05-23T15:09:59.000Z</time></trkpt>
        <trkpt lat="29.5685703" lon="103.4100092"><ele>833.14</ele><time>2026-05-23T15:10:03.000Z</time></trkpt>
        <trkpt lat="29.568522" lon="103.4099587"><ele>832.42</ele><time>2026-05-23T15:10:07.000Z</time></trkpt>
        <trkpt lat="29.5684513" lon="103.4099331"><ele>830.73</ele><time>2026-05-23T15:10:11.000Z</time></trkpt>
        <trkpt lat="29.5683811" lon="103.409929"><ele>830.1</ele><time>2026-05-23T15:10:15.000Z</time></trkpt>
        <trkpt lat="29.5683464" lon="103.4098943"><ele>830.32</ele><time>2026-05-23T15:10:19.000Z</time></trkpt>
        <trkpt lat="29.5683282" lon="103.4098166"><ele>830.53</ele><time>2026-05-23T15:10:23.000Z</time></trkpt>
        <trkpt lat="29.568311" lon="103.409754"><ele>830.23</ele><time>2026-05-23T15:10:27.000Z</time></trkpt>
        <trkpt lat="29.5682833" lon="103.4096862"><ele>830.12</ele><time>2026-05-23T15:10:31.000Z</time></trkpt>
        <trkpt lat="29.5682613" lon="103.4096213"><ele>830.05</ele><time>2026-05-23T15:10:35.000Z</time></trkpt>
        <trkpt lat="29.5682472" lon="103.4095598"><ele>829.35</ele><time>2026-05-23T15:10:39.000Z</time></trkpt>
        <trkpt lat="29.5682382" lon="103.4095056"><ele>829.49</ele><time>2026-05-23T15:10:43.000Z</time></trkpt>
        <trkpt lat="29.5682132" lon="103.4094407"><ele>830</ele><time>2026-05-23T15:10:49.000Z</time></trkpt>
        <trkpt lat="29.5681768" lon="103.409402"><ele>829.25</ele><time>2026-05-23T15:10:55.000Z</time></trkpt>
        <trkpt lat="29.5681458" lon="103.4093489"><ele>828.09</ele><time>2026-05-23T15:11:01.000Z</time></trkpt>
        <trkpt lat="29.5681085" lon="103.4093176"><ele>826.94</ele><time>2026-05-23T15:11:07.000Z</time></trkpt>
        <trkpt lat="29.5680747" lon="103.4092801"><ele>824.68</ele><time>2026-05-23T15:11:13.000Z</time></trkpt>
        <trkpt lat="29.5680587" lon="103.4092329"><ele>822.39</ele><time>2026-05-23T15:11:17.000Z</time></trkpt>
        <trkpt lat="29.568041" lon="103.4091803"><ele>821.29</ele><time>2026-05-23T15:11:21.000Z</time></trkpt>
        <trkpt lat="29.568014" lon="103.4091208"><ele>820.33</ele><time>2026-05-23T15:11:27.000Z</time></trkpt>
        <trkpt lat="29.5679863" lon="103.4090512"><ele>818.11</ele><time>2026-05-23T15:11:33.000Z</time></trkpt>
        <trkpt lat="29.5679682" lon="103.4090084"><ele>816.7</ele><time>2026-05-23T15:11:37.000Z</time></trkpt>
        <trkpt lat="29.5679349" lon="103.4089546"><ele>815.07</ele><time>2026-05-23T15:11:45.000Z</time></trkpt>
        <trkpt lat="29.5679094" lon="103.4088991"><ele>812.47</ele><time>2026-05-23T15:11:51.000Z</time></trkpt>
        <trkpt lat="29.5678886" lon="103.4088486"><ele>808.53</ele><time>2026-05-23T15:12:01.000Z</time></trkpt>
        <trkpt lat="29.5678803" lon="103.4087913"><ele>804.46</ele><time>2026-05-23T15:12:05.000Z</time></trkpt>
        <trkpt lat="29.5678927" lon="103.4087101"><ele>801.01</ele><time>2026-05-23T15:12:11.000Z</time></trkpt>
        <trkpt lat="29.5678775" lon="103.4086408"><ele>799.16</ele><time>2026-05-23T15:12:15.000Z</time></trkpt>
        <trkpt lat="29.5678371" lon="103.4085847"><ele>797.31</ele><time>2026-05-23T15:12:19.000Z</time></trkpt>
        <trkpt lat="29.5678001" lon="103.4085401"><ele>795.94</ele><time>2026-05-23T15:12:23.000Z</time></trkpt>
        <trkpt lat="29.567752" lon="103.4085202"><ele>794.75</ele><time>2026-05-23T15:12:27.000Z</time></trkpt>
        <trkpt lat="29.5677187" lon="103.4084778"><ele>792.15</ele><time>2026-05-23T15:12:33.000Z</time></trkpt>
        <trkpt lat="29.5676651" lon="103.4084404"><ele>789.37</ele><time>2026-05-23T15:12:39.000Z</time></trkpt>
        <trkpt lat="29.5676146" lon="103.4084157"><ele>787.58</ele><time>2026-05-23T15:12:43.000Z</time></trkpt>
        <trkpt lat="29.5675872" lon="103.4084635"><ele>786.21</ele><time>2026-05-23T15:12:47.000Z</time></trkpt>
        <trkpt lat="29.5675652" lon="103.4085261"><ele>784.63</ele><time>2026-05-23T15:12:51.000Z</time></trkpt>
        <trkpt lat="29.5675105" lon="103.4086043"><ele>783.1</ele><time>2026-05-23T15:12:53.000Z</time></trkpt>
        <trkpt lat="29.5674256" lon="103.4086514"><ele>781.8</ele><time>2026-05-23T15:12:55.000Z</time></trkpt>
        <trkpt lat="29.5673516" lon="103.4086218"><ele>780.68</ele><time>2026-05-23T15:12:57.000Z</time></trkpt>
        <trkpt lat="29.567288" lon="103.408568"><ele>780.17</ele><time>2026-05-23T15:12:59.000Z</time></trkpt>
        <trkpt lat="29.5672384" lon="103.4085106"><ele>779.43</ele><time>2026-05-23T15:13:01.000Z</time></trkpt>
        <trkpt lat="29.5671937" lon="103.4084699"><ele>778.96</ele><time>2026-05-23T15:13:03.000Z</time></trkpt>
        <trkpt lat="29.5671474" lon="103.4084411"><ele>778.19</ele><time>2026-05-23T15:13:05.000Z</time></trkpt>
        <trkpt lat="29.5670972" lon="103.4084266"><ele>777.34</ele><time>2026-05-23T15:13:07.000Z</time></trkpt>
        <trkpt lat="29.5670452" lon="103.4084276"><ele>776.64</ele><time>2026-05-23T15:13:09.000Z</time></trkpt>
        <trkpt lat="29.566987" lon="103.4084217"><ele>775.63</ele><time>2026-05-23T15:13:11.000Z</time></trkpt>
        <trkpt lat="29.5669242" lon="103.4084096"><ele>775.1</ele><time>2026-05-23T15:13:13.000Z</time></trkpt>
        <trkpt lat="29.566855" lon="103.4084283"><ele>774.41</ele><time>2026-05-23T15:13:17.000Z</time></trkpt>
        <trkpt lat="29.5667655" lon="103.4084504"><ele>773.45</ele><time>2026-05-23T15:13:21.000Z</time></trkpt>
        <trkpt lat="29.5667051" lon="103.4083995"><ele>772.68</ele><time>2026-05-23T15:13:25.000Z</time></trkpt>
        <trkpt lat="29.5666812" lon="103.4083362"><ele>772.71</ele><time>2026-05-23T15:13:27.000Z</time></trkpt>
        <trkpt lat="29.5666801" lon="103.4082511"><ele>773.07</ele><time>2026-05-23T15:13:31.000Z</time></trkpt>
        <trkpt lat="29.5667108" lon="103.4081798"><ele>773.25</ele><time>2026-05-23T15:13:35.000Z</time></trkpt>
        <trkpt lat="29.566717" lon="103.408114"><ele>774.26</ele><time>2026-05-23T15:13:39.000Z</time></trkpt>
        <trkpt lat="29.5667113" lon="103.4080557"><ele>774.49</ele><time>2026-05-23T15:13:43.000Z</time></trkpt>
        <trkpt lat="29.566694" lon="103.4079965"><ele>774.35</ele><time>2026-05-23T15:13:47.000Z</time></trkpt>
        <trkpt lat="29.5666753" lon="103.4079346"><ele>774.45</ele><time>2026-05-23T15:13:51.000Z</time></trkpt>
        <trkpt lat="29.5666586" lon="103.4079091"><ele>775.18</ele><time>2026-05-23T15:13:55.000Z</time></trkpt>
        <trkpt lat="29.5666536" lon="103.4078671"><ele>773.85</ele><time>2026-05-23T15:14:11.000Z</time></trkpt>
        <trkpt lat="29.5666396" lon="103.4078208"><ele>773.44</ele><time>2026-05-23T15:14:15.000Z</time></trkpt>
        <trkpt lat="29.5666417" lon="103.4078008"><ele>773.69</ele><time>2026-05-23T15:14:19.000Z</time></trkpt>
        <trkpt lat="29.5666677" lon="103.4078332"><ele>773.68</ele><time>2026-05-23T15:14:27.000Z</time></trkpt>
        <trkpt lat="29.5666886" lon="103.4078475"><ele>774.17</ele><time>2026-05-23T15:14:29.000Z</time></trkpt>
        <trkpt lat="29.5666886" lon="103.4078475"><ele>774.17</ele><time>2026-05-23T15:14:37.000Z</time></trkpt>
        <trkpt lat="29.5666184" lon="103.407859"><ele>773.93</ele><time>2026-05-23T15:14:58.000Z</time></trkpt>
        <trkpt lat="29.5666184" lon="103.407859"><ele>773.93</ele><time>2026-05-23T15:15:01.000Z</time></trkpt>
        <trkpt lat="29.5666461" lon="103.4078466"><ele>768.89</ele><time>2026-05-23T15:15:03.000Z</time></trkpt>
        <trkpt lat="29.5666461" lon="103.4078466"><ele>768.89</ele><time>2026-05-23T15:15:19.000Z</time></trkpt>
        <trkpt lat="29.5666225" lon="103.4078163"><ele>761.72</ele><time>2026-05-23T15:15:24.000Z</time></trkpt>
        <trkpt lat="29.5666225" lon="103.4078163"><ele>761.72</ele><time>2026-05-23T15:15:35.000Z</time></trkpt>
        <trkpt lat="29.5666014" lon="103.4077658"><ele>764.21</ele><time>2026-05-23T15:15:39.000Z</time></trkpt>
        <trkpt lat="29.5665749" lon="103.4077014"><ele>767.1</ele><time>2026-05-23T15:15:43.000Z</time></trkpt>
        <trkpt lat="29.566554" lon="103.4076223"><ele>769.35</ele><time>2026-05-23T15:15:47.000Z</time></trkpt>
        <trkpt lat="29.5665403" lon="103.4075433"><ele>771.63</ele><time>2026-05-23T15:15:51.000Z</time></trkpt>
        <trkpt lat="29.566518" lon="103.4074664"><ele>773.19</ele><time>2026-05-23T15:15:55.000Z</time></trkpt>
        <trkpt lat="29.5665024" lon="103.4073845"><ele>775.09</ele><time>2026-05-23T15:15:59.000Z</time></trkpt>
        <trkpt lat="29.5664821" lon="103.4073172"><ele>776.55</ele><time>2026-05-23T15:16:05.000Z</time></trkpt>
        <trkpt lat="29.5664561" lon="103.407256"><ele>776.93</ele><time>2026-05-23T15:16:09.000Z</time></trkpt>
        <trkpt lat="29.5664377" lon="103.4071873"><ele>777.35</ele><time>2026-05-23T15:16:15.000Z</time></trkpt>
        <trkpt lat="29.5664311" lon="103.4071224"><ele>776.55</ele><time>2026-05-23T15:16:19.000Z</time></trkpt>
        <trkpt lat="29.5664298" lon="103.4070551"><ele>776.36</ele><time>2026-05-23T15:16:23.000Z</time></trkpt>
        <trkpt lat="29.5664835" lon="103.4070095"><ele>775.51</ele><time>2026-05-23T15:16:27.000Z</time></trkpt>
        <trkpt lat="29.5665076" lon="103.4069515"><ele>775.74</ele><time>2026-05-23T15:16:31.000Z</time></trkpt>
        <trkpt lat="29.5664754" lon="103.4069034"><ele>776.87</ele><time>2026-05-23T15:16:33.000Z</time></trkpt>
        <trkpt lat="29.5664839" lon="103.4068304"><ele>776.12</ele><time>2026-05-23T15:16:37.000Z</time></trkpt>
        <trkpt lat="29.5665132" lon="103.406762"><ele>774.54</ele><time>2026-05-23T15:16:41.000Z</time></trkpt>
        <trkpt lat="29.5665589" lon="103.4067084"><ele>773.67</ele><time>2026-05-23T15:16:45.000Z</time></trkpt>
        <trkpt lat="29.5665986" lon="103.4066682"><ele>771.09</ele><time>2026-05-23T15:16:47.000Z</time></trkpt>
        <trkpt lat="29.5666304" lon="103.4066086"><ele>769.77</ele><time>2026-05-23T15:16:51.000Z</time></trkpt>
        <trkpt lat="29.5666713" lon="103.4065647"><ele>770.14</ele><time>2026-05-23T15:16:55.000Z</time></trkpt>
        <trkpt lat="29.5667219" lon="103.4065334"><ele>771.27</ele><time>2026-05-23T15:16:59.000Z</time></trkpt>
        <trkpt lat="29.5667598" lon="103.4064922"><ele>772.04</ele><time>2026-05-23T15:17:01.000Z</time></trkpt>
        <trkpt lat="29.5667944" lon="103.4064384"><ele>772.04</ele><time>2026-05-23T15:17:03.000Z</time></trkpt>
        <trkpt lat="29.5668404" lon="103.4063816"><ele>771.82</ele><time>2026-05-23T15:17:05.000Z</time></trkpt>
        <trkpt lat="29.5669008" lon="103.4063153"><ele>771.61</ele><time>2026-05-23T15:17:07.000Z</time></trkpt>
        <trkpt lat="29.5669364" lon="103.4062506"><ele>771.14</ele><time>2026-05-23T15:17:09.000Z</time></trkpt>
        <trkpt lat="29.5669581" lon="103.406189"><ele>770.89</ele><time>2026-05-23T15:17:11.000Z</time></trkpt>
        <trkpt lat="29.5669854" lon="103.4061267"><ele>769.99</ele><time>2026-05-23T15:17:13.000Z</time></trkpt>
        <trkpt lat="29.5670109" lon="103.4060694"><ele>768.81</ele><time>2026-05-23T15:17:15.000Z</time></trkpt>
        <trkpt lat="29.5670417" lon="103.406018"><ele>767.44</ele><time>2026-05-23T15:17:17.000Z</time></trkpt>
        <trkpt lat="29.5670697" lon="103.405967"><ele>766.82</ele><time>2026-05-23T15:17:19.000Z</time></trkpt>
        <trkpt lat="29.5671005" lon="103.4059095"><ele>766.01</ele><time>2026-05-23T15:17:21.000Z</time></trkpt>
        <trkpt lat="29.5671174" lon="103.4058479"><ele>764.96</ele><time>2026-05-23T15:17:23.000Z</time></trkpt>
        <trkpt lat="29.5671082" lon="103.4057861"><ele>764.03</ele><time>2026-05-23T15:17:25.000Z</time></trkpt>
        <trkpt lat="29.5670752" lon="103.4057332"><ele>763.13</ele><time>2026-05-23T15:17:27.000Z</time></trkpt>
        <trkpt lat="29.5670385" lon="103.4056835"><ele>763.02</ele><time>2026-05-23T15:17:29.000Z</time></trkpt>
        <trkpt lat="29.5669833" lon="103.4056113"><ele>763.45</ele><time>2026-05-23T15:17:33.000Z</time></trkpt>
        <trkpt lat="29.5669335" lon="103.4055556"><ele>764.4</ele><time>2026-05-23T15:17:35.000Z</time></trkpt>
        <trkpt lat="29.5668902" lon="103.4055158"><ele>764.37</ele><time>2026-05-23T15:17:37.000Z</time></trkpt>
        <trkpt lat="29.5668351" lon="103.4054635"><ele>764.75</ele><time>2026-05-23T15:17:41.000Z</time></trkpt>
        <trkpt lat="29.5667857" lon="103.4053953"><ele>764.58</ele><time>2026-05-23T15:17:45.000Z</time></trkpt>
        <trkpt lat="29.5667587" lon="103.4053252"><ele>763.43</ele><time>2026-05-23T15:17:49.000Z</time></trkpt>
        <trkpt lat="29.566747" lon="103.4052541"><ele>763.02</ele><time>2026-05-23T15:17:53.000Z</time></trkpt>
        <trkpt lat="29.5667396" lon="103.4051813"><ele>762.83</ele><time>2026-05-23T15:17:57.000Z</time></trkpt>
        <trkpt lat="29.5667717" lon="103.4051234"><ele>763.54</ele><time>2026-05-23T15:18:01.000Z</time></trkpt>
        <trkpt lat="29.5668241" lon="103.4051217"><ele>764.09</ele><time>2026-05-23T15:18:05.000Z</time></trkpt>
        <trkpt lat="29.5668986" lon="103.4051487"><ele>764.83</ele><time>2026-05-23T15:18:09.000Z</time></trkpt>
        <trkpt lat="29.5669569" lon="103.405161"><ele>764.87</ele><time>2026-05-23T15:18:11.000Z</time></trkpt>
        <trkpt lat="29.5670231" lon="103.4051562"><ele>764</ele><time>2026-05-23T15:18:15.000Z</time></trkpt>
        <trkpt lat="29.5671007" lon="103.4051129"><ele>764.14</ele><time>2026-05-23T15:18:19.000Z</time></trkpt>
        <trkpt lat="29.5671919" lon="103.4050699"><ele>763.61</ele><time>2026-05-23T15:18:23.000Z</time></trkpt>
        <trkpt lat="29.5672525" lon="103.4050419"><ele>761.31</ele><time>2026-05-23T15:18:25.000Z</time></trkpt>
        <trkpt lat="29.5673013" lon="103.4050169"><ele>758.37</ele><time>2026-05-23T15:18:27.000Z</time></trkpt>
        <trkpt lat="29.5673503" lon="103.405"><ele>756.37</ele><time>2026-05-23T15:18:29.000Z</time></trkpt>
        <trkpt lat="29.567407" lon="103.4049957"><ele>754.97</ele><time>2026-05-23T15:18:31.000Z</time></trkpt>
        <trkpt lat="29.5674722" lon="103.4049975"><ele>755.05</ele><time>2026-05-23T15:18:33.000Z</time></trkpt>
        <trkpt lat="29.5675364" lon="103.4050057"><ele>755.45</ele><time>2026-05-23T15:18:35.000Z</time></trkpt>
        <trkpt lat="29.5676127" lon="103.4050246"><ele>756.67</ele><time>2026-05-23T15:18:39.000Z</time></trkpt>
        <trkpt lat="29.5676961" lon="103.4050427"><ele>758.24</ele><time>2026-05-23T15:18:43.000Z</time></trkpt>
        <trkpt lat="29.5677526" lon="103.4050417"><ele>759.13</ele><time>2026-05-23T15:18:45.000Z</time></trkpt>
        <trkpt lat="29.5678096" lon="103.4050207"><ele>759.66</ele><time>2026-05-23T15:18:47.000Z</time></trkpt>
        <trkpt lat="29.5678581" lon="103.4049906"><ele>759.78</ele><time>2026-05-23T15:18:49.000Z</time></trkpt>
        <trkpt lat="29.5679024" lon="103.4049631"><ele>759.83</ele><time>2026-05-23T15:18:51.000Z</time></trkpt>
        <trkpt lat="29.5679634" lon="103.4049464"><ele>760.44</ele><time>2026-05-23T15:18:55.000Z</time></trkpt>
        <trkpt lat="29.568019" lon="103.404926"><ele>760.58</ele><time>2026-05-23T15:18:57.000Z</time></trkpt>
        <trkpt lat="29.5680865" lon="103.4048852"><ele>760.75</ele><time>2026-05-23T15:19:01.000Z</time></trkpt>
        <trkpt lat="29.5681495" lon="103.4048472"><ele>761.16</ele><time>2026-05-23T15:19:05.000Z</time></trkpt>
        <trkpt lat="29.5681669" lon="103.4047861"><ele>761.45</ele><time>2026-05-23T15:19:09.000Z</time></trkpt>
        <trkpt lat="29.5682059" lon="103.4047533"><ele>762.07</ele><time>2026-05-23T15:19:13.000Z</time></trkpt>
        <trkpt lat="29.5682447" lon="103.4047098"><ele>761.55</ele><time>2026-05-23T15:19:17.000Z</time></trkpt>
        <trkpt lat="29.5682813" lon="103.4046714"><ele>759.89</ele><time>2026-05-23T15:19:19.000Z</time></trkpt>
        <trkpt lat="29.5683117" lon="103.4046275"><ele>758.57</ele><time>2026-05-23T15:19:21.000Z</time></trkpt>
        <trkpt lat="29.5683453" lon="103.4045868"><ele>757.48</ele><time>2026-05-23T15:19:23.000Z</time></trkpt>
        <trkpt lat="29.5683783" lon="103.4045442"><ele>756.71</ele><time>2026-05-23T15:19:25.000Z</time></trkpt>
        <trkpt lat="29.5684301" lon="103.4044906"><ele>756.01</ele><time>2026-05-23T15:19:29.000Z</time></trkpt>
        <trkpt lat="29.5684826" lon="103.4044414"><ele>755.65</ele><time>2026-05-23T15:19:33.000Z</time></trkpt>
        <trkpt lat="29.5685204" lon="103.4043663"><ele>754.6</ele><time>2026-05-23T15:19:37.000Z</time></trkpt>
        <trkpt lat="29.5685565" lon="103.4042778"><ele>754.17</ele><time>2026-05-23T15:19:41.000Z</time></trkpt>
        <trkpt lat="29.568582" lon="103.404209"><ele>753.87</ele><time>2026-05-23T15:19:43.000Z</time></trkpt>
        <trkpt lat="29.5686108" lon="103.4041452"><ele>753.44</ele><time>2026-05-23T15:19:45.000Z</time></trkpt>
        <trkpt lat="29.5686451" lon="103.4040933"><ele>752.99</ele><time>2026-05-23T15:19:47.000Z</time></trkpt>
        <trkpt lat="29.5686847" lon="103.4040489"><ele>752.52</ele><time>2026-05-23T15:19:49.000Z</time></trkpt>
        <trkpt lat="29.5687244" lon="103.403998"><ele>751.56</ele><time>2026-05-23T15:19:51.000Z</time></trkpt>
        <trkpt lat="29.568761" lon="103.4039485"><ele>751.41</ele><time>2026-05-23T15:19:53.000Z</time></trkpt>
        <trkpt lat="29.5688015" lon="103.4038939"><ele>751.11</ele><time>2026-05-23T15:19:55.000Z</time></trkpt>
        <trkpt lat="29.5688644" lon="103.4038682"><ele>750.99</ele><time>2026-05-23T15:19:59.000Z</time></trkpt>
        <trkpt lat="29.5689242" lon="103.4038741"><ele>750.24</ele><time>2026-05-23T15:20:03.000Z</time></trkpt>
        <trkpt lat="29.5689419" lon="103.4038865"><ele>751.24</ele><time>2026-05-23T15:20:07.000Z</time></trkpt>
        <trkpt lat="29.5689809" lon="103.4039021"><ele>752.25</ele><time>2026-05-23T15:20:13.000Z</time></trkpt>
        <trkpt lat="29.5690473" lon="103.4039328"><ele>753.23</ele><time>2026-05-23T15:20:17.000Z</time></trkpt>
        <trkpt lat="29.5691027" lon="103.4039367"><ele>752.84</ele><time>2026-05-23T15:20:19.000Z</time></trkpt>
        <trkpt lat="29.5691538" lon="103.4039191"><ele>751.7</ele><time>2026-05-23T15:20:21.000Z</time></trkpt>
        <trkpt lat="29.5692149" lon="103.4038837"><ele>750.52</ele><time>2026-05-23T15:20:23.000Z</time></trkpt>
        <trkpt lat="29.5692795" lon="103.4038512"><ele>750.3</ele><time>2026-05-23T15:20:25.000Z</time></trkpt>
        <trkpt lat="29.5693407" lon="103.403815"><ele>749.52</ele><time>2026-05-23T15:20:27.000Z</time></trkpt>
        <trkpt lat="29.5693927" lon="103.4037805"><ele>748.75</ele><time>2026-05-23T15:20:29.000Z</time></trkpt>
        <trkpt lat="29.5694572" lon="103.4037442"><ele>748.25</ele><time>2026-05-23T15:20:31.000Z</time></trkpt>
        <trkpt lat="29.5695111" lon="103.4037036"><ele>747.21</ele><time>2026-05-23T15:20:33.000Z</time></trkpt>
        <trkpt lat="29.5695505" lon="103.4036662"><ele>746.11</ele><time>2026-05-23T15:20:35.000Z</time></trkpt>
        <trkpt lat="29.569606" lon="103.4036201"><ele>745.37</ele><time>2026-05-23T15:20:39.000Z</time></trkpt>
        <trkpt lat="29.5696455" lon="103.4035644"><ele>744.12</ele><time>2026-05-23T15:20:43.000Z</time></trkpt>
        <trkpt lat="29.5696764" lon="103.4035046"><ele>743.83</ele><time>2026-05-23T15:20:47.000Z</time></trkpt>
        <trkpt lat="29.5697218" lon="103.4034521"><ele>742.55</ele><time>2026-05-23T15:20:51.000Z</time></trkpt>
        <trkpt lat="29.5697511" lon="103.4034012"><ele>741.71</ele><time>2026-05-23T15:20:55.000Z</time></trkpt>
        <trkpt lat="29.5697763" lon="103.4033516"><ele>740.94</ele><time>2026-05-23T15:20:59.000Z</time></trkpt>
        <trkpt lat="29.5698101" lon="103.4033023"><ele>741.17</ele><time>2026-05-23T15:21:03.000Z</time></trkpt>
        <trkpt lat="29.569861" lon="103.4032394"><ele>740.74</ele><time>2026-05-23T15:21:07.000Z</time></trkpt>
        <trkpt lat="29.569916" lon="103.4031617"><ele>742.15</ele><time>2026-05-23T15:21:11.000Z</time></trkpt>
        <trkpt lat="29.5699512" lon="103.4031014"><ele>741.26</ele><time>2026-05-23T15:21:13.000Z</time></trkpt>
        <trkpt lat="29.5699709" lon="103.4030467"><ele>739.94</ele><time>2026-05-23T15:21:15.000Z</time></trkpt>
        <trkpt lat="29.5699929" lon="103.4029918"><ele>738.26</ele><time>2026-05-23T15:21:17.000Z</time></trkpt>
        <trkpt lat="29.5700162" lon="103.4029403"><ele>736.26</ele><time>2026-05-23T15:21:19.000Z</time></trkpt>
        <trkpt lat="29.570049" lon="103.4028977"><ele>734.31</ele><time>2026-05-23T15:21:21.000Z</time></trkpt>
        <trkpt lat="29.5700918" lon="103.402862"><ele>734.74</ele><time>2026-05-23T15:21:23.000Z</time></trkpt>
        <trkpt lat="29.5701396" lon="103.4028302"><ele>736.14</ele><time>2026-05-23T15:21:25.000Z</time></trkpt>
        <trkpt lat="29.5702255" lon="103.4028099"><ele>736.52</ele><time>2026-05-23T15:21:29.000Z</time></trkpt>
        <trkpt lat="29.5703136" lon="103.4027875"><ele>736.86</ele><time>2026-05-23T15:21:33.000Z</time></trkpt>
        <trkpt lat="29.5704094" lon="103.4027741"><ele>738.17</ele><time>2026-05-23T15:21:37.000Z</time></trkpt>
        <trkpt lat="29.5704727" lon="103.4027739"><ele>738.59</ele><time>2026-05-23T15:21:39.000Z</time></trkpt>
        <trkpt lat="29.5705255" lon="103.4027763"><ele>738.94</ele><time>2026-05-23T15:21:41.000Z</time></trkpt>
        <trkpt lat="29.5705771" lon="103.402768"><ele>738.75</ele><time>2026-05-23T15:21:43.000Z</time></trkpt>
        <trkpt lat="29.5706326" lon="103.4027601"><ele>737.77</ele><time>2026-05-23T15:21:45.000Z</time></trkpt>
        <trkpt lat="29.5706894" lon="103.4027453"><ele>736.18</ele><time>2026-05-23T15:21:47.000Z</time></trkpt>
        <trkpt lat="29.5707464" lon="103.4027227"><ele>734.26</ele><time>2026-05-23T15:21:49.000Z</time></trkpt>
        <trkpt lat="29.5707885" lon="103.4026861"><ele>732.77</ele><time>2026-05-23T15:21:53.000Z</time></trkpt>
        <trkpt lat="29.5708454" lon="103.4026444"><ele>731.97</ele><time>2026-05-23T15:21:57.000Z</time></trkpt>
        <trkpt lat="29.5708962" lon="103.4026057"><ele>730.43</ele><time>2026-05-23T15:22:00.000Z</time></trkpt>
        <trkpt lat="29.5709567" lon="103.402564"><ele>729.78</ele><time>2026-05-23T15:22:04.000Z</time></trkpt>
        <trkpt lat="29.571007" lon="103.402534"><ele>728.72</ele><time>2026-05-23T15:22:08.000Z</time></trkpt>
        <trkpt lat="29.5710553" lon="103.402501"><ele>729.32</ele><time>2026-05-23T15:22:12.000Z</time></trkpt>
        <trkpt lat="29.5710982" lon="103.4024573"><ele>729.86</ele><time>2026-05-23T15:22:16.000Z</time></trkpt>
        <trkpt lat="29.5711372" lon="103.4024083"><ele>729.76</ele><time>2026-05-23T15:22:20.000Z</time></trkpt>
        <trkpt lat="29.5711833" lon="103.4023667"><ele>729.66</ele><time>2026-05-23T15:22:26.000Z</time></trkpt>
        <trkpt lat="29.5712267" lon="103.4023163"><ele>729.9</ele><time>2026-05-23T15:22:30.000Z</time></trkpt>
        <trkpt lat="29.5712702" lon="103.4022488"><ele>729.66</ele><time>2026-05-23T15:22:34.000Z</time></trkpt>
        <trkpt lat="29.5713254" lon="103.4021688"><ele>729.13</ele><time>2026-05-23T15:22:38.000Z</time></trkpt>
        <trkpt lat="29.5713733" lon="103.4020959"><ele>728.2</ele><time>2026-05-23T15:22:40.000Z</time></trkpt>
        <trkpt lat="29.5714122" lon="103.4020243"><ele>727.32</ele><time>2026-05-23T15:22:42.000Z</time></trkpt>
        <trkpt lat="29.5714375" lon="103.4019666"><ele>726.62</ele><time>2026-05-23T15:22:44.000Z</time></trkpt>
        <trkpt lat="29.5714976" lon="103.4019037"><ele>726.14</ele><time>2026-05-23T15:22:48.000Z</time></trkpt>
        <trkpt lat="29.571555" lon="103.4018487"><ele>726.86</ele><time>2026-05-23T15:22:52.000Z</time></trkpt>
        <trkpt lat="29.5716102" lon="103.4018321"><ele>727.39</ele><time>2026-05-23T15:22:56.000Z</time></trkpt>
        <trkpt lat="29.5716615" lon="103.4018359"><ele>728.14</ele><time>2026-05-23T15:23:00.000Z</time></trkpt>
        <trkpt lat="29.5717098" lon="103.4018249"><ele>729.16</ele><time>2026-05-23T15:23:04.000Z</time></trkpt>
        <trkpt lat="29.5717478" lon="103.4017797"><ele>729.13</ele><time>2026-05-23T15:23:08.000Z</time></trkpt>
        <trkpt lat="29.5717752" lon="103.4017264"><ele>729.85</ele><time>2026-05-23T15:23:12.000Z</time></trkpt>
        <trkpt lat="29.5718202" lon="103.4016882"><ele>729.82</ele><time>2026-05-23T15:23:16.000Z</time></trkpt>
        <trkpt lat="29.5718602" lon="103.4016527"><ele>730.62</ele><time>2026-05-23T15:23:20.000Z</time></trkpt>
        <trkpt lat="29.5719074" lon="103.4016204"><ele>730.27</ele><time>2026-05-23T15:23:24.000Z</time></trkpt>
        <trkpt lat="29.5719541" lon="103.401582"><ele>730.78</ele><time>2026-05-23T15:23:28.000Z</time></trkpt>
        <trkpt lat="29.5720077" lon="103.4015393"><ele>730.97</ele><time>2026-05-23T15:23:32.000Z</time></trkpt>
        <trkpt lat="29.5720309" lon="103.40147"><ele>730.99</ele><time>2026-05-23T15:23:36.000Z</time></trkpt>
        <trkpt lat="29.5720276" lon="103.4014014"><ele>730.08</ele><time>2026-05-23T15:23:40.000Z</time></trkpt>
        <trkpt lat="29.5720216" lon="103.4013437"><ele>730.57</ele><time>2026-05-23T15:23:44.000Z</time></trkpt>
        <trkpt lat="29.5719904" lon="103.4012808"><ele>730.96</ele><time>2026-05-23T15:23:50.000Z</time></trkpt>
        <trkpt lat="29.5719737" lon="103.401222"><ele>731.91</ele><time>2026-05-23T15:23:54.000Z</time></trkpt>
        <trkpt lat="29.5719685" lon="103.4011632"><ele>731.36</ele><time>2026-05-23T15:24:00.000Z</time></trkpt>
        <trkpt lat="29.5719576" lon="103.4010972"><ele>731.72</ele><time>2026-05-23T15:24:10.000Z</time></trkpt>
        <trkpt lat="29.5719588" lon="103.4010621"><ele>731.42</ele><time>2026-05-23T15:24:18.000Z</time></trkpt>
        <trkpt lat="29.5719137" lon="103.4010316"><ele>731.54</ele><time>2026-05-23T15:24:30.000Z</time></trkpt>
        <trkpt lat="29.5719114" lon="103.4010704"><ele>731.09</ele><time>2026-05-23T15:24:53.000Z</time></trkpt>
        <trkpt lat="29.5718837" lon="103.4011175"><ele>729.43</ele><time>2026-05-23T15:24:57.000Z</time></trkpt>
        <trkpt lat="29.5718923" lon="103.4010685"><ele>728.87</ele><time>2026-05-23T15:25:01.000Z</time></trkpt>
        <trkpt lat="29.5719308" lon="103.4009965"><ele>727.72</ele><time>2026-05-23T15:25:05.000Z</time></trkpt>
        <trkpt lat="29.5719366" lon="103.4009241"><ele>730.47</ele><time>2026-05-23T15:25:09.000Z</time></trkpt>
        <trkpt lat="29.5719386" lon="103.4008613"><ele>732.59</ele><time>2026-05-23T15:25:15.000Z</time></trkpt>
        <trkpt lat="29.571944" lon="103.4008013"><ele>734.01</ele><time>2026-05-23T15:25:25.000Z</time></trkpt>
        <trkpt lat="29.5719384" lon="103.4007395"><ele>734.65</ele><time>2026-05-23T15:25:31.000Z</time></trkpt>
        <trkpt lat="29.5719189" lon="103.4006762"><ele>736.23</ele><time>2026-05-23T15:25:39.000Z</time></trkpt>
        <trkpt lat="29.5719059" lon="103.4006167"><ele>738.21</ele><time>2026-05-23T15:25:51.000Z</time></trkpt>
        <trkpt lat="29.5718882" lon="103.4005614"><ele>740.74</ele><time>2026-05-23T15:25:59.000Z</time></trkpt>
        <trkpt lat="29.5718893" lon="103.4005097"><ele>743.57</ele><time>2026-05-23T15:26:05.000Z</time></trkpt>
        <trkpt lat="29.5718916" lon="103.400457"><ele>746</ele><time>2026-05-23T15:26:13.000Z</time></trkpt>
        <trkpt lat="29.571903" lon="103.4003927"><ele>749.07</ele><time>2026-05-23T15:26:29.000Z</time></trkpt>
        <trkpt lat="29.5718877" lon="103.4003305"><ele>754.28</ele><time>2026-05-23T15:26:39.000Z</time></trkpt>
        <trkpt lat="29.5718711" lon="103.4002688"><ele>758.85</ele><time>2026-05-23T15:26:57.000Z</time></trkpt>
        <trkpt lat="29.5718574" lon="103.400215"><ele>762.83</ele><time>2026-05-23T15:27:05.000Z</time></trkpt>
        <trkpt lat="29.5718406" lon="103.4001629"><ele>765.89</ele><time>2026-05-23T15:27:17.000Z</time></trkpt>
        <trkpt lat="29.5718399" lon="103.4001061"><ele>766.69</ele><time>2026-05-23T15:27:27.000Z</time></trkpt>
        <trkpt lat="29.5718368" lon="103.4000516"><ele>767.3</ele><time>2026-05-23T15:27:35.000Z</time></trkpt>
        <trkpt lat="29.5718411" lon="103.3999885"><ele>770.17</ele><time>2026-05-23T15:27:53.000Z</time></trkpt>
        <trkpt lat="29.5718304" lon="103.3999274"><ele>773.65</ele><time>2026-05-23T15:28:05.000Z</time></trkpt>
        <trkpt lat="29.5718216" lon="103.3998641"><ele>777.53</ele><time>2026-05-23T15:28:13.000Z</time></trkpt>
        <trkpt lat="29.5718361" lon="103.3998466"><ele>780.31</ele><time>2026-05-23T15:28:17.000Z</time></trkpt>
        <trkpt lat="29.5718506" lon="103.399802"><ele>781.92</ele><time>2026-05-23T15:28:29.000Z</time></trkpt>
        <trkpt lat="29.5718583" lon="103.3997511"><ele>783.82</ele><time>2026-05-23T15:28:37.000Z</time></trkpt>
        <trkpt lat="29.5718511" lon="103.3996912"><ele>786.14</ele><time>2026-05-23T15:28:43.000Z</time></trkpt>
        <trkpt lat="29.5718487" lon="103.3996341"><ele>786.95</ele><time>2026-05-23T15:28:59.000Z</time></trkpt>
        <trkpt lat="29.5718409" lon="103.3995678"><ele>789.19</ele><time>2026-05-23T15:29:09.000Z</time></trkpt>
        <trkpt lat="29.5718279" lon="103.3995118"><ele>792.38</ele><time>2026-05-23T15:29:15.000Z</time></trkpt>
        <trkpt lat="29.5718202" lon="103.399449"><ele>794.67</ele><time>2026-05-23T15:29:21.000Z</time></trkpt>
        <trkpt lat="29.5718061" lon="103.3993893"><ele>795.35</ele><time>2026-05-23T15:29:27.000Z</time></trkpt>
        <trkpt lat="29.5717976" lon="103.3993199"><ele>795.91</ele><time>2026-05-23T15:29:33.000Z</time></trkpt>
        <trkpt lat="29.5717829" lon="103.3992587"><ele>796.56</ele><time>2026-05-23T15:29:41.000Z</time></trkpt>
        <trkpt lat="29.5717567" lon="103.399209"><ele>797.27</ele><time>2026-05-23T15:29:55.000Z</time></trkpt>
        <trkpt lat="29.5717203" lon="103.3991585"><ele>798.49</ele><time>2026-05-23T15:30:07.000Z</time></trkpt>
        <trkpt lat="29.5716964" lon="103.3990924"><ele>801.53</ele><time>2026-05-23T15:30:13.000Z</time></trkpt>
        <trkpt lat="29.5716862" lon="103.3990355"><ele>803.01</ele><time>2026-05-23T15:30:17.000Z</time></trkpt>
        <trkpt lat="29.5716747" lon="103.3989817"><ele>803.94</ele><time>2026-05-23T15:30:21.000Z</time></trkpt>
        <trkpt lat="29.5716487" lon="103.3989297"><ele>804.92</ele><time>2026-05-23T15:30:29.000Z</time></trkpt>
        <trkpt lat="29.5716302" lon="103.398876"><ele>805.91</ele><time>2026-05-23T15:30:35.000Z</time></trkpt>
        <trkpt lat="29.5716161" lon="103.3988178"><ele>807.22</ele><time>2026-05-23T15:30:39.000Z</time></trkpt>
        <trkpt lat="29.5716039" lon="103.3987653"><ele>808.13</ele><time>2026-05-23T15:30:43.000Z</time></trkpt>
        <trkpt lat="29.5715943" lon="103.3987083"><ele>807.79</ele><time>2026-05-23T15:30:47.000Z</time></trkpt>
        <trkpt lat="29.5715893" lon="103.3986366"><ele>807.49</ele><time>2026-05-23T15:30:53.000Z</time></trkpt>
        <trkpt lat="29.5715862" lon="103.3985624"><ele>807.35</ele><time>2026-05-23T15:30:59.000Z</time></trkpt>
        <trkpt lat="29.5715644" lon="103.3984823"><ele>807.36</ele><time>2026-05-23T15:31:05.000Z</time></trkpt>
        <trkpt lat="29.5715519" lon="103.398418"><ele>807.08</ele><time>2026-05-23T15:31:09.000Z</time></trkpt>
        <trkpt lat="29.5715452" lon="103.3983612"><ele>806.92</ele><time>2026-05-23T15:31:13.000Z</time></trkpt>
        <trkpt lat="29.5715492" lon="103.3983088"><ele>805.85</ele><time>2026-05-23T15:31:17.000Z</time></trkpt>
        <trkpt lat="29.5715575" lon="103.3982418"><ele>804.65</ele><time>2026-05-23T15:31:25.000Z</time></trkpt>
        <trkpt lat="29.5715647" lon="103.3981796"><ele>802.58</ele><time>2026-05-23T15:31:31.000Z</time></trkpt>
        <trkpt lat="29.5715659" lon="103.3981164"><ele>800.04</ele><time>2026-05-23T15:31:37.000Z</time></trkpt>
        <trkpt lat="29.5715674" lon="103.3980591"><ele>796.55</ele><time>2026-05-23T15:31:41.000Z</time></trkpt>
        <trkpt lat="29.5715651" lon="103.3980033"><ele>794.57</ele><time>2026-05-23T15:31:45.000Z</time></trkpt>
        <trkpt lat="29.5715486" lon="103.3979445"><ele>793.06</ele><time>2026-05-23T15:31:51.000Z</time></trkpt>
        <trkpt lat="29.5715336" lon="103.397885"><ele>791.98</ele><time>2026-05-23T15:31:57.000Z</time></trkpt>
        <trkpt lat="29.5715061" lon="103.3978254"><ele>790.37</ele><time>2026-05-23T15:32:03.000Z</time></trkpt>
        <trkpt lat="29.5714937" lon="103.3977534"><ele>787.45</ele><time>2026-05-23T15:32:09.000Z</time></trkpt>
        <trkpt lat="29.5714698" lon="103.3976837"><ele>785.64</ele><time>2026-05-23T15:32:13.000Z</time></trkpt>
        <trkpt lat="29.5714515" lon="103.3976245"><ele>784.91</ele><time>2026-05-23T15:32:17.000Z</time></trkpt>
        <trkpt lat="29.5714466" lon="103.397566"><ele>784.28</ele><time>2026-05-23T15:32:21.000Z</time></trkpt>
        <trkpt lat="29.5714542" lon="103.3975058"><ele>783.51</ele><time>2026-05-23T15:32:25.000Z</time></trkpt>
        <trkpt lat="29.5714733" lon="103.3974427"><ele>782.8</ele><time>2026-05-23T15:32:29.000Z</time></trkpt>
        <trkpt lat="29.5714867" lon="103.3973823"><ele>782.62</ele><time>2026-05-23T15:32:33.000Z</time></trkpt>
        <trkpt lat="29.5715039" lon="103.3973146"><ele>782.94</ele><time>2026-05-23T15:32:37.000Z</time></trkpt>
        <trkpt lat="29.5715194" lon="103.3972736"><ele>782.98</ele><time>2026-05-23T15:32:41.000Z</time></trkpt>
        <trkpt lat="29.5715465" lon="103.3972197"><ele>782.78</ele><time>2026-05-23T15:32:47.000Z</time></trkpt>
        <trkpt lat="29.5715691" lon="103.3971659"><ele>781.95</ele><time>2026-05-23T15:32:51.000Z</time></trkpt>
        <trkpt lat="29.5716043" lon="103.3971179"><ele>781.33</ele><time>2026-05-23T15:32:55.000Z</time></trkpt>
        <trkpt lat="29.5716413" lon="103.3970613"><ele>779.87</ele><time>2026-05-23T15:32:59.000Z</time></trkpt>
        <trkpt lat="29.571677" lon="103.3969988"><ele>775.88</ele><time>2026-05-23T15:33:03.000Z</time></trkpt>
        <trkpt lat="29.5717091" lon="103.3969492"><ele>773.29</ele><time>2026-05-23T15:33:07.000Z</time></trkpt>
        <trkpt lat="29.5717441" lon="103.3968989"><ele>770.24</ele><time>2026-05-23T15:33:13.000Z</time></trkpt>
        <trkpt lat="29.5717766" lon="103.3968418"><ele>767.18</ele><time>2026-05-23T15:33:19.000Z</time></trkpt>
        <trkpt lat="29.5718257" lon="103.3968118"><ele>764.95</ele><time>2026-05-23T15:33:25.000Z</time></trkpt>
        <trkpt lat="29.5718806" lon="103.3967928"><ele>763</ele><time>2026-05-23T15:33:31.000Z</time></trkpt>
        <trkpt lat="29.5719413" lon="103.3967576"><ele>761.07</ele><time>2026-05-23T15:33:35.000Z</time></trkpt>
        <trkpt lat="29.5720106" lon="103.3967395"><ele>760.03</ele><time>2026-05-23T15:33:39.000Z</time></trkpt>
        <trkpt lat="29.5720736" lon="103.3967338"><ele>759.45</ele><time>2026-05-23T15:33:43.000Z</time></trkpt>
        <trkpt lat="29.5721388" lon="103.3967262"><ele>758.83</ele><time>2026-05-23T15:33:47.000Z</time></trkpt>
        <trkpt lat="29.5721908" lon="103.396728"><ele>757.93</ele><time>2026-05-23T15:33:51.000Z</time></trkpt>
        <trkpt lat="29.5722388" lon="103.3967251"><ele>757.09</ele><time>2026-05-23T15:33:55.000Z</time></trkpt>
        <trkpt lat="29.5722919" lon="103.3967162"><ele>755.44</ele><time>2026-05-23T15:33:59.000Z</time></trkpt>
        <trkpt lat="29.5723397" lon="103.3966801"><ele>753.64</ele><time>2026-05-23T15:34:03.000Z</time></trkpt>
        <trkpt lat="29.5723487" lon="103.3966242"><ele>751.25</ele><time>2026-05-23T15:34:07.000Z</time></trkpt>
        <trkpt lat="29.5723561" lon="103.3965576"><ele>748.02</ele><time>2026-05-23T15:34:15.000Z</time></trkpt>
        <trkpt lat="29.5723527" lon="103.3964954"><ele>745.9</ele><time>2026-05-23T15:34:17.000Z</time></trkpt>
        <trkpt lat="29.5723586" lon="103.3964203"><ele>744.62</ele><time>2026-05-23T15:34:19.000Z</time></trkpt>
        <trkpt lat="29.5723786" lon="103.3963491"><ele>742.5</ele><time>2026-05-23T15:34:23.000Z</time></trkpt>
        <trkpt lat="29.5723913" lon="103.3962805"><ele>741.75</ele><time>2026-05-23T15:34:27.000Z</time></trkpt>
        <trkpt lat="29.5723826" lon="103.3962221"><ele>741.31</ele><time>2026-05-23T15:34:29.000Z</time></trkpt>
        <trkpt lat="29.5723796" lon="103.3961488"><ele>741.25</ele><time>2026-05-23T15:34:33.000Z</time></trkpt>
        <trkpt lat="29.572386" lon="103.396087"><ele>741.19</ele><time>2026-05-23T15:34:37.000Z</time></trkpt>
        <trkpt lat="29.5724247" lon="103.3960165"><ele>740.43</ele><time>2026-05-23T15:34:41.000Z</time></trkpt>
        <trkpt lat="29.5724841" lon="103.3959695"><ele>738.52</ele><time>2026-05-23T15:34:45.000Z</time></trkpt>
        <trkpt lat="29.5725529" lon="103.3959469"><ele>736.08</ele><time>2026-05-23T15:34:49.000Z</time></trkpt>
        <trkpt lat="29.5726108" lon="103.3959218"><ele>734.87</ele><time>2026-05-23T15:34:53.000Z</time></trkpt>
        <trkpt lat="29.572659" lon="103.3958914"><ele>733.51</ele><time>2026-05-23T15:34:57.000Z</time></trkpt>
        <trkpt lat="29.5727022" lon="103.3958615"><ele>732.36</ele><time>2026-05-23T15:35:03.000Z</time></trkpt>
        <trkpt lat="29.5727324" lon="103.3958227"><ele>731.43</ele><time>2026-05-23T15:35:07.000Z</time></trkpt>
        <trkpt lat="29.5727567" lon="103.3957564"><ele>730.93</ele><time>2026-05-23T15:35:13.000Z</time></trkpt>
        <trkpt lat="29.5727792" lon="103.3956926"><ele>731.67</ele><time>2026-05-23T15:35:17.000Z</time></trkpt>
        <trkpt lat="29.5728162" lon="103.3956287"><ele>731.78</ele><time>2026-05-23T15:35:21.000Z</time></trkpt>
        <trkpt lat="29.5728496" lon="103.3955585"><ele>729.72</ele><time>2026-05-23T15:35:25.000Z</time></trkpt>
        <trkpt lat="29.5728785" lon="103.3954822"><ele>726.98</ele><time>2026-05-23T15:35:29.000Z</time></trkpt>
        <trkpt lat="29.572916" lon="103.3954075"><ele>724.4</ele><time>2026-05-23T15:35:33.000Z</time></trkpt>
        <trkpt lat="29.5729671" lon="103.3953192"><ele>722.09</ele><time>2026-05-23T15:35:37.000Z</time></trkpt>
        <trkpt lat="29.572981" lon="103.3952482"><ele>720.97</ele><time>2026-05-23T15:35:41.000Z</time></trkpt>
        <trkpt lat="29.5729678" lon="103.3951955"><ele>718.9</ele><time>2026-05-23T15:35:45.000Z</time></trkpt>
        <trkpt lat="29.5729305" lon="103.395142"><ele>717.02</ele><time>2026-05-23T15:35:51.000Z</time></trkpt>
        <trkpt lat="29.5729054" lon="103.3950754"><ele>715.91</ele><time>2026-05-23T15:35:55.000Z</time></trkpt>
        <trkpt lat="29.5728947" lon="103.3949929"><ele>716.03</ele><time>2026-05-23T15:35:59.000Z</time></trkpt>
        <trkpt lat="29.5729016" lon="103.3948846"><ele>714.94</ele><time>2026-05-23T15:36:03.000Z</time></trkpt>
        <trkpt lat="29.5728936" lon="103.3948009"><ele>714.27</ele><time>2026-05-23T15:36:07.000Z</time></trkpt>
        <trkpt lat="29.5728671" lon="103.3947295"><ele>713.27</ele><time>2026-05-23T15:36:11.000Z</time></trkpt>
        <trkpt lat="29.5728339" lon="103.394685"><ele>711.86</ele><time>2026-05-23T15:36:15.000Z</time></trkpt>
        <trkpt lat="29.5727749" lon="103.3946337"><ele>709.93</ele><time>2026-05-23T15:36:21.000Z</time></trkpt>
        <trkpt lat="29.57273" lon="103.3945977"><ele>708.11</ele><time>2026-05-23T15:36:29.000Z</time></trkpt>
        <trkpt lat="29.5726985" lon="103.3945569"><ele>706.04</ele><time>2026-05-23T15:36:33.000Z</time></trkpt>
        <trkpt lat="29.5727128" lon="103.3945054"><ele>704.4</ele><time>2026-05-23T15:36:37.000Z</time></trkpt>
        <trkpt lat="29.5727351" lon="103.3944513"><ele>702.83</ele><time>2026-05-23T15:36:41.000Z</time></trkpt>
        <trkpt lat="29.5727592" lon="103.3943957"><ele>701.23</ele><time>2026-05-23T15:36:45.000Z</time></trkpt>
        <trkpt lat="29.5727917" lon="103.3943377"><ele>700.01</ele><time>2026-05-23T15:36:51.000Z</time></trkpt>
        <trkpt lat="29.5728255" lon="103.3942781"><ele>697.42</ele><time>2026-05-23T15:36:55.000Z</time></trkpt>
        <trkpt lat="29.5728546" lon="103.3942183"><ele>695.45</ele><time>2026-05-23T15:36:59.000Z</time></trkpt>
        <trkpt lat="29.5728829" lon="103.3941501"><ele>694.03</ele><time>2026-05-23T15:37:03.000Z</time></trkpt>
        <trkpt lat="29.5729051" lon="103.3940887"><ele>692.39</ele><time>2026-05-23T15:37:07.000Z</time></trkpt>
        <trkpt lat="29.5729239" lon="103.3940324"><ele>691.8</ele><time>2026-05-23T15:37:11.000Z</time></trkpt>
        <trkpt lat="29.572943" lon="103.3939779"><ele>692.6</ele><time>2026-05-23T15:37:15.000Z</time></trkpt>
        <trkpt lat="29.5729663" lon="103.3939241"><ele>693.54</ele><time>2026-05-23T15:37:19.000Z</time></trkpt>
        <trkpt lat="29.5729879" lon="103.3938657"><ele>694.05</ele><time>2026-05-23T15:37:23.000Z</time></trkpt>
        <trkpt lat="29.573019" lon="103.3938037"><ele>694.43</ele><time>2026-05-23T15:37:27.000Z</time></trkpt>
        <trkpt lat="29.5730575" lon="103.3937431"><ele>694.79</ele><time>2026-05-23T15:37:31.000Z</time></trkpt>
        <trkpt lat="29.5731061" lon="103.3937085"><ele>694.07</ele><time>2026-05-23T15:37:35.000Z</time></trkpt>
        <trkpt lat="29.5731572" lon="103.3937104"><ele>692.99</ele><time>2026-05-23T15:37:39.000Z</time></trkpt>
        <trkpt lat="29.5732059" lon="103.3937164"><ele>692.53</ele><time>2026-05-23T15:37:43.000Z</time></trkpt>
        <trkpt lat="29.573253" lon="103.3937242"><ele>691.28</ele><time>2026-05-23T15:37:47.000Z</time></trkpt>
        <trkpt lat="29.5733053" lon="103.3937083"><ele>689.52</ele><time>2026-05-23T15:37:51.000Z</time></trkpt>
        <trkpt lat="29.5733489" lon="103.3936727"><ele>688.09</ele><time>2026-05-23T15:37:55.000Z</time></trkpt>
        <trkpt lat="29.5733938" lon="103.3936231"><ele>687.09</ele><time>2026-05-23T15:37:59.000Z</time></trkpt>
        <trkpt lat="29.5734398" lon="103.3935828"><ele>686.88</ele><time>2026-05-23T15:38:03.000Z</time></trkpt>
        <trkpt lat="29.5734884" lon="103.3935623"><ele>686.88</ele><time>2026-05-23T15:38:07.000Z</time></trkpt>
        <trkpt lat="29.5735361" lon="103.3935461"><ele>686.92</ele><time>2026-05-23T15:38:11.000Z</time></trkpt>
        <trkpt lat="29.5735927" lon="103.3935206"><ele>686.26</ele><time>2026-05-23T15:38:17.000Z</time></trkpt>
        <trkpt lat="29.573607" lon="103.3934884"><ele>686.68</ele><time>2026-05-23T15:38:21.000Z</time></trkpt>
        <trkpt lat="29.5736413" lon="103.3934626"><ele>687.3</ele><time>2026-05-23T15:38:28.000Z</time></trkpt>
        <trkpt lat="29.5736782" lon="103.3934307"><ele>686.93</ele><time>2026-05-23T15:38:32.000Z</time></trkpt>
        <trkpt lat="29.5737223" lon="103.3934117"><ele>686.68</ele><time>2026-05-23T15:38:36.000Z</time></trkpt>
        <trkpt lat="29.57377" lon="103.3933928"><ele>686.05</ele><time>2026-05-23T15:38:40.000Z</time></trkpt>
        <trkpt lat="29.5738167" lon="103.3933726"><ele>685.38</ele><time>2026-05-23T15:38:44.000Z</time></trkpt>
        <trkpt lat="29.5738633" lon="103.3933454"><ele>684.99</ele><time>2026-05-23T15:38:48.000Z</time></trkpt>
        <trkpt lat="29.573907" lon="103.3933048"><ele>684.96</ele><time>2026-05-23T15:38:52.000Z</time></trkpt>
        <trkpt lat="29.5739352" lon="103.3932554"><ele>685.7</ele><time>2026-05-23T15:38:56.000Z</time></trkpt>
        <trkpt lat="29.573953" lon="103.3931963"><ele>686.4</ele><time>2026-05-23T15:39:02.000Z</time></trkpt>
        <trkpt lat="29.5739811" lon="103.3931327"><ele>685.81</ele><time>2026-05-23T15:39:06.000Z</time></trkpt>
        <trkpt lat="29.5740141" lon="103.3930712"><ele>684.39</ele><time>2026-05-23T15:39:10.000Z</time></trkpt>
        <trkpt lat="29.5740362" lon="103.3930052"><ele>682.99</ele><time>2026-05-23T15:39:16.000Z</time></trkpt>
        <trkpt lat="29.5740502" lon="103.39294"><ele>681.16</ele><time>2026-05-23T15:39:22.000Z</time></trkpt>
        <trkpt lat="29.5740701" lon="103.3928804"><ele>680.7</ele><time>2026-05-23T15:39:26.000Z</time></trkpt>
        <trkpt lat="29.5740846" lon="103.3928265"><ele>679.27</ele><time>2026-05-23T15:39:34.000Z</time></trkpt>
        <trkpt lat="29.5740791" lon="103.3927641"><ele>676.71</ele><time>2026-05-23T15:39:38.000Z</time></trkpt>
        <trkpt lat="29.5741069" lon="103.3926664"><ele>674.15</ele><time>2026-05-23T15:39:42.000Z</time></trkpt>
        <trkpt lat="29.5741207" lon="103.3925827"><ele>672.23</ele><time>2026-05-23T15:39:48.000Z</time></trkpt>
        <trkpt lat="29.5741157" lon="103.3924997"><ele>670.61</ele><time>2026-05-23T15:39:52.000Z</time></trkpt>
        <trkpt lat="29.5740835" lon="103.392437"><ele>669.01</ele><time>2026-05-23T15:39:56.000Z</time></trkpt>
        <trkpt lat="29.5740719" lon="103.3924435"><ele>666.01</ele><time>2026-05-23T15:40:12.000Z</time></trkpt>
        <trkpt lat="29.5741033" lon="103.3924145"><ele>663.33</ele><time>2026-05-23T15:40:18.000Z</time></trkpt>
        <trkpt lat="29.5741412" lon="103.3923878"><ele>661.8</ele><time>2026-05-23T15:40:22.000Z</time></trkpt>
        <trkpt lat="29.5741457" lon="103.392337"><ele>660.18</ele><time>2026-05-23T15:40:33.000Z</time></trkpt>
        <trkpt lat="29.57417" lon="103.3922917"><ele>659.43</ele><time>2026-05-23T15:40:41.000Z</time></trkpt>
        <trkpt lat="29.5742139" lon="103.3922275"><ele>657.62</ele><time>2026-05-23T15:40:45.000Z</time></trkpt>
        <trkpt lat="29.5742699" lon="103.3921837"><ele>657.61</ele><time>2026-05-23T15:40:49.000Z</time></trkpt>
        <trkpt lat="29.5743337" lon="103.3921524"><ele>656.86</ele><time>2026-05-23T15:40:53.000Z</time></trkpt>
        <trkpt lat="29.5743961" lon="103.3921315"><ele>656.33</ele><time>2026-05-23T15:40:57.000Z</time></trkpt>
        <trkpt lat="29.5744052" lon="103.3921294"><ele>656.56</ele><time>2026-05-23T15:40:59.000Z</time></trkpt>
        <trkpt lat="29.5743561" lon="103.3921019"><ele>656.44</ele><time>2026-05-23T15:41:04.000Z</time></trkpt>
        <trkpt lat="29.5743726" lon="103.3920758"><ele>658.05</ele><time>2026-05-23T15:41:08.000Z</time></trkpt>
        <trkpt lat="29.5744153" lon="103.3920695"><ele>659.33</ele><time>2026-05-23T15:41:12.000Z</time></trkpt>
        <trkpt lat="29.5744722" lon="103.3920809"><ele>660.36</ele><time>2026-05-23T15:41:20.000Z</time></trkpt>
        <trkpt lat="29.5745247" lon="103.3920856"><ele>661.19</ele><time>2026-05-23T15:41:26.000Z</time></trkpt>
        <trkpt lat="29.5745721" lon="103.3920999"><ele>661.62</ele><time>2026-05-23T15:41:34.000Z</time></trkpt>
        <trkpt lat="29.5745916" lon="103.3921432"><ele>663.16</ele><time>2026-05-23T15:41:40.000Z</time></trkpt>
        <trkpt lat="29.5746278" lon="103.3921513"><ele>664.89</ele><time>2026-05-23T15:41:52.000Z</time></trkpt>
        <trkpt lat="29.5746579" lon="103.3921368"><ele>666.11</ele><time>2026-05-23T15:42:00.000Z</time></trkpt>
        <trkpt lat="29.5747109" lon="103.3921258"><ele>666.74</ele><time>2026-05-23T15:42:10.000Z</time></trkpt>
        <trkpt lat="29.5747302" lon="103.3921195"><ele>668.49</ele><time>2026-05-23T15:42:12.000Z</time></trkpt>
        <trkpt lat="29.5747675" lon="103.3921148"><ele>669.47</ele><time>2026-05-23T15:42:24.000Z</time></trkpt>
        <trkpt lat="29.5748186" lon="103.3921206"><ele>670.57</ele><time>2026-05-23T15:42:32.000Z</time></trkpt>
        <trkpt lat="29.5748626" lon="103.3921034"><ele>671.8</ele><time>2026-05-23T15:43:00.000Z</time></trkpt>
        <trkpt lat="29.574903" lon="103.3920697"><ele>672.86</ele><time>2026-05-23T15:43:10.000Z</time></trkpt>
        <trkpt lat="29.5749531" lon="103.392045"><ele>672.99</ele><time>2026-05-23T15:43:24.000Z</time></trkpt>
        <trkpt lat="29.5750051" lon="103.3920408"><ele>674.79</ele><time>2026-05-23T15:43:30.000Z</time></trkpt>
        <trkpt lat="29.5750495" lon="103.3920137"><ele>675.81</ele><time>2026-05-23T15:43:38.000Z</time></trkpt>
        <trkpt lat="29.5750966" lon="103.3920053"><ele>677.25</ele><time>2026-05-23T15:43:46.000Z</time></trkpt>
        <trkpt lat="29.5751483" lon="103.3919759"><ele>679.34</ele><time>2026-05-23T15:44:04.000Z</time></trkpt>
        <trkpt lat="29.5751692" lon="103.3919724"><ele>680.68</ele><time>2026-05-23T15:44:06.000Z</time></trkpt>
        <trkpt lat="29.5752061" lon="103.3919656"><ele>681.94</ele><time>2026-05-23T15:44:20.000Z</time></trkpt>
        <trkpt lat="29.5752469" lon="103.391941"><ele>684.53</ele><time>2026-05-23T15:44:30.000Z</time></trkpt>
        <trkpt lat="29.5752698" lon="103.3919345"><ele>685.31</ele><time>2026-05-23T15:44:34.000Z</time></trkpt>
        <trkpt lat="29.57529" lon="103.39189"><ele>687.15</ele><time>2026-05-23T15:44:46.000Z</time></trkpt>
        <trkpt lat="29.5753203" lon="103.3918732"><ele>687.59</ele><time>2026-05-23T15:44:54.000Z</time></trkpt>
        <trkpt lat="29.5753596" lon="103.39184"><ele>689.12</ele><time>2026-05-23T15:45:04.000Z</time></trkpt>
        <trkpt lat="29.5754033" lon="103.3918262"><ele>690.11</ele><time>2026-05-23T15:45:10.000Z</time></trkpt>
        <trkpt lat="29.575451" lon="103.3918123"><ele>690.68</ele><time>2026-05-23T15:45:20.000Z</time></trkpt>
        <trkpt lat="29.5754723" lon="103.391818"><ele>691.71</ele><time>2026-05-23T15:45:24.000Z</time></trkpt>
        <trkpt lat="29.5754723" lon="103.391818"><ele>691.71</ele><time>2026-05-23T15:45:51.000Z</time></trkpt>
        <trkpt lat="29.5754821" lon="103.3918762"><ele>692.42</ele><time>2026-05-23T15:45:54.000Z</time></trkpt>
        <trkpt lat="29.5754821" lon="103.3918762"><ele>692.42</ele><time>2026-05-23T15:46:43.000Z</time></trkpt>
        <trkpt lat="29.575543" lon="103.3918939"><ele>694.37</ele><time>2026-05-23T15:46:57.000Z</time></trkpt>
        <trkpt lat="29.5755954" lon="103.3919069"><ele>696.82</ele><time>2026-05-23T15:47:05.000Z</time></trkpt>
        <trkpt lat="29.5756458" lon="103.3919266"><ele>698.82</ele><time>2026-05-23T15:47:13.000Z</time></trkpt>
        <trkpt lat="29.5756991" lon="103.3919443"><ele>700.56</ele><time>2026-05-23T15:47:23.000Z</time></trkpt>
        <trkpt lat="29.5757527" lon="103.391925"><ele>702.56</ele><time>2026-05-23T15:47:43.000Z</time></trkpt>
        <trkpt lat="29.5758013" lon="103.3919013"><ele>705.11</ele><time>2026-05-23T15:47:51.000Z</time></trkpt>
        <trkpt lat="29.5758423" lon="103.3918692"><ele>707.88</ele><time>2026-05-23T15:48:07.000Z</time></trkpt>
        <trkpt lat="29.5758849" lon="103.391853"><ele>710.57</ele><time>2026-05-23T15:48:23.000Z</time></trkpt>
        <trkpt lat="29.5759326" lon="103.3918573"><ele>712.47</ele><time>2026-05-23T15:48:31.000Z</time></trkpt>
        <trkpt lat="29.575985" lon="103.3918793"><ele>714.15</ele><time>2026-05-23T15:48:37.000Z</time></trkpt>
        <trkpt lat="29.5760356" lon="103.3918976"><ele>715.74</ele><time>2026-05-23T15:48:41.000Z</time></trkpt>
        <trkpt lat="29.5760853" lon="103.3919249"><ele>716.35</ele><time>2026-05-23T15:48:45.000Z</time></trkpt>
        <trkpt lat="29.5761327" lon="103.3919485"><ele>717.52</ele><time>2026-05-23T15:48:51.000Z</time></trkpt>
        <trkpt lat="29.5761472" lon="103.3919949"><ele>718.71</ele><time>2026-05-23T15:48:59.000Z</time></trkpt>
        <trkpt lat="29.5761854" lon="103.3919754"><ele>720</ele><time>2026-05-23T15:49:21.000Z</time></trkpt>
        <trkpt lat="29.5762383" lon="103.3919702"><ele>719.85</ele><time>2026-05-23T15:49:27.000Z</time></trkpt>
        <trkpt lat="29.576292" lon="103.3919606"><ele>719.63</ele><time>2026-05-23T15:49:37.000Z</time></trkpt>
        <trkpt lat="29.5763429" lon="103.3919558"><ele>719.42</ele><time>2026-05-23T15:49:49.000Z</time></trkpt>
        <trkpt lat="29.5763927" lon="103.3919629"><ele>721.87</ele><time>2026-05-23T15:49:59.000Z</time></trkpt>
        <trkpt lat="29.5764399" lon="103.3919557"><ele>724.34</ele><time>2026-05-23T15:50:05.000Z</time></trkpt>
        <trkpt lat="29.5764834" lon="103.3919389"><ele>726.31</ele><time>2026-05-23T15:50:17.000Z</time></trkpt>
        <trkpt lat="29.5765336" lon="103.3919185"><ele>729.09</ele><time>2026-05-23T15:50:23.000Z</time></trkpt>
        <trkpt lat="29.5765882" lon="103.3918925"><ele>731.1</ele><time>2026-05-23T15:50:27.000Z</time></trkpt>
        <trkpt lat="29.5766469" lon="103.3918723"><ele>731.74</ele><time>2026-05-23T15:50:31.000Z</time></trkpt>
        <trkpt lat="29.5767055" lon="103.3918641"><ele>731.6</ele><time>2026-05-23T15:50:37.000Z</time></trkpt>
        <trkpt lat="29.5767613" lon="103.391831"><ele>732.56</ele><time>2026-05-23T15:50:41.000Z</time></trkpt>
        <trkpt lat="29.5768062" lon="103.3917861"><ele>733.12</ele><time>2026-05-23T15:50:45.000Z</time></trkpt>
        <trkpt lat="29.5768262" lon="103.3917284"><ele>733.49</ele><time>2026-05-23T15:50:51.000Z</time></trkpt>
        <trkpt lat="29.5768389" lon="103.3916644"><ele>733.34</ele><time>2026-05-23T15:50:57.000Z</time></trkpt>
        <trkpt lat="29.5768552" lon="103.3916014"><ele>733.06</ele><time>2026-05-23T15:51:05.000Z</time></trkpt>
        <trkpt lat="29.5768684" lon="103.3915374"><ele>734.02</ele><time>2026-05-23T15:51:13.000Z</time></trkpt>
        <trkpt lat="29.5768808" lon="103.3914795"><ele>735.64</ele><time>2026-05-23T15:51:19.000Z</time></trkpt>
        <trkpt lat="29.5768966" lon="103.3914233"><ele>736.78</ele><time>2026-05-23T15:51:31.000Z</time></trkpt>
        <trkpt lat="29.5769131" lon="103.3913585"><ele>736.79</ele><time>2026-05-23T15:51:37.000Z</time></trkpt>
        <trkpt lat="29.5769279" lon="103.3912976"><ele>735.73</ele><time>2026-05-23T15:51:43.000Z</time></trkpt>
        <trkpt lat="29.576945" lon="103.3912455"><ele>735.51</ele><time>2026-05-23T15:51:49.000Z</time></trkpt>
        <trkpt lat="29.5769832" lon="103.3912056"><ele>735.87</ele><time>2026-05-23T15:51:55.000Z</time></trkpt>
        <trkpt lat="29.5770146" lon="103.3911562"><ele>737.63</ele><time>2026-05-23T15:52:01.000Z</time></trkpt>
        <trkpt lat="29.5770461" lon="103.3911126"><ele>738.86</ele><time>2026-05-23T15:52:07.000Z</time></trkpt>
        <trkpt lat="29.577075" lon="103.3910573"><ele>740.01</ele><time>2026-05-23T15:52:15.000Z</time></trkpt>
        <trkpt lat="29.5771062" lon="103.3910096"><ele>741.65</ele><time>2026-05-23T15:52:21.000Z</time></trkpt>
        <trkpt lat="29.5771489" lon="103.3909639"><ele>743.84</ele><time>2026-05-23T15:52:27.000Z</time></trkpt>
        <trkpt lat="29.5771938" lon="103.3909435"><ele>745.87</ele><time>2026-05-23T15:52:31.000Z</time></trkpt>
        <trkpt lat="29.5772412" lon="103.3909374"><ele>747.36</ele><time>2026-05-23T15:52:35.000Z</time></trkpt>
        <trkpt lat="29.5772896" lon="103.3909395"><ele>747.77</ele><time>2026-05-23T15:52:39.000Z</time></trkpt>
        <trkpt lat="29.5773459" lon="103.3909463"><ele>747.4</ele><time>2026-05-23T15:52:45.000Z</time></trkpt>
        <trkpt lat="29.5774018" lon="103.3909594"><ele>748.53</ele><time>2026-05-23T15:52:51.000Z</time></trkpt>
        <trkpt lat="29.5774593" lon="103.3909772"><ele>747.69</ele><time>2026-05-23T15:52:57.000Z</time></trkpt>
        <trkpt lat="29.5775098" lon="103.3909978"><ele>746.32</ele><time>2026-05-23T15:53:03.000Z</time></trkpt>
        <trkpt lat="29.5775632" lon="103.3910252"><ele>745.85</ele><time>2026-05-23T15:53:11.000Z</time></trkpt>
        <trkpt lat="29.5776245" lon="103.3910387"><ele>746.14</ele><time>2026-05-23T15:53:17.000Z</time></trkpt>
        <trkpt lat="29.5776791" lon="103.3910542"><ele>747.53</ele><time>2026-05-23T15:53:23.000Z</time></trkpt>
        <trkpt lat="29.5777264" lon="103.3910719"><ele>749.98</ele><time>2026-05-23T15:53:29.000Z</time></trkpt>
        <trkpt lat="29.5777727" lon="103.3910794"><ele>751.34</ele><time>2026-05-23T15:53:37.000Z</time></trkpt>
        <trkpt lat="29.5778095" lon="103.391105"><ele>750.84</ele><time>2026-05-23T15:53:50.000Z</time></trkpt>
        <trkpt lat="29.57785" lon="103.3911264"><ele>751.36</ele><time>2026-05-23T15:53:58.000Z</time></trkpt>
        <trkpt lat="29.5778929" lon="103.3910975"><ele>752.09</ele><time>2026-05-23T15:54:08.000Z</time></trkpt>
        <trkpt lat="29.5779204" lon="103.3910493"><ele>755.1</ele><time>2026-05-23T15:54:12.000Z</time></trkpt>
        <trkpt lat="29.5779538" lon="103.390987"><ele>756.16</ele><time>2026-05-23T15:54:18.000Z</time></trkpt>
        <trkpt lat="29.5779901" lon="103.3909104"><ele>756.57</ele><time>2026-05-23T15:54:22.000Z</time></trkpt>
        <trkpt lat="29.5780208" lon="103.3908473"><ele>757.63</ele><time>2026-05-23T15:54:26.000Z</time></trkpt>
        <trkpt lat="29.5780522" lon="103.3907925"><ele>758.29</ele><time>2026-05-23T15:54:30.000Z</time></trkpt>
        <trkpt lat="29.5780869" lon="103.3907368"><ele>758.44</ele><time>2026-05-23T15:54:34.000Z</time></trkpt>
        <trkpt lat="29.5781213" lon="103.3906804"><ele>758.78</ele><time>2026-05-23T15:54:38.000Z</time></trkpt>
        <trkpt lat="29.5781627" lon="103.390635"><ele>757.89</ele><time>2026-05-23T15:54:42.000Z</time></trkpt>
        <trkpt lat="29.5781962" lon="103.3905758"><ele>757.46</ele><time>2026-05-23T15:54:46.000Z</time></trkpt>
        <trkpt lat="29.5782299" lon="103.3905168"><ele>757.11</ele><time>2026-05-23T15:54:50.000Z</time></trkpt>
        <trkpt lat="29.5782579" lon="103.3904585"><ele>757.19</ele><time>2026-05-23T15:54:54.000Z</time></trkpt>
        <trkpt lat="29.5782884" lon="103.3903942"><ele>757.34</ele><time>2026-05-23T15:55:00.000Z</time></trkpt>
        <trkpt lat="29.5783025" lon="103.3903301"><ele>756.96</ele><time>2026-05-23T15:55:08.000Z</time></trkpt>
        <trkpt lat="29.5783182" lon="103.3902762"><ele>754.58</ele><time>2026-05-23T15:55:14.000Z</time></trkpt>
        <trkpt lat="29.5783281" lon="103.3902084"><ele>752.66</ele><time>2026-05-23T15:55:22.000Z</time></trkpt>
        <trkpt lat="29.578338" lon="103.3901477"><ele>754.13</ele><time>2026-05-23T15:55:28.000Z</time></trkpt>
        <trkpt lat="29.5783601" lon="103.390083"><ele>756.94</ele><time>2026-05-23T15:55:34.000Z</time></trkpt>
        <trkpt lat="29.578394" lon="103.3900363"><ele>758.04</ele><time>2026-05-23T15:55:40.000Z</time></trkpt>
        <trkpt lat="29.5784293" lon="103.3899862"><ele>759.84</ele><time>2026-05-23T15:55:46.000Z</time></trkpt>
        <trkpt lat="29.5784391" lon="103.3899683"><ele>760.89</ele><time>2026-05-23T15:55:48.000Z</time></trkpt>
        <trkpt lat="29.5784585" lon="103.389927"><ele>761.34</ele><time>2026-05-23T15:55:52.000Z</time></trkpt>
        <trkpt lat="29.5784728" lon="103.3898625"><ele>761.39</ele><time>2026-05-23T15:55:58.000Z</time></trkpt>
        <trkpt lat="29.5784841" lon="103.3897976"><ele>762.87</ele><time>2026-05-23T15:56:04.000Z</time></trkpt>
        <trkpt lat="29.5784911" lon="103.3897219"><ele>766.35</ele><time>2026-05-23T15:56:10.000Z</time></trkpt>
        <trkpt lat="29.5785053" lon="103.3896528"><ele>768.73</ele><time>2026-05-23T15:56:14.000Z</time></trkpt>
        <trkpt lat="29.5785168" lon="103.3895874"><ele>771.63</ele><time>2026-05-23T15:56:20.000Z</time></trkpt>
        <trkpt lat="29.5785099" lon="103.3895301"><ele>771.35</ele><time>2026-05-23T15:56:24.000Z</time></trkpt>
        <trkpt lat="29.578494" lon="103.3894693"><ele>771.27</ele><time>2026-05-23T15:56:28.000Z</time></trkpt>
        <trkpt lat="29.5785006" lon="103.3894501"><ele>770.82</ele><time>2026-05-23T15:56:34.000Z</time></trkpt>
        <trkpt lat="29.5784805" lon="103.3894216"><ele>770.51</ele><time>2026-05-23T15:56:40.000Z</time></trkpt>
        <trkpt lat="29.5784566" lon="103.3893564"><ele>769.69</ele><time>2026-05-23T15:56:46.000Z</time></trkpt>
        <trkpt lat="29.5784042" lon="103.3893024"><ele>768.64</ele><time>2026-05-23T15:56:50.000Z</time></trkpt>
        <trkpt lat="29.5783625" lon="103.3892483"><ele>766.89</ele><time>2026-05-23T15:56:54.000Z</time></trkpt>
        <trkpt lat="29.5783383" lon="103.3891969"><ele>765.77</ele><time>2026-05-23T15:56:58.000Z</time></trkpt>
        <trkpt lat="29.5783349" lon="103.3891356"><ele>765</ele><time>2026-05-23T15:57:04.000Z</time></trkpt>
        <trkpt lat="29.5783455" lon="103.3890748"><ele>764.46</ele><time>2026-05-23T15:57:08.000Z</time></trkpt>
        <trkpt lat="29.5783648" lon="103.3890467"><ele>764.54</ele><time>2026-05-23T15:57:14.000Z</time></trkpt>
        <trkpt lat="29.5783831" lon="103.388987"><ele>765.2</ele><time>2026-05-23T15:57:33.000Z</time></trkpt>
        <trkpt lat="29.5784102" lon="103.3889219"><ele>765.29</ele><time>2026-05-23T15:57:37.000Z</time></trkpt>
        <trkpt lat="29.5784449" lon="103.3888649"><ele>765.89</ele><time>2026-05-23T15:57:41.000Z</time></trkpt>
        <trkpt lat="29.5784862" lon="103.3888487"><ele>766.43</ele><time>2026-05-23T15:57:47.000Z</time></trkpt>
        <trkpt lat="29.5785239" lon="103.3888234"><ele>767.49</ele><time>2026-05-23T15:57:55.000Z</time></trkpt>
        <trkpt lat="29.5785814" lon="103.388828"><ele>769.26</ele><time>2026-05-23T15:58:01.000Z</time></trkpt>
        <trkpt lat="29.5786376" lon="103.3888252"><ele>770.57</ele><time>2026-05-23T15:58:05.000Z</time></trkpt>
        <trkpt lat="29.5786857" lon="103.3888172"><ele>772.97</ele><time>2026-05-23T15:58:09.000Z</time></trkpt>
        <trkpt lat="29.5787442" lon="103.3887916"><ele>774.16</ele><time>2026-05-23T15:58:15.000Z</time></trkpt>
        <trkpt lat="29.5787984" lon="103.3887519"><ele>776.11</ele><time>2026-05-23T15:58:19.000Z</time></trkpt>
        <trkpt lat="29.5788604" lon="103.388721"><ele>777.78</ele><time>2026-05-23T15:58:25.000Z</time></trkpt>
        <trkpt lat="29.5788973" lon="103.3886732"><ele>777.43</ele><time>2026-05-23T15:58:29.000Z</time></trkpt>
        <trkpt lat="29.5789369" lon="103.3886247"><ele>777.03</ele><time>2026-05-23T15:58:35.000Z</time></trkpt>
        <trkpt lat="29.5789734" lon="103.3885705"><ele>777.06</ele><time>2026-05-23T15:58:41.000Z</time></trkpt>
        <trkpt lat="29.5789932" lon="103.388513"><ele>777.47</ele><time>2026-05-23T15:58:45.000Z</time></trkpt>
        <trkpt lat="29.5789931" lon="103.3884575"><ele>776.5</ele><time>2026-05-23T15:58:49.000Z</time></trkpt>
        <trkpt lat="29.5789869" lon="103.3883909"><ele>776.08</ele><time>2026-05-23T15:58:55.000Z</time></trkpt>
        <trkpt lat="29.5789859" lon="103.3883287"><ele>778.05</ele><time>2026-05-23T15:59:01.000Z</time></trkpt>
        <trkpt lat="29.578993" lon="103.3882567"><ele>778.5</ele><time>2026-05-23T15:59:09.000Z</time></trkpt>
        <trkpt lat="29.5790052" lon="103.3881892"><ele>780.25</ele><time>2026-05-23T15:59:17.000Z</time></trkpt>
        <trkpt lat="29.5790249" lon="103.388141"><ele>782.52</ele><time>2026-05-23T15:59:23.000Z</time></trkpt>
        <trkpt lat="29.5790136" lon="103.3880893"><ele>784.62</ele><time>2026-05-23T15:59:33.000Z</time></trkpt>
        <trkpt lat="29.5789965" lon="103.3880285"><ele>785.68</ele><time>2026-05-23T15:59:39.000Z</time></trkpt>
        <trkpt lat="29.5789785" lon="103.3879727"><ele>786.82</ele><time>2026-05-23T15:59:43.000Z</time></trkpt>
        <trkpt lat="29.5789605" lon="103.3879148"><ele>787.53</ele><time>2026-05-23T15:59:49.000Z</time></trkpt>
        <trkpt lat="29.5789714" lon="103.387864"><ele>787.32</ele><time>2026-05-23T15:59:55.000Z</time></trkpt>
        <trkpt lat="29.5789791" lon="103.3878474"><ele>786.52</ele><time>2026-05-23T15:59:57.000Z</time></trkpt>
        <trkpt lat="29.5789774" lon="103.3877993"><ele>786.45</ele><time>2026-05-23T16:00:05.000Z</time></trkpt>
        <trkpt lat="29.5789689" lon="103.3877353"><ele>785.65</ele><time>2026-05-23T16:00:09.000Z</time></trkpt>
        <trkpt lat="29.5789622" lon="103.387676"><ele>785.26</ele><time>2026-05-23T16:00:13.000Z</time></trkpt>
        <trkpt lat="29.5789581" lon="103.387597"><ele>785.51</ele><time>2026-05-23T16:00:19.000Z</time></trkpt>
        <trkpt lat="29.5789553" lon="103.3875272"><ele>785.45</ele><time>2026-05-23T16:00:23.000Z</time></trkpt>
        <trkpt lat="29.5789564" lon="103.3874607"><ele>785.65</ele><time>2026-05-23T16:00:27.000Z</time></trkpt>
        <trkpt lat="29.5789577" lon="103.3874009"><ele>785.34</ele><time>2026-05-23T16:00:31.000Z</time></trkpt>
        <trkpt lat="29.5789568" lon="103.3873444"><ele>786.19</ele><time>2026-05-23T16:00:35.000Z</time></trkpt>
        <trkpt lat="29.5789575" lon="103.3872837"><ele>787.17</ele><time>2026-05-23T16:00:39.000Z</time></trkpt>
        <trkpt lat="29.5789655" lon="103.3872196"><ele>787.78</ele><time>2026-05-23T16:00:43.000Z</time></trkpt>
        <trkpt lat="29.5789856" lon="103.3871648"><ele>788.16</ele><time>2026-05-23T16:00:47.000Z</time></trkpt>
        <trkpt lat="29.5790164" lon="103.3871186"><ele>788.69</ele><time>2026-05-23T16:00:51.000Z</time></trkpt>
        <trkpt lat="29.5790492" lon="103.3870608"><ele>789.2</ele><time>2026-05-23T16:00:55.000Z</time></trkpt>
        <trkpt lat="29.5790727" lon="103.3870038"><ele>790.13</ele><time>2026-05-23T16:01:01.000Z</time></trkpt>
        <trkpt lat="29.5791055" lon="103.3869608"><ele>792.94</ele><time>2026-05-23T16:01:15.000Z</time></trkpt>
        <trkpt lat="29.5791438" lon="103.38692"><ele>792.33</ele><time>2026-05-23T16:01:25.000Z</time></trkpt>
        <trkpt lat="29.5791807" lon="103.3868779"><ele>790.5</ele><time>2026-05-23T16:01:39.000Z</time></trkpt>
        <trkpt lat="29.5792247" lon="103.3868348"><ele>792.98</ele><time>2026-05-23T16:01:45.000Z</time></trkpt>
        <trkpt lat="29.5792684" lon="103.3867897"><ele>794.53</ele><time>2026-05-23T16:01:53.000Z</time></trkpt>
        <trkpt lat="29.5793072" lon="103.3867497"><ele>794.9</ele><time>2026-05-23T16:02:09.000Z</time></trkpt>
        <trkpt lat="29.5793591" lon="103.3867287"><ele>796.38</ele><time>2026-05-23T16:02:25.000Z</time></trkpt>
        <trkpt lat="29.5793999" lon="103.3866963"><ele>799.74</ele><time>2026-05-23T16:02:33.000Z</time></trkpt>
        <trkpt lat="29.5794121" lon="103.3866465"><ele>801.45</ele><time>2026-05-23T16:02:41.000Z</time></trkpt>
        <trkpt lat="29.5794112" lon="103.3865918"><ele>802.95</ele><time>2026-05-23T16:02:55.000Z</time></trkpt>
        <trkpt lat="29.5794105" lon="103.3865278"><ele>805.1</ele><time>2026-05-23T16:03:07.000Z</time></trkpt>
        <trkpt lat="29.5794101" lon="103.3864633"><ele>808.49</ele><time>2026-05-23T16:03:15.000Z</time></trkpt>
        <trkpt lat="29.5793965" lon="103.3864065"><ele>810.56</ele><time>2026-05-23T16:03:25.000Z</time></trkpt>
        <trkpt lat="29.5794267" lon="103.3863666"><ele>812.59</ele><time>2026-05-23T16:03:43.000Z</time></trkpt>
        <trkpt lat="29.5794322" lon="103.3863172"><ele>814.52</ele><time>2026-05-23T16:03:47.000Z</time></trkpt>
        <trkpt lat="29.5794188" lon="103.3862686"><ele>817.05</ele><time>2026-05-23T16:03:57.000Z</time></trkpt>
        <trkpt lat="29.5794385" lon="103.3862125"><ele>818.92</ele><time>2026-05-23T16:04:03.000Z</time></trkpt>
        <trkpt lat="29.5794496" lon="103.3861582"><ele>820.17</ele><time>2026-05-23T16:04:09.000Z</time></trkpt>
        <trkpt lat="29.5794405" lon="103.3861059"><ele>822.08</ele><time>2026-05-23T16:04:15.000Z</time></trkpt>
        <trkpt lat="29.579436" lon="103.3860529"><ele>824.8</ele><time>2026-05-23T16:04:21.000Z</time></trkpt>
        <trkpt lat="29.579443" lon="103.3859955"><ele>827.12</ele><time>2026-05-23T16:04:39.000Z</time></trkpt>
        <trkpt lat="29.5794486" lon="103.3859363"><ele>829</ele><time>2026-05-23T16:04:45.000Z</time></trkpt>
        <trkpt lat="29.5794504" lon="103.3858799"><ele>830.85</ele><time>2026-05-23T16:04:51.000Z</time></trkpt>
        <trkpt lat="29.5794842" lon="103.3858559"><ele>831.92</ele><time>2026-05-23T16:05:01.000Z</time></trkpt>
        <trkpt lat="29.5795076" lon="103.3858231"><ele>830.56</ele><time>2026-05-23T16:05:09.000Z</time></trkpt>
        <trkpt lat="29.5795376" lon="103.3857799"><ele>830.34</ele><time>2026-05-23T16:05:23.000Z</time></trkpt>
        <trkpt lat="29.579581" lon="103.3857378"><ele>831.11</ele><time>2026-05-23T16:05:35.000Z</time></trkpt>
        <trkpt lat="29.5796179" lon="103.3856928"><ele>832.02</ele><time>2026-05-23T16:05:41.000Z</time></trkpt>
        <trkpt lat="29.5796509" lon="103.3856384"><ele>832.3</ele><time>2026-05-23T16:05:49.000Z</time></trkpt>
        <trkpt lat="29.5796689" lon="103.3855864"><ele>833.28</ele><time>2026-05-23T16:05:57.000Z</time></trkpt>
        <trkpt lat="29.5796988" lon="103.385549"><ele>834.59</ele><time>2026-05-23T16:06:07.000Z</time></trkpt>
        <trkpt lat="29.5797328" lon="103.3855142"><ele>834.97</ele><time>2026-05-23T16:06:21.000Z</time></trkpt>
        <trkpt lat="29.5797823" lon="103.3854869"><ele>836.49</ele><time>2026-05-23T16:06:43.000Z</time></trkpt>
        <trkpt lat="29.5798372" lon="103.3854845"><ele>838.43</ele><time>2026-05-23T16:06:49.000Z</time></trkpt>
        <trkpt lat="29.5798969" lon="103.3854633"><ele>837.91</ele><time>2026-05-23T16:07:05.000Z</time></trkpt>
        <trkpt lat="29.5799314" lon="103.3854095"><ele>839.83</ele><time>2026-05-23T16:07:17.000Z</time></trkpt>
        <trkpt lat="29.5799525" lon="103.3853614"><ele>843.37</ele><time>2026-05-23T16:07:25.000Z</time></trkpt>
        <trkpt lat="29.5799973" lon="103.3853504"><ele>845.93</ele><time>2026-05-23T16:07:33.000Z</time></trkpt>
        <trkpt lat="29.5799941" lon="103.3853445"><ele>846.97</ele><time>2026-05-23T16:07:35.000Z</time></trkpt>
        <trkpt lat="29.5800252" lon="103.3853363"><ele>848.94</ele><time>2026-05-23T16:07:47.000Z</time></trkpt>
        <trkpt lat="29.5800305" lon="103.3853352"><ele>849.18</ele><time>2026-05-23T16:07:49.000Z</time></trkpt>
        <trkpt lat="29.5800593" lon="103.3853115"><ele>849.36</ele><time>2026-05-23T16:07:57.000Z</time></trkpt>
        <trkpt lat="29.5801016" lon="103.3852789"><ele>850.13</ele><time>2026-05-23T16:08:07.000Z</time></trkpt>
        <trkpt lat="29.580152" lon="103.385259"><ele>851.83</ele><time>2026-05-23T16:08:13.000Z</time></trkpt>
        <trkpt lat="29.5801903" lon="103.3852201"><ele>854.6</ele><time>2026-05-23T16:08:17.000Z</time></trkpt>
        <trkpt lat="29.5802078" lon="103.385158"><ele>856.06</ele><time>2026-05-23T16:08:23.000Z</time></trkpt>
        <trkpt lat="29.5802303" lon="103.3850881"><ele>857.32</ele><time>2026-05-23T16:08:29.000Z</time></trkpt>
        <trkpt lat="29.5802576" lon="103.3850331"><ele>858.69</ele><time>2026-05-23T16:08:33.000Z</time></trkpt>
        <trkpt lat="29.5802874" lon="103.3849782"><ele>858.57</ele><time>2026-05-23T16:08:39.000Z</time></trkpt>
        <trkpt lat="29.5803256" lon="103.3849396"><ele>859.38</ele><time>2026-05-23T16:08:45.000Z</time></trkpt>
        <trkpt lat="29.580361" lon="103.3848884"><ele>860.68</ele><time>2026-05-23T16:08:53.000Z</time></trkpt>
        <trkpt lat="29.5803954" lon="103.3848328"><ele>861.05</ele><time>2026-05-23T16:08:59.000Z</time></trkpt>
        <trkpt lat="29.5804227" lon="103.3847806"><ele>861.79</ele><time>2026-05-23T16:09:05.000Z</time></trkpt>
        <trkpt lat="29.5804489" lon="103.3847325"><ele>863.37</ele><time>2026-05-23T16:09:11.000Z</time></trkpt>
        <trkpt lat="29.5804805" lon="103.3846832"><ele>864.94</ele><time>2026-05-23T16:09:17.000Z</time></trkpt>
        <trkpt lat="29.5805171" lon="103.3846375"><ele>866.38</ele><time>2026-05-23T16:09:25.000Z</time></trkpt>
        <trkpt lat="29.5805518" lon="103.3845978"><ele>867.77</ele><time>2026-05-23T16:09:33.000Z</time></trkpt>
        <trkpt lat="29.5805807" lon="103.3845554"><ele>867.98</ele><time>2026-05-23T16:09:41.000Z</time></trkpt>
        <trkpt lat="29.5806086" lon="103.3845135"><ele>869.7</ele><time>2026-05-23T16:09:47.000Z</time></trkpt>
        <trkpt lat="29.5806531" lon="103.3844915"><ele>871.17</ele><time>2026-05-23T16:09:59.000Z</time></trkpt>
        <trkpt lat="29.5806998" lon="103.3844598"><ele>871.63</ele><time>2026-05-23T16:10:07.000Z</time></trkpt>
        <trkpt lat="29.5807299" lon="103.3844152"><ele>871.1</ele><time>2026-05-23T16:10:15.000Z</time></trkpt>
        <trkpt lat="29.580763" lon="103.3843739"><ele>871.94</ele><time>2026-05-23T16:10:25.000Z</time></trkpt>
        <trkpt lat="29.5808095" lon="103.3843257"><ele>873.76</ele><time>2026-05-23T16:10:47.000Z</time></trkpt>
        <trkpt lat="29.5808506" lon="103.3842871"><ele>877.2</ele><time>2026-05-23T16:10:55.000Z</time></trkpt>
        <trkpt lat="29.5808869" lon="103.3842524"><ele>878.28</ele><time>2026-05-23T16:11:07.000Z</time></trkpt>
        <trkpt lat="29.5809229" lon="103.3842161"><ele>879.1</ele><time>2026-05-23T16:11:15.000Z</time></trkpt>
        <trkpt lat="29.5809702" lon="103.3841992"><ele>879.06</ele><time>2026-05-23T16:11:27.000Z</time></trkpt>
        <trkpt lat="29.5810234" lon="103.3841885"><ele>879.59</ele><time>2026-05-23T16:11:45.000Z</time></trkpt>
        <trkpt lat="29.5810613" lon="103.3842179"><ele>881.93</ele><time>2026-05-23T16:11:59.000Z</time></trkpt>
        <trkpt lat="29.5811047" lon="103.3842617"><ele>884.35</ele><time>2026-05-23T16:12:19.000Z</time></trkpt>
        <trkpt lat="29.5811362" lon="103.3843089"><ele>888.14</ele><time>2026-05-23T16:12:27.000Z</time></trkpt>
        <trkpt lat="29.5811747" lon="103.3843436"><ele>893.16</ele><time>2026-05-23T16:12:37.000Z</time></trkpt>
        <trkpt lat="29.5812219" lon="103.3843473"><ele>898.39</ele><time>2026-05-23T16:12:47.000Z</time></trkpt>
        <trkpt lat="29.5812702" lon="103.3843581"><ele>903.28</ele><time>2026-05-23T16:13:15.000Z</time></trkpt>
        <trkpt lat="29.5813046" lon="103.3843245"><ele>909.38</ele><time>2026-05-23T16:13:23.000Z</time></trkpt>
        <trkpt lat="29.5813292" lon="103.3842744"><ele>914.18</ele><time>2026-05-23T16:13:37.000Z</time></trkpt>
        <trkpt lat="29.5813373" lon="103.3842993"><ele>918.23</ele><time>2026-05-23T16:13:55.000Z</time></trkpt>
        <trkpt lat="29.5813143" lon="103.3843428"><ele>922.2</ele><time>2026-05-23T16:14:03.000Z</time></trkpt>
        <trkpt lat="29.5813369" lon="103.3843724"><ele>923.64</ele><time>2026-05-23T16:14:09.000Z</time></trkpt>
        <trkpt lat="29.5813822" lon="103.3843893"><ele>924.51</ele><time>2026-05-23T16:14:15.000Z</time></trkpt>
        <trkpt lat="29.5814339" lon="103.3844017"><ele>925.64</ele><time>2026-05-23T16:14:21.000Z</time></trkpt>
        <trkpt lat="29.5814873" lon="103.3843956"><ele>925.57</ele><time>2026-05-23T16:14:29.000Z</time></trkpt>
        <trkpt lat="29.5815369" lon="103.3843655"><ele>926.36</ele><time>2026-05-23T16:14:37.000Z</time></trkpt>
        <trkpt lat="29.5815712" lon="103.3843236"><ele>926.71</ele><time>2026-05-23T16:14:41.000Z</time></trkpt>
        <trkpt lat="29.5816034" lon="103.3842794"><ele>927.22</ele><time>2026-05-23T16:14:45.000Z</time></trkpt>
        <trkpt lat="29.5816233" lon="103.3842195"><ele>927.55</ele><time>2026-05-23T16:14:57.000Z</time></trkpt>
        <trkpt lat="29.5816076" lon="103.3841605"><ele>929.15</ele><time>2026-05-23T16:15:01.000Z</time></trkpt>
        <trkpt lat="29.5815602" lon="103.3841439"><ele>928.36</ele><time>2026-05-23T16:15:11.000Z</time></trkpt>
        <trkpt lat="29.5815013" lon="103.3841363"><ele>929.99</ele><time>2026-05-23T16:15:25.000Z</time></trkpt>
        <trkpt lat="29.5814867" lon="103.3840955"><ele>931.17</ele><time>2026-05-23T16:15:33.000Z</time></trkpt>
        <trkpt lat="29.5814757" lon="103.3840283"><ele>933.95</ele><time>2026-05-23T16:15:39.000Z</time></trkpt>
        <trkpt lat="29.5814662" lon="103.3839664"><ele>935.59</ele><time>2026-05-23T16:15:49.000Z</time></trkpt>
        <trkpt lat="29.5814361" lon="103.3839279"><ele>936.3</ele><time>2026-05-23T16:16:03.000Z</time></trkpt>
        <trkpt lat="29.5814182" lon="103.3838804"><ele>936.36</ele><time>2026-05-23T16:16:13.000Z</time></trkpt>
        <trkpt lat="29.5814157" lon="103.3838122"><ele>936.89</ele><time>2026-05-23T16:16:23.000Z</time></trkpt>
        <trkpt lat="29.5814272" lon="103.3837491"><ele>937.51</ele><time>2026-05-23T16:16:29.000Z</time></trkpt>
        <trkpt lat="29.5814208" lon="103.3837704"><ele>938.58</ele><time>2026-05-23T16:16:49.000Z</time></trkpt>
        <trkpt lat="29.5814599" lon="103.3837759"><ele>939.17</ele><time>2026-05-23T16:16:57.000Z</time></trkpt>
        <trkpt lat="29.5815083" lon="103.3837442"><ele>937.69</ele><time>2026-05-23T16:17:03.000Z</time></trkpt>
        <trkpt lat="29.5815594" lon="103.3836952"><ele>936.62</ele><time>2026-05-23T16:17:09.000Z</time></trkpt>
        <trkpt lat="29.5816064" lon="103.383642"><ele>936.88</ele><time>2026-05-23T16:17:15.000Z</time></trkpt>
        <trkpt lat="29.5816449" lon="103.383586"><ele>937.76</ele><time>2026-05-23T16:17:21.000Z</time></trkpt>
        <trkpt lat="29.5816776" lon="103.3835415"><ele>938.72</ele><time>2026-05-23T16:17:25.000Z</time></trkpt>
        <trkpt lat="29.5817118" lon="103.3835027"><ele>940.23</ele><time>2026-05-23T16:17:29.000Z</time></trkpt>
        <trkpt lat="29.5817436" lon="103.3834563"><ele>941.11</ele><time>2026-05-23T16:17:33.000Z</time></trkpt>
        <trkpt lat="29.5817728" lon="103.3834125"><ele>941.29</ele><time>2026-05-23T16:17:37.000Z</time></trkpt>
        <trkpt lat="29.5818043" lon="103.3833677"><ele>941.96</ele><time>2026-05-23T16:17:41.000Z</time></trkpt>
        <trkpt lat="29.5818348" lon="103.3833228"><ele>944.04</ele><time>2026-05-23T16:17:45.000Z</time></trkpt>
        <trkpt lat="29.5818719" lon="103.3832799"><ele>946</ele><time>2026-05-23T16:17:49.000Z</time></trkpt>
        <trkpt lat="29.5818947" lon="103.3832291"><ele>946.33</ele><time>2026-05-23T16:17:53.000Z</time></trkpt>
        <trkpt lat="29.581902" lon="103.3831767"><ele>946.51</ele><time>2026-05-23T16:17:57.000Z</time></trkpt>
        <trkpt lat="29.58188" lon="103.3831277"><ele>947.63</ele><time>2026-05-23T16:18:03.000Z</time></trkpt>
        <trkpt lat="29.5818632" lon="103.3830775"><ele>949.66</ele><time>2026-05-23T16:18:09.000Z</time></trkpt>
        <trkpt lat="29.5818584" lon="103.3830181"><ele>951.54</ele><time>2026-05-23T16:18:17.000Z</time></trkpt>
        <trkpt lat="29.5818566" lon="103.3829533"><ele>951.45</ele><time>2026-05-23T16:18:27.000Z</time></trkpt>
        <trkpt lat="29.5818384" lon="103.3829017"><ele>953.38</ele><time>2026-05-23T16:18:33.000Z</time></trkpt>
        <trkpt lat="29.5818207" lon="103.3828506"><ele>954.96</ele><time>2026-05-23T16:18:41.000Z</time></trkpt>
        <trkpt lat="29.5818125" lon="103.3828282"><ele>954.94</ele><time>2026-05-23T16:18:47.000Z</time></trkpt>
        <trkpt lat="29.581813" lon="103.382782"><ele>954.8</ele><time>2026-05-23T16:18:53.000Z</time></trkpt>
        <trkpt lat="29.5818158" lon="103.3827251"><ele>954.6</ele><time>2026-05-23T16:18:59.000Z</time></trkpt>
        <trkpt lat="29.5818256" lon="103.3826587"><ele>954.98</ele><time>2026-05-23T16:19:05.000Z</time></trkpt>
        <trkpt lat="29.5818794" lon="103.3825885"><ele>956.59</ele><time>2026-05-23T16:19:09.000Z</time></trkpt>
        <trkpt lat="29.5819165" lon="103.3825251"><ele>957.59</ele><time>2026-05-23T16:19:13.000Z</time></trkpt>
        <trkpt lat="29.5819455" lon="103.3824721"><ele>957.36</ele><time>2026-05-23T16:19:17.000Z</time></trkpt>
        <trkpt lat="29.5819677" lon="103.3824199"><ele>958.12</ele><time>2026-05-23T16:19:21.000Z</time></trkpt>
        <trkpt lat="29.5819956" lon="103.3823513"><ele>958.94</ele><time>2026-05-23T16:19:27.000Z</time></trkpt>
        <trkpt lat="29.5820173" lon="103.3822885"><ele>959.45</ele><time>2026-05-23T16:19:31.000Z</time></trkpt>
        <trkpt lat="29.5820339" lon="103.3822344"><ele>959.74</ele><time>2026-05-23T16:19:37.000Z</time></trkpt>
        <trkpt lat="29.5820681" lon="103.3822043"><ele>959.31</ele><time>2026-05-23T16:19:43.000Z</time></trkpt>
        <trkpt lat="29.5820971" lon="103.382162"><ele>958.51</ele><time>2026-05-23T16:19:47.000Z</time></trkpt>
        <trkpt lat="29.5821327" lon="103.3821197"><ele>957.24</ele><time>2026-05-23T16:19:49.000Z</time></trkpt>
        <trkpt lat="29.5821676" lon="103.3820832"><ele>956.06</ele><time>2026-05-23T16:19:55.000Z</time></trkpt>
        <trkpt lat="29.5821915" lon="103.3820276"><ele>956.45</ele><time>2026-05-23T16:20:01.000Z</time></trkpt>
        <trkpt lat="29.5822389" lon="103.3819842"><ele>957.44</ele><time>2026-05-23T16:20:07.000Z</time></trkpt>
        <trkpt lat="29.5822814" lon="103.3819501"><ele>958.77</ele><time>2026-05-23T16:20:11.000Z</time></trkpt>
        <trkpt lat="29.5823238" lon="103.3819151"><ele>959.82</ele><time>2026-05-23T16:20:15.000Z</time></trkpt>
        <trkpt lat="29.5823478" lon="103.3818678"><ele>960.91</ele><time>2026-05-23T16:20:19.000Z</time></trkpt>
        <trkpt lat="29.5823811" lon="103.3818027"><ele>961.28</ele><time>2026-05-23T16:20:25.000Z</time></trkpt>
        <trkpt lat="29.5824072" lon="103.3817388"><ele>961.24</ele><time>2026-05-23T16:20:29.000Z</time></trkpt>
        <trkpt lat="29.5823914" lon="103.3816775"><ele>961.99</ele><time>2026-05-23T16:20:33.000Z</time></trkpt>
        <trkpt lat="29.5823704" lon="103.3816238"><ele>961.92</ele><time>2026-05-23T16:20:43.000Z</time></trkpt>
        <trkpt lat="29.5823935" lon="103.3815879"><ele>959.04</ele><time>2026-05-23T16:20:45.000Z</time></trkpt>
        <trkpt lat="29.582437" lon="103.381535"><ele>958.11</ele><time>2026-05-23T16:20:49.000Z</time></trkpt>
        <trkpt lat="29.5824775" lon="103.3814828"><ele>957.27</ele><time>2026-05-23T16:20:53.000Z</time></trkpt>
        <trkpt lat="29.5825127" lon="103.3814388"><ele>956.76</ele><time>2026-05-23T16:20:57.000Z</time></trkpt>
        <trkpt lat="29.5825501" lon="103.3813976"><ele>956.55</ele><time>2026-05-23T16:21:01.000Z</time></trkpt>
        <trkpt lat="29.58259" lon="103.3813515"><ele>956.53</ele><time>2026-05-23T16:21:05.000Z</time></trkpt>
        <trkpt lat="29.582637" lon="103.3813017"><ele>957.15</ele><time>2026-05-23T16:21:09.000Z</time></trkpt>
        <trkpt lat="29.58268" lon="103.3812446"><ele>957.9</ele><time>2026-05-23T16:21:13.000Z</time></trkpt>
        <trkpt lat="29.5827267" lon="103.3811914"><ele>958.39</ele><time>2026-05-23T16:21:17.000Z</time></trkpt>
        <trkpt lat="29.5827605" lon="103.3811358"><ele>959.09</ele><time>2026-05-23T16:21:21.000Z</time></trkpt>
        <trkpt lat="29.5827677" lon="103.3810784"><ele>959.23</ele><time>2026-05-23T16:21:25.000Z</time></trkpt>
        <trkpt lat="29.5827633" lon="103.3810108"><ele>958.72</ele><time>2026-05-23T16:21:29.000Z</time></trkpt>
        <trkpt lat="29.5827528" lon="103.3809364"><ele>958.37</ele><time>2026-05-23T16:21:33.000Z</time></trkpt>
        <trkpt lat="29.5827472" lon="103.380854"><ele>958.19</ele><time>2026-05-23T16:21:37.000Z</time></trkpt>
        <trkpt lat="29.5827541" lon="103.3807875"><ele>958.17</ele><time>2026-05-23T16:21:39.000Z</time></trkpt>
        <trkpt lat="29.5827748" lon="103.3807314"><ele>958.04</ele><time>2026-05-23T16:21:41.000Z</time></trkpt>
        <trkpt lat="29.582814" lon="103.3806575"><ele>958.4</ele><time>2026-05-23T16:21:45.000Z</time></trkpt>
        <trkpt lat="29.5828401" lon="103.3805858"><ele>958.98</ele><time>2026-05-23T16:21:49.000Z</time></trkpt>
        <trkpt lat="29.582867" lon="103.38052"><ele>959.19</ele><time>2026-05-23T16:21:53.000Z</time></trkpt>
        <trkpt lat="29.5828973" lon="103.3804566"><ele>960.04</ele><time>2026-05-23T16:21:57.000Z</time></trkpt>
        <trkpt lat="29.5829226" lon="103.3803988"><ele>961.03</ele><time>2026-05-23T16:22:01.000Z</time></trkpt>
        <trkpt lat="29.5829447" lon="103.3803422"><ele>961.78</ele><time>2026-05-23T16:22:05.000Z</time></trkpt>
        <trkpt lat="29.5829695" lon="103.3802826"><ele>962.42</ele><time>2026-05-23T16:22:09.000Z</time></trkpt>
        <trkpt lat="29.5829981" lon="103.3802303"><ele>962.16</ele><time>2026-05-23T16:22:13.000Z</time></trkpt>
        <trkpt lat="29.5830235" lon="103.3801708"><ele>962.18</ele><time>2026-05-23T16:22:17.000Z</time></trkpt>
        <trkpt lat="29.583043" lon="103.3801074"><ele>961.33</ele><time>2026-05-23T16:22:21.000Z</time></trkpt>
        <trkpt lat="29.583064" lon="103.3800556"><ele>961.51</ele><time>2026-05-23T16:22:25.000Z</time></trkpt>
        <trkpt lat="29.5830878" lon="103.3800072"><ele>961.52</ele><time>2026-05-23T16:22:29.000Z</time></trkpt>
        <trkpt lat="29.583119" lon="103.3799661"><ele>962.32</ele><time>2026-05-23T16:22:33.000Z</time></trkpt>
        <trkpt lat="29.583119" lon="103.3799142"><ele>962.12</ele><time>2026-05-23T16:22:37.000Z</time></trkpt>
        <trkpt lat="29.5830847" lon="103.3798805"><ele>961.13</ele><time>2026-05-23T16:22:41.000Z</time></trkpt>
        <trkpt lat="29.5830383" lon="103.3798492"><ele>961.57</ele><time>2026-05-23T16:22:47.000Z</time></trkpt>
        <trkpt lat="29.5829965" lon="103.3797962"><ele>963.15</ele><time>2026-05-23T16:22:53.000Z</time></trkpt>
        <trkpt lat="29.5829805" lon="103.3797282"><ele>964.02</ele><time>2026-05-23T16:22:59.000Z</time></trkpt>
        <trkpt lat="29.5829693" lon="103.379664"><ele>966.19</ele><time>2026-05-23T16:23:11.000Z</time></trkpt>
        <trkpt lat="29.5829463" lon="103.3796087"><ele>969</ele><time>2026-05-23T16:23:19.000Z</time></trkpt>
        <trkpt lat="29.5829688" lon="103.3795711"><ele>970.79</ele><time>2026-05-23T16:23:45.000Z</time></trkpt>
        <trkpt lat="29.5829774" lon="103.3795251"><ele>972.59</ele><time>2026-05-23T16:23:51.000Z</time></trkpt>
        <trkpt lat="29.5829708" lon="103.3794755"><ele>972.81</ele><time>2026-05-23T16:24:01.000Z</time></trkpt>
        <trkpt lat="29.5829696" lon="103.3794206"><ele>973.18</ele><time>2026-05-23T16:24:11.000Z</time></trkpt>
        <trkpt lat="29.5829306" lon="103.3794171"><ele>973.77</ele><time>2026-05-23T16:24:17.000Z</time></trkpt>
        <trkpt lat="29.5828762" lon="103.3794489"><ele>974.63</ele><time>2026-05-23T16:24:21.000Z</time></trkpt>
        <trkpt lat="29.5828246" lon="103.3794834"><ele>974.77</ele><time>2026-05-23T16:24:25.000Z</time></trkpt>
        <trkpt lat="29.5827625" lon="103.3795398"><ele>975.21</ele><time>2026-05-23T16:24:31.000Z</time></trkpt>
        <trkpt lat="29.5827019" lon="103.3795743"><ele>976.53</ele><time>2026-05-23T16:24:37.000Z</time></trkpt>
        <trkpt lat="29.5826441" lon="103.3795574"><ele>977.67</ele><time>2026-05-23T16:24:43.000Z</time></trkpt>
        <trkpt lat="29.5826455" lon="103.3795115"><ele>977.22</ele><time>2026-05-23T16:24:47.000Z</time></trkpt>
        <trkpt lat="29.5826646" lon="103.3794533"><ele>977.2</ele><time>2026-05-23T16:24:55.000Z</time></trkpt>
        <trkpt lat="29.5827027" lon="103.3793806"><ele>977.95</ele><time>2026-05-23T16:24:59.000Z</time></trkpt>
        <trkpt lat="29.5827511" lon="103.3793115"><ele>978.61</ele><time>2026-05-23T16:25:05.000Z</time></trkpt>
        <trkpt lat="29.582794" lon="103.379267"><ele>979.84</ele><time>2026-05-23T16:25:09.000Z</time></trkpt>
        <trkpt lat="29.5828381" lon="103.3792395"><ele>981.01</ele><time>2026-05-23T16:25:19.000Z</time></trkpt>
        <trkpt lat="29.5828839" lon="103.3792377"><ele>981.9</ele><time>2026-05-23T16:25:35.000Z</time></trkpt>
        <trkpt lat="29.5829331" lon="103.3792186"><ele>983.17</ele><time>2026-05-23T16:25:43.000Z</time></trkpt>
        <trkpt lat="29.5829849" lon="103.3791825"><ele>984.62</ele><time>2026-05-23T16:25:55.000Z</time></trkpt>
        <trkpt lat="29.5830251" lon="103.3791318"><ele>986.24</ele><time>2026-05-23T16:25:59.000Z</time></trkpt>
        <trkpt lat="29.5830419" lon="103.3790577"><ele>987.03</ele><time>2026-05-23T16:26:05.000Z</time></trkpt>
        <trkpt lat="29.5830441" lon="103.3789935"><ele>987</ele><time>2026-05-23T16:26:09.000Z</time></trkpt>
        <trkpt lat="29.583021" lon="103.3789812"><ele>987.18</ele><time>2026-05-23T16:26:13.000Z</time></trkpt>
        <trkpt lat="29.5830156" lon="103.37894"><ele>985.49</ele><time>2026-05-23T16:26:19.000Z</time></trkpt>
        <trkpt lat="29.583002" lon="103.3788923"><ele>985.45</ele><time>2026-05-23T16:26:25.000Z</time></trkpt>
        <trkpt lat="29.5829819" lon="103.3788428"><ele>986.57</ele><time>2026-05-23T16:26:33.000Z</time></trkpt>
        <trkpt lat="29.5829781" lon="103.3787887"><ele>988.21</ele><time>2026-05-23T16:26:41.000Z</time></trkpt>
        <trkpt lat="29.5829736" lon="103.3787385"><ele>989.96</ele><time>2026-05-23T16:26:55.000Z</time></trkpt>
        <trkpt lat="29.5829499" lon="103.3786927"><ele>991.34</ele><time>2026-05-23T16:27:11.000Z</time></trkpt>
        <trkpt lat="29.5829252" lon="103.3786326"><ele>992.65</ele><time>2026-05-23T16:27:17.000Z</time></trkpt>
        <trkpt lat="29.5829194" lon="103.378611"><ele>994.22</ele><time>2026-05-23T16:27:19.000Z</time></trkpt>
        <trkpt lat="29.5828625" lon="103.3785921"><ele>995.14</ele><time>2026-05-23T16:27:47.000Z</time></trkpt>
        <trkpt lat="29.5828055" lon="103.3785723"><ele>995.45</ele><time>2026-05-23T16:28:05.000Z</time></trkpt>
        <trkpt lat="29.5827673" lon="103.3785302"><ele>996.41</ele><time>2026-05-23T16:28:13.000Z</time></trkpt>
        <trkpt lat="29.5827458" lon="103.3784756"><ele>998.8</ele><time>2026-05-23T16:28:23.000Z</time></trkpt>
        <trkpt lat="29.582723" lon="103.3784039"><ele>1001.31</ele><time>2026-05-23T16:28:31.000Z</time></trkpt>
        <trkpt lat="29.5826974" lon="103.3783227"><ele>1003.31</ele><time>2026-05-23T16:28:35.000Z</time></trkpt>
        <trkpt lat="29.5827129" lon="103.3783293"><ele>1004.57</ele><time>2026-05-23T16:28:37.000Z</time></trkpt>
        <trkpt lat="29.5826957" lon="103.3783039"><ele>1006.5</ele><time>2026-05-23T16:28:45.000Z</time></trkpt>
        <trkpt lat="29.5826689" lon="103.3782639"><ele>1008.04</ele><time>2026-05-23T16:28:49.000Z</time></trkpt>
        <trkpt lat="29.582663" lon="103.3782723"><ele>1008.91</ele><time>2026-05-23T16:28:51.000Z</time></trkpt>
        <trkpt lat="29.5826292" lon="103.3782561"><ele>1009.5</ele><time>2026-05-23T16:28:59.000Z</time></trkpt>
        <trkpt lat="29.5825882" lon="103.3782265"><ele>1010.89</ele><time>2026-05-23T16:29:05.000Z</time></trkpt>
        <trkpt lat="29.5825422" lon="103.3781931"><ele>1014.96</ele><time>2026-05-23T16:29:17.000Z</time></trkpt>
        <trkpt lat="29.5824992" lon="103.3781576"><ele>1019.23</ele><time>2026-05-23T16:29:43.000Z</time></trkpt>
        <trkpt lat="29.582489" lon="103.3781046"><ele>1022.38</ele><time>2026-05-23T16:30:03.000Z</time></trkpt>
        <trkpt lat="29.582472" lon="103.3780976"><ele>1027.8</ele><time>2026-05-23T16:30:21.000Z</time></trkpt>
        <trkpt lat="29.5824499" lon="103.3780589"><ele>1029.87</ele><time>2026-05-23T16:30:43.000Z</time></trkpt>
        <trkpt lat="29.5824523" lon="103.3780098"><ele>1030.9</ele><time>2026-05-23T16:30:51.000Z</time></trkpt>
        <trkpt lat="29.5824285" lon="103.3779683"><ele>1031.84</ele><time>2026-05-23T16:31:03.000Z</time></trkpt>
        <trkpt lat="29.5824223" lon="103.3779145"><ele>1031.5</ele><time>2026-05-23T16:31:09.000Z</time></trkpt>
        <trkpt lat="29.5824223" lon="103.3779145"><ele>1031.5</ele><time>2026-05-23T16:31:33.000Z</time></trkpt>
        <trkpt lat="29.5825197" lon="103.3778658"><ele>1032.08</ele><time>2026-05-23T16:31:48.000Z</time></trkpt>
        <trkpt lat="29.5825197" lon="103.3778658"><ele>1032.08</ele><time>2026-05-23T16:31:51.000Z</time></trkpt>
        <trkpt lat="29.5824391" lon="103.3778227"><ele>1034.21</ele><time>2026-05-23T16:31:57.000Z</time></trkpt>
        <trkpt lat="29.5824391" lon="103.3778227"><ele>1034.21</ele><time>2026-05-23T16:31:59.000Z</time></trkpt>
        <trkpt lat="29.582453" lon="103.3779019"><ele>1042.86</ele><time>2026-05-23T16:32:04.000Z</time></trkpt>
        <trkpt lat="29.582453" lon="103.3779019"><ele>1042.86</ele><time>2026-05-23T16:32:09.000Z</time></trkpt>
        <trkpt lat="29.582453" lon="103.3779019"><ele>1042.86</ele><time>2026-05-23T16:32:21.000Z</time></trkpt>
        <trkpt lat="29.5825041" lon="103.3777943"><ele>1045.76</ele><time>2026-05-23T16:32:28.000Z</time></trkpt>
        <trkpt lat="29.5825041" lon="103.3777943"><ele>1045.76</ele><time>2026-05-23T16:32:33.000Z</time></trkpt>
        <trkpt lat="29.5824887" lon="103.37778"><ele>1049.34</ele><time>2026-05-23T16:32:39.000Z</time></trkpt>
        <trkpt lat="29.5824615" lon="103.3778225"><ele>1050.9</ele><time>2026-05-23T16:32:45.000Z</time></trkpt>
        <trkpt lat="29.5824397" lon="103.37789"><ele>1050.12</ele><time>2026-05-23T16:32:49.000Z</time></trkpt>
        <trkpt lat="29.5824045" lon="103.3778874"><ele>1049.34</ele><time>2026-05-23T16:33:03.000Z</time></trkpt>
        <trkpt lat="29.582405" lon="103.3778423"><ele>1047.11</ele><time>2026-05-23T16:33:07.000Z</time></trkpt>
        <trkpt lat="29.5823988" lon="103.3777845"><ele>1044.94</ele><time>2026-05-23T16:33:15.000Z</time></trkpt>
        <trkpt lat="29.582402" lon="103.3777261"><ele>1041.31</ele><time>2026-05-23T16:33:23.000Z</time></trkpt>
        <trkpt lat="29.5823811" lon="103.3776792"><ele>1039.9</ele><time>2026-05-23T16:33:37.000Z</time></trkpt>
        <trkpt lat="29.582362" lon="103.37763"><ele>1039.01</ele><time>2026-05-23T16:33:49.000Z</time></trkpt>
        <trkpt lat="29.5823527" lon="103.3775775"><ele>1038.69</ele><time>2026-05-23T16:34:05.000Z</time></trkpt>
        <trkpt lat="29.5823775" lon="103.3775371"><ele>1039.77</ele><time>2026-05-23T16:34:17.000Z</time></trkpt>
        <trkpt lat="29.5824099" lon="103.3774954"><ele>1041.11</ele><time>2026-05-23T16:34:27.000Z</time></trkpt>
        <trkpt lat="29.5824073" lon="103.3774481"><ele>1042.82</ele><time>2026-05-23T16:34:37.000Z</time></trkpt>
        <trkpt lat="29.5824073" lon="103.3774481"><ele>1042.82</ele><time>2026-05-23T16:34:47.000Z</time></trkpt>
        <trkpt lat="29.582429" lon="103.3773981"><ele>1043.77</ele><time>2026-05-23T16:34:48.000Z</time></trkpt>
        <trkpt lat="29.582429" lon="103.3773981"><ele>1043.77</ele><time>2026-05-23T16:34:56.000Z</time></trkpt>
        <trkpt lat="29.5823944" lon="103.3773913"><ele>1045.8</ele><time>2026-05-23T16:35:08.000Z</time></trkpt>
        <trkpt lat="29.5823871" lon="103.3773541"><ele>1048.52</ele><time>2026-05-23T16:35:46.000Z</time></trkpt>
        <trkpt lat="29.5823715" lon="103.3773045"><ele>1053.04</ele><time>2026-05-23T16:36:00.000Z</time></trkpt>
        <trkpt lat="29.5823276" lon="103.3772694"><ele>1056.22</ele><time>2026-05-23T16:36:04.000Z</time></trkpt>
        <trkpt lat="29.5822782" lon="103.3772558"><ele>1057.47</ele><time>2026-05-23T16:36:08.000Z</time></trkpt>
        <trkpt lat="29.5822423" lon="103.3772181"><ele>1058.56</ele><time>2026-05-23T16:36:24.000Z</time></trkpt>
        <trkpt lat="29.5822554" lon="103.3771776"><ele>1058.91</ele><time>2026-05-23T16:36:38.000Z</time></trkpt>
        <trkpt lat="29.5822471" lon="103.3771316"><ele>1061.22</ele><time>2026-05-23T16:36:50.000Z</time></trkpt>
        <trkpt lat="29.5822144" lon="103.3771039"><ele>1064.07</ele><time>2026-05-23T16:36:54.000Z</time></trkpt>
        <trkpt lat="29.5821603" lon="103.3770898"><ele>1064.9</ele><time>2026-05-23T16:37:02.000Z</time></trkpt>
        <trkpt lat="29.5821238" lon="103.3771253"><ele>1064.23</ele><time>2026-05-23T16:37:18.000Z</time></trkpt>
        <trkpt lat="29.5820806" lon="103.3771553"><ele>1064.71</ele><time>2026-05-23T16:37:28.000Z</time></trkpt>
        <trkpt lat="29.5820684" lon="103.3771231"><ele>1066.01</ele><time>2026-05-23T16:37:36.000Z</time></trkpt>
        <trkpt lat="29.5821017" lon="103.3770733"><ele>1066.58</ele><time>2026-05-23T16:37:42.000Z</time></trkpt>
        <trkpt lat="29.5821321" lon="103.3770631"><ele>1067.15</ele><time>2026-05-23T16:37:46.000Z</time></trkpt>
        <trkpt lat="29.582121" lon="103.3770209"><ele>1068.37</ele><time>2026-05-23T16:37:54.000Z</time></trkpt>
        <trkpt lat="29.582085" lon="103.3769789"><ele>1069.75</ele><time>2026-05-23T16:38:02.000Z</time></trkpt>
        <trkpt lat="29.5820821" lon="103.3769721"><ele>1072.25</ele><time>2026-05-23T16:38:04.000Z</time></trkpt>
        <trkpt lat="29.5821135" lon="103.3769485"><ele>1073.97</ele><time>2026-05-23T16:38:22.000Z</time></trkpt>
        <trkpt lat="29.5821181" lon="103.3768919"><ele>1075.67</ele><time>2026-05-23T16:38:30.000Z</time></trkpt>
        <trkpt lat="29.5821311" lon="103.3768361"><ele>1077.3</ele><time>2026-05-23T16:38:56.000Z</time></trkpt>
        <trkpt lat="29.5821577" lon="103.3767885"><ele>1079.94</ele><time>2026-05-23T16:39:10.000Z</time></trkpt>
        <trkpt lat="29.582134" lon="103.3767643"><ele>1082.84</ele><time>2026-05-23T16:39:18.000Z</time></trkpt>
        <trkpt lat="29.5820921" lon="103.3767442"><ele>1084.32</ele><time>2026-05-23T16:39:30.000Z</time></trkpt>
        <trkpt lat="29.5820389" lon="103.3767438"><ele>1086.56</ele><time>2026-05-23T16:39:40.000Z</time></trkpt>
        <trkpt lat="29.58202" lon="103.3766987"><ele>1087.84</ele><time>2026-05-23T16:39:46.000Z</time></trkpt>
        <trkpt lat="29.5820087" lon="103.3766706"><ele>1089.8</ele><time>2026-05-23T16:39:52.000Z</time></trkpt>
        <trkpt lat="29.582011" lon="103.3766223"><ele>1090.76</ele><time>2026-05-23T16:40:06.000Z</time></trkpt>
        <trkpt lat="29.5820258" lon="103.3765657"><ele>1092.79</ele><time>2026-05-23T16:40:30.000Z</time></trkpt>
        <trkpt lat="29.5819961" lon="103.376535"><ele>1094.35</ele><time>2026-05-23T16:40:54.000Z</time></trkpt>
        <trkpt lat="29.5819453" lon="103.3765182"><ele>1096.16</ele><time>2026-05-23T16:41:00.000Z</time></trkpt>
        <trkpt lat="29.581905" lon="103.3764884"><ele>1097.22</ele><time>2026-05-23T16:41:16.000Z</time></trkpt>
        <trkpt lat="29.5818557" lon="103.3764935"><ele>1100</ele><time>2026-05-23T16:41:30.000Z</time></trkpt>
        <trkpt lat="29.5817976" lon="103.3764956"><ele>1104.35</ele><time>2026-05-23T16:42:00.000Z</time></trkpt>
        <trkpt lat="29.5817451" lon="103.3765071"><ele>1107.33</ele><time>2026-05-23T16:42:14.000Z</time></trkpt>
        <trkpt lat="29.5817238" lon="103.3765097"><ele>1109.95</ele><time>2026-05-23T16:42:22.000Z</time></trkpt>
        <trkpt lat="29.5816858" lon="103.3765036"><ele>1111.21</ele><time>2026-05-23T16:42:38.000Z</time></trkpt>
        <trkpt lat="29.5816825" lon="103.3764948"><ele>1112.43</ele><time>2026-05-23T16:42:40.000Z</time></trkpt>
        <trkpt lat="29.5817159" lon="103.3764741"><ele>1113.4</ele><time>2026-05-23T16:42:48.000Z</time></trkpt>
        <trkpt lat="29.5817468" lon="103.376432"><ele>1114.45</ele><time>2026-05-23T16:42:56.000Z</time></trkpt>
        <trkpt lat="29.5817701" lon="103.3763721"><ele>1116.2</ele><time>2026-05-23T16:43:06.000Z</time></trkpt>
        <trkpt lat="29.5817813" lon="103.3763106"><ele>1117.62</ele><time>2026-05-23T16:43:26.000Z</time></trkpt>
        <trkpt lat="29.5818065" lon="103.3762523"><ele>1119.18</ele><time>2026-05-23T16:43:48.000Z</time></trkpt>
        <trkpt lat="29.5818191" lon="103.3761961"><ele>1121.58</ele><time>2026-05-23T16:43:56.000Z</time></trkpt>
        <trkpt lat="29.5817847" lon="103.3761964"><ele>1124.3</ele><time>2026-05-23T16:44:04.000Z</time></trkpt>
        <trkpt lat="29.5817376" lon="103.3762248"><ele>1125.67</ele><time>2026-05-23T16:44:18.000Z</time></trkpt>
        <trkpt lat="29.5816878" lon="103.3762445"><ele>1126.82</ele><time>2026-05-23T16:44:22.000Z</time></trkpt>
        <trkpt lat="29.5816348" lon="103.3762575"><ele>1128.49</ele><time>2026-05-23T16:44:38.000Z</time></trkpt>
        <trkpt lat="29.5815808" lon="103.3762709"><ele>1131.07</ele><time>2026-05-23T16:44:44.000Z</time></trkpt>
        <trkpt lat="29.5815269" lon="103.3762649"><ele>1131.83</ele><time>2026-05-23T16:45:04.000Z</time></trkpt>
        <trkpt lat="29.5815288" lon="103.3763233"><ele>1134.36</ele><time>2026-05-23T16:46:08.000Z</time></trkpt>
        <trkpt lat="29.58149" lon="103.3763507"><ele>1136.94</ele><time>2026-05-23T16:46:18.000Z</time></trkpt>
        <trkpt lat="29.5814438" lon="103.3763234"><ele>1139.26</ele><time>2026-05-23T16:46:48.000Z</time></trkpt>
        <trkpt lat="29.5813956" lon="103.3763108"><ele>1141.91</ele><time>2026-05-23T16:46:54.000Z</time></trkpt>
        <trkpt lat="29.5813972" lon="103.3763134"><ele>1142.21</ele><time>2026-05-23T16:46:56.000Z</time></trkpt>
        <trkpt lat="29.5813616" lon="103.3763125"><ele>1142.99</ele><time>2026-05-23T16:47:14.000Z</time></trkpt>
        <trkpt lat="29.5813148" lon="103.3763084"><ele>1144.89</ele><time>2026-05-23T16:47:26.000Z</time></trkpt>
        <trkpt lat="29.5812664" lon="103.3763301"><ele>1145.83</ele><time>2026-05-23T16:47:36.000Z</time></trkpt>
        <trkpt lat="29.5812316" lon="103.3763698"><ele>1147.56</ele><time>2026-05-23T16:48:08.000Z</time></trkpt>
        <trkpt lat="29.5811946" lon="103.376405"><ele>1151.37</ele><time>2026-05-23T16:48:24.000Z</time></trkpt>
        <trkpt lat="29.5811846" lon="103.3764609"><ele>1154.96</ele><time>2026-05-23T16:48:36.000Z</time></trkpt>
        <trkpt lat="29.5811481" lon="103.3764779"><ele>1157.41</ele><time>2026-05-23T16:49:00.000Z</time></trkpt>
        <trkpt lat="29.5811111" lon="103.3764478"><ele>1158.75</ele><time>2026-05-23T16:49:06.000Z</time></trkpt>
        <trkpt lat="29.581109" lon="103.3764409"><ele>1158.7</ele><time>2026-05-23T16:49:12.000Z</time></trkpt>
        <trkpt lat="29.5810855" lon="103.3764625"><ele>1159.11</ele><time>2026-05-23T16:49:42.000Z</time></trkpt>
        <trkpt lat="29.5810341" lon="103.3764505"><ele>1162.58</ele><time>2026-05-23T16:49:58.000Z</time></trkpt>
        <trkpt lat="29.5809857" lon="103.3764286"><ele>1164.3</ele><time>2026-05-23T16:50:04.000Z</time></trkpt>
        <trkpt lat="29.5809857" lon="103.3764286"><ele>1164.3</ele><time>2026-05-23T16:50:33.000Z</time></trkpt>
        <trkpt lat="29.5808882" lon="103.3763458"><ele>1165.64</ele><time>2026-05-23T16:50:38.000Z</time></trkpt>
        <trkpt lat="29.5808882" lon="103.3763458"><ele>1165.64</ele><time>2026-05-23T16:50:43.000Z</time></trkpt>
        <trkpt lat="29.5808904" lon="103.3763375"><ele>1160.1</ele><time>2026-05-23T16:50:47.000Z</time></trkpt>
        <trkpt lat="29.5809458" lon="103.3763082"><ele>1160.1</ele><time>2026-05-23T16:52:03.000Z</time></trkpt>
        <trkpt lat="29.5809192" lon="103.3762454"><ele>1171.84</ele><time>2026-05-23T16:52:11.000Z</time></trkpt>
        <trkpt lat="29.5809354" lon="103.3761947"><ele>1179.61</ele><time>2026-05-23T16:52:17.000Z</time></trkpt>
        <trkpt lat="29.5809026" lon="103.3761911"><ele>1184.62</ele><time>2026-05-23T16:52:55.000Z</time></trkpt>
        <trkpt lat="29.5808565" lon="103.3762038"><ele>1190.52</ele><time>2026-05-23T16:53:07.000Z</time></trkpt>
        <trkpt lat="29.580799" lon="103.376202"><ele>1194.68</ele><time>2026-05-23T16:53:13.000Z</time></trkpt>
        <trkpt lat="29.5807516" lon="103.3761764"><ele>1196.16</ele><time>2026-05-23T16:53:21.000Z</time></trkpt>
        <trkpt lat="29.5807076" lon="103.3762068"><ele>1195.9</ele><time>2026-05-23T16:53:29.000Z</time></trkpt>
        <trkpt lat="29.5806617" lon="103.3762346"><ele>1195.97</ele><time>2026-05-23T16:53:35.000Z</time></trkpt>
        <trkpt lat="29.5806175" lon="103.3762544"><ele>1196.13</ele><time>2026-05-23T16:53:41.000Z</time></trkpt>
        <trkpt lat="29.5805664" lon="103.3762816"><ele>1196.55</ele><time>2026-05-23T16:53:47.000Z</time></trkpt>
        <trkpt lat="29.5805193" lon="103.3762934"><ele>1198.95</ele><time>2026-05-23T16:53:51.000Z</time></trkpt>
        <trkpt lat="29.5804731" lon="103.3763143"><ele>1200.05</ele><time>2026-05-23T16:53:55.000Z</time></trkpt>
        <trkpt lat="29.5804248" lon="103.3763367"><ele>1200.87</ele><time>2026-05-23T16:53:59.000Z</time></trkpt>
        <trkpt lat="29.5803686" lon="103.3763308"><ele>1201.09</ele><time>2026-05-23T16:54:03.000Z</time></trkpt>
        <trkpt lat="29.5803172" lon="103.3763028"><ele>1200.84</ele><time>2026-05-23T16:54:07.000Z</time></trkpt>
        <trkpt lat="29.5802579" lon="103.3762864"><ele>1200.47</ele><time>2026-05-23T16:54:11.000Z</time></trkpt>
        <trkpt lat="29.5801936" lon="103.3762884"><ele>1199.84</ele><time>2026-05-23T16:54:15.000Z</time></trkpt>
        <trkpt lat="29.5801334" lon="103.376286"><ele>1200.47</ele><time>2026-05-23T16:54:19.000Z</time></trkpt>
        <trkpt lat="29.5800749" lon="103.3762776"><ele>1201.61</ele><time>2026-05-23T16:54:23.000Z</time></trkpt>
        <trkpt lat="29.5800266" lon="103.3762492"><ele>1202.76</ele><time>2026-05-23T16:54:27.000Z</time></trkpt>
        <trkpt lat="29.5799979" lon="103.3762059"><ele>1202.83</ele><time>2026-05-23T16:54:31.000Z</time></trkpt>
        <trkpt lat="29.5799814" lon="103.3761533"><ele>1202.4</ele><time>2026-05-23T16:54:35.000Z</time></trkpt>
        <trkpt lat="29.5799668" lon="103.376098"><ele>1202</ele><time>2026-05-23T16:54:39.000Z</time></trkpt>
        <trkpt lat="29.5799463" lon="103.3760452"><ele>1201.96</ele><time>2026-05-23T16:54:43.000Z</time></trkpt>
        <trkpt lat="29.5799261" lon="103.3759933"><ele>1202.75</ele><time>2026-05-23T16:54:47.000Z</time></trkpt>
        <trkpt lat="29.5799073" lon="103.3759403"><ele>1203.81</ele><time>2026-05-23T16:54:51.000Z</time></trkpt>
        <trkpt lat="29.5798897" lon="103.3758875"><ele>1203.96</ele><time>2026-05-23T16:54:55.000Z</time></trkpt>
        <trkpt lat="29.579865" lon="103.3758428"><ele>1204.35</ele><time>2026-05-23T16:54:59.000Z</time></trkpt>
        <trkpt lat="29.579837" lon="103.3757972"><ele>1204.38</ele><time>2026-05-23T16:55:03.000Z</time></trkpt>
        <trkpt lat="29.5798071" lon="103.3757562"><ele>1205.65</ele><time>2026-05-23T16:55:07.000Z</time></trkpt>
        <trkpt lat="29.5798078" lon="103.3756921"><ele>1207.07</ele><time>2026-05-23T16:55:13.000Z</time></trkpt>
        <trkpt lat="29.5798283" lon="103.3756393"><ele>1208.16</ele><time>2026-05-23T16:55:19.000Z</time></trkpt>
        <trkpt lat="29.5798613" lon="103.3755907"><ele>1208.82</ele><time>2026-05-23T16:55:25.000Z</time></trkpt>
        <trkpt lat="29.579907" lon="103.3755644"><ele>1208.74</ele><time>2026-05-23T16:55:41.000Z</time></trkpt>
        <trkpt lat="29.579951" lon="103.375541"><ele>1207.14</ele><time>2026-05-23T16:55:51.000Z</time></trkpt>
        <trkpt lat="29.58" lon="103.3755194"><ele>1206.18</ele><time>2026-05-23T16:56:09.000Z</time></trkpt>
        <trkpt lat="29.5800481" lon="103.3755082"><ele>1206.78</ele><time>2026-05-23T16:56:33.000Z</time></trkpt>
        <trkpt lat="29.5801011" lon="103.375503"><ele>1208.66</ele><time>2026-05-23T16:57:11.000Z</time></trkpt>
        <trkpt lat="29.5801407" lon="103.3754694"><ele>1211.08</ele><time>2026-05-23T16:57:21.000Z</time></trkpt>
        <trkpt lat="29.5801736" lon="103.3754933"><ele>1214.41</ele><time>2026-05-23T16:57:37.000Z</time></trkpt>
        <trkpt lat="29.5801703" lon="103.3755446"><ele>1218.64</ele><time>2026-05-23T16:57:43.000Z</time></trkpt>
        <trkpt lat="29.5801995" lon="103.3755443"><ele>1223.3</ele><time>2026-05-23T16:58:09.000Z</time></trkpt>
        <trkpt lat="29.5802424" lon="103.3755456"><ele>1226.79</ele><time>2026-05-23T16:58:19.000Z</time></trkpt>
        <trkpt lat="29.5802949" lon="103.3755557"><ele>1229.01</ele><time>2026-05-23T16:58:37.000Z</time></trkpt>
        <trkpt lat="29.58035" lon="103.3755592"><ele>1231.02</ele><time>2026-05-23T16:58:53.000Z</time></trkpt>
        <trkpt lat="29.5804034" lon="103.3755446"><ele>1232.48</ele><time>2026-05-23T16:59:05.000Z</time></trkpt>
        <trkpt lat="29.5804354" lon="103.375498"><ele>1232.67</ele><time>2026-05-23T16:59:11.000Z</time></trkpt>
        <trkpt lat="29.5804757" lon="103.375455"><ele>1233.02</ele><time>2026-05-23T16:59:19.000Z</time></trkpt>
        <trkpt lat="29.580521" lon="103.3754316"><ele>1233.9</ele><time>2026-05-23T16:59:35.000Z</time></trkpt>
        <trkpt lat="29.5805691" lon="103.3754175"><ele>1237.14</ele><time>2026-05-23T16:59:57.000Z</time></trkpt>
        <trkpt lat="29.5806203" lon="103.3754033"><ele>1239.87</ele><time>2026-05-23T17:00:03.000Z</time></trkpt>
        <trkpt lat="29.5806701" lon="103.3753865"><ele>1241.8</ele><time>2026-05-23T17:00:09.000Z</time></trkpt>
        <trkpt lat="29.5806641" lon="103.375348"><ele>1243.6</ele><time>2026-05-23T17:00:29.000Z</time></trkpt>
        <trkpt lat="29.5806576" lon="103.3752882"><ele>1245.14</ele><time>2026-05-23T17:00:37.000Z</time></trkpt>
        <trkpt lat="29.5806638" lon="103.375226"><ele>1246.86</ele><time>2026-05-23T17:00:43.000Z</time></trkpt>
        <trkpt lat="29.5806638" lon="103.375226"><ele>1246.86</ele><time>2026-05-23T17:00:55.000Z</time></trkpt>
        <trkpt lat="29.5806806" lon="103.3751675"><ele>1248.94</ele><time>2026-05-23T17:01:10.000Z</time></trkpt>
        <trkpt lat="29.5806806" lon="103.3751675"><ele>1248.94</ele><time>2026-05-23T17:01:27.000Z</time></trkpt>
        <trkpt lat="29.5807032" lon="103.375111"><ele>1255.46</ele><time>2026-05-23T17:01:35.000Z</time></trkpt>
        <trkpt lat="29.5807007" lon="103.3750519"><ele>1258.85</ele><time>2026-05-23T17:01:41.000Z</time></trkpt>
        <trkpt lat="29.5807301" lon="103.375022"><ele>1260.55</ele><time>2026-05-23T17:01:55.000Z</time></trkpt>
        <trkpt lat="29.5807112" lon="103.37499"><ele>1262.47</ele><time>2026-05-23T17:02:21.000Z</time></trkpt>
        <trkpt lat="29.580721" lon="103.3749428"><ele>1264.18</ele><time>2026-05-23T17:02:37.000Z</time></trkpt>
        <trkpt lat="29.580715" lon="103.3748873"><ele>1265.1</ele><time>2026-05-23T17:02:51.000Z</time></trkpt>
        <trkpt lat="29.5806968" lon="103.3748367"><ele>1267.12</ele><time>2026-05-23T17:02:59.000Z</time></trkpt>
        <trkpt lat="29.5806579" lon="103.3747957"><ele>1269.22</ele><time>2026-05-23T17:03:19.000Z</time></trkpt>
        <trkpt lat="29.5806407" lon="103.3747431"><ele>1272.5</ele><time>2026-05-23T17:03:27.000Z</time></trkpt>
        <trkpt lat="29.5806072" lon="103.3747056"><ele>1275.08</ele><time>2026-05-23T17:03:41.000Z</time></trkpt>
        <trkpt lat="29.580613" lon="103.3746611"><ele>1277.99</ele><time>2026-05-23T17:03:49.000Z</time></trkpt>
        <trkpt lat="29.580613" lon="103.3746611"><ele>1277.99</ele><time>2026-05-23T17:03:57.000Z</time></trkpt>
        <trkpt lat="29.5806583" lon="103.3745896"><ele>1279.88</ele><time>2026-05-23T17:04:02.000Z</time></trkpt>
        <trkpt lat="29.5806583" lon="103.3745896"><ele>1279.88</ele><time>2026-05-23T17:04:07.000Z</time></trkpt>
        <trkpt lat="29.5806726" lon="103.3745253"><ele>1282.27</ele><time>2026-05-23T17:04:55.000Z</time></trkpt>
        <trkpt lat="29.5806668" lon="103.374466"><ele>1284.63</ele><time>2026-05-23T17:05:05.000Z</time></trkpt>
        <trkpt lat="29.5806717" lon="103.3744061"><ele>1287.29</ele><time>2026-05-23T17:05:13.000Z</time></trkpt>
        <trkpt lat="29.580668" lon="103.3743523"><ele>1289.22</ele><time>2026-05-23T17:05:29.000Z</time></trkpt>
        <trkpt lat="29.5806642" lon="103.3743"><ele>1292.59</ele><time>2026-05-23T17:05:37.000Z</time></trkpt>
        <trkpt lat="29.5806806" lon="103.3742527"><ele>1295.82</ele><time>2026-05-23T17:05:43.000Z</time></trkpt>
        <trkpt lat="29.5806816" lon="103.3741916"><ele>1296.64</ele><time>2026-05-23T17:06:01.000Z</time></trkpt>
        <trkpt lat="29.5806696" lon="103.3741362"><ele>1298.8</ele><time>2026-05-23T17:06:13.000Z</time></trkpt>
        <trkpt lat="29.5806422" lon="103.374089"><ele>1300.99</ele><time>2026-05-23T17:06:27.000Z</time></trkpt>
        <trkpt lat="29.5806326" lon="103.3740294"><ele>1302.67</ele><time>2026-05-23T17:06:49.000Z</time></trkpt>
        <trkpt lat="29.5806382" lon="103.3739718"><ele>1303.04</ele><time>2026-05-23T17:06:59.000Z</time></trkpt>
        <trkpt lat="29.5806114" lon="103.3739266"><ele>1304.48</ele><time>2026-05-23T17:07:09.000Z</time></trkpt>
        <trkpt lat="29.5805867" lon="103.3738754"><ele>1305.25</ele><time>2026-05-23T17:07:19.000Z</time></trkpt>
        <trkpt lat="29.5805493" lon="103.3738329"><ele>1306.64</ele><time>2026-05-23T17:07:37.000Z</time></trkpt>
        <trkpt lat="29.5804976" lon="103.3738183"><ele>1308.39</ele><time>2026-05-23T17:07:53.000Z</time></trkpt>
        <trkpt lat="29.5804433" lon="103.3738018"><ele>1310.2</ele><time>2026-05-23T17:07:59.000Z</time></trkpt>
        <trkpt lat="29.5803933" lon="103.3737879"><ele>1312.13</ele><time>2026-05-23T17:08:05.000Z</time></trkpt>
        <trkpt lat="29.580359" lon="103.3737451"><ele>1312.65</ele><time>2026-05-23T17:08:09.000Z</time></trkpt>
        <trkpt lat="29.5803131" lon="103.3737014"><ele>1313.76</ele><time>2026-05-23T17:08:15.000Z</time></trkpt>
        <trkpt lat="29.5802819" lon="103.3736431"><ele>1314.71</ele><time>2026-05-23T17:08:19.000Z</time></trkpt>
        <trkpt lat="29.5802412" lon="103.3735884"><ele>1316.03</ele><time>2026-05-23T17:08:25.000Z</time></trkpt>
        <trkpt lat="29.580194" lon="103.3735337"><ele>1315.82</ele><time>2026-05-23T17:08:31.000Z</time></trkpt>
        <trkpt lat="29.5801521" lon="103.3734873"><ele>1316.05</ele><time>2026-05-23T17:08:37.000Z</time></trkpt>
        <trkpt lat="29.5801173" lon="103.3734332"><ele>1316.05</ele><time>2026-05-23T17:08:45.000Z</time></trkpt>
        <trkpt lat="29.5800785" lon="103.3733888"><ele>1316.4</ele><time>2026-05-23T17:09:01.000Z</time></trkpt>
        <trkpt lat="29.5800455" lon="103.3733441"><ele>1317.2</ele><time>2026-05-23T17:09:07.000Z</time></trkpt>
        <trkpt lat="29.5800084" lon="103.3732974"><ele>1318.12</ele><time>2026-05-23T17:09:23.000Z</time></trkpt>
        <trkpt lat="29.579971" lon="103.3732487"><ele>1319.39</ele><time>2026-05-23T17:09:31.000Z</time></trkpt>
        <trkpt lat="29.5799297" lon="103.3732197"><ele>1320.69</ele><time>2026-05-23T17:09:57.000Z</time></trkpt>
        <trkpt lat="29.5798859" lon="103.3732009"><ele>1324.36</ele><time>2026-05-23T17:10:03.000Z</time></trkpt>
        <trkpt lat="29.5798583" lon="103.3731603"><ele>1326.8</ele><time>2026-05-23T17:10:19.000Z</time></trkpt>
        <trkpt lat="29.5798173" lon="103.3731246"><ele>1327.99</ele><time>2026-05-23T17:10:27.000Z</time></trkpt>
        <trkpt lat="29.5798173" lon="103.3731246"><ele>1327.99</ele><time>2026-05-23T17:10:53.000Z</time></trkpt>
        <trkpt lat="29.5798377" lon="103.3730927"><ele>1329.59</ele><time>2026-05-23T17:10:54.000Z</time></trkpt>
        <trkpt lat="29.5798377" lon="103.3730927"><ele>1329.59</ele><time>2026-05-23T17:11:00.000Z</time></trkpt>
        <trkpt lat="29.5798169" lon="103.373064"><ele>1332.6</ele><time>2026-05-23T17:11:10.000Z</time></trkpt>
        <trkpt lat="29.5797934" lon="103.3730237"><ele>1334.27</ele><time>2026-05-23T17:11:24.000Z</time></trkpt>
        <trkpt lat="29.5797515" lon="103.372999"><ele>1335.72</ele><time>2026-05-23T17:11:42.000Z</time></trkpt>
        <trkpt lat="29.579731" lon="103.3729527"><ele>1337.53</ele><time>2026-05-23T17:12:16.000Z</time></trkpt>
        <trkpt lat="29.5796905" lon="103.3729545"><ele>1340.01</ele><time>2026-05-23T17:12:30.000Z</time></trkpt>
        <trkpt lat="29.5796905" lon="103.3729545"><ele>1340.01</ele><time>2026-05-23T17:12:47.000Z</time></trkpt>
        <trkpt lat="29.5796468" lon="103.3729402"><ele>1342.3</ele><time>2026-05-23T17:12:52.000Z</time></trkpt>
        <trkpt lat="29.5796468" lon="103.3729402"><ele>1342.3</ele><time>2026-05-23T17:13:09.000Z</time></trkpt>
        <trkpt lat="29.5796118" lon="103.3729082"><ele>1345.08</ele><time>2026-05-23T17:13:21.000Z</time></trkpt>
        <trkpt lat="29.5795787" lon="103.3728651"><ele>1347.97</ele><time>2026-05-23T17:13:27.000Z</time></trkpt>
        <trkpt lat="29.579532" lon="103.3728451"><ele>1349.97</ele><time>2026-05-23T17:13:41.000Z</time></trkpt>
        <trkpt lat="29.579477" lon="103.3728395"><ele>1351.96</ele><time>2026-05-23T17:13:51.000Z</time></trkpt>
        <trkpt lat="29.5794325" lon="103.3728206"><ele>1353.7</ele><time>2026-05-23T17:14:07.000Z</time></trkpt>
        <trkpt lat="29.5794001" lon="103.3727783"><ele>1355.39</ele><time>2026-05-23T17:14:15.000Z</time></trkpt>
        <trkpt lat="29.5793647" lon="103.3727355"><ele>1356.47</ele><time>2026-05-23T17:14:31.000Z</time></trkpt>
        <trkpt lat="29.5793328" lon="103.3726915"><ele>1357.43</ele><time>2026-05-23T17:14:39.000Z</time></trkpt>
        <trkpt lat="29.5792993" lon="103.3726497"><ele>1359.56</ele><time>2026-05-23T17:14:45.000Z</time></trkpt>
        <trkpt lat="29.5792586" lon="103.3726137"><ele>1361.06</ele><time>2026-05-23T17:15:03.000Z</time></trkpt>
        <trkpt lat="29.5792176" lon="103.3725758"><ele>1362.83</ele><time>2026-05-23T17:15:09.000Z</time></trkpt>
        <trkpt lat="29.5791712" lon="103.372551"><ele>1364.45</ele><time>2026-05-23T17:15:21.000Z</time></trkpt>
        <trkpt lat="29.5791128" lon="103.3725228"><ele>1366.55</ele><time>2026-05-23T17:15:27.000Z</time></trkpt>
        <trkpt lat="29.5790565" lon="103.3725138"><ele>1369.94</ele><time>2026-05-23T17:15:35.000Z</time></trkpt>
        <trkpt lat="29.5789998" lon="103.3724984"><ele>1371.43</ele><time>2026-05-23T17:15:43.000Z</time></trkpt>
        <trkpt lat="29.5789522" lon="103.3724599"><ele>1372.42</ele><time>2026-05-23T17:15:57.000Z</time></trkpt>
        <trkpt lat="29.5789132" lon="103.3724166"><ele>1372.82</ele><time>2026-05-23T17:16:07.000Z</time></trkpt>
        <trkpt lat="29.5788807" lon="103.3723673"><ele>1374.56</ele><time>2026-05-23T17:16:21.000Z</time></trkpt>
        <trkpt lat="29.5788391" lon="103.3723198"><ele>1374.98</ele><time>2026-05-23T17:16:37.000Z</time></trkpt>
        <trkpt lat="29.5787912" lon="103.3722777"><ele>1375.71</ele><time>2026-05-23T17:16:45.000Z</time></trkpt>
        <trkpt lat="29.5787398" lon="103.372243"><ele>1376.46</ele><time>2026-05-23T17:16:51.000Z</time></trkpt>
        <trkpt lat="29.5786881" lon="103.3722129"><ele>1376.69</ele><time>2026-05-23T17:16:55.000Z</time></trkpt>
        <trkpt lat="29.5786388" lon="103.3721681"><ele>1377.46</ele><time>2026-05-23T17:17:01.000Z</time></trkpt>
        <trkpt lat="29.5786023" lon="103.3721162"><ele>1378.47</ele><time>2026-05-23T17:17:07.000Z</time></trkpt>
        <trkpt lat="29.5785765" lon="103.372068"><ele>1378.99</ele><time>2026-05-23T17:17:13.000Z</time></trkpt>
        <trkpt lat="29.5785373" lon="103.3720311"><ele>1379.49</ele><time>2026-05-23T17:17:19.000Z</time></trkpt>
        <trkpt lat="29.5785163" lon="103.3720119"><ele>1381.25</ele><time>2026-05-23T17:17:27.000Z</time></trkpt>
        <trkpt lat="29.578478" lon="103.3720079"><ele>1382.11</ele><time>2026-05-23T17:17:51.000Z</time></trkpt>
        <trkpt lat="29.5784506" lon="103.3719686"><ele>1383.54</ele><time>2026-05-23T17:18:07.000Z</time></trkpt>
        <trkpt lat="29.5784397" lon="103.3719122"><ele>1384.54</ele><time>2026-05-23T17:18:15.000Z</time></trkpt>
        <trkpt lat="29.578409" lon="103.3718678"><ele>1384.21</ele><time>2026-05-23T17:18:23.000Z</time></trkpt>
        <trkpt lat="29.5783801" lon="103.3718236"><ele>1385.87</ele><time>2026-05-23T17:18:33.000Z</time></trkpt>
        <trkpt lat="29.5783578" lon="103.3717721"><ele>1386.85</ele><time>2026-05-23T17:18:51.000Z</time></trkpt>
        <trkpt lat="29.5783306" lon="103.3717108"><ele>1387.67</ele><time>2026-05-23T17:18:59.000Z</time></trkpt>
        <trkpt lat="29.5782969" lon="103.3716589"><ele>1388.72</ele><time>2026-05-23T17:19:09.000Z</time></trkpt>
        <trkpt lat="29.5782609" lon="103.3716171"><ele>1389.97</ele><time>2026-05-23T17:19:15.000Z</time></trkpt>
        <trkpt lat="29.5782609" lon="103.3716171"><ele>1389.97</ele><time>2026-05-23T17:19:53.000Z</time></trkpt>
        <trkpt lat="29.5782165" lon="103.3715923"><ele>1390.13</ele><time>2026-05-23T17:21:22.000Z</time></trkpt>
        <trkpt lat="29.5782165" lon="103.3715923"><ele>1390.13</ele><time>2026-05-23T17:21:30.000Z</time></trkpt>
        <trkpt lat="29.578167" lon="103.3715811"><ele>1390.69</ele><time>2026-05-23T17:21:38.000Z</time></trkpt>
        <trkpt lat="29.5781157" lon="103.3715672"><ele>1391.9</ele><time>2026-05-23T17:21:52.000Z</time></trkpt>
        <trkpt lat="29.5780887" lon="103.3715251"><ele>1394.82</ele><time>2026-05-23T17:22:12.000Z</time></trkpt>
        <trkpt lat="29.5780574" lon="103.3714809"><ele>1398.22</ele><time>2026-05-23T17:22:38.000Z</time></trkpt>
        <trkpt lat="29.5780217" lon="103.3714393"><ele>1401.43</ele><time>2026-05-23T17:22:54.000Z</time></trkpt>
        <trkpt lat="29.5779778" lon="103.3714132"><ele>1403.79</ele><time>2026-05-23T17:23:24.000Z</time></trkpt>
        <trkpt lat="29.5779323" lon="103.3714021"><ele>1405.57</ele><time>2026-05-23T17:23:32.000Z</time></trkpt>
        <trkpt lat="29.5778913" lon="103.3713717"><ele>1407.46</ele><time>2026-05-23T17:23:42.000Z</time></trkpt>
        <trkpt lat="29.5778479" lon="103.3713536"><ele>1409.51</ele><time>2026-05-23T17:24:06.000Z</time></trkpt>
        <trkpt lat="29.5778479" lon="103.3713536"><ele>1409.51</ele><time>2026-05-23T17:24:19.000Z</time></trkpt>
        <trkpt lat="29.57781" lon="103.3713221"><ele>1412.23</ele><time>2026-05-23T17:24:24.000Z</time></trkpt>
        <trkpt lat="29.57781" lon="103.3713221"><ele>1412.23</ele><time>2026-05-23T17:24:35.000Z</time></trkpt>
        <trkpt lat="29.5777733" lon="103.3712791"><ele>1414.47</ele><time>2026-05-23T17:24:43.000Z</time></trkpt>
        <trkpt lat="29.5777354" lon="103.3712467"><ele>1417.07</ele><time>2026-05-23T17:24:53.000Z</time></trkpt>
        <trkpt lat="29.5777025" lon="103.3712103"><ele>1419.03</ele><time>2026-05-23T17:25:01.000Z</time></trkpt>
        <trkpt lat="29.5776746" lon="103.3711571"><ele>1421.08</ele><time>2026-05-23T17:25:14.000Z</time></trkpt>
        <trkpt lat="29.5776746" lon="103.3711571"><ele>1421.08</ele><time>2026-05-23T17:25:27.000Z</time></trkpt>
        <trkpt lat="29.5777026" lon="103.3711312"><ele>1422.32</ele><time>2026-05-23T17:25:42.000Z</time></trkpt>
        <trkpt lat="29.5777026" lon="103.3711312"><ele>1422.32</ele><time>2026-05-23T17:25:45.000Z</time></trkpt>
        <trkpt lat="29.577669" lon="103.371136"><ele>1417.1</ele><time>2026-05-23T17:25:49.000Z</time></trkpt>
        <trkpt lat="29.5776215" lon="103.371131"><ele>1422.38</ele><time>2026-05-23T17:26:01.000Z</time></trkpt>
        <trkpt lat="29.5775769" lon="103.3711036"><ele>1425.63</ele><time>2026-05-23T17:26:11.000Z</time></trkpt>
        <trkpt lat="29.5775338" lon="103.3710748"><ele>1428.24</ele><time>2026-05-23T17:26:17.000Z</time></trkpt>
        <trkpt lat="29.5774889" lon="103.3710848"><ele>1429.83</ele><time>2026-05-23T17:26:39.000Z</time></trkpt>
        <trkpt lat="29.5774985" lon="103.3710547"><ele>1429.73</ele><time>2026-05-23T17:26:47.000Z</time></trkpt>
        <trkpt lat="29.5774897" lon="103.371006"><ele>1429.72</ele><time>2026-05-23T17:26:55.000Z</time></trkpt>
        <trkpt lat="29.5774777" lon="103.3709499"><ele>1431.02</ele><time>2026-05-23T17:27:25.000Z</time></trkpt>
        <trkpt lat="29.5774593" lon="103.3708979"><ele>1433.16</ele><time>2026-05-23T17:27:53.000Z</time></trkpt>
        <trkpt lat="29.5774426" lon="103.3708315"><ele>1435.02</ele><time>2026-05-23T17:27:59.000Z</time></trkpt>
        <trkpt lat="29.5774361" lon="103.3708157"><ele>1435.76</ele><time>2026-05-23T17:28:03.000Z</time></trkpt>
        <trkpt lat="29.5774472" lon="103.370775"><ele>1436.83</ele><time>2026-05-23T17:28:11.000Z</time></trkpt>
        <trkpt lat="29.5774398" lon="103.370713"><ele>1436.97</ele><time>2026-05-23T17:28:15.000Z</time></trkpt>
        <trkpt lat="29.5774073" lon="103.3706591"><ele>1436.04</ele><time>2026-05-23T17:28:21.000Z</time></trkpt>
        <trkpt lat="29.5773664" lon="103.3706232"><ele>1435.43</ele><time>2026-05-23T17:28:25.000Z</time></trkpt>
        <trkpt lat="29.5773146" lon="103.370582"><ele>1435.22</ele><time>2026-05-23T17:28:31.000Z</time></trkpt>
        <trkpt lat="29.5772778" lon="103.3705246"><ele>1434.55</ele><time>2026-05-23T17:28:37.000Z</time></trkpt>
        <trkpt lat="29.5772463" lon="103.3704784"><ele>1432.92</ele><time>2026-05-23T17:28:41.000Z</time></trkpt>
        <trkpt lat="29.5772098" lon="103.3704442"><ele>1433.31</ele><time>2026-05-23T17:28:45.000Z</time></trkpt>
        <trkpt lat="29.5771689" lon="103.3704075"><ele>1433.47</ele><time>2026-05-23T17:28:51.000Z</time></trkpt>
        <trkpt lat="29.5771339" lon="103.3703567"><ele>1433.65</ele><time>2026-05-23T17:28:57.000Z</time></trkpt>
        <trkpt lat="29.5770874" lon="103.3703177"><ele>1434.24</ele><time>2026-05-23T17:29:07.000Z</time></trkpt>
        <trkpt lat="29.5770442" lon="103.3702821"><ele>1434.37</ele><time>2026-05-23T17:29:13.000Z</time></trkpt>
        <trkpt lat="29.5770094" lon="103.3702445"><ele>1434.4</ele><time>2026-05-23T17:29:17.000Z</time></trkpt>
        <trkpt lat="29.5769864" lon="103.3701744"><ele>1434.28</ele><time>2026-05-23T17:29:23.000Z</time></trkpt>
        <trkpt lat="29.5769689" lon="103.3701065"><ele>1433.52</ele><time>2026-05-23T17:29:27.000Z</time></trkpt>
        <trkpt lat="29.5769713" lon="103.3700314"><ele>1432.44</ele><time>2026-05-23T17:29:33.000Z</time></trkpt>
        <trkpt lat="29.5769888" lon="103.3699688"><ele>1431.11</ele><time>2026-05-23T17:29:39.000Z</time></trkpt>
        <trkpt lat="29.5770022" lon="103.3699089"><ele>1430.89</ele><time>2026-05-23T17:29:45.000Z</time></trkpt>
        <trkpt lat="29.5770235" lon="103.3698578"><ele>1432.14</ele><time>2026-05-23T17:29:51.000Z</time></trkpt>
        <trkpt lat="29.5770078" lon="103.3697948"><ele>1433.23</ele><time>2026-05-23T17:29:55.000Z</time></trkpt>
        <trkpt lat="29.576975" lon="103.369731"><ele>1433.81</ele><time>2026-05-23T17:30:01.000Z</time></trkpt>
        <trkpt lat="29.5769595" lon="103.3696752"><ele>1434.63</ele><time>2026-05-23T17:30:05.000Z</time></trkpt>
        <trkpt lat="29.5769443" lon="103.3696189"><ele>1434.33</ele><time>2026-05-23T17:30:09.000Z</time></trkpt>
        <trkpt lat="29.5769526" lon="103.3695685"><ele>1434.04</ele><time>2026-05-23T17:30:15.000Z</time></trkpt>
        <trkpt lat="29.5769377" lon="103.3695076"><ele>1436.07</ele><time>2026-05-23T17:30:35.000Z</time></trkpt>
        <trkpt lat="29.5769286" lon="103.3694442"><ele>1436.55</ele><time>2026-05-23T17:30:43.000Z</time></trkpt>
        <trkpt lat="29.5769149" lon="103.3693812"><ele>1437.35</ele><time>2026-05-23T17:30:53.000Z</time></trkpt>
        <trkpt lat="29.5769035" lon="103.3693207"><ele>1438.09</ele><time>2026-05-23T17:30:57.000Z</time></trkpt>
        <trkpt lat="29.5768967" lon="103.3692666"><ele>1438.15</ele><time>2026-05-23T17:31:03.000Z</time></trkpt>
        <trkpt lat="29.5768967" lon="103.3692132"><ele>1437.97</ele><time>2026-05-23T17:31:25.000Z</time></trkpt>
        <trkpt lat="29.576895" lon="103.3691987"><ele>1438.92</ele><time>2026-05-23T17:31:27.000Z</time></trkpt>
        <trkpt lat="29.5769025" lon="103.3691611"><ele>1439.56</ele><time>2026-05-23T17:31:49.000Z</time></trkpt>
        <trkpt lat="29.5769033" lon="103.3691086"><ele>1439.71</ele><time>2026-05-23T17:31:57.000Z</time></trkpt>
        <trkpt lat="29.5769117" lon="103.3690436"><ele>1440.24</ele><time>2026-05-23T17:32:05.000Z</time></trkpt>
        <trkpt lat="29.5769214" lon="103.3689853"><ele>1441.35</ele><time>2026-05-23T17:32:09.000Z</time></trkpt>
        <trkpt lat="29.5769294" lon="103.3689236"><ele>1441.87</ele><time>2026-05-23T17:32:17.000Z</time></trkpt>
        <trkpt lat="29.5769314" lon="103.3688646"><ele>1441.82</ele><time>2026-05-23T17:32:23.000Z</time></trkpt>
        <trkpt lat="29.5769378" lon="103.3687945"><ele>1441.53</ele><time>2026-05-23T17:32:29.000Z</time></trkpt>
        <trkpt lat="29.5769377" lon="103.3687243"><ele>1441.18</ele><time>2026-05-23T17:32:33.000Z</time></trkpt>
        <trkpt lat="29.576936" lon="103.3686351"><ele>1441.54</ele><time>2026-05-23T17:32:37.000Z</time></trkpt>
        <trkpt lat="29.5769451" lon="103.3685427"><ele>1441.23</ele><time>2026-05-23T17:32:41.000Z</time></trkpt>
        <trkpt lat="29.5769617" lon="103.3684652"><ele>1440.26</ele><time>2026-05-23T17:32:45.000Z</time></trkpt>
        <trkpt lat="29.5769835" lon="103.3683991"><ele>1440.48</ele><time>2026-05-23T17:32:49.000Z</time></trkpt>
        <trkpt lat="29.5770028" lon="103.3683327"><ele>1440.97</ele><time>2026-05-23T17:32:55.000Z</time></trkpt>
        <trkpt lat="29.5770148" lon="103.3682527"><ele>1441.78</ele><time>2026-05-23T17:32:59.000Z</time></trkpt>
        <trkpt lat="29.577024" lon="103.3681831"><ele>1442.16</ele><time>2026-05-23T17:33:05.000Z</time></trkpt>
        <trkpt lat="29.5770242" lon="103.3681633"><ele>1442.07</ele><time>2026-05-23T17:33:09.000Z</time></trkpt>
        <trkpt lat="29.5770221" lon="103.3681214"><ele>1442.51</ele><time>2026-05-23T17:33:35.000Z</time></trkpt>
        <trkpt lat="29.5770207" lon="103.368065"><ele>1444.08</ele><time>2026-05-23T17:33:55.000Z</time></trkpt>
        <trkpt lat="29.5770184" lon="103.3680418"><ele>1443.91</ele><time>2026-05-23T17:33:59.000Z</time></trkpt>
        <trkpt lat="29.5770334" lon="103.3680005"><ele>1444.13</ele><time>2026-05-23T17:34:31.000Z</time></trkpt>
        <trkpt lat="29.5770807" lon="103.3679779"><ele>1445.75</ele><time>2026-05-23T17:34:45.000Z</time></trkpt>
        <trkpt lat="29.5771328" lon="103.3679602"><ele>1449.85</ele><time>2026-05-23T17:35:07.000Z</time></trkpt>
        <trkpt lat="29.5771888" lon="103.3679524"><ele>1454.71</ele><time>2026-05-23T17:35:19.000Z</time></trkpt>
        <trkpt lat="29.5771888" lon="103.3679524"><ele>1454.71</ele><time>2026-05-23T17:35:43.000Z</time></trkpt>
        <trkpt lat="29.5771806" lon="103.3678894"><ele>1458.31</ele><time>2026-05-23T17:35:46.000Z</time></trkpt>
        <trkpt lat="29.5771806" lon="103.3678894"><ele>1458.31</ele><time>2026-05-23T17:35:49.000Z</time></trkpt>
        <trkpt lat="29.5771523" lon="103.3678073"><ele>1459.31</ele><time>2026-05-23T17:35:51.000Z</time></trkpt>
        <trkpt lat="29.5771523" lon="103.3678073"><ele>1459.31</ele><time>2026-05-23T17:36:01.000Z</time></trkpt>
        <trkpt lat="29.5772205" lon="103.3678061"><ele>1454.18</ele><time>2026-05-23T17:36:04.000Z</time></trkpt>
        <trkpt lat="29.5772205" lon="103.3678061"><ele>1454.18</ele><time>2026-05-23T17:36:09.000Z</time></trkpt>
        <trkpt lat="29.5772119" lon="103.3677793"><ele>1454.24</ele><time>2026-05-23T17:36:45.000Z</time></trkpt>
        <trkpt lat="29.5772215" lon="103.3677244"><ele>1461.47</ele><time>2026-05-23T17:36:55.000Z</time></trkpt>
        <trkpt lat="29.5772032" lon="103.3676659"><ele>1465.46</ele><time>2026-05-23T17:37:01.000Z</time></trkpt>
        <trkpt lat="29.5771621" lon="103.3676272"><ele>1467.57</ele><time>2026-05-23T17:37:19.000Z</time></trkpt>
        <trkpt lat="29.5771171" lon="103.3675989"><ele>1468.08</ele><time>2026-05-23T17:37:27.000Z</time></trkpt>
        <trkpt lat="29.5770695" lon="103.3675697"><ele>1466.93</ele><time>2026-05-23T17:37:33.000Z</time></trkpt>
        <trkpt lat="29.5770371" lon="103.3675129"><ele>1466.22</ele><time>2026-05-23T17:37:41.000Z</time></trkpt>
        <trkpt lat="29.5770082" lon="103.3674632"><ele>1466.69</ele><time>2026-05-23T17:37:45.000Z</time></trkpt>
        <trkpt lat="29.5769754" lon="103.3674109"><ele>1467.29</ele><time>2026-05-23T17:37:51.000Z</time></trkpt>
        <trkpt lat="29.5769361" lon="103.3673603"><ele>1466.58</ele><time>2026-05-23T17:37:57.000Z</time></trkpt>
        <trkpt lat="29.5768899" lon="103.3673209"><ele>1465.67</ele><time>2026-05-23T17:38:03.000Z</time></trkpt>
        <trkpt lat="29.5768459" lon="103.367293"><ele>1464.08</ele><time>2026-05-23T17:38:07.000Z</time></trkpt>
        <trkpt lat="29.576797" lon="103.3672699"><ele>1462.95</ele><time>2026-05-23T17:38:11.000Z</time></trkpt>
        <trkpt lat="29.5767501" lon="103.3672297"><ele>1463.08</ele><time>2026-05-23T17:38:15.000Z</time></trkpt>
        <trkpt lat="29.5767171" lon="103.3671877"><ele>1463.37</ele><time>2026-05-23T17:38:19.000Z</time></trkpt>
        <trkpt lat="29.5766884" lon="103.3671417"><ele>1462.98</ele><time>2026-05-23T17:38:23.000Z</time></trkpt>
        <trkpt lat="29.5766501" lon="103.3670913"><ele>1462.9</ele><time>2026-05-23T17:38:29.000Z</time></trkpt>
        <trkpt lat="29.5766183" lon="103.3670258"><ele>1461.04</ele><time>2026-05-23T17:38:35.000Z</time></trkpt>
        <trkpt lat="29.5765891" lon="103.3669564"><ele>1459.71</ele><time>2026-05-23T17:38:41.000Z</time></trkpt>
        <trkpt lat="29.5765584" lon="103.3669039"><ele>1459.19</ele><time>2026-05-23T17:38:45.000Z</time></trkpt>
        <trkpt lat="29.5765217" lon="103.3668682"><ele>1458.44</ele><time>2026-05-23T17:38:49.000Z</time></trkpt>
        <trkpt lat="29.5764679" lon="103.3668357"><ele>1457.77</ele><time>2026-05-23T17:38:55.000Z</time></trkpt>
        <trkpt lat="29.5764182" lon="103.3668123"><ele>1457.98</ele><time>2026-05-23T17:38:59.000Z</time></trkpt>
        <trkpt lat="29.5763816" lon="103.3667777"><ele>1458.59</ele><time>2026-05-23T17:39:03.000Z</time></trkpt>
        <trkpt lat="29.5763513" lon="103.366715"><ele>1459.19</ele><time>2026-05-23T17:39:09.000Z</time></trkpt>
        <trkpt lat="29.5763258" lon="103.3666564"><ele>1459.02</ele><time>2026-05-23T17:39:13.000Z</time></trkpt>
        <trkpt lat="29.5763127" lon="103.366592"><ele>1458.26</ele><time>2026-05-23T17:39:17.000Z</time></trkpt>
        <trkpt lat="29.5763255" lon="103.3665377"><ele>1458.26</ele><time>2026-05-23T17:39:21.000Z</time></trkpt>
        <trkpt lat="29.5763047" lon="103.3664909"><ele>1459.54</ele><time>2026-05-23T17:39:25.000Z</time></trkpt>
        <trkpt lat="29.5762743" lon="103.3664522"><ele>1460.81</ele><time>2026-05-23T17:39:29.000Z</time></trkpt>
        <trkpt lat="29.5762326" lon="103.3664141"><ele>1460.83</ele><time>2026-05-23T17:39:33.000Z</time></trkpt>
        <trkpt lat="29.5762026" lon="103.3663501"><ele>1461.09</ele><time>2026-05-23T17:39:39.000Z</time></trkpt>
        <trkpt lat="29.5761846" lon="103.3662857"><ele>1460.07</ele><time>2026-05-23T17:39:45.000Z</time></trkpt>
        <trkpt lat="29.576182" lon="103.3662237"><ele>1458.43</ele><time>2026-05-23T17:39:51.000Z</time></trkpt>
        <trkpt lat="29.5761905" lon="103.3661565"><ele>1457.93</ele><time>2026-05-23T17:39:57.000Z</time></trkpt>
        <trkpt lat="29.5761834" lon="103.3660993"><ele>1457.79</ele><time>2026-05-23T17:40:05.000Z</time></trkpt>
        <trkpt lat="29.5761416" lon="103.366069"><ele>1457.73</ele><time>2026-05-23T17:40:13.000Z</time></trkpt>
        <trkpt lat="29.5760928" lon="103.3660523"><ele>1455.91</ele><time>2026-05-23T17:40:19.000Z</time></trkpt>
        <trkpt lat="29.5760419" lon="103.3660314"><ele>1453.16</ele><time>2026-05-23T17:40:25.000Z</time></trkpt>
        <trkpt lat="29.5760205" lon="103.3659784"><ele>1449.91</ele><time>2026-05-23T17:40:33.000Z</time></trkpt>
        <trkpt lat="29.5759908" lon="103.3659329"><ele>1448.2</ele><time>2026-05-23T17:40:41.000Z</time></trkpt>
        <trkpt lat="29.5759561" lon="103.3658907"><ele>1445.65</ele><time>2026-05-23T17:40:53.000Z</time></trkpt>
        <trkpt lat="29.5759126" lon="103.3658625"><ele>1441.48</ele><time>2026-05-23T17:41:03.000Z</time></trkpt>
        <trkpt lat="29.5758567" lon="103.3658366"><ele>1438.62</ele><time>2026-05-23T17:41:15.000Z</time></trkpt>
        <trkpt lat="29.575803" lon="103.3657957"><ele>1437.61</ele><time>2026-05-23T17:41:21.000Z</time></trkpt>
        <trkpt lat="29.5757654" lon="103.3657488"><ele>1438.06</ele><time>2026-05-23T17:41:25.000Z</time></trkpt>
        <trkpt lat="29.5757188" lon="103.3656887"><ele>1437.91</ele><time>2026-05-23T17:41:33.000Z</time></trkpt>
        <trkpt lat="29.5756699" lon="103.3656761"><ele>1436.71</ele><time>2026-05-23T17:41:37.000Z</time></trkpt>
        <trkpt lat="29.5756154" lon="103.3656708"><ele>1435.26</ele><time>2026-05-23T17:41:43.000Z</time></trkpt>
        <trkpt lat="29.5755765" lon="103.3656398"><ele>1433.6</ele><time>2026-05-23T17:41:47.000Z</time></trkpt>
        <trkpt lat="29.5755637" lon="103.3656153"><ele>1432.39</ele><time>2026-05-23T17:41:51.000Z</time></trkpt>
        <trkpt lat="29.5755637" lon="103.3656153"><ele>1432.39</ele><time>2026-05-23T17:42:19.000Z</time></trkpt>
        <trkpt lat="29.5755637" lon="103.3656153"><ele>1432.39</ele><time>2026-05-23T17:42:44.000Z</time></trkpt>
        <trkpt lat="29.5755637" lon="103.3656153"><ele>1432.39</ele><time>2026-05-23T17:42:55.000Z</time></trkpt>
        <trkpt lat="29.5755598" lon="103.3655072"><ele>1431.7</ele><time>2026-05-23T17:43:08.000Z</time></trkpt>
        <trkpt lat="29.5755598" lon="103.3655072"><ele>1431.7</ele><time>2026-05-23T17:43:13.000Z</time></trkpt>
        <trkpt lat="29.5755139" lon="103.3655203"><ele>1427.53</ele><time>2026-05-23T17:43:47.000Z</time></trkpt>
        <trkpt lat="29.5754683" lon="103.3655237"><ele>1427.7</ele><time>2026-05-23T17:44:17.000Z</time></trkpt>
        <trkpt lat="29.5754232" lon="103.365504"><ele>1428.7</ele><time>2026-05-23T17:44:33.000Z</time></trkpt>
        <trkpt lat="29.5753795" lon="103.365482"><ele>1430.01</ele><time>2026-05-23T17:45:03.000Z</time></trkpt>
        <trkpt lat="29.5753337" lon="103.3654641"><ele>1431.9</ele><time>2026-05-23T17:45:23.000Z</time></trkpt>
        <trkpt lat="29.5752923" lon="103.3654406"><ele>1435.72</ele><time>2026-05-23T17:45:39.000Z</time></trkpt>
        <trkpt lat="29.5752535" lon="103.3654094"><ele>1440.49</ele><time>2026-05-23T17:45:57.000Z</time></trkpt>
        <trkpt lat="29.5752535" lon="103.3654094"><ele>1440.49</ele><time>2026-05-23T17:46:11.000Z</time></trkpt>
        <trkpt lat="29.5752098" lon="103.3653934"><ele>1444.92</ele><time>2026-05-23T17:46:14.000Z</time></trkpt>
        <trkpt lat="29.5752098" lon="103.3653934"><ele>1444.92</ele><time>2026-05-23T17:46:29.000Z</time></trkpt>
        <trkpt lat="29.575166" lon="103.365371"><ele>1448.69</ele><time>2026-05-23T17:46:47.000Z</time></trkpt>
        <trkpt lat="29.5751335" lon="103.3653319"><ele>1451.35</ele><time>2026-05-23T17:47:01.000Z</time></trkpt>
        <trkpt lat="29.575154" lon="103.3652929"><ele>1452.88</ele><time>2026-05-23T17:47:21.000Z</time></trkpt>
        <trkpt lat="29.5751472" lon="103.3652415"><ele>1455.59</ele><time>2026-05-23T17:47:59.000Z</time></trkpt>
        <trkpt lat="29.5751207" lon="103.3651932"><ele>1458.97</ele><time>2026-05-23T17:48:09.000Z</time></trkpt>
        <trkpt lat="29.5750793" lon="103.3651635"><ele>1461.43</ele><time>2026-05-23T17:48:23.000Z</time></trkpt>
        <trkpt lat="29.5750752" lon="103.3651533"><ele>1461.81</ele><time>2026-05-23T17:48:27.000Z</time></trkpt>
        <trkpt lat="29.5750535" lon="103.3651178"><ele>1461.83</ele><time>2026-05-23T17:48:43.000Z</time></trkpt>
        <trkpt lat="29.5750189" lon="103.3650762"><ele>1462.23</ele><time>2026-05-23T17:48:49.000Z</time></trkpt>
        <trkpt lat="29.5749927" lon="103.3650223"><ele>1462.83</ele><time>2026-05-23T17:48:55.000Z</time></trkpt>
        <trkpt lat="29.5749839" lon="103.3649602"><ele>1464.05</ele><time>2026-05-23T17:49:01.000Z</time></trkpt>
        <trkpt lat="29.5749745" lon="103.364899"><ele>1464.64</ele><time>2026-05-23T17:49:15.000Z</time></trkpt>
        <trkpt lat="29.5749579" lon="103.364842"><ele>1464.44</ele><time>2026-05-23T17:49:31.000Z</time></trkpt>
        <trkpt lat="29.5749724" lon="103.3647931"><ele>1465.43</ele><time>2026-05-23T17:49:49.000Z</time></trkpt>
        <trkpt lat="29.5749431" lon="103.3647749"><ele>1466.88</ele><time>2026-05-23T17:50:05.000Z</time></trkpt>
        <trkpt lat="29.5748971" lon="103.3647785"><ele>1469.08</ele><time>2026-05-23T17:50:11.000Z</time></trkpt>
        <trkpt lat="29.5748472" lon="103.364771"><ele>1470.95</ele><time>2026-05-23T17:50:21.000Z</time></trkpt>
        <trkpt lat="29.5748472" lon="103.364771"><ele>1470.95</ele><time>2026-05-23T17:50:45.000Z</time></trkpt>
        <trkpt lat="29.574889" lon="103.364777"><ele>1473.74</ele><time>2026-05-23T17:50:58.000Z</time></trkpt>
        <trkpt lat="29.574889" lon="103.364777"><ele>1473.74</ele><time>2026-05-23T17:51:01.000Z</time></trkpt>
        <trkpt lat="29.574889" lon="103.364777"><ele>1473.74</ele><time>2026-05-23T17:51:17.000Z</time></trkpt>
        <trkpt lat="29.5748822" lon="103.3647565"><ele>1476.79</ele><time>2026-05-23T17:51:20.000Z</time></trkpt>
        <trkpt lat="29.5748822" lon="103.3647565"><ele>1476.79</ele><time>2026-05-23T17:51:23.000Z</time></trkpt>
        <trkpt lat="29.5748309" lon="103.3646854"><ele>1480.11</ele><time>2026-05-23T17:51:27.000Z</time></trkpt>
        <trkpt lat="29.5748007" lon="103.3646239"><ele>1477.37</ele><time>2026-05-23T17:52:13.000Z</time></trkpt>
        <trkpt lat="29.5748007" lon="103.3646239"><ele>1477.37</ele><time>2026-05-23T17:52:31.000Z</time></trkpt>
        <trkpt lat="29.5747673" lon="103.3645762"><ele>1479.68</ele><time>2026-05-23T17:52:34.000Z</time></trkpt>
        <trkpt lat="29.5747673" lon="103.3645762"><ele>1479.68</ele><time>2026-05-23T17:52:45.000Z</time></trkpt>
        <trkpt lat="29.574749" lon="103.3645268"><ele>1483.49</ele><time>2026-05-23T17:53:07.000Z</time></trkpt>
        <trkpt lat="29.5747067" lon="103.3645189"><ele>1486.06</ele><time>2026-05-23T17:53:29.000Z</time></trkpt>
        <trkpt lat="29.5746618" lon="103.3644955"><ele>1488.61</ele><time>2026-05-23T17:53:41.000Z</time></trkpt>
        <trkpt lat="29.5746436" lon="103.3644515"><ele>1491.22</ele><time>2026-05-23T17:53:47.000Z</time></trkpt>
        <trkpt lat="29.5746655" lon="103.3644036"><ele>1493.17</ele><time>2026-05-23T17:54:08.000Z</time></trkpt>
        <trkpt lat="29.5746797" lon="103.3643464"><ele>1495.4</ele><time>2026-05-23T17:54:16.000Z</time></trkpt>
        <trkpt lat="29.5746514" lon="103.3642982"><ele>1496.99</ele><time>2026-05-23T17:54:22.000Z</time></trkpt>
        <trkpt lat="29.5746039" lon="103.3642455"><ele>1497.76</ele><time>2026-05-23T17:54:28.000Z</time></trkpt>
        <trkpt lat="29.5745549" lon="103.3642006"><ele>1498.35</ele><time>2026-05-23T17:54:34.000Z</time></trkpt>
        <trkpt lat="29.5745143" lon="103.3641578"><ele>1497.97</ele><time>2026-05-23T17:54:40.000Z</time></trkpt>
        <trkpt lat="29.5744704" lon="103.3641167"><ele>1497.92</ele><time>2026-05-23T17:54:48.000Z</time></trkpt>
        <trkpt lat="29.5744405" lon="103.3640723"><ele>1497.87</ele><time>2026-05-23T17:54:54.000Z</time></trkpt>
        <trkpt lat="29.5744237" lon="103.3640214"><ele>1497.21</ele><time>2026-05-23T17:55:00.000Z</time></trkpt>
        <trkpt lat="29.5744251" lon="103.3639614"><ele>1499.05</ele><time>2026-05-23T17:55:06.000Z</time></trkpt>
        <trkpt lat="29.5744389" lon="103.3638993"><ele>1501.16</ele><time>2026-05-23T17:55:20.000Z</time></trkpt>
        <trkpt lat="29.5744251" lon="103.3638442"><ele>1502.14</ele><time>2026-05-23T17:55:46.000Z</time></trkpt>
        <trkpt lat="29.5744059" lon="103.3637877"><ele>1505.66</ele><time>2026-05-23T17:56:08.000Z</time></trkpt>
        <trkpt lat="29.5744059" lon="103.3637877"><ele>1505.66</ele><time>2026-05-23T17:56:19.000Z</time></trkpt>
        <trkpt lat="29.5743757" lon="103.3637423"><ele>1507.97</ele><time>2026-05-23T17:56:22.000Z</time></trkpt>
        <trkpt lat="29.5743757" lon="103.3637423"><ele>1507.97</ele><time>2026-05-23T17:56:27.000Z</time></trkpt>
        <trkpt lat="29.5743975" lon="103.3637172"><ele>1509.1</ele><time>2026-05-23T17:56:39.000Z</time></trkpt>
        <trkpt lat="29.5744432" lon="103.3637006"><ele>1511.3</ele><time>2026-05-23T17:56:47.000Z</time></trkpt>
        <trkpt lat="29.5744932" lon="103.3636789"><ele>1513.03</ele><time>2026-05-23T17:57:17.000Z</time></trkpt>
        <trkpt lat="29.5745464" lon="103.3636844"><ele>1516.54</ele><time>2026-05-23T17:57:43.000Z</time></trkpt>
        <trkpt lat="29.5745964" lon="103.3637032"><ele>1521.31</ele><time>2026-05-23T17:58:09.000Z</time></trkpt>
        <trkpt lat="29.5746269" lon="103.3636749"><ele>1525.14</ele><time>2026-05-23T17:58:23.000Z</time></trkpt>
        <trkpt lat="29.5746384" lon="103.3636254"><ele>1528.27</ele><time>2026-05-23T17:58:41.000Z</time></trkpt>
        <trkpt lat="29.5746457" lon="103.3635638"><ele>1530.43</ele><time>2026-05-23T17:58:49.000Z</time></trkpt>
        <trkpt lat="29.5746427" lon="103.3635026"><ele>1530.85</ele><time>2026-05-23T17:58:55.000Z</time></trkpt>
        <trkpt lat="29.5746297" lon="103.3634346"><ele>1531.78</ele><time>2026-05-23T17:59:01.000Z</time></trkpt>
        <trkpt lat="29.5746179" lon="103.363366"><ele>1533.34</ele><time>2026-05-23T17:59:07.000Z</time></trkpt>
        <trkpt lat="29.5745941" lon="103.3633313"><ele>1535.46</ele><time>2026-05-23T17:59:13.000Z</time></trkpt>
        <trkpt lat="29.5746096" lon="103.3632979"><ele>1537.44</ele><time>2026-05-23T17:59:23.000Z</time></trkpt>
        <trkpt lat="29.5746355" lon="103.3632571"><ele>1539.22</ele><time>2026-05-23T17:59:43.000Z</time></trkpt>
        <trkpt lat="29.5746576" lon="103.3632034"><ele>1541.16</ele><time>2026-05-23T18:00:03.000Z</time></trkpt>
        <trkpt lat="29.5746587" lon="103.3631484"><ele>1541.91</ele><time>2026-05-23T18:00:19.000Z</time></trkpt>
        <trkpt lat="29.5746268" lon="103.363097"><ele>1542.44</ele><time>2026-05-23T18:00:41.000Z</time></trkpt>
        <trkpt lat="29.5745989" lon="103.3630444"><ele>1542.79</ele><time>2026-05-23T18:00:49.000Z</time></trkpt>
        <trkpt lat="29.574613" lon="103.3630019"><ele>1543.24</ele><time>2026-05-23T18:00:57.000Z</time></trkpt>
        <trkpt lat="29.5746297" lon="103.3629475"><ele>1545.45</ele><time>2026-05-23T18:01:07.000Z</time></trkpt>
        <trkpt lat="29.5746675" lon="103.3628999"><ele>1548.03</ele><time>2026-05-23T18:01:17.000Z</time></trkpt>
        <trkpt lat="29.5747177" lon="103.3628538"><ele>1549.46</ele><time>2026-05-23T18:01:25.000Z</time></trkpt>
        <trkpt lat="29.5747622" lon="103.3628086"><ele>1550.07</ele><time>2026-05-23T18:01:35.000Z</time></trkpt>
        <trkpt lat="29.5748053" lon="103.3627719"><ele>1551.08</ele><time>2026-05-23T18:01:51.000Z</time></trkpt>
        <trkpt lat="29.5748518" lon="103.3627587"><ele>1551.05</ele><time>2026-05-23T18:02:29.000Z</time></trkpt>
        <trkpt lat="29.5748823" lon="103.3627222"><ele>1550.63</ele><time>2026-05-23T18:02:41.000Z</time></trkpt>
        <trkpt lat="29.574905" lon="103.3626693"><ele>1551.34</ele><time>2026-05-23T18:02:49.000Z</time></trkpt>
        <trkpt lat="29.5749024" lon="103.3626062"><ele>1552.91</ele><time>2026-05-23T18:02:55.000Z</time></trkpt>
        <trkpt lat="29.5749024" lon="103.3626062"><ele>1552.91</ele><time>2026-05-23T18:03:07.000Z</time></trkpt>
        <trkpt lat="29.5748667" lon="103.3625442"><ele>1554.9</ele><time>2026-05-23T18:03:14.000Z</time></trkpt>
        <trkpt lat="29.5748667" lon="103.3625442"><ele>1554.9</ele><time>2026-05-23T18:03:37.000Z</time></trkpt>
        <trkpt lat="29.5748265" lon="103.3625002"><ele>1556.38</ele><time>2026-05-23T18:03:49.000Z</time></trkpt>
        <trkpt lat="29.5747793" lon="103.3624697"><ele>1558.41</ele><time>2026-05-23T18:04:05.000Z</time></trkpt>
        <trkpt lat="29.5747245" lon="103.3624596"><ele>1559.87</ele><time>2026-05-23T18:04:13.000Z</time></trkpt>
        <trkpt lat="29.5746744" lon="103.3624567"><ele>1561.24</ele><time>2026-05-23T18:04:21.000Z</time></trkpt>
        <trkpt lat="29.5746189" lon="103.3624687"><ele>1563.59</ele><time>2026-05-23T18:04:27.000Z</time></trkpt>
        <trkpt lat="29.5745546" lon="103.3624843"><ele>1565.78</ele><time>2026-05-23T18:05:16.000Z</time></trkpt>
        <trkpt lat="29.5745044" lon="103.362503"><ele>1567.54</ele><time>2026-05-23T18:05:20.000Z</time></trkpt>
        <trkpt lat="29.5744464" lon="103.3624994"><ele>1568.72</ele><time>2026-05-23T18:05:26.000Z</time></trkpt>
        <trkpt lat="29.5743904" lon="103.3624916"><ele>1570.82</ele><time>2026-05-23T18:05:32.000Z</time></trkpt>
        <trkpt lat="29.5743352" lon="103.3624733"><ele>1571.86</ele><time>2026-05-23T18:05:38.000Z</time></trkpt>
        <trkpt lat="29.5742719" lon="103.3624702"><ele>1572.35</ele><time>2026-05-23T18:05:44.000Z</time></trkpt>
        <trkpt lat="29.5742022" lon="103.3624712"><ele>1571.46</ele><time>2026-05-23T18:05:50.000Z</time></trkpt>
        <trkpt lat="29.5741431" lon="103.3624868"><ele>1572.22</ele><time>2026-05-23T18:05:56.000Z</time></trkpt>
        <trkpt lat="29.5741172" lon="103.3624902"><ele>1571.1</ele><time>2026-05-23T18:06:00.000Z</time></trkpt>
        <trkpt lat="29.5740689" lon="103.3625051"><ele>1570.89</ele><time>2026-05-23T18:06:20.000Z</time></trkpt>
        <trkpt lat="29.5740205" lon="103.3625186"><ele>1572.05</ele><time>2026-05-23T18:06:26.000Z</time></trkpt>
        <trkpt lat="29.574011" lon="103.362525"><ele>1573.71</ele><time>2026-05-23T18:06:28.000Z</time></trkpt>
        <trkpt lat="29.5739746" lon="103.362528"><ele>1574.53</ele><time>2026-05-23T18:06:48.000Z</time></trkpt>
        <trkpt lat="29.5739365" lon="103.3624984"><ele>1573.23</ele><time>2026-05-23T18:06:58.000Z</time></trkpt>
        <trkpt lat="29.5738891" lon="103.3624705"><ele>1572.88</ele><time>2026-05-23T18:07:14.000Z</time></trkpt>
        <trkpt lat="29.5738547" lon="103.3624199"><ele>1573.25</ele><time>2026-05-23T18:07:20.000Z</time></trkpt>
        <trkpt lat="29.5738154" lon="103.3623719"><ele>1574.08</ele><time>2026-05-23T18:07:28.000Z</time></trkpt>
        <trkpt lat="29.573778" lon="103.362335"><ele>1574.92</ele><time>2026-05-23T18:07:42.000Z</time></trkpt>
        <trkpt lat="29.5737499" lon="103.3622938"><ele>1575.04</ele><time>2026-05-23T18:08:04.000Z</time></trkpt>
        <trkpt lat="29.5737505" lon="103.3622443"><ele>1577.37</ele><time>2026-05-23T18:08:22.000Z</time></trkpt>
        <trkpt lat="29.5737156" lon="103.3622243"><ele>1580.65</ele><time>2026-05-23T18:08:26.000Z</time></trkpt>
        <trkpt lat="29.5736712" lon="103.3622102"><ele>1581.59</ele><time>2026-05-23T18:08:30.000Z</time></trkpt>
        <trkpt lat="29.5736237" lon="103.3621961"><ele>1581.67</ele><time>2026-05-23T18:08:38.000Z</time></trkpt>
        <trkpt lat="29.5735839" lon="103.3621546"><ele>1581.52</ele><time>2026-05-23T18:09:08.000Z</time></trkpt>
        <trkpt lat="29.5735664" lon="103.3620946"><ele>1582.7</ele><time>2026-05-23T18:09:12.000Z</time></trkpt>
        <trkpt lat="29.5735322" lon="103.3620491"><ele>1584.97</ele><time>2026-05-23T18:09:18.000Z</time></trkpt>
        <trkpt lat="29.5734938" lon="103.3620163"><ele>1585.56</ele><time>2026-05-23T18:09:36.000Z</time></trkpt>
        <trkpt lat="29.5734938" lon="103.3620163"><ele>1585.56</ele><time>2026-05-23T18:09:47.000Z</time></trkpt>
        <trkpt lat="29.5734479" lon="103.3620009"><ele>1587.59</ele><time>2026-05-23T18:09:58.000Z</time></trkpt>
        <trkpt lat="29.5734479" lon="103.3620009"><ele>1587.59</ele><time>2026-05-23T18:10:15.000Z</time></trkpt>
        <trkpt lat="29.573406" lon="103.3619631"><ele>1589.88</ele><time>2026-05-23T18:10:41.000Z</time></trkpt>
        <trkpt lat="29.573406" lon="103.3619631"><ele>1589.88</ele><time>2026-05-23T18:10:51.000Z</time></trkpt>
        <trkpt lat="29.5733647" lon="103.3619186"><ele>1593.26</ele><time>2026-05-23T18:10:56.000Z</time></trkpt>
        <trkpt lat="29.5733647" lon="103.3619186"><ele>1593.26</ele><time>2026-05-23T18:11:01.000Z</time></trkpt>
        <trkpt lat="29.5733206" lon="103.3619132"><ele>1600.71</ele><time>2026-05-23T18:11:27.000Z</time></trkpt>
        <trkpt lat="29.5732801" lon="103.3618873"><ele>1603.02</ele><time>2026-05-23T18:11:57.000Z</time></trkpt>
        <trkpt lat="29.5732475" lon="103.361849"><ele>1605.31</ele><time>2026-05-23T18:12:09.000Z</time></trkpt>
        <trkpt lat="29.5732032" lon="103.3618188"><ele>1607.15</ele><time>2026-05-23T18:12:19.000Z</time></trkpt>
        <trkpt lat="29.5731599" lon="103.361797"><ele>1608.32</ele><time>2026-05-23T18:12:25.000Z</time></trkpt>
        <trkpt lat="29.5731126" lon="103.3617695"><ele>1609.46</ele><time>2026-05-23T18:12:31.000Z</time></trkpt>
        <trkpt lat="29.5730755" lon="103.3617242"><ele>1610.03</ele><time>2026-05-23T18:12:43.000Z</time></trkpt>
        <trkpt lat="29.5730316" lon="103.3616897"><ele>1611.75</ele><time>2026-05-23T18:12:49.000Z</time></trkpt>
        <trkpt lat="29.5729877" lon="103.3616653"><ele>1612.2</ele><time>2026-05-23T18:12:53.000Z</time></trkpt>
        <trkpt lat="29.5729377" lon="103.3616396"><ele>1611.96</ele><time>2026-05-23T18:12:59.000Z</time></trkpt>
        <trkpt lat="29.5728867" lon="103.3616207"><ele>1612.29</ele><time>2026-05-23T18:13:05.000Z</time></trkpt>
        <trkpt lat="29.5728258" lon="103.3616093"><ele>1613.18</ele><time>2026-05-23T18:13:11.000Z</time></trkpt>
        <trkpt lat="29.572759" lon="103.3616068"><ele>1612.83</ele><time>2026-05-23T18:13:17.000Z</time></trkpt>
        <trkpt lat="29.572694" lon="103.361602"><ele>1612.7</ele><time>2026-05-23T18:13:23.000Z</time></trkpt>
        <trkpt lat="29.5726419" lon="103.3616069"><ele>1613.32</ele><time>2026-05-23T18:13:29.000Z</time></trkpt>
        <trkpt lat="29.5725908" lon="103.3616156"><ele>1613.96</ele><time>2026-05-23T18:13:35.000Z</time></trkpt>
        <trkpt lat="29.5725457" lon="103.3616413"><ele>1615.02</ele><time>2026-05-23T18:13:41.000Z</time></trkpt>
        <trkpt lat="29.5725025" lon="103.3616772"><ele>1615.75</ele><time>2026-05-23T18:14:09.000Z</time></trkpt>
        <trkpt lat="29.5724665" lon="103.361717"><ele>1617.5</ele><time>2026-05-23T18:14:29.000Z</time></trkpt>
        <trkpt lat="29.5724251" lon="103.3617475"><ele>1618.95</ele><time>2026-05-23T18:14:55.000Z</time></trkpt>
        <trkpt lat="29.5723812" lon="103.3617477"><ele>1619.28</ele><time>2026-05-23T18:15:05.000Z</time></trkpt>
        <trkpt lat="29.5723812" lon="103.3617477"><ele>1619.28</ele><time>2026-05-23T18:15:31.000Z</time></trkpt>
        <trkpt lat="29.5722855" lon="103.3616624"><ele>1620.85</ele><time>2026-05-23T18:15:52.000Z</time></trkpt>
        <trkpt lat="29.5722855" lon="103.3616624"><ele>1620.85</ele><time>2026-05-23T18:15:55.000Z</time></trkpt>
        <trkpt lat="29.5722712" lon="103.3616736"><ele>1633.63</ele><time>2026-05-23T18:16:03.000Z</time></trkpt>
        <trkpt lat="29.5722547" lon="103.3617169"><ele>1636.67</ele><time>2026-05-23T18:16:11.000Z</time></trkpt>
        <trkpt lat="29.5722331" lon="103.3617707"><ele>1637.5</ele><time>2026-05-23T18:16:27.000Z</time></trkpt>
        <trkpt lat="29.5721982" lon="103.3618145"><ele>1636.24</ele><time>2026-05-23T18:17:01.000Z</time></trkpt>
        <trkpt lat="29.5721576" lon="103.3618093"><ele>1637.32</ele><time>2026-05-23T18:17:23.000Z</time></trkpt>
        <trkpt lat="29.5721576" lon="103.3618093"><ele>1637.32</ele><time>2026-05-23T18:17:25.000Z</time></trkpt>
        <trkpt lat="29.5721576" lon="103.3618093"><ele>1637.32</ele><time>2026-05-23T18:17:32.000Z</time></trkpt>
        <trkpt lat="29.5721576" lon="103.3618093"><ele>1637.32</ele><time>2026-05-23T18:17:45.000Z</time></trkpt>
        <trkpt lat="29.5721144" lon="103.3618237"><ele>1638.37</ele><time>2026-05-23T18:17:48.000Z</time></trkpt>
        <trkpt lat="29.5721144" lon="103.3618237"><ele>1638.37</ele><time>2026-05-23T18:17:53.000Z</time></trkpt>
        <trkpt lat="29.5720588" lon="103.3618292"><ele>1639.3</ele><time>2026-05-23T18:17:59.000Z</time></trkpt>
        <trkpt lat="29.5720031" lon="103.3618328"><ele>1639.84</ele><time>2026-05-23T18:18:09.000Z</time></trkpt>
        <trkpt lat="29.5719454" lon="103.3618348"><ele>1641.6</ele><time>2026-05-23T18:18:19.000Z</time></trkpt>
        <trkpt lat="29.5719033" lon="103.3618396"><ele>1643.34</ele><time>2026-05-23T18:18:25.000Z</time></trkpt>
        <trkpt lat="29.5719033" lon="103.3618396"><ele>1643.34</ele><time>2026-05-23T18:18:33.000Z</time></trkpt>
        <trkpt lat="29.5718624" lon="103.3618111"><ele>1644.75</ele><time>2026-05-23T18:18:36.000Z</time></trkpt>
        <trkpt lat="29.5718624" lon="103.3618111"><ele>1644.75</ele><time>2026-05-23T18:18:41.000Z</time></trkpt>
        <trkpt lat="29.5718624" lon="103.3618111"><ele>1644.75</ele><time>2026-05-23T18:19:33.000Z</time></trkpt>
        <trkpt lat="29.5718241" lon="103.3618243"><ele>1648.23</ele><time>2026-05-23T18:19:34.000Z</time></trkpt>
        <trkpt lat="29.5718241" lon="103.3618243"><ele>1648.23</ele><time>2026-05-23T18:19:42.000Z</time></trkpt>
        <trkpt lat="29.57178" lon="103.3618377"><ele>1650.81</ele><time>2026-05-23T18:20:00.000Z</time></trkpt>
        <trkpt lat="29.5717356" lon="103.3618242"><ele>1654.79</ele><time>2026-05-23T18:20:20.000Z</time></trkpt>
        <trkpt lat="29.57173" lon="103.3618622"><ele>1657.02</ele><time>2026-05-23T18:21:08.000Z</time></trkpt>
        <trkpt lat="29.57173" lon="103.3618622"><ele>1657.02</ele><time>2026-05-23T18:21:11.000Z</time></trkpt>
        <trkpt lat="29.57173" lon="103.3618622"><ele>1657.02</ele><time>2026-05-23T18:22:18.000Z</time></trkpt>
        <trkpt lat="29.57173" lon="103.3618622"><ele>1657.02</ele><time>2026-05-23T18:22:41.000Z</time></trkpt>
        <trkpt lat="29.57173" lon="103.3618622"><ele>1657.02</ele><time>2026-05-23T18:23:50.000Z</time></trkpt>
        <trkpt lat="29.57173" lon="103.3618622"><ele>1657.02</ele><time>2026-05-23T18:24:01.000Z</time></trkpt>
        <trkpt lat="29.5716827" lon="103.3618891"><ele>1660.86</ele><time>2026-05-23T18:24:36.000Z</time></trkpt>
        <trkpt lat="29.5716827" lon="103.3618891"><ele>1660.86</ele><time>2026-05-23T18:24:49.000Z</time></trkpt>
        <trkpt lat="29.5716335" lon="103.3618869"><ele>1661.12</ele><time>2026-05-23T18:24:53.000Z</time></trkpt>
        <trkpt lat="29.5715849" lon="103.3618683"><ele>1661.12</ele><time>2026-05-23T18:24:57.000Z</time></trkpt>
        <trkpt lat="29.5715434" lon="103.3618393"><ele>1661.6</ele><time>2026-05-23T18:25:01.000Z</time></trkpt>
        <trkpt lat="29.5715053" lon="103.3618042"><ele>1661.19</ele><time>2026-05-23T18:25:05.000Z</time></trkpt>
        <trkpt lat="29.5714592" lon="103.3617664"><ele>1660.57</ele><time>2026-05-23T18:25:11.000Z</time></trkpt>
        <trkpt lat="29.5714114" lon="103.3617304"><ele>1660.27</ele><time>2026-05-23T18:25:17.000Z</time></trkpt>
        <trkpt lat="29.5713574" lon="103.3617046"><ele>1659.32</ele><time>2026-05-23T18:25:23.000Z</time></trkpt>
        <trkpt lat="29.5712957" lon="103.361702"><ele>1659.2</ele><time>2026-05-23T18:25:29.000Z</time></trkpt>
        <trkpt lat="29.5712334" lon="103.3617153"><ele>1658.85</ele><time>2026-05-23T18:25:35.000Z</time></trkpt>
        <trkpt lat="29.5711727" lon="103.361709"><ele>1658.91</ele><time>2026-05-23T18:25:41.000Z</time></trkpt>
        <trkpt lat="29.571125" lon="103.3616782"><ele>1658.23</ele><time>2026-05-23T18:25:47.000Z</time></trkpt>
        <trkpt lat="29.5710884" lon="103.3616401"><ele>1658.17</ele><time>2026-05-23T18:26:01.000Z</time></trkpt>
        <trkpt lat="29.5710504" lon="103.3616082"><ele>1657.24</ele><time>2026-05-23T18:26:07.000Z</time></trkpt>
        <trkpt lat="29.571018" lon="103.3615708"><ele>1656.76</ele><time>2026-05-23T18:26:15.000Z</time></trkpt>
        <trkpt lat="29.5709743" lon="103.3615608"><ele>1656.75</ele><time>2026-05-23T18:26:31.000Z</time></trkpt>
        <trkpt lat="29.5709351" lon="103.3615363"><ele>1658.65</ele><time>2026-05-23T18:26:57.000Z</time></trkpt>
        <trkpt lat="29.5708915" lon="103.3615007"><ele>1659.5</ele><time>2026-05-23T18:27:09.000Z</time></trkpt>
        <trkpt lat="29.5708468" lon="103.3614697"><ele>1659.82</ele><time>2026-05-23T18:27:17.000Z</time></trkpt>
        <trkpt lat="29.5707997" lon="103.3614539"><ele>1660.05</ele><time>2026-05-23T18:27:25.000Z</time></trkpt>
        <trkpt lat="29.5707491" lon="103.3614382"><ele>1661.08</ele><time>2026-05-23T18:27:31.000Z</time></trkpt>
        <trkpt lat="29.5706918" lon="103.3614228"><ele>1662.86</ele><time>2026-05-23T18:27:39.000Z</time></trkpt>
        <trkpt lat="29.570633" lon="103.3613943"><ele>1663.76</ele><time>2026-05-23T18:27:45.000Z</time></trkpt>
        <trkpt lat="29.5705848" lon="103.3613694"><ele>1663.66</ele><time>2026-05-23T18:27:49.000Z</time></trkpt>
        <trkpt lat="29.5705339" lon="103.3613569"><ele>1663.52</ele><time>2026-05-23T18:27:53.000Z</time></trkpt>
        <trkpt lat="29.5704879" lon="103.3613408"><ele>1664.4</ele><time>2026-05-23T18:27:57.000Z</time></trkpt>
        <trkpt lat="29.5704445" lon="103.3613154"><ele>1664.65</ele><time>2026-05-23T18:28:01.000Z</time></trkpt>
        <trkpt lat="29.5703963" lon="103.3612859"><ele>1664.89</ele><time>2026-05-23T18:28:05.000Z</time></trkpt>
        <trkpt lat="29.5703489" lon="103.3612519"><ele>1664.24</ele><time>2026-05-23T18:28:09.000Z</time></trkpt>
        <trkpt lat="29.5703009" lon="103.3612218"><ele>1663.39</ele><time>2026-05-23T18:28:13.000Z</time></trkpt>
        <trkpt lat="29.5702578" lon="103.3611942"><ele>1662.28</ele><time>2026-05-23T18:28:17.000Z</time></trkpt>
        <trkpt lat="29.5702116" lon="103.3611965"><ele>1661.94</ele><time>2026-05-23T18:28:21.000Z</time></trkpt>
        <trkpt lat="29.5701693" lon="103.3612232"><ele>1661.73</ele><time>2026-05-23T18:28:25.000Z</time></trkpt>
        <trkpt lat="29.5701173" lon="103.3612234"><ele>1661.5</ele><time>2026-05-23T18:28:29.000Z</time></trkpt>
        <trkpt lat="29.5700686" lon="103.3612054"><ele>1661.93</ele><time>2026-05-23T18:28:33.000Z</time></trkpt>
        <trkpt lat="29.5700203" lon="103.3611902"><ele>1661.97</ele><time>2026-05-23T18:28:37.000Z</time></trkpt>
        <trkpt lat="29.5699699" lon="103.361175"><ele>1662.46</ele><time>2026-05-23T18:28:45.000Z</time></trkpt>
        <trkpt lat="29.5699353" lon="103.3611334"><ele>1663.18</ele><time>2026-05-23T18:28:51.000Z</time></trkpt>
        <trkpt lat="29.5699092" lon="103.3610864"><ele>1664.25</ele><time>2026-05-23T18:29:13.000Z</time></trkpt>
        <trkpt lat="29.5698733" lon="103.3610545"><ele>1664.3</ele><time>2026-05-23T18:29:31.000Z</time></trkpt>
        <trkpt lat="29.5698164" lon="103.3610406"><ele>1664.83</ele><time>2026-05-23T18:29:39.000Z</time></trkpt>
        <trkpt lat="29.5697726" lon="103.3610132"><ele>1665.83</ele><time>2026-05-23T18:29:45.000Z</time></trkpt>
        <trkpt lat="29.5697192" lon="103.3609931"><ele>1666.48</ele><time>2026-05-23T18:29:53.000Z</time></trkpt>
        <trkpt lat="29.5696735" lon="103.3609534"><ele>1667.98</ele><time>2026-05-23T18:29:59.000Z</time></trkpt>
        <trkpt lat="29.5696385" lon="103.3608919"><ele>1669.37</ele><time>2026-05-23T18:30:05.000Z</time></trkpt>
        <trkpt lat="29.5695923" lon="103.3608548"><ele>1669.34</ele><time>2026-05-23T18:30:09.000Z</time></trkpt>
        <trkpt lat="29.5695441" lon="103.3608119"><ele>1670.7</ele><time>2026-05-23T18:30:15.000Z</time></trkpt>
        <trkpt lat="29.5694931" lon="103.360795"><ele>1671.72</ele><time>2026-05-23T18:30:19.000Z</time></trkpt>
        <trkpt lat="29.5694461" lon="103.3607617"><ele>1672.04</ele><time>2026-05-23T18:30:25.000Z</time></trkpt>
        <trkpt lat="29.5693986" lon="103.3607268"><ele>1672.09</ele><time>2026-05-23T18:30:33.000Z</time></trkpt>
        <trkpt lat="29.5693623" lon="103.3606816"><ele>1672.86</ele><time>2026-05-23T18:30:39.000Z</time></trkpt>
        <trkpt lat="29.5693304" lon="103.3606395"><ele>1673.49</ele><time>2026-05-23T18:30:45.000Z</time></trkpt>
        <trkpt lat="29.5692849" lon="103.3606061"><ele>1673.62</ele><time>2026-05-23T18:30:53.000Z</time></trkpt>
        <trkpt lat="29.5692302" lon="103.3605771"><ele>1673.8</ele><time>2026-05-23T18:31:01.000Z</time></trkpt>
        <trkpt lat="29.5691809" lon="103.3605572"><ele>1674.54</ele><time>2026-05-23T18:31:09.000Z</time></trkpt>
        <trkpt lat="29.569148" lon="103.3605224"><ele>1675.15</ele><time>2026-05-23T18:31:27.000Z</time></trkpt>
        <trkpt lat="29.5691221" lon="103.3604729"><ele>1676.01</ele><time>2026-05-23T18:31:35.000Z</time></trkpt>
        <trkpt lat="29.5690837" lon="103.3604222"><ele>1677.86</ele><time>2026-05-23T18:31:43.000Z</time></trkpt>
        <trkpt lat="29.5690386" lon="103.3603786"><ele>1679.06</ele><time>2026-05-23T18:31:49.000Z</time></trkpt>
        <trkpt lat="29.5689951" lon="103.3603462"><ele>1679.65</ele><time>2026-05-23T18:31:55.000Z</time></trkpt>
        <trkpt lat="29.5689691" lon="103.3603308"><ele>1680.16</ele><time>2026-05-23T18:32:01.000Z</time></trkpt>
        <trkpt lat="29.5689283" lon="103.3603103"><ele>1680.86</ele><time>2026-05-23T18:32:09.000Z</time></trkpt>
        <trkpt lat="29.5688875" lon="103.3602848"><ele>1681.32</ele><time>2026-05-23T18:32:15.000Z</time></trkpt>
        <trkpt lat="29.5688601" lon="103.3602383"><ele>1682.61</ele><time>2026-05-23T18:32:23.000Z</time></trkpt>
        <trkpt lat="29.5688601" lon="103.3602383"><ele>1682.61</ele><time>2026-05-23T18:32:33.000Z</time></trkpt>
        <trkpt lat="29.5688131" lon="103.3602455"><ele>1684.28</ele><time>2026-05-23T18:32:36.000Z</time></trkpt>
        <trkpt lat="29.5688131" lon="103.3602455"><ele>1684.28</ele><time>2026-05-23T18:32:41.000Z</time></trkpt>
        <trkpt lat="29.5688046" lon="103.3602083"><ele>1682.08</ele><time>2026-05-23T18:32:45.000Z</time></trkpt>
        <trkpt lat="29.5687913" lon="103.3601543"><ele>1682.94</ele><time>2026-05-23T18:33:01.000Z</time></trkpt>
        <trkpt lat="29.5687748" lon="103.3600969"><ele>1685.22</ele><time>2026-05-23T18:33:09.000Z</time></trkpt>
        <trkpt lat="29.568756" lon="103.3600428"><ele>1686.94</ele><time>2026-05-23T18:33:17.000Z</time></trkpt>
        <trkpt lat="29.5687475" lon="103.3599866"><ele>1687.27</ele><time>2026-05-23T18:33:23.000Z</time></trkpt>
        <trkpt lat="29.5687581" lon="103.3599177"><ele>1687.83</ele><time>2026-05-23T18:33:29.000Z</time></trkpt>
        <trkpt lat="29.5687604" lon="103.359855"><ele>1688.79</ele><time>2026-05-23T18:33:35.000Z</time></trkpt>
        <trkpt lat="29.5687523" lon="103.3597868"><ele>1689.26</ele><time>2026-05-23T18:33:41.000Z</time></trkpt>
        <trkpt lat="29.5687401" lon="103.3597195"><ele>1689.99</ele><time>2026-05-23T18:33:47.000Z</time></trkpt>
        <trkpt lat="29.5687198" lon="103.3596656"><ele>1689.67</ele><time>2026-05-23T18:33:59.000Z</time></trkpt>
        <trkpt lat="29.5686811" lon="103.3596389"><ele>1689.98</ele><time>2026-05-23T18:34:15.000Z</time></trkpt>
        <trkpt lat="29.5686459" lon="103.3596694"><ele>1691.35</ele><time>2026-05-23T18:34:31.000Z</time></trkpt>
        <trkpt lat="29.5686012" lon="103.3596839"><ele>1692.93</ele><time>2026-05-23T18:34:35.000Z</time></trkpt>
        <trkpt lat="29.5685497" lon="103.3596892"><ele>1693.49</ele><time>2026-05-23T18:34:41.000Z</time></trkpt>
        <trkpt lat="29.5684921" lon="103.3596877"><ele>1693.26</ele><time>2026-05-23T18:34:47.000Z</time></trkpt>
        <trkpt lat="29.568432" lon="103.3596866"><ele>1693.08</ele><time>2026-05-23T18:35:03.000Z</time></trkpt>
        <trkpt lat="29.5683753" lon="103.359692"><ele>1692.72</ele><time>2026-05-23T18:35:09.000Z</time></trkpt>
        <trkpt lat="29.5683113" lon="103.3596896"><ele>1692.81</ele><time>2026-05-23T18:35:15.000Z</time></trkpt>
        <trkpt lat="29.5682468" lon="103.3596678"><ele>1693.37</ele><time>2026-05-23T18:35:21.000Z</time></trkpt>
        <trkpt lat="29.5682021" lon="103.3596211"><ele>1693.84</ele><time>2026-05-23T18:35:27.000Z</time></trkpt>
        <trkpt lat="29.5681666" lon="103.3595902"><ele>1694.33</ele><time>2026-05-23T18:35:33.000Z</time></trkpt>
        <trkpt lat="29.5681213" lon="103.3595537"><ele>1694.71</ele><time>2026-05-23T18:35:45.000Z</time></trkpt>
        <trkpt lat="29.5681213" lon="103.3595537"><ele>1694.71</ele><time>2026-05-23T18:36:07.000Z</time></trkpt>
        <trkpt lat="29.5680719" lon="103.3595393"><ele>1693.66</ele><time>2026-05-23T18:36:08.000Z</time></trkpt>
        <trkpt lat="29.5680719" lon="103.3595393"><ele>1693.66</ele><time>2026-05-23T18:36:19.000Z</time></trkpt>
        <trkpt lat="29.5680161" lon="103.3595525"><ele>1695.93</ele><time>2026-05-23T18:36:28.000Z</time></trkpt>
        <trkpt lat="29.5679587" lon="103.3595664"><ele>1696.41</ele><time>2026-05-23T18:36:32.000Z</time></trkpt>
        <trkpt lat="29.5679064" lon="103.3595749"><ele>1696.52</ele><time>2026-05-23T18:36:36.000Z</time></trkpt>
        <trkpt lat="29.5678423" lon="103.3595752"><ele>1697.02</ele><time>2026-05-23T18:36:42.000Z</time></trkpt>
        <trkpt lat="29.5677943" lon="103.3595575"><ele>1697.24</ele><time>2026-05-23T18:36:46.000Z</time></trkpt>
        <trkpt lat="29.5677522" lon="103.3595265"><ele>1696.89</ele><time>2026-05-23T18:36:52.000Z</time></trkpt>
        <trkpt lat="29.5676991" lon="103.3594851"><ele>1696.99</ele><time>2026-05-23T18:37:02.000Z</time></trkpt>
        <trkpt lat="29.5676475" lon="103.3594471"><ele>1697.49</ele><time>2026-05-23T18:37:10.000Z</time></trkpt>
        <trkpt lat="29.567599" lon="103.3594186"><ele>1698.47</ele><time>2026-05-23T18:37:16.000Z</time></trkpt>
        <trkpt lat="29.5675538" lon="103.3593911"><ele>1700.22</ele><time>2026-05-23T18:37:22.000Z</time></trkpt>
        <trkpt lat="29.5675155" lon="103.3593618"><ele>1702.21</ele><time>2026-05-23T18:37:28.000Z</time></trkpt>
        <trkpt lat="29.5674746" lon="103.3593752"><ele>1704.44</ele><time>2026-05-23T18:37:44.000Z</time></trkpt>
        <trkpt lat="29.5674477" lon="103.3594172"><ele>1706.29</ele><time>2026-05-23T18:37:52.000Z</time></trkpt>
        <trkpt lat="29.5674069" lon="103.3594388"><ele>1708.68</ele><time>2026-05-23T18:37:58.000Z</time></trkpt>
        <trkpt lat="29.567357" lon="103.3594666"><ele>1710.01</ele><time>2026-05-23T18:38:06.000Z</time></trkpt>
        <trkpt lat="29.5673067" lon="103.359461"><ele>1711.81</ele><time>2026-05-23T18:38:26.000Z</time></trkpt>
        <trkpt lat="29.5672531" lon="103.3594691"><ele>1713.51</ele><time>2026-05-23T18:38:44.000Z</time></trkpt>
        <trkpt lat="29.5672196" lon="103.3594734"><ele>1714.91</ele><time>2026-05-23T18:38:52.000Z</time></trkpt>
        <trkpt lat="29.5672196" lon="103.3594734"><ele>1714.91</ele><time>2026-05-23T18:39:01.000Z</time></trkpt>
        <trkpt lat="29.5671406" lon="103.3595339"><ele>1715.42</ele><time>2026-05-23T18:39:02.000Z</time></trkpt>
        <trkpt lat="29.5671406" lon="103.3595339"><ele>1715.42</ele><time>2026-05-23T18:39:08.000Z</time></trkpt>
        <trkpt lat="29.5671437" lon="103.359513"><ele>1707.11</ele><time>2026-05-23T18:39:14.000Z</time></trkpt>
        <trkpt lat="29.5671437" lon="103.359513"><ele>1707.11</ele><time>2026-05-23T18:39:31.000Z</time></trkpt>
        <trkpt lat="29.5671245" lon="103.3594784"><ele>1705.76</ele><time>2026-05-23T18:39:34.000Z</time></trkpt>
        <trkpt lat="29.5671245" lon="103.3594784"><ele>1705.76</ele><time>2026-05-23T18:39:37.000Z</time></trkpt>
        <trkpt lat="29.5670984" lon="103.3594307"><ele>1709.99</ele><time>2026-05-23T18:39:57.000Z</time></trkpt>
        <trkpt lat="29.5670532" lon="103.3593961"><ele>1714.72</ele><time>2026-05-23T18:40:15.000Z</time></trkpt>
        <trkpt lat="29.5670049" lon="103.3593791"><ele>1718.79</ele><time>2026-05-23T18:40:35.000Z</time></trkpt>
        <trkpt lat="29.5669574" lon="103.3593559"><ele>1722.78</ele><time>2026-05-23T18:40:41.000Z</time></trkpt>
        <trkpt lat="29.566916" lon="103.3593299"><ele>1725.33</ele><time>2026-05-23T18:40:49.000Z</time></trkpt>
        <trkpt lat="29.5668679" lon="103.3593078"><ele>1726.4</ele><time>2026-05-23T18:40:55.000Z</time></trkpt>
        <trkpt lat="29.5668297" lon="103.359272"><ele>1727.24</ele><time>2026-05-23T18:41:01.000Z</time></trkpt>
        <trkpt lat="29.5667917" lon="103.3592248"><ele>1727.29</ele><time>2026-05-23T18:41:09.000Z</time></trkpt>
        <trkpt lat="29.5667482" lon="103.3591806"><ele>1726.93</ele><time>2026-05-23T18:41:17.000Z</time></trkpt>
        <trkpt lat="29.5667088" lon="103.3591467"><ele>1726.79</ele><time>2026-05-23T18:41:23.000Z</time></trkpt>
        <trkpt lat="29.5666729" lon="103.3591137"><ele>1727.3</ele><time>2026-05-23T18:41:29.000Z</time></trkpt>
        <trkpt lat="29.5666335" lon="103.35909"><ele>1727.84</ele><time>2026-05-23T18:41:35.000Z</time></trkpt>
        <trkpt lat="29.5665948" lon="103.3590629"><ele>1728.36</ele><time>2026-05-23T18:41:43.000Z</time></trkpt>
        <trkpt lat="29.5665457" lon="103.3590318"><ele>1728.74</ele><time>2026-05-23T18:41:51.000Z</time></trkpt>
        <trkpt lat="29.5664968" lon="103.3590022"><ele>1730.3</ele><time>2026-05-23T18:42:01.000Z</time></trkpt>
        <trkpt lat="29.5664968" lon="103.3590022"><ele>1730.3</ele><time>2026-05-23T18:42:13.000Z</time></trkpt>
        <trkpt lat="29.5664734" lon="103.3589325"><ele>1730.32</ele><time>2026-05-23T18:42:20.000Z</time></trkpt>
        <trkpt lat="29.5664734" lon="103.3589325"><ele>1730.32</ele><time>2026-05-23T18:42:25.000Z</time></trkpt>
        <trkpt lat="29.5664321" lon="103.3588806"><ele>1742.26</ele><time>2026-05-23T18:42:33.000Z</time></trkpt>
        <trkpt lat="29.5663828" lon="103.3588644"><ele>1745.36</ele><time>2026-05-23T18:42:41.000Z</time></trkpt>
        <trkpt lat="29.5663399" lon="103.3588334"><ele>1744.4</ele><time>2026-05-23T18:42:51.000Z</time></trkpt>
        <trkpt lat="29.5663224" lon="103.3587822"><ele>1744.05</ele><time>2026-05-23T18:43:01.000Z</time></trkpt>
        <trkpt lat="29.5663224" lon="103.3587822"><ele>1744.05</ele><time>2026-05-23T18:43:05.000Z</time></trkpt>
        <trkpt lat="29.5662924" lon="103.358741"><ele>1744.93</ele><time>2026-05-23T18:43:10.000Z</time></trkpt>
        <trkpt lat="29.5662924" lon="103.358741"><ele>1744.93</ele><time>2026-05-23T18:43:37.000Z</time></trkpt>
        <trkpt lat="29.5662581" lon="103.3587038"><ele>1745.63</ele><time>2026-05-23T18:43:49.000Z</time></trkpt>
        <trkpt lat="29.5662192" lon="103.358672"><ele>1744.99</ele><time>2026-05-23T18:43:57.000Z</time></trkpt>
        <trkpt lat="29.5662192" lon="103.358672"><ele>1744.99</ele><time>2026-05-23T18:44:05.000Z</time></trkpt>
        <trkpt lat="29.5662011" lon="103.3586201"><ele>1745.63</ele><time>2026-05-23T18:44:08.000Z</time></trkpt>
        <trkpt lat="29.5662011" lon="103.3586201"><ele>1745.63</ele><time>2026-05-23T18:44:13.000Z</time></trkpt>
        <trkpt lat="29.5661924" lon="103.3585652"><ele>1747.43</ele><time>2026-05-23T18:44:35.000Z</time></trkpt>
        <trkpt lat="29.5661944" lon="103.3585006"><ele>1749.87</ele><time>2026-05-23T18:44:45.000Z</time></trkpt>
        <trkpt lat="29.5661973" lon="103.3584366"><ele>1751.11</ele><time>2026-05-23T18:44:59.000Z</time></trkpt>
        <trkpt lat="29.5661944" lon="103.3583729"><ele>1752.36</ele><time>2026-05-23T18:45:15.000Z</time></trkpt>
        <trkpt lat="29.5662004" lon="103.3583149"><ele>1753.3</ele><time>2026-05-23T18:45:23.000Z</time></trkpt>
        <trkpt lat="29.566194" lon="103.3582594"><ele>1753.79</ele><time>2026-05-23T18:45:47.000Z</time></trkpt>
        <trkpt lat="29.566194" lon="103.3582594"><ele>1753.79</ele><time>2026-05-23T18:46:07.000Z</time></trkpt>
        <trkpt lat="29.5661833" lon="103.3582058"><ele>1755.73</ele><time>2026-05-23T18:46:08.000Z</time></trkpt>
        <trkpt lat="29.5661833" lon="103.3582058"><ele>1755.73</ele><time>2026-05-23T18:46:20.000Z</time></trkpt>
        <trkpt lat="29.5661647" lon="103.3581483"><ele>1757.81</ele><time>2026-05-23T18:46:34.000Z</time></trkpt>
        <trkpt lat="29.5661409" lon="103.3580914"><ele>1759.66</ele><time>2026-05-23T18:46:50.000Z</time></trkpt>
        <trkpt lat="29.5661371" lon="103.358078"><ele>1761.14</ele><time>2026-05-23T18:46:52.000Z</time></trkpt>
        <trkpt lat="29.5661183" lon="103.3580475"><ele>1761.93</ele><time>2026-05-23T18:46:58.000Z</time></trkpt>
        <trkpt lat="29.5661138" lon="103.3579964"><ele>1763.45</ele><time>2026-05-23T18:47:14.000Z</time></trkpt>
        <trkpt lat="29.5660835" lon="103.3579526"><ele>1765.83</ele><time>2026-05-23T18:47:32.000Z</time></trkpt>
        <trkpt lat="29.5660535" lon="103.357908"><ele>1767.73</ele><time>2026-05-23T18:47:52.000Z</time></trkpt>
        <trkpt lat="29.5660218" lon="103.3578662"><ele>1769.3</ele><time>2026-05-23T18:48:16.000Z</time></trkpt>
        <trkpt lat="29.5660091" lon="103.3578161"><ele>1770.88</ele><time>2026-05-23T18:48:28.000Z</time></trkpt>
        <trkpt lat="29.5660086" lon="103.3577585"><ele>1771.91</ele><time>2026-05-23T18:48:36.000Z</time></trkpt>
        <trkpt lat="29.5659888" lon="103.3577052"><ele>1773.01</ele><time>2026-05-23T18:48:48.000Z</time></trkpt>
        <trkpt lat="29.5659758" lon="103.3576505"><ele>1773.85</ele><time>2026-05-23T18:49:08.000Z</time></trkpt>
        <trkpt lat="29.5659726" lon="103.3576382"><ele>1775.25</ele><time>2026-05-23T18:49:10.000Z</time></trkpt>
        <trkpt lat="29.5659614" lon="103.357601"><ele>1775.98</ele><time>2026-05-23T18:49:24.000Z</time></trkpt>
        <trkpt lat="29.565944" lon="103.3575457"><ele>1777.6</ele><time>2026-05-23T18:49:32.000Z</time></trkpt>
        <trkpt lat="29.5658989" lon="103.3575138"><ele>1777.37</ele><time>2026-05-23T18:49:48.000Z</time></trkpt>
        <trkpt lat="29.5658867" lon="103.3575085"><ele>1777.96</ele><time>2026-05-23T18:49:50.000Z</time></trkpt>
        <trkpt lat="29.5658548" lon="103.3574799"><ele>1778.25</ele><time>2026-05-23T18:50:06.000Z</time></trkpt>
        <trkpt lat="29.5658156" lon="103.3574323"><ele>1781.08</ele><time>2026-05-23T18:50:12.000Z</time></trkpt>
        <trkpt lat="29.5658036" lon="103.3574186"><ele>1782.28</ele><time>2026-05-23T18:50:16.000Z</time></trkpt>
        <trkpt lat="29.5657646" lon="103.3574015"><ele>1783.56</ele><time>2026-05-23T18:50:44.000Z</time></trkpt>
        <trkpt lat="29.5657167" lon="103.3573799"><ele>1786.56</ele><time>2026-05-23T18:50:52.000Z</time></trkpt>
        <trkpt lat="29.5656775" lon="103.3573486"><ele>1788.9</ele><time>2026-05-23T18:50:58.000Z</time></trkpt>
        <trkpt lat="29.5656539" lon="103.3573008"><ele>1790.06</ele><time>2026-05-23T18:51:04.000Z</time></trkpt>
        <trkpt lat="29.5656211" lon="103.3572579"><ele>1790.52</ele><time>2026-05-23T18:51:10.000Z</time></trkpt>
        <trkpt lat="29.5655853" lon="103.3572171"><ele>1791.67</ele><time>2026-05-23T18:51:18.000Z</time></trkpt>
        <trkpt lat="29.565544" lon="103.3571867"><ele>1791.94</ele><time>2026-05-23T18:51:28.000Z</time></trkpt>
        <trkpt lat="29.565502" lon="103.3571432"><ele>1792.22</ele><time>2026-05-23T18:51:36.000Z</time></trkpt>
        <trkpt lat="29.5654829" lon="103.35709"><ele>1795.07</ele><time>2026-05-23T18:51:52.000Z</time></trkpt>
        <trkpt lat="29.5654829" lon="103.35709"><ele>1795.07</ele><time>2026-05-23T18:52:07.000Z</time></trkpt>
        <trkpt lat="29.565464" lon="103.3570284"><ele>1797.32</ele><time>2026-05-23T18:52:12.000Z</time></trkpt>
        <trkpt lat="29.565464" lon="103.3570284"><ele>1797.32</ele><time>2026-05-23T18:52:15.000Z</time></trkpt>
        <trkpt lat="29.5654499" lon="103.356971"><ele>1799.79</ele><time>2026-05-23T18:52:21.000Z</time></trkpt>
        <trkpt lat="29.5654295" lon="103.3569187"><ele>1798.72</ele><time>2026-05-23T18:52:39.000Z</time></trkpt>
        <trkpt lat="29.5654183" lon="103.3568647"><ele>1800.78</ele><time>2026-05-23T18:52:49.000Z</time></trkpt>
        <trkpt lat="29.5653899" lon="103.3568248"><ele>1802.11</ele><time>2026-05-23T18:53:23.000Z</time></trkpt>
        <trkpt lat="29.5653456" lon="103.3568102"><ele>1804.88</ele><time>2026-05-23T18:53:43.000Z</time></trkpt>
        <trkpt lat="29.5653456" lon="103.3568102"><ele>1804.88</ele><time>2026-05-23T18:53:51.000Z</time></trkpt>
        <trkpt lat="29.5652935" lon="103.3567863"><ele>1807.18</ele><time>2026-05-23T18:53:52.000Z</time></trkpt>
        <trkpt lat="29.5652935" lon="103.3567863"><ele>1807.18</ele><time>2026-05-23T18:54:20.000Z</time></trkpt>
        <trkpt lat="29.5652935" lon="103.3567863"><ele>1807.18</ele><time>2026-05-23T18:54:37.000Z</time></trkpt>
        <trkpt lat="29.565229" lon="103.3567633"><ele>1809.19</ele><time>2026-05-23T18:54:38.000Z</time></trkpt>
        <trkpt lat="29.565229" lon="103.3567633"><ele>1809.19</ele><time>2026-05-23T18:54:44.000Z</time></trkpt>
        <trkpt lat="29.5651762" lon="103.3567441"><ele>1810.26</ele><time>2026-05-23T18:54:54.000Z</time></trkpt>
        <trkpt lat="29.5651357" lon="103.3567166"><ele>1813.23</ele><time>2026-05-23T18:55:16.000Z</time></trkpt>
        <trkpt lat="29.5651083" lon="103.3566755"><ele>1815.82</ele><time>2026-05-23T18:55:22.000Z</time></trkpt>
        <trkpt lat="29.5650714" lon="103.3566512"><ele>1817.44</ele><time>2026-05-23T18:55:40.000Z</time></trkpt>
        <trkpt lat="29.5650229" lon="103.3566314"><ele>1818.55</ele><time>2026-05-23T18:55:58.000Z</time></trkpt>
        <trkpt lat="29.564975" lon="103.3566089"><ele>1819.55</ele><time>2026-05-23T18:56:06.000Z</time></trkpt>
        <trkpt lat="29.5649183" lon="103.3565994"><ele>1819.31</ele><time>2026-05-23T18:56:12.000Z</time></trkpt>
        <trkpt lat="29.5648739" lon="103.3565611"><ele>1819.58</ele><time>2026-05-23T18:56:18.000Z</time></trkpt>
        <trkpt lat="29.5648455" lon="103.3565161"><ele>1820.7</ele><time>2026-05-23T18:56:26.000Z</time></trkpt>
        <trkpt lat="29.5648211" lon="103.3564678"><ele>1821.55</ele><time>2026-05-23T18:56:40.000Z</time></trkpt>
        <trkpt lat="29.5647843" lon="103.3564407"><ele>1823.08</ele><time>2026-05-23T18:56:58.000Z</time></trkpt>
        <trkpt lat="29.5647445" lon="103.3564116"><ele>1824.15</ele><time>2026-05-23T18:57:06.000Z</time></trkpt>
        <trkpt lat="29.5647142" lon="103.3563686"><ele>1825.42</ele><time>2026-05-23T18:57:16.000Z</time></trkpt>
        <trkpt lat="29.5646714" lon="103.3563215"><ele>1826.83</ele><time>2026-05-23T18:57:24.000Z</time></trkpt>
        <trkpt lat="29.5646403" lon="103.3562676"><ele>1828.03</ele><time>2026-05-23T18:57:30.000Z</time></trkpt>
        <trkpt lat="29.5646093" lon="103.3562247"><ele>1827.44</ele><time>2026-05-23T18:57:38.000Z</time></trkpt>
        <trkpt lat="29.5645752" lon="103.3561843"><ele>1827.34</ele><time>2026-05-23T18:57:50.000Z</time></trkpt>
        <trkpt lat="29.5645739" lon="103.3561355"><ele>1827.76</ele><time>2026-05-23T18:57:56.000Z</time></trkpt>
        <trkpt lat="29.5645883" lon="103.3560765"><ele>1828.4</ele><time>2026-05-23T18:58:04.000Z</time></trkpt>
        <trkpt lat="29.5645612" lon="103.3560424"><ele>1829.59</ele><time>2026-05-23T18:58:18.000Z</time></trkpt>
        <trkpt lat="29.5645154" lon="103.356044"><ele>1830.91</ele><time>2026-05-23T18:58:40.000Z</time></trkpt>
        <trkpt lat="29.5644948" lon="103.3560954"><ele>1833.67</ele><time>2026-05-23T18:58:50.000Z</time></trkpt>
        <trkpt lat="29.5644615" lon="103.3561507"><ele>1835.93</ele><time>2026-05-23T18:59:22.000Z</time></trkpt>
        <trkpt lat="29.5644249" lon="103.3561997"><ele>1837.82</ele><time>2026-05-23T18:59:40.000Z</time></trkpt>
        <trkpt lat="29.5643812" lon="103.356201"><ele>1841.07</ele><time>2026-05-23T18:59:56.000Z</time></trkpt>
        <trkpt lat="29.564339" lon="103.3561679"><ele>1844.3</ele><time>2026-05-23T19:00:02.000Z</time></trkpt>
        <trkpt lat="29.5643412" lon="103.35619"><ele>1846.35</ele><time>2026-05-23T19:00:28.000Z</time></trkpt>
        <trkpt lat="29.5643604" lon="103.3562372"><ele>1848.19</ele><time>2026-05-23T19:00:38.000Z</time></trkpt>
        <trkpt lat="29.5643789" lon="103.356299"><ele>1850.01</ele><time>2026-05-23T19:00:50.000Z</time></trkpt>
        <trkpt lat="29.5643505" lon="103.356334"><ele>1853.16</ele><time>2026-05-23T19:01:10.000Z</time></trkpt>
        <trkpt lat="29.5643256" lon="103.3563776"><ele>1855.43</ele><time>2026-05-23T19:01:20.000Z</time></trkpt>
        <trkpt lat="29.5642847" lon="103.3564028"><ele>1858.23</ele><time>2026-05-23T19:01:38.000Z</time></trkpt>
        <trkpt lat="29.5642553" lon="103.3564477"><ele>1861.85</ele><time>2026-05-23T19:01:54.000Z</time></trkpt>
        <trkpt lat="29.5642478" lon="103.3564527"><ele>1864.38</ele><time>2026-05-23T19:01:56.000Z</time></trkpt>
        <trkpt lat="29.5642478" lon="103.3564527"><ele>1864.38</ele><time>2026-05-23T19:02:13.000Z</time></trkpt>
        <trkpt lat="29.564212" lon="103.3564469"><ele>1865.82</ele><time>2026-05-23T19:02:16.000Z</time></trkpt>
        <trkpt lat="29.564212" lon="103.3564469"><ele>1865.82</ele><time>2026-05-23T19:02:53.000Z</time></trkpt>
        <trkpt lat="29.5641668" lon="103.3564453"><ele>1868.03</ele><time>2026-05-23T19:03:15.000Z</time></trkpt>
        <trkpt lat="29.5641372" lon="103.3564822"><ele>1868.88</ele><time>2026-05-23T19:03:29.000Z</time></trkpt>
        <trkpt lat="29.5640919" lon="103.3564846"><ele>1869.89</ele><time>2026-05-23T19:04:20.000Z</time></trkpt>
        <trkpt lat="29.5640455" lon="103.3564924"><ele>1871.23</ele><time>2026-05-23T19:04:30.000Z</time></trkpt>
        <trkpt lat="29.5639961" lon="103.3565025"><ele>1872.45</ele><time>2026-05-23T19:04:38.000Z</time></trkpt>
        <trkpt lat="29.5639467" lon="103.3565106"><ele>1873.19</ele><time>2026-05-23T19:04:44.000Z</time></trkpt>
        <trkpt lat="29.5638955" lon="103.3565278"><ele>1874.83</ele><time>2026-05-23T19:04:50.000Z</time></trkpt>
        <trkpt lat="29.5638969" lon="103.3565337"><ele>1876.92</ele><time>2026-05-23T19:04:54.000Z</time></trkpt>
        <trkpt lat="29.5639314" lon="103.3565572"><ele>1876.99</ele><time>2026-05-23T19:05:10.000Z</time></trkpt>
        <trkpt lat="29.5639701" lon="103.3565241"><ele>1877.34</ele><time>2026-05-23T19:05:20.000Z</time></trkpt>
        <trkpt lat="29.5640254" lon="103.3565091"><ele>1878.31</ele><time>2026-05-23T19:05:28.000Z</time></trkpt>
        <trkpt lat="29.5640254" lon="103.3565091"><ele>1878.31</ele><time>2026-05-23T19:06:13.000Z</time></trkpt>
        <trkpt lat="29.5640949" lon="103.3565867"><ele>1878.96</ele><time>2026-05-23T19:06:16.000Z</time></trkpt>
        <trkpt lat="29.5640949" lon="103.3565867"><ele>1878.96</ele><time>2026-05-23T19:06:21.000Z</time></trkpt>
        <trkpt lat="29.5640897" lon="103.3565832"><ele>1875.32</ele><time>2026-05-23T19:06:25.000Z</time></trkpt>
        <trkpt lat="29.5640577" lon="103.3565454"><ele>1876.92</ele><time>2026-05-23T19:06:33.000Z</time></trkpt>
        <trkpt lat="29.5640577" lon="103.3565454"><ele>1876.92</ele><time>2026-05-23T19:07:05.000Z</time></trkpt>
        <trkpt lat="29.5640531" lon="103.3564761"><ele>1878.48</ele><time>2026-05-23T19:07:12.000Z</time></trkpt>
        <trkpt lat="29.5640531" lon="103.3564761"><ele>1878.48</ele><time>2026-05-23T19:07:35.000Z</time></trkpt>
        <trkpt lat="29.5641045" lon="103.3564827"><ele>1878.19</ele><time>2026-05-23T19:07:49.000Z</time></trkpt>
        <trkpt lat="29.5641472" lon="103.3564514"><ele>1877.02</ele><time>2026-05-23T19:08:36.000Z</time></trkpt>
        <trkpt lat="29.5641451" lon="103.3563951"><ele>1874.59</ele><time>2026-05-23T19:08:44.000Z</time></trkpt>
        <trkpt lat="29.5641281" lon="103.3563342"><ele>1872.95</ele><time>2026-05-23T19:09:06.000Z</time></trkpt>
        <trkpt lat="29.5641148" lon="103.3562763"><ele>1871.6</ele><time>2026-05-23T19:09:10.000Z</time></trkpt>
        <trkpt lat="29.5640926" lon="103.3562048"><ele>1871.26</ele><time>2026-05-23T19:09:16.000Z</time></trkpt>
        <trkpt lat="29.5640797" lon="103.3561336"><ele>1870.07</ele><time>2026-05-23T19:09:22.000Z</time></trkpt>
        <trkpt lat="29.5640721" lon="103.3560721"><ele>1868.95</ele><time>2026-05-23T19:09:30.000Z</time></trkpt>
        <trkpt lat="29.5640614" lon="103.3560038"><ele>1867.93</ele><time>2026-05-23T19:09:36.000Z</time></trkpt>
        <trkpt lat="29.5640717" lon="103.35595"><ele>1866.3</ele><time>2026-05-23T19:09:40.000Z</time></trkpt>
        <trkpt lat="29.5640848" lon="103.3558987"><ele>1865.01</ele><time>2026-05-23T19:09:44.000Z</time></trkpt>
        <trkpt lat="29.5640637" lon="103.3558558"><ele>1862.33</ele><time>2026-05-23T19:09:50.000Z</time></trkpt>
        <trkpt lat="29.5640286" lon="103.3558065"><ele>1861.39</ele><time>2026-05-23T19:09:56.000Z</time></trkpt>
        <trkpt lat="29.5639949" lon="103.3557508"><ele>1859.16</ele><time>2026-05-23T19:10:00.000Z</time></trkpt>
        <trkpt lat="29.5639744" lon="103.3556792"><ele>1857.87</ele><time>2026-05-23T19:10:06.000Z</time></trkpt>
        <trkpt lat="29.5639653" lon="103.3556048"><ele>1856.25</ele><time>2026-05-23T19:10:12.000Z</time></trkpt>
        <trkpt lat="29.5639671" lon="103.3555336"><ele>1855.67</ele><time>2026-05-23T19:10:18.000Z</time></trkpt>
        <trkpt lat="29.5639574" lon="103.3554708"><ele>1854.31</ele><time>2026-05-23T19:10:22.000Z</time></trkpt>
        <trkpt lat="29.5639401" lon="103.3554147"><ele>1853.74</ele><time>2026-05-23T19:10:26.000Z</time></trkpt>
        <trkpt lat="29.5639296" lon="103.3553539"><ele>1852.93</ele><time>2026-05-23T19:10:32.000Z</time></trkpt>
        <trkpt lat="29.5639209" lon="103.3552798"><ele>1851.3</ele><time>2026-05-23T19:10:38.000Z</time></trkpt>
        <trkpt lat="29.5639075" lon="103.3552206"><ele>1847.8</ele><time>2026-05-23T19:10:42.000Z</time></trkpt>
        <trkpt lat="29.5638831" lon="103.3551711"><ele>1845.22</ele><time>2026-05-23T19:10:46.000Z</time></trkpt>
        <trkpt lat="29.5638398" lon="103.3551181"><ele>1843.68</ele><time>2026-05-23T19:10:50.000Z</time></trkpt>
        <trkpt lat="29.563798" lon="103.3550624"><ele>1842.75</ele><time>2026-05-23T19:10:54.000Z</time></trkpt>
        <trkpt lat="29.5637563" lon="103.3550071"><ele>1841.49</ele><time>2026-05-23T19:10:58.000Z</time></trkpt>
        <trkpt lat="29.5637171" lon="103.354955"><ele>1840.57</ele><time>2026-05-23T19:11:02.000Z</time></trkpt>
        <trkpt lat="29.5636797" lon="103.3549199"><ele>1840.21</ele><time>2026-05-23T19:11:06.000Z</time></trkpt>
        <trkpt lat="29.5636313" lon="103.3548759"><ele>1839.92</ele><time>2026-05-23T19:11:12.000Z</time></trkpt>
        <trkpt lat="29.5635942" lon="103.3548334"><ele>1840.04</ele><time>2026-05-23T19:11:16.000Z</time></trkpt>
        <trkpt lat="29.563552" lon="103.3547827"><ele>1840.44</ele><time>2026-05-23T19:11:20.000Z</time></trkpt>
        <trkpt lat="29.5635317" lon="103.3547239"><ele>1839.88</ele><time>2026-05-23T19:11:24.000Z</time></trkpt>
        <trkpt lat="29.5635112" lon="103.3546614"><ele>1840.1</ele><time>2026-05-23T19:11:28.000Z</time></trkpt>
        <trkpt lat="29.5634655" lon="103.3546097"><ele>1839.89</ele><time>2026-05-23T19:11:34.000Z</time></trkpt>
        <trkpt lat="29.5634106" lon="103.3545581"><ele>1839.61</ele><time>2026-05-23T19:11:40.000Z</time></trkpt>
        <trkpt lat="29.5633596" lon="103.3545126"><ele>1840.32</ele><time>2026-05-23T19:11:44.000Z</time></trkpt>
        <trkpt lat="29.563321" lon="103.3544648"><ele>1841.49</ele><time>2026-05-23T19:11:48.000Z</time></trkpt>
        <trkpt lat="29.5632988" lon="103.3544109"><ele>1842.19</ele><time>2026-05-23T19:11:52.000Z</time></trkpt>
        <trkpt lat="29.5632925" lon="103.3543542"><ele>1842.53</ele><time>2026-05-23T19:11:56.000Z</time></trkpt>
        <trkpt lat="29.5632844" lon="103.3542955"><ele>1842.5</ele><time>2026-05-23T19:12:00.000Z</time></trkpt>
        <trkpt lat="29.5632728" lon="103.3542398"><ele>1842.86</ele><time>2026-05-23T19:12:04.000Z</time></trkpt>
        <trkpt lat="29.5632601" lon="103.3541861"><ele>1843.23</ele><time>2026-05-23T19:12:08.000Z</time></trkpt>
        <trkpt lat="29.5632361" lon="103.3541284"><ele>1843.64</ele><time>2026-05-23T19:12:12.000Z</time></trkpt>
        <trkpt lat="29.5632161" lon="103.354076"><ele>1843.69</ele><time>2026-05-23T19:12:16.000Z</time></trkpt>
        <trkpt lat="29.5631933" lon="103.3540255"><ele>1842.22</ele><time>2026-05-23T19:12:20.000Z</time></trkpt>
        <trkpt lat="29.5631777" lon="103.3539728"><ele>1841.83</ele><time>2026-05-23T19:12:24.000Z</time></trkpt>
        <trkpt lat="29.56316" lon="103.3538992"><ele>1841.76</ele><time>2026-05-23T19:12:28.000Z</time></trkpt>
        <trkpt lat="29.5631574" lon="103.3538269"><ele>1841.65</ele><time>2026-05-23T19:12:32.000Z</time></trkpt>
        <trkpt lat="29.5631482" lon="103.3537602"><ele>1841.31</ele><time>2026-05-23T19:12:36.000Z</time></trkpt>
        <trkpt lat="29.5631228" lon="103.3537045"><ele>1840.26</ele><time>2026-05-23T19:12:40.000Z</time></trkpt>
        <trkpt lat="29.5631073" lon="103.3536396"><ele>1839.87</ele><time>2026-05-23T19:12:46.000Z</time></trkpt>
        <trkpt lat="29.5630952" lon="103.3535837"><ele>1839.89</ele><time>2026-05-23T19:12:50.000Z</time></trkpt>
        <trkpt lat="29.5630896" lon="103.3535226"><ele>1840.92</ele><time>2026-05-23T19:12:56.000Z</time></trkpt>
        <trkpt lat="29.5631137" lon="103.3534671"><ele>1841.85</ele><time>2026-05-23T19:13:02.000Z</time></trkpt>
        <trkpt lat="29.5631156" lon="103.3534065"><ele>1841.39</ele><time>2026-05-23T19:13:08.000Z</time></trkpt>
        <trkpt lat="29.5631" lon="103.3533549"><ele>1839.56</ele><time>2026-05-23T19:13:12.000Z</time></trkpt>
        <trkpt lat="29.5630834" lon="103.353304"><ele>1838.44</ele><time>2026-05-23T19:13:16.000Z</time></trkpt>
        <trkpt lat="29.5630648" lon="103.3532523"><ele>1836.67</ele><time>2026-05-23T19:13:20.000Z</time></trkpt>
        <trkpt lat="29.5630553" lon="103.353187"><ele>1836.13</ele><time>2026-05-23T19:13:26.000Z</time></trkpt>
        <trkpt lat="29.5630389" lon="103.3531126"><ele>1835.51</ele><time>2026-05-23T19:13:32.000Z</time></trkpt>
        <trkpt lat="29.5630174" lon="103.3530501"><ele>1834.99</ele><time>2026-05-23T19:13:36.000Z</time></trkpt>
        <trkpt lat="29.5629949" lon="103.3529908"><ele>1834.61</ele><time>2026-05-23T19:13:40.000Z</time></trkpt>
        <trkpt lat="29.5629759" lon="103.3529309"><ele>1834.72</ele><time>2026-05-23T19:13:44.000Z</time></trkpt>
        <trkpt lat="29.5629625" lon="103.3528767"><ele>1834.27</ele><time>2026-05-23T19:13:48.000Z</time></trkpt>
        <trkpt lat="29.5629425" lon="103.3528244"><ele>1833.05</ele><time>2026-05-23T19:13:52.000Z</time></trkpt>
        <trkpt lat="29.5629523" lon="103.3527873"><ele>1832.49</ele><time>2026-05-23T19:13:56.000Z</time></trkpt>
        <trkpt lat="29.5629224" lon="103.3527567"><ele>1832.92</ele><time>2026-05-23T19:14:45.000Z</time></trkpt>
        <trkpt lat="29.5629215" lon="103.3527096"><ele>1832.5</ele><time>2026-05-23T19:14:53.000Z</time></trkpt>
        <trkpt lat="29.5629568" lon="103.3526515"><ele>1832.56</ele><time>2026-05-23T19:15:01.000Z</time></trkpt>
        <trkpt lat="29.5630064" lon="103.3526074"><ele>1831.47</ele><time>2026-05-23T19:15:05.000Z</time></trkpt>
        <trkpt lat="29.5630496" lon="103.3525605"><ele>1830.01</ele><time>2026-05-23T19:15:09.000Z</time></trkpt>
        <trkpt lat="29.5630741" lon="103.352505"><ele>1828.38</ele><time>2026-05-23T19:15:13.000Z</time></trkpt>
        <trkpt lat="29.563089" lon="103.3524473"><ele>1825.69</ele><time>2026-05-23T19:15:17.000Z</time></trkpt>
        <trkpt lat="29.5631109" lon="103.3524002"><ele>1822.88</ele><time>2026-05-23T19:15:19.000Z</time></trkpt>
        <trkpt lat="29.5631558" lon="103.352348"><ele>1820.5</ele><time>2026-05-23T19:15:23.000Z</time></trkpt>
        <trkpt lat="29.5631763" lon="103.3522637"><ele>1819.22</ele><time>2026-05-23T19:15:27.000Z</time></trkpt>
        <trkpt lat="29.563158" lon="103.3521952"><ele>1818.32</ele><time>2026-05-23T19:15:31.000Z</time></trkpt>
        <trkpt lat="29.563122" lon="103.3521431"><ele>1817.44</ele><time>2026-05-23T19:15:35.000Z</time></trkpt>
        <trkpt lat="29.5630819" lon="103.3521005"><ele>1815.99</ele><time>2026-05-23T19:15:39.000Z</time></trkpt>
        <trkpt lat="29.563059" lon="103.3520378"><ele>1815.37</ele><time>2026-05-23T19:15:45.000Z</time></trkpt>
        <trkpt lat="29.5630345" lon="103.3519756"><ele>1815.94</ele><time>2026-05-23T19:15:51.000Z</time></trkpt>
        <trkpt lat="29.563018" lon="103.3519099"><ele>1816.66</ele><time>2026-05-23T19:15:57.000Z</time></trkpt>
        <trkpt lat="29.563003" lon="103.351855"><ele>1816.62</ele><time>2026-05-23T19:16:01.000Z</time></trkpt>
        <trkpt lat="29.5629919" lon="103.3518044"><ele>1816.46</ele><time>2026-05-23T19:16:05.000Z</time></trkpt>
        <trkpt lat="29.562974" lon="103.3517457"><ele>1816.39</ele><time>2026-05-23T19:16:09.000Z</time></trkpt>
        <trkpt lat="29.5629721" lon="103.3516842"><ele>1816.94</ele><time>2026-05-23T19:16:13.000Z</time></trkpt>
        <trkpt lat="29.5629857" lon="103.3516203"><ele>1816.88</ele><time>2026-05-23T19:16:19.000Z</time></trkpt>
        <trkpt lat="29.5629832" lon="103.3515646"><ele>1815.42</ele><time>2026-05-23T19:16:23.000Z</time></trkpt>
        <trkpt lat="29.5629527" lon="103.3514985"><ele>1814.19</ele><time>2026-05-23T19:16:29.000Z</time></trkpt>
        <trkpt lat="29.5629308" lon="103.3514283"><ele>1812.79</ele><time>2026-05-23T19:16:33.000Z</time></trkpt>
        <trkpt lat="29.5629443" lon="103.3513593"><ele>1810.19</ele><time>2026-05-23T19:16:37.000Z</time></trkpt>
        <trkpt lat="29.5629759" lon="103.3513119"><ele>1808.64</ele><time>2026-05-23T19:16:41.000Z</time></trkpt>
        <trkpt lat="29.563022" lon="103.3512886"><ele>1806.65</ele><time>2026-05-23T19:16:45.000Z</time></trkpt>
        <trkpt lat="29.5630436" lon="103.3512483"><ele>1803.2</ele><time>2026-05-23T19:16:49.000Z</time></trkpt>
        <trkpt lat="29.5630378" lon="103.3511803"><ele>1800.01</ele><time>2026-05-23T19:16:55.000Z</time></trkpt>
        <trkpt lat="29.5630179" lon="103.3511187"><ele>1796.44</ele><time>2026-05-23T19:16:59.000Z</time></trkpt>
        <trkpt lat="29.5629884" lon="103.3510605"><ele>1792.42</ele><time>2026-05-23T19:17:03.000Z</time></trkpt>
        <trkpt lat="29.5629616" lon="103.3510031"><ele>1789.55</ele><time>2026-05-23T19:17:07.000Z</time></trkpt>
        <trkpt lat="29.5629372" lon="103.3509382"><ele>1788.13</ele><time>2026-05-23T19:17:11.000Z</time></trkpt>
        <trkpt lat="29.5629218" lon="103.3508644"><ele>1787.45</ele><time>2026-05-23T19:17:15.000Z</time></trkpt>
        <trkpt lat="29.5628959" lon="103.3507974"><ele>1788.32</ele><time>2026-05-23T19:17:19.000Z</time></trkpt>
        <trkpt lat="29.5628562" lon="103.3507658"><ele>1789.43</ele><time>2026-05-23T19:17:23.000Z</time></trkpt>
        <trkpt lat="29.56282" lon="103.3507308"><ele>1790.68</ele><time>2026-05-23T19:17:27.000Z</time></trkpt>
        <trkpt lat="29.5627992" lon="103.3506737"><ele>1791.57</ele><time>2026-05-23T19:17:33.000Z</time></trkpt>
        <trkpt lat="29.5628" lon="103.3506085"><ele>1793.4</ele><time>2026-05-23T19:17:48.000Z</time></trkpt>
        <trkpt lat="29.562803" lon="103.3505374"><ele>1794.2</ele><time>2026-05-23T19:17:55.000Z</time></trkpt>
        <trkpt lat="29.5628043" lon="103.3504734"><ele>1793.58</ele><time>2026-05-23T19:18:03.000Z</time></trkpt>
        <trkpt lat="29.562816" lon="103.35041"><ele>1793.64</ele><time>2026-05-23T19:18:19.000Z</time></trkpt>
        <trkpt lat="29.5628241" lon="103.3503397"><ele>1793.54</ele><time>2026-05-23T19:18:25.000Z</time></trkpt>
        <trkpt lat="29.5628304" lon="103.3502706"><ele>1792.02</ele><time>2026-05-23T19:18:29.000Z</time></trkpt>
        <trkpt lat="29.5628476" lon="103.3502103"><ele>1790.01</ele><time>2026-05-23T19:18:33.000Z</time></trkpt>
        <trkpt lat="29.562869" lon="103.3501593"><ele>1789.26</ele><time>2026-05-23T19:18:37.000Z</time></trkpt>
        <trkpt lat="29.5628887" lon="103.3500995"><ele>1787.68</ele><time>2026-05-23T19:18:41.000Z</time></trkpt>
        <trkpt lat="29.5629054" lon="103.3500318"><ele>1785.69</ele><time>2026-05-23T19:18:45.000Z</time></trkpt>
        <trkpt lat="29.5629203" lon="103.349961"><ele>1785.17</ele><time>2026-05-23T19:18:51.000Z</time></trkpt>
        <trkpt lat="29.5629143" lon="103.3499051"><ele>1784.94</ele><time>2026-05-23T19:18:55.000Z</time></trkpt>
        <trkpt lat="29.5629155" lon="103.3498521"><ele>1784.04</ele><time>2026-05-23T19:18:59.000Z</time></trkpt>
        <trkpt lat="29.5629234" lon="103.349786"><ele>1783.26</ele><time>2026-05-23T19:19:05.000Z</time></trkpt>
        <trkpt lat="29.5629341" lon="103.3497303"><ele>1783.35</ele><time>2026-05-23T19:19:09.000Z</time></trkpt>
        <trkpt lat="29.5629512" lon="103.349676"><ele>1783.09</ele><time>2026-05-23T19:19:13.000Z</time></trkpt>
        <trkpt lat="29.5629743" lon="103.349623"><ele>1782.65</ele><time>2026-05-23T19:19:17.000Z</time></trkpt>
        <trkpt lat="29.5630036" lon="103.3495745"><ele>1782.41</ele><time>2026-05-23T19:19:21.000Z</time></trkpt>
        <trkpt lat="29.5630336" lon="103.3495256"><ele>1781.51</ele><time>2026-05-23T19:19:25.000Z</time></trkpt>
        <trkpt lat="29.5630671" lon="103.3494849"><ele>1781.86</ele><time>2026-05-23T19:19:29.000Z</time></trkpt>
        <trkpt lat="29.5630973" lon="103.3494432"><ele>1782.55</ele><time>2026-05-23T19:19:33.000Z</time></trkpt>
        <trkpt lat="29.5631137" lon="103.34939"><ele>1783.49</ele><time>2026-05-23T19:19:37.000Z</time></trkpt>
        <trkpt lat="29.5631259" lon="103.3493214"><ele>1782.46</ele><time>2026-05-23T19:19:41.000Z</time></trkpt>
        <trkpt lat="29.5631387" lon="103.3492585"><ele>1782.79</ele><time>2026-05-23T19:19:45.000Z</time></trkpt>
        <trkpt lat="29.5631555" lon="103.3492041"><ele>1783.06</ele><time>2026-05-23T19:19:49.000Z</time></trkpt>
        <trkpt lat="29.563183" lon="103.349138"><ele>1782.76</ele><time>2026-05-23T19:19:55.000Z</time></trkpt>
        <trkpt lat="29.5631965" lon="103.349066"><ele>1782.41</ele><time>2026-05-23T19:20:01.000Z</time></trkpt>
        <trkpt lat="29.5631991" lon="103.3490032"><ele>1782.5</ele><time>2026-05-23T19:20:05.000Z</time></trkpt>
        <trkpt lat="29.5632054" lon="103.3489417"><ele>1783.34</ele><time>2026-05-23T19:20:09.000Z</time></trkpt>
        <trkpt lat="29.563223" lon="103.3488771"><ele>1784.81</ele><time>2026-05-23T19:20:15.000Z</time></trkpt>
        <trkpt lat="29.5632302" lon="103.3488207"><ele>1785.51</ele><time>2026-05-23T19:20:19.000Z</time></trkpt>
        <trkpt lat="29.5632194" lon="103.3487541"><ele>1786.18</ele><time>2026-05-23T19:20:25.000Z</time></trkpt>
        <trkpt lat="29.563228" lon="103.3486933"><ele>1786.11</ele><time>2026-05-23T19:20:29.000Z</time></trkpt>
        <trkpt lat="29.5632261" lon="103.3486394"><ele>1786.48</ele><time>2026-05-23T19:20:33.000Z</time></trkpt>
        <trkpt lat="29.5632306" lon="103.3485858"><ele>1786.24</ele><time>2026-05-23T19:20:37.000Z</time></trkpt>
        <trkpt lat="29.5632386" lon="103.3485269"><ele>1786.05</ele><time>2026-05-23T19:20:41.000Z</time></trkpt>
        <trkpt lat="29.5632666" lon="103.348468"><ele>1786.09</ele><time>2026-05-23T19:20:45.000Z</time></trkpt>
        <trkpt lat="29.5632881" lon="103.3484117"><ele>1787.1</ele><time>2026-05-23T19:20:49.000Z</time></trkpt>
        <trkpt lat="29.5632998" lon="103.3483595"><ele>1788.4</ele><time>2026-05-23T19:20:53.000Z</time></trkpt>
        <trkpt lat="29.5633138" lon="103.348303"><ele>1789.65</ele><time>2026-05-23T19:20:57.000Z</time></trkpt>
        <trkpt lat="29.5633332" lon="103.3482498"><ele>1790.35</ele><time>2026-05-23T19:21:01.000Z</time></trkpt>
        <trkpt lat="29.5633817" lon="103.3482069"><ele>1789.77</ele><time>2026-05-23T19:21:07.000Z</time></trkpt>
        <trkpt lat="29.5634295" lon="103.3481514"><ele>1791.46</ele><time>2026-05-23T19:21:13.000Z</time></trkpt>
        <trkpt lat="29.5634606" lon="103.3480926"><ele>1791.34</ele><time>2026-05-23T19:21:17.000Z</time></trkpt>
        <trkpt lat="29.5634519" lon="103.3480309"><ele>1791.81</ele><time>2026-05-23T19:21:21.000Z</time></trkpt>
        <trkpt lat="29.5634522" lon="103.3479754"><ele>1791.46</ele><time>2026-05-23T19:21:25.000Z</time></trkpt>
        <trkpt lat="29.5634764" lon="103.347925"><ele>1789.74</ele><time>2026-05-23T19:21:29.000Z</time></trkpt>
        <trkpt lat="29.5635113" lon="103.3478808"><ele>1788.52</ele><time>2026-05-23T19:21:33.000Z</time></trkpt>
        <trkpt lat="29.56354" lon="103.3478286"><ele>1788.71</ele><time>2026-05-23T19:21:37.000Z</time></trkpt>
        <trkpt lat="29.563562" lon="103.3477734"><ele>1788.98</ele><time>2026-05-23T19:21:41.000Z</time></trkpt>
        <trkpt lat="29.56358" lon="103.3477158"><ele>1787.94</ele><time>2026-05-23T19:21:45.000Z</time></trkpt>
        <trkpt lat="29.5635783" lon="103.3476535"><ele>1786.62</ele><time>2026-05-23T19:21:49.000Z</time></trkpt>
        <trkpt lat="29.5635631" lon="103.3475907"><ele>1784.8</ele><time>2026-05-23T19:21:53.000Z</time></trkpt>
        <trkpt lat="29.563541" lon="103.3475256"><ele>1784.27</ele><time>2026-05-23T19:21:59.000Z</time></trkpt>
        <trkpt lat="29.5635174" lon="103.3474671"><ele>1782.66</ele><time>2026-05-23T19:22:03.000Z</time></trkpt>
        <trkpt lat="29.5634738" lon="103.347391"><ele>1781.02</ele><time>2026-05-23T19:22:07.000Z</time></trkpt>
        <trkpt lat="29.5634503" lon="103.3473309"><ele>1779.86</ele><time>2026-05-23T19:22:11.000Z</time></trkpt>
        <trkpt lat="29.5634331" lon="103.3472684"><ele>1778.89</ele><time>2026-05-23T19:22:17.000Z</time></trkpt>
        <trkpt lat="29.563402" lon="103.3472088"><ele>1779.4</ele><time>2026-05-23T19:22:23.000Z</time></trkpt>
        <trkpt lat="29.5633639" lon="103.3471712"><ele>1779.84</ele><time>2026-05-23T19:22:31.000Z</time></trkpt>
        <trkpt lat="29.5633187" lon="103.3471428"><ele>1780.63</ele><time>2026-05-23T19:22:35.000Z</time></trkpt>
        <trkpt lat="29.5632674" lon="103.3471224"><ele>1780.99</ele><time>2026-05-23T19:22:39.000Z</time></trkpt>
        <trkpt lat="29.5632102" lon="103.3470868"><ele>1782.52</ele><time>2026-05-23T19:22:45.000Z</time></trkpt>
        <trkpt lat="29.56317" lon="103.347048"><ele>1783.78</ele><time>2026-05-23T19:22:49.000Z</time></trkpt>
        <trkpt lat="29.563141" lon="103.3470043"><ele>1784.71</ele><time>2026-05-23T19:22:53.000Z</time></trkpt>
        <trkpt lat="29.563105" lon="103.3469488"><ele>1784.92</ele><time>2026-05-23T19:22:59.000Z</time></trkpt>
        <trkpt lat="29.5630726" lon="103.3469032"><ele>1784.83</ele><time>2026-05-23T19:23:03.000Z</time></trkpt>
        <trkpt lat="29.5630396" lon="103.3468607"><ele>1784.84</ele><time>2026-05-23T19:23:09.000Z</time></trkpt>
        <trkpt lat="29.5630023" lon="103.3468163"><ele>1783.21</ele><time>2026-05-23T19:23:15.000Z</time></trkpt>
        <trkpt lat="29.5629487" lon="103.3467741"><ele>1780.39</ele><time>2026-05-23T19:23:21.000Z</time></trkpt>
        <trkpt lat="29.5629073" lon="103.3467259"><ele>1778.33</ele><time>2026-05-23T19:23:25.000Z</time></trkpt>
        <trkpt lat="29.5628823" lon="103.3466642"><ele>1777.14</ele><time>2026-05-23T19:23:29.000Z</time></trkpt>
        <trkpt lat="29.562867" lon="103.3465861"><ele>1776.51</ele><time>2026-05-23T19:23:33.000Z</time></trkpt>
        <trkpt lat="29.5628333" lon="103.3465304"><ele>1776.14</ele><time>2026-05-23T19:23:37.000Z</time></trkpt>
        <trkpt lat="29.5627755" lon="103.3465052"><ele>1775.28</ele><time>2026-05-23T19:23:41.000Z</time></trkpt>
        <trkpt lat="29.5627099" lon="103.3464799"><ele>1774.15</ele><time>2026-05-23T19:23:45.000Z</time></trkpt>
        <trkpt lat="29.5626452" lon="103.34645"><ele>1773.15</ele><time>2026-05-23T19:23:49.000Z</time></trkpt>
        <trkpt lat="29.5625817" lon="103.3464057"><ele>1772.25</ele><time>2026-05-23T19:23:53.000Z</time></trkpt>
        <trkpt lat="29.5625319" lon="103.3463624"><ele>1770.94</ele><time>2026-05-23T19:23:57.000Z</time></trkpt>
        <trkpt lat="29.5624967" lon="103.3463053"><ele>1771.49</ele><time>2026-05-23T19:24:01.000Z</time></trkpt>
        <trkpt lat="29.5624505" lon="103.346257"><ele>1771.46</ele><time>2026-05-23T19:24:05.000Z</time></trkpt>
        <trkpt lat="29.5623976" lon="103.346202"><ele>1772.39</ele><time>2026-05-23T19:24:09.000Z</time></trkpt>
        <trkpt lat="29.5623434" lon="103.3461607"><ele>1772.64</ele><time>2026-05-23T19:24:13.000Z</time></trkpt>
        <trkpt lat="29.5623036" lon="103.346093"><ele>1772.45</ele><time>2026-05-23T19:24:17.000Z</time></trkpt>
        <trkpt lat="29.5622746" lon="103.3460374"><ele>1772.59</ele><time>2026-05-23T19:24:21.000Z</time></trkpt>
        <trkpt lat="29.5622637" lon="103.3459758"><ele>1772.53</ele><time>2026-05-23T19:24:25.000Z</time></trkpt>
        <trkpt lat="29.5622414" lon="103.3459167"><ele>1772.07</ele><time>2026-05-23T19:24:29.000Z</time></trkpt>
        <trkpt lat="29.5622069" lon="103.3458622"><ele>1771.42</ele><time>2026-05-23T19:24:33.000Z</time></trkpt>
        <trkpt lat="29.5621668" lon="103.3458072"><ele>1771.31</ele><time>2026-05-23T19:24:37.000Z</time></trkpt>
        <trkpt lat="29.5621226" lon="103.3457641"><ele>1771.33</ele><time>2026-05-23T19:24:41.000Z</time></trkpt>
        <trkpt lat="29.5620787" lon="103.3457178"><ele>1770.43</ele><time>2026-05-23T19:24:45.000Z</time></trkpt>
        <trkpt lat="29.5620293" lon="103.3456504"><ele>1769.47</ele><time>2026-05-23T19:24:49.000Z</time></trkpt>
        <trkpt lat="29.5619673" lon="103.3456151"><ele>1769.03</ele><time>2026-05-23T19:24:53.000Z</time></trkpt>
        <trkpt lat="29.5619086" lon="103.3456038"><ele>1768.46</ele><time>2026-05-23T19:24:57.000Z</time></trkpt>
        <trkpt lat="29.5618552" lon="103.3456046"><ele>1768.41</ele><time>2026-05-23T19:25:01.000Z</time></trkpt>
        <trkpt lat="29.5618062" lon="103.3456169"><ele>1769.19</ele><time>2026-05-23T19:25:05.000Z</time></trkpt>
        <trkpt lat="29.561758" lon="103.3456138"><ele>1770.63</ele><time>2026-05-23T19:25:09.000Z</time></trkpt>
        <trkpt lat="29.5617106" lon="103.3456089"><ele>1771.71</ele><time>2026-05-23T19:25:13.000Z</time></trkpt>
        <trkpt lat="29.5616574" lon="103.3455895"><ele>1772.41</ele><time>2026-05-23T19:25:19.000Z</time></trkpt>
        <trkpt lat="29.5616008" lon="103.3455725"><ele>1774.42</ele><time>2026-05-23T19:25:25.000Z</time></trkpt>
        <trkpt lat="29.5615593" lon="103.345525"><ele>1774.94</ele><time>2026-05-23T19:25:31.000Z</time></trkpt>
        <trkpt lat="29.5615156" lon="103.3454771"><ele>1774.54</ele><time>2026-05-23T19:25:37.000Z</time></trkpt>
        <trkpt lat="29.561472" lon="103.3454337"><ele>1774.69</ele><time>2026-05-23T19:25:43.000Z</time></trkpt>
        <trkpt lat="29.5614433" lon="103.3453835"><ele>1774.57</ele><time>2026-05-23T19:25:49.000Z</time></trkpt>
        <trkpt lat="29.5614129" lon="103.3453196"><ele>1774.53</ele><time>2026-05-23T19:25:57.000Z</time></trkpt>
        <trkpt lat="29.5614027" lon="103.3452968"><ele>1773.83</ele><time>2026-05-23T19:26:03.000Z</time></trkpt>
        <trkpt lat="29.5614027" lon="103.3452968"><ele>1773.83</ele><time>2026-05-23T19:26:21.000Z</time></trkpt>
        <trkpt lat="29.5613786" lon="103.345265"><ele>1773.91</ele><time>2026-05-23T19:26:26.000Z</time></trkpt>
        <trkpt lat="29.5613786" lon="103.345265"><ele>1773.91</ele><time>2026-05-23T19:26:31.000Z</time></trkpt>
        <trkpt lat="29.5613426" lon="103.3452305"><ele>1773.95</ele><time>2026-05-23T19:26:41.000Z</time></trkpt>
        <trkpt lat="29.5613426" lon="103.3452305"><ele>1773.95</ele><time>2026-05-23T19:27:19.000Z</time></trkpt>
        <trkpt lat="29.5613103" lon="103.3451671"><ele>1774.54</ele><time>2026-05-23T19:27:46.000Z</time></trkpt>
        <trkpt lat="29.5613103" lon="103.3451671"><ele>1774.54</ele><time>2026-05-23T19:27:49.000Z</time></trkpt>
        <trkpt lat="29.5612642" lon="103.34519"><ele>1774.74</ele><time>2026-05-23T19:28:03.000Z</time></trkpt>
        <trkpt lat="29.5612444" lon="103.3451409"><ele>1776.7</ele><time>2026-05-23T19:28:15.000Z</time></trkpt>
        <trkpt lat="29.5612067" lon="103.3451086"><ele>1778.94</ele><time>2026-05-23T19:28:29.000Z</time></trkpt>
        <trkpt lat="29.5612067" lon="103.3451086"><ele>1778.94</ele><time>2026-05-23T19:28:51.000Z</time></trkpt>
        <trkpt lat="29.5612519" lon="103.3450929"><ele>1780.15</ele><time>2026-05-23T19:28:56.000Z</time></trkpt>
        <trkpt lat="29.5612519" lon="103.3450929"><ele>1780.15</ele><time>2026-05-23T19:28:57.000Z</time></trkpt>
        <trkpt lat="29.5612519" lon="103.3450929"><ele>1780.15</ele><time>2026-05-23T19:29:09.000Z</time></trkpt>
        <trkpt lat="29.5612366" lon="103.3450878"><ele>1778.36</ele><time>2026-05-23T19:29:22.000Z</time></trkpt>
        <trkpt lat="29.5612366" lon="103.3450878"><ele>1778.36</ele><time>2026-05-23T19:29:25.000Z</time></trkpt>
        <trkpt lat="29.5611968" lon="103.3450771"><ele>1779.62</ele><time>2026-05-23T19:29:49.000Z</time></trkpt>
        <trkpt lat="29.5611594" lon="103.3450406"><ele>1785.07</ele><time>2026-05-23T19:30:03.000Z</time></trkpt>
        <trkpt lat="29.5611143" lon="103.3450244"><ele>1787.92</ele><time>2026-05-23T19:30:41.000Z</time></trkpt>
        <trkpt lat="29.5610644" lon="103.3450086"><ele>1790.56</ele><time>2026-05-23T19:30:59.000Z</time></trkpt>
        <trkpt lat="29.5610644" lon="103.3450086"><ele>1790.56</ele><time>2026-05-23T19:31:21.000Z</time></trkpt>
        <trkpt lat="29.5610678" lon="103.3449716"><ele>1791.71</ele><time>2026-05-23T19:31:26.000Z</time></trkpt>
        <trkpt lat="29.5610678" lon="103.3449716"><ele>1791.71</ele><time>2026-05-23T19:31:27.000Z</time></trkpt>
        <trkpt lat="29.5610678" lon="103.3449716"><ele>1791.71</ele><time>2026-05-23T19:31:49.000Z</time></trkpt>
        <trkpt lat="29.5610459" lon="103.3449819"><ele>1795.03</ele><time>2026-05-23T19:31:50.000Z</time></trkpt>
        <trkpt lat="29.5610459" lon="103.3449819"><ele>1795.03</ele><time>2026-05-23T19:31:56.000Z</time></trkpt>
        <trkpt lat="29.5610459" lon="103.3449819"><ele>1795.03</ele><time>2026-05-23T19:32:13.000Z</time></trkpt>
        <trkpt lat="29.561017" lon="103.3450203"><ele>1799.89</ele><time>2026-05-23T19:32:20.000Z</time></trkpt>
        <trkpt lat="29.561017" lon="103.3450203"><ele>1799.89</ele><time>2026-05-23T19:32:37.000Z</time></trkpt>
        <trkpt lat="29.5609733" lon="103.3450518"><ele>1803.32</ele><time>2026-05-23T19:32:53.000Z</time></trkpt>
        <trkpt lat="29.5609733" lon="103.3450518"><ele>1803.32</ele><time>2026-05-23T19:33:05.000Z</time></trkpt>
        <trkpt lat="29.5609733" lon="103.3450518"><ele>1803.32</ele><time>2026-05-23T19:33:12.000Z</time></trkpt>
        <trkpt lat="29.5609733" lon="103.3450518"><ele>1803.32</ele><time>2026-05-23T19:33:27.000Z</time></trkpt>
        <trkpt lat="29.5609372" lon="103.3451056"><ele>1806.52</ele><time>2026-05-23T19:33:36.000Z</time></trkpt>
        <trkpt lat="29.5609372" lon="103.3451056"><ele>1806.52</ele><time>2026-05-23T19:33:41.000Z</time></trkpt>
        <trkpt lat="29.5608994" lon="103.3450907"><ele>1808.26</ele><time>2026-05-23T19:33:51.000Z</time></trkpt>
        <trkpt lat="29.5608639" lon="103.3450508"><ele>1810.5</ele><time>2026-05-23T19:34:07.000Z</time></trkpt>
        <trkpt lat="29.5608639" lon="103.3450508"><ele>1810.5</ele><time>2026-05-23T19:34:39.000Z</time></trkpt>
        <trkpt lat="29.5608115" lon="103.3449769"><ele>1813.35</ele><time>2026-05-23T19:34:52.000Z</time></trkpt>
        <trkpt lat="29.5608115" lon="103.3449769"><ele>1813.35</ele><time>2026-05-23T19:34:55.000Z</time></trkpt>
        <trkpt lat="29.5608203" lon="103.3449176"><ele>1815.83</ele><time>2026-05-23T19:35:11.000Z</time></trkpt>
        <trkpt lat="29.5608203" lon="103.3449176"><ele>1815.83</ele><time>2026-05-23T19:35:37.000Z</time></trkpt>
        <trkpt lat="29.5608203" lon="103.3449176"><ele>1815.83</ele><time>2026-05-23T19:35:46.000Z</time></trkpt>
        <trkpt lat="29.5608203" lon="103.3449176"><ele>1815.83</ele><time>2026-05-23T19:36:01.000Z</time></trkpt>
        <trkpt lat="29.5607834" lon="103.3448898"><ele>1818.76</ele><time>2026-05-23T19:36:08.000Z</time></trkpt>
        <trkpt lat="29.5607834" lon="103.3448898"><ele>1818.76</ele><time>2026-05-23T19:36:13.000Z</time></trkpt>
        <trkpt lat="29.5607311" lon="103.3448941"><ele>1822.79</ele><time>2026-05-23T19:36:45.000Z</time></trkpt>
        <trkpt lat="29.5607311" lon="103.3448941"><ele>1822.79</ele><time>2026-05-23T19:37:01.000Z</time></trkpt>
        <trkpt lat="29.5607166" lon="103.3448447"><ele>1827.24</ele><time>2026-05-23T19:37:02.000Z</time></trkpt>
        <trkpt lat="29.5607166" lon="103.3448447"><ele>1827.24</ele><time>2026-05-23T19:37:08.000Z</time></trkpt>
        <trkpt lat="29.5607193" lon="103.3447891"><ele>1830.13</ele><time>2026-05-23T19:37:36.000Z</time></trkpt>
        <trkpt lat="29.5607083" lon="103.3447352"><ele>1832.48</ele><time>2026-05-23T19:37:58.000Z</time></trkpt>
        <trkpt lat="29.5607084" lon="103.3447168"><ele>1834.89</ele><time>2026-05-23T19:38:00.000Z</time></trkpt>
        <trkpt lat="29.5606762" lon="103.3446734"><ele>1836.44</ele><time>2026-05-23T19:38:38.000Z</time></trkpt>
        <trkpt lat="29.5606762" lon="103.3446734"><ele>1836.44</ele><time>2026-05-23T19:38:51.000Z</time></trkpt>
        <trkpt lat="29.5607013" lon="103.3446593"><ele>1839.49</ele><time>2026-05-23T19:38:58.000Z</time></trkpt>
        <trkpt lat="29.5607013" lon="103.3446593"><ele>1839.49</ele><time>2026-05-23T19:39:27.000Z</time></trkpt>
        <trkpt lat="29.5606789" lon="103.3446788"><ele>1841.06</ele><time>2026-05-23T19:39:50.000Z</time></trkpt>
        <trkpt lat="29.5606789" lon="103.3446788"><ele>1841.06</ele><time>2026-05-23T19:40:25.000Z</time></trkpt>
        <trkpt lat="29.5606992" lon="103.3447343"><ele>1841.29</ele><time>2026-05-23T19:40:36.000Z</time></trkpt>
        <trkpt lat="29.5606992" lon="103.3447343"><ele>1841.29</ele><time>2026-05-23T19:40:41.000Z</time></trkpt>
        <trkpt lat="29.5606992" lon="103.3447343"><ele>1841.29</ele><time>2026-05-23T19:40:47.000Z</time></trkpt>
        <trkpt lat="29.5606992" lon="103.3447343"><ele>1841.29</ele><time>2026-05-23T19:42:46.000Z</time></trkpt>
        <trkpt lat="29.5606992" lon="103.3447343"><ele>1841.29</ele><time>2026-05-23T19:43:05.000Z</time></trkpt>
        <trkpt lat="29.5606992" lon="103.3447343"><ele>1841.29</ele><time>2026-05-23T19:47:54.000Z</time></trkpt>
        <trkpt lat="29.5606992" lon="103.3447343"><ele>1841.29</ele><time>2026-05-23T19:48:15.000Z</time></trkpt>
        <trkpt lat="29.5606857" lon="103.3446988"><ele>1844.36</ele><time>2026-05-23T19:48:20.000Z</time></trkpt>
        <trkpt lat="29.5606857" lon="103.3446988"><ele>1844.36</ele><time>2026-05-23T19:48:33.000Z</time></trkpt>
        <trkpt lat="29.5606454" lon="103.3446714"><ele>1843.86</ele><time>2026-05-23T19:48:39.000Z</time></trkpt>
        <trkpt lat="29.560609" lon="103.3446399"><ele>1842.48</ele><time>2026-05-23T19:48:47.000Z</time></trkpt>
        <trkpt lat="29.5605667" lon="103.3446127"><ele>1842.56</ele><time>2026-05-23T19:48:53.000Z</time></trkpt>
        <trkpt lat="29.5605667" lon="103.3446127"><ele>1842.56</ele><time>2026-05-23T19:49:13.000Z</time></trkpt>
        <trkpt lat="29.5604998" lon="103.3446235"><ele>1842.93</ele><time>2026-05-23T19:49:16.000Z</time></trkpt>
        <trkpt lat="29.5604998" lon="103.3446235"><ele>1842.93</ele><time>2026-05-23T19:49:21.000Z</time></trkpt>
        <trkpt lat="29.5604998" lon="103.3446235"><ele>1842.93</ele><time>2026-05-23T19:49:29.000Z</time></trkpt>
        <trkpt lat="29.5604974" lon="103.3445821"><ele>1846.69</ele><time>2026-05-23T19:49:34.000Z</time></trkpt>
        <trkpt lat="29.5604974" lon="103.3445821"><ele>1846.69</ele><time>2026-05-23T19:49:39.000Z</time></trkpt>
        <trkpt lat="29.560482" lon="103.3446015"><ele>1845.41</ele><time>2026-05-23T19:49:57.000Z</time></trkpt>
        <trkpt lat="29.5604482" lon="103.3445819"><ele>1849.99</ele><time>2026-05-23T19:50:19.000Z</time></trkpt>
        <trkpt lat="29.5604101" lon="103.3445482"><ele>1853.8</ele><time>2026-05-23T19:50:39.000Z</time></trkpt>
        <trkpt lat="29.5603669" lon="103.3445191"><ele>1857.65</ele><time>2026-05-23T19:51:03.000Z</time></trkpt>
        <trkpt lat="29.5603144" lon="103.3444931"><ele>1860.24</ele><time>2026-05-23T19:51:09.000Z</time></trkpt>
        <trkpt lat="29.560294" lon="103.3444702"><ele>1861.49</ele><time>2026-05-23T19:51:19.000Z</time></trkpt>
        <trkpt lat="29.5602706" lon="103.3444341"><ele>1863.98</ele><time>2026-05-23T19:51:41.000Z</time></trkpt>
        <trkpt lat="29.5602706" lon="103.3444341"><ele>1863.98</ele><time>2026-05-23T19:51:51.000Z</time></trkpt>
        <trkpt lat="29.5602706" lon="103.3444341"><ele>1863.98</ele><time>2026-05-23T19:51:54.000Z</time></trkpt>
        <trkpt lat="29.5602706" lon="103.3444341"><ele>1863.98</ele><time>2026-05-23T19:52:21.000Z</time></trkpt>
        <trkpt lat="29.5602335" lon="103.3444008"><ele>1866.45</ele><time>2026-05-23T19:52:28.000Z</time></trkpt>
        <trkpt lat="29.5602335" lon="103.3444008"><ele>1866.45</ele><time>2026-05-23T19:52:37.000Z</time></trkpt>
        <trkpt lat="29.5601943" lon="103.3443631"><ele>1871.05</ele><time>2026-05-23T19:53:01.000Z</time></trkpt>
        <trkpt lat="29.5601729" lon="103.3443146"><ele>1873.09</ele><time>2026-05-23T19:53:25.000Z</time></trkpt>
        <trkpt lat="29.5601733" lon="103.3442594"><ele>1875.21</ele><time>2026-05-23T19:53:55.000Z</time></trkpt>
        <trkpt lat="29.5601772" lon="103.3442033"><ele>1877.15</ele><time>2026-05-23T19:54:17.000Z</time></trkpt>
        <trkpt lat="29.5601772" lon="103.3442033"><ele>1877.15</ele><time>2026-05-23T19:54:53.000Z</time></trkpt>
        <trkpt lat="29.5601454" lon="103.3441922"><ele>1879.83</ele><time>2026-05-23T19:54:58.000Z</time></trkpt>
        <trkpt lat="29.5601454" lon="103.3441922"><ele>1879.83</ele><time>2026-05-23T19:55:03.000Z</time></trkpt>
        <trkpt lat="29.5600968" lon="103.3441829"><ele>1882.06</ele><time>2026-05-23T19:55:07.000Z</time></trkpt>
        <trkpt lat="29.5600907" lon="103.3441436"><ele>1885.97</ele><time>2026-05-23T19:55:23.000Z</time></trkpt>
        <trkpt lat="29.560119" lon="103.3441037"><ele>1890.08</ele><time>2026-05-23T19:55:47.000Z</time></trkpt>
        <trkpt lat="29.5601172" lon="103.3440559"><ele>1893.18</ele><time>2026-05-23T19:56:19.000Z</time></trkpt>
        <trkpt lat="29.5601053" lon="103.3440053"><ele>1895.91</ele><time>2026-05-23T19:56:39.000Z</time></trkpt>
        <trkpt lat="29.5601368" lon="103.3439561"><ele>1898.87</ele><time>2026-05-23T19:57:15.000Z</time></trkpt>
        <trkpt lat="29.5601368" lon="103.3439561"><ele>1898.87</ele><time>2026-05-23T19:57:29.000Z</time></trkpt>
        <trkpt lat="29.5601239" lon="103.3439146"><ele>1902.34</ele><time>2026-05-23T19:57:30.000Z</time></trkpt>
        <trkpt lat="29.5601239" lon="103.3439146"><ele>1902.34</ele><time>2026-05-23T19:57:39.000Z</time></trkpt>
        <trkpt lat="29.5600991" lon="103.3438667"><ele>1903.27</ele><time>2026-05-23T19:58:05.000Z</time></trkpt>
        <trkpt lat="29.5600611" lon="103.3438285"><ele>1906.92</ele><time>2026-05-23T19:58:33.000Z</time></trkpt>
        <trkpt lat="29.5600053" lon="103.3438147"><ele>1909.84</ele><time>2026-05-23T19:58:53.000Z</time></trkpt>
        <trkpt lat="29.5600053" lon="103.3438147"><ele>1909.84</ele><time>2026-05-23T19:59:05.000Z</time></trkpt>
        <trkpt lat="29.5600053" lon="103.3438147"><ele>1909.84</ele><time>2026-05-23T19:59:06.000Z</time></trkpt>
        <trkpt lat="29.5600053" lon="103.3438147"><ele>1909.84</ele><time>2026-05-23T19:59:23.000Z</time></trkpt>
        <trkpt lat="29.560009" lon="103.3437515"><ele>1912.54</ele><time>2026-05-23T19:59:28.000Z</time></trkpt>
        <trkpt lat="29.560009" lon="103.3437515"><ele>1912.54</ele><time>2026-05-23T19:59:33.000Z</time></trkpt>
        <trkpt lat="29.5599725" lon="103.3437321"><ele>1918.73</ele><time>2026-05-23T19:59:41.000Z</time></trkpt>
        <trkpt lat="29.5599288" lon="103.34371"><ele>1921.53</ele><time>2026-05-23T19:59:57.000Z</time></trkpt>
        <trkpt lat="29.5599288" lon="103.34371"><ele>1921.53</ele><time>2026-05-23T20:00:09.000Z</time></trkpt>
        <trkpt lat="29.5599288" lon="103.34371"><ele>1921.53</ele><time>2026-05-23T20:00:12.000Z</time></trkpt>
        <trkpt lat="29.5599288" lon="103.34371"><ele>1921.53</ele><time>2026-05-23T20:00:25.000Z</time></trkpt>
        <trkpt lat="29.5598809" lon="103.3436874"><ele>1923.73</ele><time>2026-05-23T20:00:28.000Z</time></trkpt>
        <trkpt lat="29.5598809" lon="103.3436874"><ele>1923.73</ele><time>2026-05-23T20:00:47.000Z</time></trkpt>
        <trkpt lat="29.5598401" lon="103.3436578"><ele>1927.22</ele><time>2026-05-23T20:01:13.000Z</time></trkpt>
        <trkpt lat="29.5598064" lon="103.3436176"><ele>1929.58</ele><time>2026-05-23T20:01:23.000Z</time></trkpt>
        <trkpt lat="29.5597677" lon="103.3435768"><ele>1930.71</ele><time>2026-05-23T20:01:45.000Z</time></trkpt>
        <trkpt lat="29.559733" lon="103.3435358"><ele>1931.89</ele><time>2026-05-23T20:01:53.000Z</time></trkpt>
        <trkpt lat="29.559733" lon="103.3435358"><ele>1931.89</ele><time>2026-05-23T20:02:07.000Z</time></trkpt>
        <trkpt lat="29.559704" lon="103.34348"><ele>1933.6</ele><time>2026-05-23T20:02:12.000Z</time></trkpt>
        <trkpt lat="29.559704" lon="103.34348"><ele>1933.6</ele><time>2026-05-23T20:02:15.000Z</time></trkpt>
        <trkpt lat="29.559704" lon="103.34348"><ele>1933.6</ele><time>2026-05-23T20:02:27.000Z</time></trkpt>
        <trkpt lat="29.5596534" lon="103.3434418"><ele>1935.48</ele><time>2026-05-23T20:02:30.000Z</time></trkpt>
        <trkpt lat="29.5596534" lon="103.3434418"><ele>1935.48</ele><time>2026-05-23T20:02:35.000Z</time></trkpt>
        <trkpt lat="29.559642" lon="103.3434723"><ele>1942.51</ele><time>2026-05-23T20:02:45.000Z</time></trkpt>
        <trkpt lat="29.5596452" lon="103.3435317"><ele>1944.42</ele><time>2026-05-23T20:02:53.000Z</time></trkpt>
        <trkpt lat="29.5596146" lon="103.3435579"><ele>1944.44</ele><time>2026-05-23T20:03:27.000Z</time></trkpt>
        <trkpt lat="29.5596146" lon="103.3435579"><ele>1944.44</ele><time>2026-05-23T20:03:29.000Z</time></trkpt>
        <trkpt lat="29.5596146" lon="103.3435579"><ele>1944.44</ele><time>2026-05-23T20:03:30.000Z</time></trkpt>
        <trkpt lat="29.5596146" lon="103.3435579"><ele>1944.44</ele><time>2026-05-23T20:03:43.000Z</time></trkpt>
        <trkpt lat="29.5596146" lon="103.3435579"><ele>1944.44</ele><time>2026-05-23T20:03:44.000Z</time></trkpt>
        <trkpt lat="29.5596146" lon="103.3435579"><ele>1944.44</ele><time>2026-05-23T20:03:57.000Z</time></trkpt>
        <trkpt lat="29.5595781" lon="103.3435255"><ele>1946.62</ele><time>2026-05-23T20:04:00.000Z</time></trkpt>
        <trkpt lat="29.5595781" lon="103.3435255"><ele>1946.62</ele><time>2026-05-23T20:04:07.000Z</time></trkpt>
        <trkpt lat="29.5595332" lon="103.3435033"><ele>1949.85</ele><time>2026-05-23T20:04:19.000Z</time></trkpt>
        <trkpt lat="29.5594878" lon="103.3435113"><ele>1952.27</ele><time>2026-05-23T20:04:39.000Z</time></trkpt>
        <trkpt lat="29.5594641" lon="103.3435543"><ele>1954.55</ele><time>2026-05-23T20:04:51.000Z</time></trkpt>
        <trkpt lat="29.5594641" lon="103.3435543"><ele>1954.55</ele><time>2026-05-23T20:05:27.000Z</time></trkpt>
        <trkpt lat="29.5594262" lon="103.3435665"><ele>1956.51</ele><time>2026-05-23T20:05:30.000Z</time></trkpt>
        <trkpt lat="29.5594262" lon="103.3435665"><ele>1956.51</ele><time>2026-05-23T20:05:37.000Z</time></trkpt>
        <trkpt lat="29.5593821" lon="103.3435748"><ele>1959.7</ele><time>2026-05-23T20:06:05.000Z</time></trkpt>
        <trkpt lat="29.5593311" lon="103.3435684"><ele>1963.9</ele><time>2026-05-23T20:06:19.000Z</time></trkpt>
        <trkpt lat="29.5592846" lon="103.3435879"><ele>1965.61</ele><time>2026-05-23T20:06:27.000Z</time></trkpt>
        <trkpt lat="29.5592599" lon="103.3436332"><ele>1966.73</ele><time>2026-05-23T20:06:43.000Z</time></trkpt>
        <trkpt lat="29.5592556" lon="103.3436939"><ele>1968.54</ele><time>2026-05-23T20:07:09.000Z</time></trkpt>
        <trkpt lat="29.5592544" lon="103.3437573"><ele>1969.32</ele><time>2026-05-23T20:07:41.000Z</time></trkpt>
        <trkpt lat="29.5592251" lon="103.3437913"><ele>1971.43</ele><time>2026-05-23T20:07:55.000Z</time></trkpt>
        <trkpt lat="29.559172" lon="103.3437957"><ele>1973.52</ele><time>2026-05-23T20:08:21.000Z</time></trkpt>
        <trkpt lat="29.5591571" lon="103.3437479"><ele>1976.06</ele><time>2026-05-23T20:08:39.000Z</time></trkpt>
        <trkpt lat="29.5591274" lon="103.3437051"><ele>1977.93</ele><time>2026-05-23T20:09:15.000Z</time></trkpt>
        <trkpt lat="29.5590925" lon="103.3436659"><ele>1980.28</ele><time>2026-05-23T20:09:23.000Z</time></trkpt>
        <trkpt lat="29.5590857" lon="103.3436567"><ele>1983</ele><time>2026-05-23T20:09:25.000Z</time></trkpt>
        <trkpt lat="29.5590857" lon="103.3436567"><ele>1983</ele><time>2026-05-23T20:09:33.000Z</time></trkpt>
        <trkpt lat="29.559061" lon="103.3435981"><ele>1984.17</ele><time>2026-05-23T20:09:34.000Z</time></trkpt>
        <trkpt lat="29.559061" lon="103.3435981"><ele>1984.17</ele><time>2026-05-23T20:09:40.000Z</time></trkpt>
        <trkpt lat="29.5590728" lon="103.3436153"><ele>1993.08</ele><time>2026-05-23T20:09:48.000Z</time></trkpt>
        <trkpt lat="29.5590462" lon="103.3436163"><ele>1994.5</ele><time>2026-05-23T20:10:08.000Z</time></trkpt>
        <trkpt lat="29.5590059" lon="103.3436401"><ele>1995.13</ele><time>2026-05-23T20:10:20.000Z</time></trkpt>
        <trkpt lat="29.5590059" lon="103.3436401"><ele>1995.13</ele><time>2026-05-23T20:10:39.000Z</time></trkpt>
        <trkpt lat="29.5589821" lon="103.3436932"><ele>1995.09</ele><time>2026-05-23T20:10:44.000Z</time></trkpt>
        <trkpt lat="29.5589821" lon="103.3436932"><ele>1995.09</ele><time>2026-05-23T20:10:49.000Z</time></trkpt>
        <trkpt lat="29.5589493" lon="103.3437361"><ele>1990.8</ele><time>2026-05-23T20:11:11.000Z</time></trkpt>
        <trkpt lat="29.5589458" lon="103.343742"><ele>1993.91</ele><time>2026-05-23T20:11:15.000Z</time></trkpt>
        <trkpt lat="29.5589141" lon="103.3437646"><ele>1996.18</ele><time>2026-05-23T20:11:51.000Z</time></trkpt>
        <trkpt lat="29.5588983" lon="103.3438143"><ele>1998.6</ele><time>2026-05-23T20:11:57.000Z</time></trkpt>
        <trkpt lat="29.558899" lon="103.3438764"><ele>2000.37</ele><time>2026-05-23T20:12:03.000Z</time></trkpt>
        <trkpt lat="29.5589163" lon="103.3439424"><ele>2000.83</ele><time>2026-05-23T20:12:07.000Z</time></trkpt>
        <trkpt lat="29.5589268" lon="103.344001"><ele>2001.09</ele><time>2026-05-23T20:12:11.000Z</time></trkpt>
        <trkpt lat="29.5589363" lon="103.3440699"><ele>2001.76</ele><time>2026-05-23T20:12:17.000Z</time></trkpt>
        <trkpt lat="29.5589421" lon="103.3441366"><ele>2002.56</ele><time>2026-05-23T20:12:25.000Z</time></trkpt>
        <trkpt lat="29.5589081" lon="103.3441427"><ele>2003.4</ele><time>2026-05-23T20:12:33.000Z</time></trkpt>
        <trkpt lat="29.5589106" lon="103.3440966"><ele>2002.49</ele><time>2026-05-23T20:12:49.000Z</time></trkpt>
        <trkpt lat="29.5588951" lon="103.3441156"><ele>2004.05</ele><time>2026-05-23T20:13:17.000Z</time></trkpt>
        <trkpt lat="29.558893" lon="103.3441659"><ele>2006.05</ele><time>2026-05-23T20:13:27.000Z</time></trkpt>
        <trkpt lat="29.5588833" lon="103.344222"><ele>2009.01</ele><time>2026-05-23T20:13:57.000Z</time></trkpt>
        <trkpt lat="29.5588792" lon="103.3442811"><ele>2012.51</ele><time>2026-05-23T20:14:15.000Z</time></trkpt>
        <trkpt lat="29.5588596" lon="103.3443337"><ele>2015.5</ele><time>2026-05-23T20:14:27.000Z</time></trkpt>
        <trkpt lat="29.5588288" lon="103.3443156"><ele>2017.54</ele><time>2026-05-23T20:14:50.000Z</time></trkpt>
        <trkpt lat="29.5587873" lon="103.3443208"><ele>2018.89</ele><time>2026-05-23T20:14:58.000Z</time></trkpt>
        <trkpt lat="29.5587921" lon="103.3442733"><ele>2019.91</ele><time>2026-05-23T20:15:06.000Z</time></trkpt>
        <trkpt lat="29.5587791" lon="103.3442207"><ele>2019.87</ele><time>2026-05-23T20:15:12.000Z</time></trkpt>
        <trkpt lat="29.5587392" lon="103.3442086"><ele>2020.15</ele><time>2026-05-23T20:15:42.000Z</time></trkpt>
        <trkpt lat="29.5586932" lon="103.3441922"><ele>2020.23</ele><time>2026-05-23T20:15:58.000Z</time></trkpt>
        <trkpt lat="29.5586416" lon="103.3441852"><ele>2020.6</ele><time>2026-05-23T20:16:04.000Z</time></trkpt>
        <trkpt lat="29.5585905" lon="103.3441782"><ele>2020.74</ele><time>2026-05-23T20:16:18.000Z</time></trkpt>
        <trkpt lat="29.5585472" lon="103.3441508"><ele>2021.65</ele><time>2026-05-23T20:16:33.000Z</time></trkpt>
        <trkpt lat="29.5585012" lon="103.3441595"><ele>2022.61</ele><time>2026-05-23T20:16:43.000Z</time></trkpt>
        <trkpt lat="29.5584708" lon="103.3441307"><ele>2023.6</ele><time>2026-05-23T20:17:21.000Z</time></trkpt>
        <trkpt lat="29.5584268" lon="103.3441064"><ele>2025.73</ele><time>2026-05-23T20:17:51.000Z</time></trkpt>
        <trkpt lat="29.5583778" lon="103.3440843"><ele>2028.25</ele><time>2026-05-23T20:17:59.000Z</time></trkpt>
        <trkpt lat="29.5583968" lon="103.3441156"><ele>2030.04</ele><time>2026-05-23T20:18:07.000Z</time></trkpt>
        <trkpt lat="29.5584174" lon="103.3441291"><ele>2031</ele><time>2026-05-23T20:18:11.000Z</time></trkpt>
        <trkpt lat="29.5583922" lon="103.3441384"><ele>2031.89</ele><time>2026-05-23T20:18:23.000Z</time></trkpt>
        <trkpt lat="29.5583539" lon="103.3441144"><ele>2032.61</ele><time>2026-05-23T20:18:29.000Z</time></trkpt>
        <trkpt lat="29.5583044" lon="103.3440846"><ele>2033.39</ele><time>2026-05-23T20:18:39.000Z</time></trkpt>
        <trkpt lat="29.5582448" lon="103.3441007"><ele>2033.03</ele><time>2026-05-23T20:19:11.000Z</time></trkpt>
        <trkpt lat="29.5581963" lon="103.344056"><ele>2032.9</ele><time>2026-05-23T20:19:15.000Z</time></trkpt>
        <trkpt lat="29.5581672" lon="103.3439965"><ele>2034.1</ele><time>2026-05-23T20:19:19.000Z</time></trkpt>
        <trkpt lat="29.5581289" lon="103.3439569"><ele>2034.43</ele><time>2026-05-23T20:19:25.000Z</time></trkpt>
        <trkpt lat="29.5581033" lon="103.3439115"><ele>2034.02</ele><time>2026-05-23T20:19:31.000Z</time></trkpt>
        <trkpt lat="29.5580613" lon="103.3439131"><ele>2033.95</ele><time>2026-05-23T20:19:47.000Z</time></trkpt>
        <trkpt lat="29.5578477" lon="103.3439684"><ele>2031.19</ele><time>2026-05-23T20:19:57.000Z</time></trkpt>
        <trkpt lat="29.5577516" lon="103.3439607"><ele>2031.29</ele><time>2026-05-23T20:20:01.000Z</time></trkpt>
        <trkpt lat="29.5577266" lon="103.343999"><ele>2032.09</ele><time>2026-05-23T20:20:07.000Z</time></trkpt>
        <trkpt lat="29.5577266" lon="103.343999"><ele>2032.09</ele><time>2026-05-23T20:20:19.000Z</time></trkpt>
        <trkpt lat="29.5577266" lon="103.343999"><ele>2032.09</ele><time>2026-05-23T20:20:56.000Z</time></trkpt>
        <trkpt lat="29.5577266" lon="103.343999"><ele>2032.09</ele><time>2026-05-23T20:21:13.000Z</time></trkpt>
        <trkpt lat="29.5577266" lon="103.343999"><ele>2032.09</ele><time>2026-05-23T20:21:18.000Z</time></trkpt>
        <trkpt lat="29.5577266" lon="103.343999"><ele>2032.09</ele><time>2026-05-23T20:21:37.000Z</time></trkpt>
        <trkpt lat="29.5577266" lon="103.343999"><ele>2032.09</ele><time>2026-05-23T20:22:18.000Z</time></trkpt>
        <trkpt lat="29.5577266" lon="103.343999"><ele>2032.09</ele><time>2026-05-23T20:22:29.000Z</time></trkpt>
        <trkpt lat="29.5577006" lon="103.3439536"><ele>2033.09</ele><time>2026-05-23T20:22:40.000Z</time></trkpt>
        <trkpt lat="29.5577006" lon="103.3439536"><ele>2033.09</ele><time>2026-05-23T20:22:54.000Z</time></trkpt>
        <trkpt lat="29.5576811" lon="103.3440047"><ele>2029.01</ele><time>2026-05-23T20:22:58.000Z</time></trkpt>
        <trkpt lat="29.5576348" lon="103.3439975"><ele>2029.1</ele><time>2026-05-23T20:23:02.000Z</time></trkpt>
        <trkpt lat="29.5576021" lon="103.3439522"><ele>2031.86</ele><time>2026-05-23T20:23:08.000Z</time></trkpt>
        <trkpt lat="29.5575653" lon="103.3439116"><ele>2034.25</ele><time>2026-05-23T20:23:20.000Z</time></trkpt>
        <trkpt lat="29.5575294" lon="103.3438737"><ele>2036.81</ele><time>2026-05-23T20:23:28.000Z</time></trkpt>
        <trkpt lat="29.5575069" lon="103.3438159"><ele>2037.32</ele><time>2026-05-23T20:23:34.000Z</time></trkpt>
        <trkpt lat="29.5575058" lon="103.3437588"><ele>2037.2</ele><time>2026-05-23T20:23:38.000Z</time></trkpt>
        <trkpt lat="29.5574763" lon="103.3437175"><ele>2036.52</ele><time>2026-05-23T20:23:44.000Z</time></trkpt>
        <trkpt lat="29.5574322" lon="103.3436997"><ele>2035.9</ele><time>2026-05-23T20:23:50.000Z</time></trkpt>
        <trkpt lat="29.5573807" lon="103.3436722"><ele>2035.14</ele><time>2026-05-23T20:23:56.000Z</time></trkpt>
        <trkpt lat="29.5573322" lon="103.3436474"><ele>2034.23</ele><time>2026-05-23T20:24:16.000Z</time></trkpt>
        <trkpt lat="29.5573322" lon="103.3436474"><ele>2034.23</ele><time>2026-05-23T20:24:47.000Z</time></trkpt>
        <trkpt lat="29.5572767" lon="103.3436274"><ele>2034.01</ele><time>2026-05-23T20:24:48.000Z</time></trkpt>
        <trkpt lat="29.5572767" lon="103.3436274"><ele>2034.01</ele><time>2026-05-23T20:24:52.000Z</time></trkpt>
        <trkpt lat="29.5572767" lon="103.3436274"><ele>2034.01</ele><time>2026-05-23T20:25:09.000Z</time></trkpt>
        <trkpt lat="29.5572285" lon="103.3436096"><ele>2035.41</ele><time>2026-05-23T20:25:12.000Z</time></trkpt>
        <trkpt lat="29.5572285" lon="103.3436096"><ele>2035.41</ele><time>2026-05-23T20:25:41.000Z</time></trkpt>
        <trkpt lat="29.5571818" lon="103.3436089"><ele>2038.5</ele><time>2026-05-23T20:26:09.000Z</time></trkpt>
        <trkpt lat="29.5571367" lon="103.3435995"><ele>2040.07</ele><time>2026-05-23T20:26:17.000Z</time></trkpt>
        <trkpt lat="29.5571367" lon="103.3435995"><ele>2040.07</ele><time>2026-05-23T20:26:49.000Z</time></trkpt>
        <trkpt lat="29.5570898" lon="103.3436191"><ele>2041.54</ele><time>2026-05-23T20:26:56.000Z</time></trkpt>
        <trkpt lat="29.5570898" lon="103.3436191"><ele>2041.54</ele><time>2026-05-23T20:27:01.000Z</time></trkpt>
        <trkpt lat="29.5570487" lon="103.3436476"><ele>2044.87</ele><time>2026-05-23T20:27:13.000Z</time></trkpt>
        <trkpt lat="29.5570103" lon="103.3436783"><ele>2047.18</ele><time>2026-05-23T20:27:33.000Z</time></trkpt>
        <trkpt lat="29.5570103" lon="103.3436783"><ele>2047.18</ele><time>2026-05-23T20:27:33.000Z</time></trkpt>
        <trkpt lat="29.5569582" lon="103.3436989"><ele>2050.57</ele><time>2026-05-23T20:27:36.000Z</time></trkpt>
        <trkpt lat="29.5569582" lon="103.3436989"><ele>2050.57</ele><time>2026-05-23T20:27:45.000Z</time></trkpt>
        <trkpt lat="29.5569126" lon="103.3437268"><ele>2053.01</ele><time>2026-05-23T20:27:59.000Z</time></trkpt>
        <trkpt lat="29.5568663" lon="103.3437494"><ele>2055.14</ele><time>2026-05-23T20:28:13.000Z</time></trkpt>
        <trkpt lat="29.5568174" lon="103.3437482"><ele>2057.31</ele><time>2026-05-23T20:28:43.000Z</time></trkpt>
        <trkpt lat="29.5568174" lon="103.3437482"><ele>2057.31</ele><time>2026-05-23T20:29:01.000Z</time></trkpt>
        <trkpt lat="29.5567557" lon="103.3437175"><ele>2058.96</ele><time>2026-05-23T20:29:02.000Z</time></trkpt>
        <trkpt lat="29.5567557" lon="103.3437175"><ele>2058.96</ele><time>2026-05-23T20:29:06.000Z</time></trkpt>
        <trkpt lat="29.5567082" lon="103.3437268"><ele>2061.87</ele><time>2026-05-23T20:29:26.000Z</time></trkpt>
        <trkpt lat="29.5566682" lon="103.3437554"><ele>2065.68</ele><time>2026-05-23T20:29:36.000Z</time></trkpt>
        <trkpt lat="29.5566283" lon="103.3437847"><ele>2068.4</ele><time>2026-05-23T20:30:10.000Z</time></trkpt>
        <trkpt lat="29.5566283" lon="103.3437847"><ele>2068.4</ele><time>2026-05-23T20:30:21.000Z</time></trkpt>
        <trkpt lat="29.556591" lon="103.3438165"><ele>2070.21</ele><time>2026-05-23T20:30:30.000Z</time></trkpt>
        <trkpt lat="29.556591" lon="103.3438165"><ele>2070.21</ele><time>2026-05-23T20:30:41.000Z</time></trkpt>
        <trkpt lat="29.5565742" lon="103.3438659"><ele>2073.33</ele><time>2026-05-23T20:31:01.000Z</time></trkpt>
        <trkpt lat="29.5565495" lon="103.3439202"><ele>2075.82</ele><time>2026-05-23T20:31:23.000Z</time></trkpt>
        <trkpt lat="29.5565495" lon="103.3439202"><ele>2075.82</ele><time>2026-05-23T20:31:51.000Z</time></trkpt>
        <trkpt lat="29.5565341" lon="103.3439754"><ele>2077.49</ele><time>2026-05-23T20:31:52.000Z</time></trkpt>
        <trkpt lat="29.5565341" lon="103.3439754"><ele>2077.49</ele><time>2026-05-23T20:32:04.000Z</time></trkpt>
        <trkpt lat="29.5565341" lon="103.3439754"><ele>2077.49</ele><time>2026-05-23T20:32:15.000Z</time></trkpt>
        <trkpt lat="29.5565341" lon="103.3439754"><ele>2077.49</ele><time>2026-05-23T20:32:22.000Z</time></trkpt>
        <trkpt lat="29.5565341" lon="103.3439754"><ele>2077.49</ele><time>2026-05-23T20:32:35.000Z</time></trkpt>
        <trkpt lat="29.5565411" lon="103.3440306"><ele>2079.06</ele><time>2026-05-23T20:32:38.000Z</time></trkpt>
        <trkpt lat="29.5565411" lon="103.3440306"><ele>2079.06</ele><time>2026-05-23T20:32:49.000Z</time></trkpt>
        <trkpt lat="29.5565336" lon="103.3440894"><ele>2082.51</ele><time>2026-05-23T20:33:05.000Z</time></trkpt>
        <trkpt lat="29.556507" lon="103.3441424"><ele>2086.24</ele><time>2026-05-23T20:33:21.000Z</time></trkpt>
        <trkpt lat="29.556507" lon="103.3441424"><ele>2086.24</ele><time>2026-05-23T20:33:37.000Z</time></trkpt>
        <trkpt lat="29.5564661" lon="103.34418"><ele>2089.24</ele><time>2026-05-23T20:33:50.000Z</time></trkpt>
        <trkpt lat="29.5564661" lon="103.34418"><ele>2089.24</ele><time>2026-05-23T20:34:03.000Z</time></trkpt>
        <trkpt lat="29.5564108" lon="103.3442125"><ele>2092.28</ele><time>2026-05-23T20:34:11.000Z</time></trkpt>
        <trkpt lat="29.5563542" lon="103.3442259"><ele>2094.57</ele><time>2026-05-23T20:34:21.000Z</time></trkpt>
        <trkpt lat="29.556306" lon="103.3442413"><ele>2096.22</ele><time>2026-05-23T20:34:29.000Z</time></trkpt>
        <trkpt lat="29.5562643" lon="103.3442672"><ele>2097.19</ele><time>2026-05-23T20:34:55.000Z</time></trkpt>
        <trkpt lat="29.5562643" lon="103.3442672"><ele>2097.19</ele><time>2026-05-23T20:35:13.000Z</time></trkpt>
        <trkpt lat="29.5562487" lon="103.3443151"><ele>2099.5</ele><time>2026-05-23T20:35:14.000Z</time></trkpt>
        <trkpt lat="29.5562487" lon="103.3443151"><ele>2099.5</ele><time>2026-05-23T20:35:20.000Z</time></trkpt>
        <trkpt lat="29.5562487" lon="103.3443151"><ele>2099.5</ele><time>2026-05-23T20:35:27.000Z</time></trkpt>
        <trkpt lat="29.556219" lon="103.3443629"><ele>2103.44</ele><time>2026-05-23T20:35:30.000Z</time></trkpt>
        <trkpt lat="29.556219" lon="103.3443629"><ele>2103.44</ele><time>2026-05-23T20:35:45.000Z</time></trkpt>
        <trkpt lat="29.55619" lon="103.344415"><ele>2105.82</ele><time>2026-05-23T20:36:01.000Z</time></trkpt>
        <trkpt lat="29.5561521" lon="103.3444508"><ele>2106.07</ele><time>2026-05-23T20:36:39.000Z</time></trkpt>
        <trkpt lat="29.5561255" lon="103.3444939"><ele>2106.9</ele><time>2026-05-23T20:36:49.000Z</time></trkpt>
        <trkpt lat="29.556095" lon="103.3445339"><ele>2107.52</ele><time>2026-05-23T20:37:03.000Z</time></trkpt>
        <trkpt lat="29.5560588" lon="103.3445713"><ele>2109.16</ele><time>2026-05-23T20:37:29.000Z</time></trkpt>
        <trkpt lat="29.5560196" lon="103.3446088"><ele>2111.13</ele><time>2026-05-23T20:37:39.000Z</time></trkpt>
        <trkpt lat="29.5559916" lon="103.3446515"><ele>2112.2</ele><time>2026-05-23T20:38:07.000Z</time></trkpt>
        <trkpt lat="29.5559816" lon="103.3447068"><ele>2114.83</ele><time>2026-05-23T20:38:23.000Z</time></trkpt>
        <trkpt lat="29.5559562" lon="103.3447524"><ele>2115.89</ele><time>2026-05-23T20:38:53.000Z</time></trkpt>
        <trkpt lat="29.5559562" lon="103.3447524"><ele>2115.89</ele><time>2026-05-23T20:39:15.000Z</time></trkpt>
        <trkpt lat="29.5559362" lon="103.3448026"><ele>2117.43</ele><time>2026-05-23T20:39:22.000Z</time></trkpt>
        <trkpt lat="29.5559362" lon="103.3448026"><ele>2117.43</ele><time>2026-05-23T20:39:33.000Z</time></trkpt>
        <trkpt lat="29.5559218" lon="103.3448537"><ele>2119.92</ele><time>2026-05-23T20:39:41.000Z</time></trkpt>
        <trkpt lat="29.5558995" lon="103.3449047"><ele>2123.02</ele><time>2026-05-23T20:39:53.000Z</time></trkpt>
        <trkpt lat="29.5558694" lon="103.3449485"><ele>2124.4</ele><time>2026-05-23T20:40:05.000Z</time></trkpt>
        <trkpt lat="29.5558265" lon="103.3449633"><ele>2125.17</ele><time>2026-05-23T20:40:15.000Z</time></trkpt>
        <trkpt lat="29.5557739" lon="103.3449654"><ele>2125.99</ele><time>2026-05-23T20:40:25.000Z</time></trkpt>
        <trkpt lat="29.5557739" lon="103.3449654"><ele>2125.99</ele><time>2026-05-23T20:40:41.000Z</time></trkpt>
        <trkpt lat="29.5557177" lon="103.3449729"><ele>2127.72</ele><time>2026-05-23T20:40:44.000Z</time></trkpt>
        <trkpt lat="29.5557177" lon="103.3449729"><ele>2127.72</ele><time>2026-05-23T20:40:50.000Z</time></trkpt>
        <trkpt lat="29.5557177" lon="103.3449729"><ele>2127.72</ele><time>2026-05-23T20:41:17.000Z</time></trkpt>
        <trkpt lat="29.5557177" lon="103.3449729"><ele>2127.72</ele><time>2026-05-23T20:41:18.000Z</time></trkpt>
        <trkpt lat="29.5557177" lon="103.3449729"><ele>2127.72</ele><time>2026-05-23T20:41:31.000Z</time></trkpt>
        <trkpt lat="29.5556719" lon="103.3449454"><ele>2127.24</ele><time>2026-05-23T20:41:32.000Z</time></trkpt>
        <trkpt lat="29.5556719" lon="103.3449454"><ele>2127.24</ele><time>2026-05-23T20:41:38.000Z</time></trkpt>
        <trkpt lat="29.5556219" lon="103.3449379"><ele>2131.54</ele><time>2026-05-23T20:41:54.000Z</time></trkpt>
        <trkpt lat="29.5555703" lon="103.3449512"><ele>2134.97</ele><time>2026-05-23T20:42:10.000Z</time></trkpt>
        <trkpt lat="29.5555407" lon="103.3449974"><ele>2139.66</ele><time>2026-05-23T20:42:32.000Z</time></trkpt>
        <trkpt lat="29.5555095" lon="103.3450529"><ele>2143.18</ele><time>2026-05-23T20:42:48.000Z</time></trkpt>
        <trkpt lat="29.5554717" lon="103.3450913"><ele>2146.61</ele><time>2026-05-23T20:43:12.000Z</time></trkpt>
        <trkpt lat="29.5554717" lon="103.3450913"><ele>2146.61</ele><time>2026-05-23T20:43:43.000Z</time></trkpt>
        <trkpt lat="29.5554294" lon="103.3451235"><ele>2148.53</ele><time>2026-05-23T20:43:46.000Z</time></trkpt>
        <trkpt lat="29.5554294" lon="103.3451235"><ele>2148.53</ele><time>2026-05-23T20:43:57.000Z</time></trkpt>
        <trkpt lat="29.5554294" lon="103.3451235"><ele>2148.53</ele><time>2026-05-23T20:44:07.000Z</time></trkpt>
        <trkpt lat="29.5553849" lon="103.3451123"><ele>2150.59</ele><time>2026-05-23T20:44:16.000Z</time></trkpt>
        <trkpt lat="29.5553849" lon="103.3451123"><ele>2150.59</ele><time>2026-05-23T20:44:29.000Z</time></trkpt>
        <trkpt lat="29.5553529" lon="103.345072"><ele>2151.68</ele><time>2026-05-23T20:44:45.000Z</time></trkpt>
        <trkpt lat="29.5553245" lon="103.3450229"><ele>2152.4</ele><time>2026-05-23T20:44:55.000Z</time></trkpt>
        <trkpt lat="29.5552849" lon="103.3449953"><ele>2153.66</ele><time>2026-05-23T20:45:03.000Z</time></trkpt>
        <trkpt lat="29.5552398" lon="103.3449857"><ele>2154.82</ele><time>2026-05-23T20:45:11.000Z</time></trkpt>
        <trkpt lat="29.5552153" lon="103.345026"><ele>2156.4</ele><time>2026-05-23T20:45:31.000Z</time></trkpt>
        <trkpt lat="29.5551948" lon="103.3450785"><ele>2157.42</ele><time>2026-05-23T20:45:45.000Z</time></trkpt>
        <trkpt lat="29.5551508" lon="103.3451122"><ele>2158.53</ele><time>2026-05-23T20:45:53.000Z</time></trkpt>
        <trkpt lat="29.5551007" lon="103.3451361"><ele>2158.69</ele><time>2026-05-23T20:46:01.000Z</time></trkpt>
        <trkpt lat="29.5550488" lon="103.3451643"><ele>2158.98</ele><time>2026-05-23T20:46:09.000Z</time></trkpt>
        <trkpt lat="29.5549918" lon="103.3451749"><ele>2159.35</ele><time>2026-05-23T20:46:19.000Z</time></trkpt>
        <trkpt lat="29.5549419" lon="103.3451707"><ele>2161.55</ele><time>2026-05-23T20:46:41.000Z</time></trkpt>
        <trkpt lat="29.554896" lon="103.3451599"><ele>2162.28</ele><time>2026-05-23T20:47:01.000Z</time></trkpt>
        <trkpt lat="29.5548606" lon="103.3451829"><ele>2164.66</ele><time>2026-05-23T20:47:13.000Z</time></trkpt>
        <trkpt lat="29.5548451" lon="103.3452302"><ele>2166.48</ele><time>2026-05-23T20:47:33.000Z</time></trkpt>
        <trkpt lat="29.5548228" lon="103.3452802"><ele>2167.71</ele><time>2026-05-23T20:47:53.000Z</time></trkpt>
        <trkpt lat="29.5548228" lon="103.3452802"><ele>2167.71</ele><time>2026-05-23T20:48:15.000Z</time></trkpt>
        <trkpt lat="29.5547775" lon="103.3453"><ele>2168.73</ele><time>2026-05-23T20:48:18.000Z</time></trkpt>
        <trkpt lat="29.5547775" lon="103.3453"><ele>2168.73</ele><time>2026-05-23T20:48:21.000Z</time></trkpt>
        <trkpt lat="29.5547282" lon="103.345311"><ele>2169.98</ele><time>2026-05-23T20:48:49.000Z</time></trkpt>
        <trkpt lat="29.5546777" lon="103.3453263"><ele>2175.33</ele><time>2026-05-23T20:49:09.000Z</time></trkpt>
        <trkpt lat="29.5546777" lon="103.3453263"><ele>2175.33</ele><time>2026-05-23T20:49:19.000Z</time></trkpt>
        <trkpt lat="29.5546279" lon="103.3453381"><ele>2177.54</ele><time>2026-05-23T20:49:24.000Z</time></trkpt>
        <trkpt lat="29.5546279" lon="103.3453381"><ele>2177.54</ele><time>2026-05-23T20:49:33.000Z</time></trkpt>
        <trkpt lat="29.5545844" lon="103.3453574"><ele>2180.18</ele><time>2026-05-23T20:49:53.000Z</time></trkpt>
        <trkpt lat="29.5545844" lon="103.3453574"><ele>2180.18</ele><time>2026-05-23T20:49:59.000Z</time></trkpt>
        <trkpt lat="29.5545396" lon="103.3453688"><ele>2181.94</ele><time>2026-05-23T20:50:02.000Z</time></trkpt>
        <trkpt lat="29.5545396" lon="103.3453688"><ele>2181.94</ele><time>2026-05-23T20:50:23.000Z</time></trkpt>
        <trkpt lat="29.5545396" lon="103.3453688"><ele>2181.94</ele><time>2026-05-23T20:50:39.000Z</time></trkpt>
        <trkpt lat="29.5544937" lon="103.3453767"><ele>2184.12</ele><time>2026-05-23T20:50:46.000Z</time></trkpt>
        <trkpt lat="29.5544937" lon="103.3453767"><ele>2184.12</ele><time>2026-05-23T20:50:51.000Z</time></trkpt>
        <trkpt lat="29.5544937" lon="103.3453767"><ele>2184.12</ele><time>2026-05-23T20:50:59.000Z</time></trkpt>
        <trkpt lat="29.5544483" lon="103.3453905"><ele>2185.49</ele><time>2026-05-23T20:51:06.000Z</time></trkpt>
        <trkpt lat="29.5544483" lon="103.3453905"><ele>2185.49</ele><time>2026-05-23T20:51:31.000Z</time></trkpt>
        <trkpt lat="29.5544483" lon="103.3453905"><ele>2185.49</ele><time>2026-05-23T20:51:39.000Z</time></trkpt>
        <trkpt lat="29.5543981" lon="103.3453865"><ele>2187.98</ele><time>2026-05-23T20:51:42.000Z</time></trkpt>
        <trkpt lat="29.5543981" lon="103.3453865"><ele>2187.98</ele><time>2026-05-23T20:51:59.000Z</time></trkpt>
        <trkpt lat="29.5543483" lon="103.3453996"><ele>2189.69</ele><time>2026-05-23T20:52:23.000Z</time></trkpt>
        <trkpt lat="29.5543483" lon="103.3453996"><ele>2189.69</ele><time>2026-05-23T20:52:39.000Z</time></trkpt>
        <trkpt lat="29.5542941" lon="103.3454277"><ele>2191.96</ele><time>2026-05-23T20:52:52.000Z</time></trkpt>
        <trkpt lat="29.5542941" lon="103.3454277"><ele>2191.96</ele><time>2026-05-23T20:52:57.000Z</time></trkpt>
        <trkpt lat="29.5542476" lon="103.3454488"><ele>2193.36</ele><time>2026-05-23T20:53:37.000Z</time></trkpt>
        <trkpt lat="29.5541951" lon="103.3454813"><ele>2198.28</ele><time>2026-05-23T20:54:55.000Z</time></trkpt>
        <trkpt lat="29.5541384" lon="103.3455009"><ele>2202.11</ele><time>2026-05-23T20:55:03.000Z</time></trkpt>
        <trkpt lat="29.5541207" lon="103.3455494"><ele>2205.06</ele><time>2026-05-23T20:55:07.000Z</time></trkpt>
        <trkpt lat="29.5541184" lon="103.3455684"><ele>2206.5</ele><time>2026-05-23T20:55:09.000Z</time></trkpt>
        <trkpt lat="29.5540703" lon="103.3455356"><ele>2207.65</ele><time>2026-05-23T20:55:17.000Z</time></trkpt>
        <trkpt lat="29.5540149" lon="103.3455215"><ele>2208.38</ele><time>2026-05-23T20:55:23.000Z</time></trkpt>
        <trkpt lat="29.5539638" lon="103.3454947"><ele>2209.65</ele><time>2026-05-23T20:55:33.000Z</time></trkpt>
        <trkpt lat="29.5539155" lon="103.3454582"><ele>2209.74</ele><time>2026-05-23T20:55:57.000Z</time></trkpt>
        <trkpt lat="29.5538788" lon="103.3454098"><ele>2211.26</ele><time>2026-05-23T20:56:07.000Z</time></trkpt>
        <trkpt lat="29.553838" lon="103.3453802"><ele>2212.95</ele><time>2026-05-23T20:56:23.000Z</time></trkpt>
        <trkpt lat="29.5538" lon="103.345348"><ele>2213.54</ele><time>2026-05-23T20:56:41.000Z</time></trkpt>
        <trkpt lat="29.553757" lon="103.3453496"><ele>2216.33</ele><time>2026-05-23T20:56:51.000Z</time></trkpt>
        <trkpt lat="29.553707" lon="103.3453366"><ele>2217.09</ele><time>2026-05-23T20:57:07.000Z</time></trkpt>
        <trkpt lat="29.553707" lon="103.3453366"><ele>2217.09</ele><time>2026-05-23T20:57:25.000Z</time></trkpt>
        <trkpt lat="29.5536511" lon="103.3453204"><ele>2218.02</ele><time>2026-05-23T20:57:28.000Z</time></trkpt>
        <trkpt lat="29.5536511" lon="103.3453204"><ele>2218.02</ele><time>2026-05-23T20:57:31.000Z</time></trkpt>
        <trkpt lat="29.5535838" lon="103.3453193"><ele>2219</ele><time>2026-05-23T20:57:35.000Z</time></trkpt>
        <trkpt lat="29.5535312" lon="103.3453342"><ele>2216.44</ele><time>2026-05-23T20:57:55.000Z</time></trkpt>
        <trkpt lat="29.5534837" lon="103.3453446"><ele>2220.63</ele><time>2026-05-23T20:58:03.000Z</time></trkpt>
        <trkpt lat="29.5534366" lon="103.3453525"><ele>2223.4</ele><time>2026-05-23T20:58:11.000Z</time></trkpt>
        <trkpt lat="29.5533883" lon="103.3453599"><ele>2225.62</ele><time>2026-05-23T20:58:19.000Z</time></trkpt>
        <trkpt lat="29.5533421" lon="103.3453807"><ele>2228.08</ele><time>2026-05-23T20:58:33.000Z</time></trkpt>
        <trkpt lat="29.5532947" lon="103.3453974"><ele>2229.83</ele><time>2026-05-23T20:58:41.000Z</time></trkpt>
        <trkpt lat="29.5532492" lon="103.3454106"><ele>2231.65</ele><time>2026-05-23T20:58:47.000Z</time></trkpt>
        <trkpt lat="29.5532036" lon="103.3454127"><ele>2232.1</ele><time>2026-05-23T20:58:53.000Z</time></trkpt>
        <trkpt lat="29.5531488" lon="103.3454061"><ele>2231.96</ele><time>2026-05-23T20:58:59.000Z</time></trkpt>
        <trkpt lat="29.5530866" lon="103.3453934"><ele>2232.16</ele><time>2026-05-23T20:59:05.000Z</time></trkpt>
        <trkpt lat="29.5530363" lon="103.3453959"><ele>2232.41</ele><time>2026-05-23T20:59:09.000Z</time></trkpt>
        <trkpt lat="29.5529807" lon="103.3454163"><ele>2232.09</ele><time>2026-05-23T20:59:15.000Z</time></trkpt>
        <trkpt lat="29.5529313" lon="103.3454396"><ele>2232.48</ele><time>2026-05-23T20:59:19.000Z</time></trkpt>
        <trkpt lat="29.5528787" lon="103.3454563"><ele>2232.73</ele><time>2026-05-23T20:59:25.000Z</time></trkpt>
        <trkpt lat="29.5528171" lon="103.3454561"><ele>2232.73</ele><time>2026-05-23T20:59:31.000Z</time></trkpt>
        <trkpt lat="29.5527658" lon="103.3454507"><ele>2234.01</ele><time>2026-05-23T20:59:35.000Z</time></trkpt>
        <trkpt lat="29.552713" lon="103.3454371"><ele>2234.03</ele><time>2026-05-23T20:59:41.000Z</time></trkpt>
        <trkpt lat="29.5526601" lon="103.3454328"><ele>2235.04</ele><time>2026-05-23T20:59:47.000Z</time></trkpt>
        <trkpt lat="29.5526021" lon="103.3454503"><ele>2235.39</ele><time>2026-05-23T20:59:53.000Z</time></trkpt>
        <trkpt lat="29.5525509" lon="103.3454738"><ele>2234.45</ele><time>2026-05-23T20:59:59.000Z</time></trkpt>
        <trkpt lat="29.5525026" lon="103.3454849"><ele>2234.6</ele><time>2026-05-23T21:00:05.000Z</time></trkpt>
        <trkpt lat="29.5524563" lon="103.3454919"><ele>2233.62</ele><time>2026-05-23T21:00:09.000Z</time></trkpt>
        <trkpt lat="29.5524097" lon="103.345479"><ele>2233.45</ele><time>2026-05-23T21:00:13.000Z</time></trkpt>
        <trkpt lat="29.5523888" lon="103.3454158"><ele>2234.12</ele><time>2026-05-23T21:00:19.000Z</time></trkpt>
        <trkpt lat="29.5524073" lon="103.3453595"><ele>2234.48</ele><time>2026-05-23T21:00:23.000Z</time></trkpt>
        <trkpt lat="29.5524084" lon="103.345295"><ele>2234.74</ele><time>2026-05-23T21:00:29.000Z</time></trkpt>
        <trkpt lat="29.5523861" lon="103.3452385"><ele>2235.5</ele><time>2026-05-23T21:00:37.000Z</time></trkpt>
        <trkpt lat="29.5523423" lon="103.3451997"><ele>2236.02</ele><time>2026-05-23T21:00:45.000Z</time></trkpt>
        <trkpt lat="29.5522811" lon="103.3451862"><ele>2237.47</ele><time>2026-05-23T21:00:51.000Z</time></trkpt>
        <trkpt lat="29.5522213" lon="103.345174"><ele>2238.53</ele><time>2026-05-23T21:00:55.000Z</time></trkpt>
        <trkpt lat="29.5521689" lon="103.3451706"><ele>2239</ele><time>2026-05-23T21:00:59.000Z</time></trkpt>
        <trkpt lat="29.5521135" lon="103.3451551"><ele>2238.54</ele><time>2026-05-23T21:01:05.000Z</time></trkpt>
        <trkpt lat="29.5520587" lon="103.3451217"><ele>2238.85</ele><time>2026-05-23T21:01:11.000Z</time></trkpt>
        <trkpt lat="29.5520082" lon="103.3450713"><ele>2238.84</ele><time>2026-05-23T21:01:17.000Z</time></trkpt>
        <trkpt lat="29.551996" lon="103.3449982"><ele>2239.66</ele><time>2026-05-23T21:01:23.000Z</time></trkpt>
        <trkpt lat="29.5519805" lon="103.3449362"><ele>2238.99</ele><time>2026-05-23T21:01:27.000Z</time></trkpt>
        <trkpt lat="29.5519655" lon="103.3448791"><ele>2237.5</ele><time>2026-05-23T21:01:31.000Z</time></trkpt>
        <trkpt lat="29.5519479" lon="103.3448276"><ele>2236.93</ele><time>2026-05-23T21:01:35.000Z</time></trkpt>
        <trkpt lat="29.5519198" lon="103.3447769"><ele>2235.32</ele><time>2026-05-23T21:01:39.000Z</time></trkpt>
        <trkpt lat="29.5518886" lon="103.3447304"><ele>2234.56</ele><time>2026-05-23T21:01:43.000Z</time></trkpt>
        <trkpt lat="29.5518527" lon="103.3446834"><ele>2233.34</ele><time>2026-05-23T21:01:47.000Z</time></trkpt>
        <trkpt lat="29.551819" lon="103.3446398"><ele>2232.27</ele><time>2026-05-23T21:01:51.000Z</time></trkpt>
        <trkpt lat="29.5517898" lon="103.3445943"><ele>2232.04</ele><time>2026-05-23T21:01:55.000Z</time></trkpt>
        <trkpt lat="29.551752" lon="103.3445495"><ele>2231.06</ele><time>2026-05-23T21:02:01.000Z</time></trkpt>
        <trkpt lat="29.5517162" lon="103.3444999"><ele>2231.62</ele><time>2026-05-23T21:02:07.000Z</time></trkpt>
        <trkpt lat="29.5516816" lon="103.3444446"><ele>2232.24</ele><time>2026-05-23T21:02:13.000Z</time></trkpt>
        <trkpt lat="29.5516481" lon="103.3443989"><ele>2232.23</ele><time>2026-05-23T21:02:17.000Z</time></trkpt>
        <trkpt lat="29.5516037" lon="103.3443514"><ele>2231.61</ele><time>2026-05-23T21:02:23.000Z</time></trkpt>
        <trkpt lat="29.5515607" lon="103.344303"><ele>2230.99</ele><time>2026-05-23T21:02:29.000Z</time></trkpt>
        <trkpt lat="29.5515178" lon="103.3442769"><ele>2229.99</ele><time>2026-05-23T21:02:37.000Z</time></trkpt>
        <trkpt lat="29.551471" lon="103.3442557"><ele>2229.56</ele><time>2026-05-23T21:02:43.000Z</time></trkpt>
        <trkpt lat="29.5514152" lon="103.3442353"><ele>2229.38</ele><time>2026-05-23T21:02:51.000Z</time></trkpt>
        <trkpt lat="29.5513596" lon="103.3442187"><ele>2230.09</ele><time>2026-05-23T21:02:57.000Z</time></trkpt>
        <trkpt lat="29.5513114" lon="103.3442002"><ele>2230.65</ele><time>2026-05-23T21:03:01.000Z</time></trkpt>
        <trkpt lat="29.551254" lon="103.3441802"><ele>2230.14</ele><time>2026-05-23T21:03:05.000Z</time></trkpt>
        <trkpt lat="29.5511774" lon="103.3441789"><ele>2228.45</ele><time>2026-05-23T21:03:09.000Z</time></trkpt>
        <trkpt lat="29.5511118" lon="103.344211"><ele>2226.43</ele><time>2026-05-23T21:03:13.000Z</time></trkpt>
        <trkpt lat="29.5510532" lon="103.3442008"><ele>2225.74</ele><time>2026-05-23T21:03:17.000Z</time></trkpt>
        <trkpt lat="29.5510039" lon="103.3441693"><ele>2225.95</ele><time>2026-05-23T21:03:21.000Z</time></trkpt>
        <trkpt lat="29.5509536" lon="103.3441407"><ele>2225.53</ele><time>2026-05-23T21:03:25.000Z</time></trkpt>
        <trkpt lat="29.550894" lon="103.3441349"><ele>2225.17</ele><time>2026-05-23T21:03:31.000Z</time></trkpt>
        <trkpt lat="29.5508426" lon="103.3441312"><ele>2224.89</ele><time>2026-05-23T21:03:37.000Z</time></trkpt>
        <trkpt lat="29.5507893" lon="103.3441029"><ele>2224.7</ele><time>2026-05-23T21:03:43.000Z</time></trkpt>
        <trkpt lat="29.5507547" lon="103.344053"><ele>2223.48</ele><time>2026-05-23T21:03:47.000Z</time></trkpt>
        <trkpt lat="29.5507231" lon="103.3439911"><ele>2223.95</ele><time>2026-05-23T21:03:53.000Z</time></trkpt>
        <trkpt lat="29.5506693" lon="103.3439561"><ele>2225.44</ele><time>2026-05-23T21:03:59.000Z</time></trkpt>
        <trkpt lat="29.5506214" lon="103.3439367"><ele>2226.98</ele><time>2026-05-23T21:04:03.000Z</time></trkpt>
        <trkpt lat="29.5505855" lon="103.3439048"><ele>2228.46</ele><time>2026-05-23T21:04:07.000Z</time></trkpt>
        <trkpt lat="29.5505489" lon="103.343861"><ele>2228.75</ele><time>2026-05-23T21:04:11.000Z</time></trkpt>
        <trkpt lat="29.5505107" lon="103.3438155"><ele>2229.31</ele><time>2026-05-23T21:04:15.000Z</time></trkpt>
        <trkpt lat="29.5504777" lon="103.3437688"><ele>2228.64</ele><time>2026-05-23T21:04:19.000Z</time></trkpt>
        <trkpt lat="29.5504454" lon="103.3437282"><ele>2228.14</ele><time>2026-05-23T21:04:23.000Z</time></trkpt>
        <trkpt lat="29.5504001" lon="103.3436896"><ele>2228.24</ele><time>2026-05-23T21:04:29.000Z</time></trkpt>
        <trkpt lat="29.5503541" lon="103.3436442"><ele>2229.27</ele><time>2026-05-23T21:04:35.000Z</time></trkpt>
        <trkpt lat="29.5503188" lon="103.3435867"><ele>2229.98</ele><time>2026-05-23T21:04:41.000Z</time></trkpt>
        <trkpt lat="29.5502884" lon="103.3435382"><ele>2231.05</ele><time>2026-05-23T21:04:45.000Z</time></trkpt>
        <trkpt lat="29.5502697" lon="103.3434828"><ele>2230.94</ele><time>2026-05-23T21:04:49.000Z</time></trkpt>
        <trkpt lat="29.5502507" lon="103.3434305"><ele>2231.32</ele><time>2026-05-23T21:04:53.000Z</time></trkpt>
        <trkpt lat="29.5502201" lon="103.3433674"><ele>2231.85</ele><time>2026-05-23T21:04:59.000Z</time></trkpt>
        <trkpt lat="29.5501888" lon="103.3433186"><ele>2231.62</ele><time>2026-05-23T21:05:03.000Z</time></trkpt>
        <trkpt lat="29.5501559" lon="103.3432785"><ele>2230.89</ele><time>2026-05-23T21:05:07.000Z</time></trkpt>
        <trkpt lat="29.5501209" lon="103.3432392"><ele>2230.61</ele><time>2026-05-23T21:05:11.000Z</time></trkpt>
        <trkpt lat="29.5500747" lon="103.3431965"><ele>2231.42</ele><time>2026-05-23T21:05:17.000Z</time></trkpt>
        <trkpt lat="29.5500562" lon="103.3431813"><ele>2232.16</ele><time>2026-05-23T21:05:19.000Z</time></trkpt>
        <trkpt lat="29.5500303" lon="103.3431485"><ele>2232.61</ele><time>2026-05-23T21:05:27.000Z</time></trkpt>
        <trkpt lat="29.5499952" lon="103.3431151"><ele>2232.76</ele><time>2026-05-23T21:05:33.000Z</time></trkpt>
        <trkpt lat="29.5499675" lon="103.3430709"><ele>2232.85</ele><time>2026-05-23T21:05:39.000Z</time></trkpt>
        <trkpt lat="29.5499363" lon="103.3430188"><ele>2233.06</ele><time>2026-05-23T21:05:45.000Z</time></trkpt>
        <trkpt lat="29.5499039" lon="103.3429554"><ele>2233.99</ele><time>2026-05-23T21:05:51.000Z</time></trkpt>
        <trkpt lat="29.5498684" lon="103.3428909"><ele>2235.35</ele><time>2026-05-23T21:05:57.000Z</time></trkpt>
        <trkpt lat="29.5498417" lon="103.3428205"><ele>2234.77</ele><time>2026-05-23T21:06:03.000Z</time></trkpt>
        <trkpt lat="29.5498085" lon="103.3427704"><ele>2234.57</ele><time>2026-05-23T21:06:07.000Z</time></trkpt>
        <trkpt lat="29.5497805" lon="103.3427272"><ele>2234.79</ele><time>2026-05-23T21:06:11.000Z</time></trkpt>
        <trkpt lat="29.5497471" lon="103.3426698"><ele>2234.88</ele><time>2026-05-23T21:06:17.000Z</time></trkpt>
        <trkpt lat="29.5497139" lon="103.3426227"><ele>2234.58</ele><time>2026-05-23T21:06:21.000Z</time></trkpt>
        <trkpt lat="29.5496821" lon="103.3425808"><ele>2233.78</ele><time>2026-05-23T21:06:25.000Z</time></trkpt>
        <trkpt lat="29.5496458" lon="103.3425403"><ele>2232.07</ele><time>2026-05-23T21:06:29.000Z</time></trkpt>
        <trkpt lat="29.5496159" lon="103.3424953"><ele>2231.71</ele><time>2026-05-23T21:06:33.000Z</time></trkpt>
        <trkpt lat="29.549572" lon="103.342451"><ele>2231.85</ele><time>2026-05-23T21:06:39.000Z</time></trkpt>
        <trkpt lat="29.5495305" lon="103.3423975"><ele>2232.14</ele><time>2026-05-23T21:06:45.000Z</time></trkpt>
        <trkpt lat="29.5494841" lon="103.3423508"><ele>2234.43</ele><time>2026-05-23T21:06:51.000Z</time></trkpt>
        <trkpt lat="29.5494364" lon="103.3423044"><ele>2235.42</ele><time>2026-05-23T21:06:57.000Z</time></trkpt>
        <trkpt lat="29.5493983" lon="103.342249"><ele>2236.14</ele><time>2026-05-23T21:07:03.000Z</time></trkpt>
        <trkpt lat="29.5493714" lon="103.3421799"><ele>2236.22</ele><time>2026-05-23T21:07:09.000Z</time></trkpt>
        <trkpt lat="29.549361" lon="103.3421219"><ele>2236.46</ele><time>2026-05-23T21:07:13.000Z</time></trkpt>
        <trkpt lat="29.5493448" lon="103.3420585"><ele>2236.34</ele><time>2026-05-23T21:07:19.000Z</time></trkpt>
        <trkpt lat="29.5493315" lon="103.3419927"><ele>2236.71</ele><time>2026-05-23T21:07:25.000Z</time></trkpt>
        <trkpt lat="29.5493289" lon="103.341924"><ele>2236.97</ele><time>2026-05-23T21:07:31.000Z</time></trkpt>
        <trkpt lat="29.5493254" lon="103.3418492"><ele>2236.88</ele><time>2026-05-23T21:07:37.000Z</time></trkpt>
        <trkpt lat="29.5493181" lon="103.3418342"><ele>2236.99</ele><time>2026-05-23T21:07:39.000Z</time></trkpt>
        <trkpt lat="29.5493181" lon="103.3418342"><ele>2236.99</ele><time>2026-05-23T21:07:57.000Z</time></trkpt>
        <trkpt lat="29.5493256" lon="103.3418743"><ele>2236.94</ele><time>2026-05-23T21:08:08.000Z</time></trkpt>
        <trkpt lat="29.5493256" lon="103.3418743"><ele>2236.94</ele><time>2026-05-23T21:08:11.000Z</time></trkpt>
        <trkpt lat="29.5493256" lon="103.3418743"><ele>2236.94</ele><time>2026-05-23T21:08:31.000Z</time></trkpt>
        <trkpt lat="29.5493794" lon="103.3418607"><ele>2235.62</ele><time>2026-05-23T21:08:34.000Z</time></trkpt>
        <trkpt lat="29.5493794" lon="103.3418607"><ele>2235.62</ele><time>2026-05-23T21:08:39.000Z</time></trkpt>
        <trkpt lat="29.5493794" lon="103.3418607"><ele>2235.62</ele><time>2026-05-23T21:08:55.000Z</time></trkpt>
        <trkpt lat="29.5493467" lon="103.3419228"><ele>2237.25</ele><time>2026-05-23T21:09:00.000Z</time></trkpt>
        <trkpt lat="29.5493467" lon="103.3419228"><ele>2237.25</ele><time>2026-05-23T21:09:05.000Z</time></trkpt>
        <trkpt lat="29.5493467" lon="103.3419228"><ele>2237.25</ele><time>2026-05-23T21:09:09.000Z</time></trkpt>
        <trkpt lat="29.549355" lon="103.3419041"><ele>2228.51</ele><time>2026-05-23T21:10:26.000Z</time></trkpt>
        <trkpt lat="29.549355" lon="103.3419041"><ele>2228.51</ele><time>2026-05-23T21:10:37.000Z</time></trkpt>
        <trkpt lat="29.549355" lon="103.3419041"><ele>2228.51</ele><time>2026-05-23T21:10:49.000Z</time></trkpt>
        <trkpt lat="29.549355" lon="103.3419041"><ele>2228.51</ele><time>2026-05-23T21:10:54.000Z</time></trkpt>
        <trkpt lat="29.549355" lon="103.3419041"><ele>2228.51</ele><time>2026-05-23T21:11:05.000Z</time></trkpt>
        <trkpt lat="29.549355" lon="103.3419041"><ele>2228.51</ele><time>2026-05-23T21:12:36.000Z</time></trkpt>
        <trkpt lat="29.549355" lon="103.3419041"><ele>2228.51</ele><time>2026-05-23T21:12:47.000Z</time></trkpt>
        <trkpt lat="29.5493244" lon="103.3419471"><ele>2227.7</ele><time>2026-05-23T21:12:56.000Z</time></trkpt>
        <trkpt lat="29.5493244" lon="103.3419471"><ele>2227.7</ele><time>2026-05-23T21:13:32.000Z</time></trkpt>
        <trkpt lat="29.5493244" lon="103.3419471"><ele>2227.7</ele><time>2026-05-23T21:13:35.000Z</time></trkpt>
        <trkpt lat="29.5493543" lon="103.3419023"><ele>2232.22</ele><time>2026-05-23T21:13:44.000Z</time></trkpt>
        <trkpt lat="29.5493543" lon="103.3419023"><ele>2232.22</ele><time>2026-05-23T21:14:05.000Z</time></trkpt>
        <trkpt lat="29.5493543" lon="103.3419023"><ele>2232.22</ele><time>2026-05-23T21:14:05.000Z</time></trkpt>
        <trkpt lat="29.549349" lon="103.3418332"><ele>2234.8</ele><time>2026-05-23T21:14:24.000Z</time></trkpt>
        <trkpt lat="29.549349" lon="103.3418332"><ele>2234.8</ele><time>2026-05-23T21:14:41.000Z</time></trkpt>
        <trkpt lat="29.5493322" lon="103.341778"><ele>2234.84</ele><time>2026-05-23T21:14:45.000Z</time></trkpt>
        <trkpt lat="29.5493117" lon="103.3417273"><ele>2235.08</ele><time>2026-05-23T21:14:51.000Z</time></trkpt>
        <trkpt lat="29.5492765" lon="103.3416908"><ele>2235.11</ele><time>2026-05-23T21:14:57.000Z</time></trkpt>
        <trkpt lat="29.5492549" lon="103.3416251"><ele>2235.73</ele><time>2026-05-23T21:15:03.000Z</time></trkpt>
        <trkpt lat="29.5492407" lon="103.341568"><ele>2236.2</ele><time>2026-05-23T21:15:09.000Z</time></trkpt>
        <trkpt lat="29.5492384" lon="103.3415056"><ele>2236.45</ele><time>2026-05-23T21:15:15.000Z</time></trkpt>
        <trkpt lat="29.5492451" lon="103.3414486"><ele>2236.98</ele><time>2026-05-23T21:15:23.000Z</time></trkpt>
        <trkpt lat="29.5492422" lon="103.3413955"><ele>2237.99</ele><time>2026-05-23T21:15:33.000Z</time></trkpt>
        <trkpt lat="29.5492149" lon="103.3413562"><ele>2237.84</ele><time>2026-05-23T21:15:41.000Z</time></trkpt>
        <trkpt lat="29.5491697" lon="103.3413504"><ele>2238.73</ele><time>2026-05-23T21:16:01.000Z</time></trkpt>
        <trkpt lat="29.5491511" lon="103.3413123"><ele>2239.62</ele><time>2026-05-23T21:16:19.000Z</time></trkpt>
        <trkpt lat="29.5491194" lon="103.3412636"><ele>2240.62</ele><time>2026-05-23T21:16:39.000Z</time></trkpt>
        <trkpt lat="29.549096" lon="103.3412123"><ele>2240.65</ele><time>2026-05-23T21:16:45.000Z</time></trkpt>
        <trkpt lat="29.5490604" lon="103.3411788"><ele>2241.71</ele><time>2026-05-23T21:16:51.000Z</time></trkpt>
        <trkpt lat="29.5490127" lon="103.3411689"><ele>2243.39</ele><time>2026-05-23T21:16:59.000Z</time></trkpt>
        <trkpt lat="29.5489633" lon="103.3411787"><ele>2243.66</ele><time>2026-05-23T21:17:05.000Z</time></trkpt>
        <trkpt lat="29.5489132" lon="103.3411641"><ele>2244.01</ele><time>2026-05-23T21:17:11.000Z</time></trkpt>
        <trkpt lat="29.5488659" lon="103.3411589"><ele>2245.66</ele><time>2026-05-23T21:17:17.000Z</time></trkpt>
        <trkpt lat="29.5488158" lon="103.3411532"><ele>2245.98</ele><time>2026-05-23T21:17:47.000Z</time></trkpt>
        <trkpt lat="29.5487671" lon="103.3411626"><ele>2248.27</ele><time>2026-05-23T21:17:55.000Z</time></trkpt>
        <trkpt lat="29.5487671" lon="103.3411626"><ele>2248.27</ele><time>2026-05-23T21:18:27.000Z</time></trkpt>
        <trkpt lat="29.548707" lon="103.3411512"><ele>2250.32</ele><time>2026-05-23T21:18:28.000Z</time></trkpt>
        <trkpt lat="29.548707" lon="103.3411512"><ele>2250.32</ele><time>2026-05-23T21:18:34.000Z</time></trkpt>
        <trkpt lat="29.5486563" lon="103.3411668"><ele>2252.3</ele><time>2026-05-23T21:19:00.000Z</time></trkpt>
        <trkpt lat="29.5486563" lon="103.3411668"><ele>2252.3</ele><time>2026-05-23T21:19:19.000Z</time></trkpt>
        <trkpt lat="29.5486046" lon="103.3411746"><ele>2254.63</ele><time>2026-05-23T21:19:22.000Z</time></trkpt>
        <trkpt lat="29.5486046" lon="103.3411746"><ele>2254.63</ele><time>2026-05-23T21:19:31.000Z</time></trkpt>
        <trkpt lat="29.5486046" lon="103.3411746"><ele>2254.63</ele><time>2026-05-23T21:19:47.000Z</time></trkpt>
        <trkpt lat="29.5485461" lon="103.3411905"><ele>2257.21</ele><time>2026-05-23T21:19:50.000Z</time></trkpt>
        <trkpt lat="29.5485461" lon="103.3411905"><ele>2257.21</ele><time>2026-05-23T21:20:03.000Z</time></trkpt>
        <trkpt lat="29.5485461" lon="103.3411905"><ele>2257.21</ele><time>2026-05-23T21:20:23.000Z</time></trkpt>
        <trkpt lat="29.5485461" lon="103.3411905"><ele>2257.21</ele><time>2026-05-23T21:20:30.000Z</time></trkpt>
        <trkpt lat="29.5485461" lon="103.3411905"><ele>2257.21</ele><time>2026-05-23T21:20:45.000Z</time></trkpt>
        <trkpt lat="29.5484923" lon="103.3412056"><ele>2260.84</ele><time>2026-05-23T21:20:48.000Z</time></trkpt>
        <trkpt lat="29.5484923" lon="103.3412056"><ele>2260.84</ele><time>2026-05-23T21:20:53.000Z</time></trkpt>
        <trkpt lat="29.5484429" lon="103.341225"><ele>2264.11</ele><time>2026-05-23T21:21:09.000Z</time></trkpt>
        <trkpt lat="29.5483947" lon="103.3412379"><ele>2266.44</ele><time>2026-05-23T21:21:21.000Z</time></trkpt>
        <trkpt lat="29.5483947" lon="103.3412379"><ele>2266.44</ele><time>2026-05-23T21:21:39.000Z</time></trkpt>
        <trkpt lat="29.5483474" lon="103.3412232"><ele>2269.13</ele><time>2026-05-23T21:21:40.000Z</time></trkpt>
        <trkpt lat="29.5483474" lon="103.3412232"><ele>2269.13</ele><time>2026-05-23T21:21:46.000Z</time></trkpt>
        <trkpt lat="29.5483474" lon="103.3412232"><ele>2269.13</ele><time>2026-05-23T21:21:51.000Z</time></trkpt>
        <trkpt lat="29.5483474" lon="103.3412232"><ele>2269.13</ele><time>2026-05-23T21:21:56.000Z</time></trkpt>
        <trkpt lat="29.5483474" lon="103.3412232"><ele>2269.13</ele><time>2026-05-23T21:22:09.000Z</time></trkpt>
        <trkpt lat="29.5483017" lon="103.3412123"><ele>2271.56</ele><time>2026-05-23T21:22:18.000Z</time></trkpt>
        <trkpt lat="29.5483017" lon="103.3412123"><ele>2271.56</ele><time>2026-05-23T21:22:27.000Z</time></trkpt>
        <trkpt lat="29.5482486" lon="103.3412028"><ele>2271.47</ele><time>2026-05-23T21:22:35.000Z</time></trkpt>
        <trkpt lat="29.5481964" lon="103.3411913"><ele>2272.44</ele><time>2026-05-23T21:22:49.000Z</time></trkpt>
        <trkpt lat="29.5481481" lon="103.3411701"><ele>2273.26</ele><time>2026-05-23T21:23:09.000Z</time></trkpt>
        <trkpt lat="29.5480921" lon="103.3411513"><ele>2275.83</ele><time>2026-05-23T21:23:17.000Z</time></trkpt>
        <trkpt lat="29.5480346" lon="103.3411564"><ele>2277.65</ele><time>2026-05-23T21:23:23.000Z</time></trkpt>
        <trkpt lat="29.5479869" lon="103.3411724"><ele>2279.77</ele><time>2026-05-23T21:23:29.000Z</time></trkpt>
        <trkpt lat="29.5479359" lon="103.3411712"><ele>2282.96</ele><time>2026-05-23T21:23:37.000Z</time></trkpt>
        <trkpt lat="29.5478874" lon="103.3411514"><ele>2285.42</ele><time>2026-05-23T21:23:43.000Z</time></trkpt>
        <trkpt lat="29.5478556" lon="103.3411119"><ele>2287.6</ele><time>2026-05-23T21:23:51.000Z</time></trkpt>
        <trkpt lat="29.5478137" lon="103.3410913"><ele>2290.43</ele><time>2026-05-23T21:24:05.000Z</time></trkpt>
        <trkpt lat="29.5477654" lon="103.3411045"><ele>2292.18</ele><time>2026-05-23T21:24:21.000Z</time></trkpt>
        <trkpt lat="29.5477153" lon="103.3410952"><ele>2291.16</ele><time>2026-05-23T21:24:27.000Z</time></trkpt>
        <trkpt lat="29.5476629" lon="103.3410732"><ele>2290.05</ele><time>2026-05-23T21:24:33.000Z</time></trkpt>
        <trkpt lat="29.5476023" lon="103.3410557"><ele>2290.14</ele><time>2026-05-23T21:24:47.000Z</time></trkpt>
        <trkpt lat="29.5475679" lon="103.3410354"><ele>2289.69</ele><time>2026-05-23T21:24:51.000Z</time></trkpt>
        <trkpt lat="29.5475188" lon="103.3410134"><ele>2289.51</ele><time>2026-05-23T21:24:55.000Z</time></trkpt>
        <trkpt lat="29.5474699" lon="103.341012"><ele>2288.03</ele><time>2026-05-23T21:25:01.000Z</time></trkpt>
        <trkpt lat="29.5474572" lon="103.3409987"><ele>2288.74</ele><time>2026-05-23T21:25:15.000Z</time></trkpt>
        <trkpt lat="29.5474244" lon="103.3410084"><ele>2292.57</ele><time>2026-05-23T21:25:31.000Z</time></trkpt>
        <trkpt lat="29.5473816" lon="103.3410144"><ele>2293.03</ele><time>2026-05-23T21:26:01.000Z</time></trkpt>
        <trkpt lat="29.5473699" lon="103.3409972"><ele>2293.49</ele><time>2026-05-23T21:26:11.000Z</time></trkpt>
        <trkpt lat="29.5473866" lon="103.3409437"><ele>2294.52</ele><time>2026-05-23T21:26:41.000Z</time></trkpt>
        <trkpt lat="29.5473929" lon="103.3408839"><ele>2295.74</ele><time>2026-05-23T21:26:47.000Z</time></trkpt>
        <trkpt lat="29.5473716" lon="103.34082"><ele>2296.11</ele><time>2026-05-23T21:26:53.000Z</time></trkpt>
        <trkpt lat="29.5473415" lon="103.3407692"><ele>2296.74</ele><time>2026-05-23T21:26:57.000Z</time></trkpt>
        <trkpt lat="29.5473038" lon="103.3407195"><ele>2296.53</ele><time>2026-05-23T21:27:01.000Z</time></trkpt>
        <trkpt lat="29.5472639" lon="103.3406753"><ele>2297.27</ele><time>2026-05-23T21:27:05.000Z</time></trkpt>
        <trkpt lat="29.5472415" lon="103.340628"><ele>2298.26</ele><time>2026-05-23T21:27:13.000Z</time></trkpt>
        <trkpt lat="29.5472092" lon="103.340591"><ele>2299.13</ele><time>2026-05-23T21:27:19.000Z</time></trkpt>
        <trkpt lat="29.5471906" lon="103.3405413"><ele>2299.54</ele><time>2026-05-23T21:27:35.000Z</time></trkpt>
        <trkpt lat="29.5471606" lon="103.3405014"><ele>2300.81</ele><time>2026-05-23T21:27:49.000Z</time></trkpt>
        <trkpt lat="29.547127" lon="103.3404646"><ele>2301.95</ele><time>2026-05-23T21:27:59.000Z</time></trkpt>
        <trkpt lat="29.5471174" lon="103.3404147"><ele>2302.53</ele><time>2026-05-23T21:28:17.000Z</time></trkpt>
        <trkpt lat="29.5471121" lon="103.3403595"><ele>2303.16</ele><time>2026-05-23T21:28:31.000Z</time></trkpt>
        <trkpt lat="29.5470976" lon="103.3403095"><ele>2303.6</ele><time>2026-05-23T21:28:41.000Z</time></trkpt>
        <trkpt lat="29.5470976" lon="103.3403095"><ele>2303.6</ele><time>2026-05-23T21:28:47.000Z</time></trkpt>
        <trkpt lat="29.5471582" lon="103.3403113"><ele>2304.28</ele><time>2026-05-23T21:28:50.000Z</time></trkpt>
        <trkpt lat="29.5471582" lon="103.3403113"><ele>2304.28</ele><time>2026-05-23T21:28:53.000Z</time></trkpt>
        <trkpt lat="29.5472037" lon="103.340266"><ele>2306.88</ele><time>2026-05-23T21:28:57.000Z</time></trkpt>
        <trkpt lat="29.5471824" lon="103.3402465"><ele>2316.02</ele><time>2026-05-23T21:29:31.000Z</time></trkpt>
        <trkpt lat="29.5471689" lon="103.3402035"><ele>2316.31</ele><time>2026-05-23T21:30:09.000Z</time></trkpt>
        <trkpt lat="29.54715" lon="103.3401532"><ele>2319</ele><time>2026-05-23T21:30:19.000Z</time></trkpt>
        <trkpt lat="29.5471196" lon="103.3401077"><ele>2321.68</ele><time>2026-05-23T21:30:47.000Z</time></trkpt>
        <trkpt lat="29.5471196" lon="103.3401077"><ele>2321.68</ele><time>2026-05-23T21:30:59.000Z</time></trkpt>
        <trkpt lat="29.5470983" lon="103.3400592"><ele>2323.71</ele><time>2026-05-23T21:31:04.000Z</time></trkpt>
        <trkpt lat="29.5470983" lon="103.3400592"><ele>2323.71</ele><time>2026-05-23T21:31:11.000Z</time></trkpt>
        <trkpt lat="29.5470886" lon="103.3400057"><ele>2326.71</ele><time>2026-05-23T21:31:25.000Z</time></trkpt>
        <trkpt lat="29.5470683" lon="103.3399545"><ele>2329.24</ele><time>2026-05-23T21:31:53.000Z</time></trkpt>
        <trkpt lat="29.5470748" lon="103.3399025"><ele>2330.66</ele><time>2026-05-23T21:32:15.000Z</time></trkpt>
        <trkpt lat="29.5470748" lon="103.3399025"><ele>2330.66</ele><time>2026-05-23T21:32:21.000Z</time></trkpt>
        <trkpt lat="29.5470804" lon="103.3398496"><ele>2333.14</ele><time>2026-05-23T21:32:22.000Z</time></trkpt>
        <trkpt lat="29.5470804" lon="103.3398496"><ele>2333.14</ele><time>2026-05-23T21:32:32.000Z</time></trkpt>
        <trkpt lat="29.5470859" lon="103.3397927"><ele>2335.8</ele><time>2026-05-23T21:32:40.000Z</time></trkpt>
        <trkpt lat="29.5470859" lon="103.3397927"><ele>2335.8</ele><time>2026-05-23T21:32:51.000Z</time></trkpt>
        <trkpt lat="29.5471076" lon="103.3397419"><ele>2337.41</ele><time>2026-05-23T21:32:52.000Z</time></trkpt>
        <trkpt lat="29.5471076" lon="103.3397419"><ele>2337.41</ele><time>2026-05-23T21:32:58.000Z</time></trkpt>
        <trkpt lat="29.5471486" lon="103.3397129"><ele>2342.15</ele><time>2026-05-23T21:33:04.000Z</time></trkpt>
        <trkpt lat="29.5471152" lon="103.3396943"><ele>2344.58</ele><time>2026-05-23T21:33:12.000Z</time></trkpt>
        <trkpt lat="29.5470808" lon="103.3396464"><ele>2345.72</ele><time>2026-05-23T21:33:18.000Z</time></trkpt>
        <trkpt lat="29.5470444" lon="103.339602"><ele>2345.7</ele><time>2026-05-23T21:33:32.000Z</time></trkpt>
        <trkpt lat="29.5470444" lon="103.339602"><ele>2345.7</ele><time>2026-05-23T21:33:43.000Z</time></trkpt>
        <trkpt lat="29.546986" lon="103.3396005"><ele>2346.68</ele><time>2026-05-23T21:33:44.000Z</time></trkpt>
        <trkpt lat="29.546986" lon="103.3396005"><ele>2346.68</ele><time>2026-05-23T21:33:50.000Z</time></trkpt>
        <trkpt lat="29.546955" lon="103.3395675"><ele>2349.44</ele><time>2026-05-23T21:34:08.000Z</time></trkpt>
        <trkpt lat="29.5469195" lon="103.339536"><ele>2350.6</ele><time>2026-05-23T21:34:24.000Z</time></trkpt>
        <trkpt lat="29.5468929" lon="103.3394945"><ele>2352.56</ele><time>2026-05-23T21:34:40.000Z</time></trkpt>
        <trkpt lat="29.546879" lon="103.3394421"><ele>2355.83</ele><time>2026-05-23T21:35:34.000Z</time></trkpt>
        <trkpt lat="29.5468597" lon="103.3393868"><ele>2357.7</ele><time>2026-05-23T21:36:06.000Z</time></trkpt>
        <trkpt lat="29.5468334" lon="103.3393372"><ele>2360.91</ele><time>2026-05-23T21:36:28.000Z</time></trkpt>
        <trkpt lat="29.546793" lon="103.3393151"><ele>2363.41</ele><time>2026-05-23T21:36:42.000Z</time></trkpt>
        <trkpt lat="29.5467706" lon="103.3392668"><ele>2364.1</ele><time>2026-05-23T21:36:54.000Z</time></trkpt>
        <trkpt lat="29.5467503" lon="103.3392502"><ele>2366.05</ele><time>2026-05-23T21:37:00.000Z</time></trkpt>
        <trkpt lat="29.5467183" lon="103.3392254"><ele>2367.86</ele><time>2026-05-23T21:37:14.000Z</time></trkpt>
        <trkpt lat="29.546695" lon="103.3391816"><ele>2369.68</ele><time>2026-05-23T21:37:28.000Z</time></trkpt>
        <trkpt lat="29.5466557" lon="103.3391629"><ele>2372.24</ele><time>2026-05-23T21:37:44.000Z</time></trkpt>
        <trkpt lat="29.5466557" lon="103.3391629"><ele>2372.24</ele><time>2026-05-23T21:37:53.000Z</time></trkpt>
        <trkpt lat="29.5466397" lon="103.3391198"><ele>2374.26</ele><time>2026-05-23T21:37:54.000Z</time></trkpt>
        <trkpt lat="29.5466397" lon="103.3391198"><ele>2374.26</ele><time>2026-05-23T21:38:09.000Z</time></trkpt>
        <trkpt lat="29.5466147" lon="103.3390748"><ele>2377.38</ele><time>2026-05-23T21:38:19.000Z</time></trkpt>
        <trkpt lat="29.5465935" lon="103.3390265"><ele>2379.21</ele><time>2026-05-23T21:38:27.000Z</time></trkpt>
        <trkpt lat="29.5465675" lon="103.3389804"><ele>2380.79</ele><time>2026-05-23T21:38:41.000Z</time></trkpt>
        <trkpt lat="29.5465309" lon="103.3389472"><ele>2382.19</ele><time>2026-05-23T21:38:53.000Z</time></trkpt>
        <trkpt lat="29.5465309" lon="103.3389472"><ele>2382.19</ele><time>2026-05-23T21:39:09.000Z</time></trkpt>
        <trkpt lat="29.5464984" lon="103.3389037"><ele>2382.91</ele><time>2026-05-23T21:39:20.000Z</time></trkpt>
        <trkpt lat="29.5464984" lon="103.3389037"><ele>2382.91</ele><time>2026-05-23T21:39:33.000Z</time></trkpt>
        <trkpt lat="29.5464665" lon="103.3388609"><ele>2384.6</ele><time>2026-05-23T21:39:43.000Z</time></trkpt>
        <trkpt lat="29.5464295" lon="103.3388289"><ele>2386.57</ele><time>2026-05-23T21:40:05.000Z</time></trkpt>
        <trkpt lat="29.5463971" lon="103.3387922"><ele>2388.65</ele><time>2026-05-23T21:40:19.000Z</time></trkpt>
        <trkpt lat="29.5463511" lon="103.3387683"><ele>2391.62</ele><time>2026-05-23T21:40:37.000Z</time></trkpt>
        <trkpt lat="29.546311" lon="103.3387337"><ele>2394.45</ele><time>2026-05-23T21:40:57.000Z</time></trkpt>
        <trkpt lat="29.5462932" lon="103.3386784"><ele>2397.66</ele><time>2026-05-23T21:41:09.000Z</time></trkpt>
        <trkpt lat="29.5462754" lon="103.3386204"><ele>2399.89</ele><time>2026-05-23T21:41:19.000Z</time></trkpt>
        <trkpt lat="29.5462633" lon="103.3385604"><ele>2402.12</ele><time>2026-05-23T21:41:29.000Z</time></trkpt>
        <trkpt lat="29.5462295" lon="103.3385223"><ele>2403.5</ele><time>2026-05-23T21:41:41.000Z</time></trkpt>
        <trkpt lat="29.5462134" lon="103.3384728"><ele>2404.78</ele><time>2026-05-23T21:41:53.000Z</time></trkpt>
        <trkpt lat="29.5462134" lon="103.3384728"><ele>2404.78</ele><time>2026-05-23T21:42:05.000Z</time></trkpt>
        <trkpt lat="29.5461927" lon="103.338415"><ele>2405.99</ele><time>2026-05-23T21:42:10.000Z</time></trkpt>
        <trkpt lat="29.5461927" lon="103.338415"><ele>2405.99</ele><time>2026-05-23T21:42:15.000Z</time></trkpt>
        <trkpt lat="29.5461757" lon="103.3383538"><ele>2405.64</ele><time>2026-05-23T21:42:33.000Z</time></trkpt>
        <trkpt lat="29.5461496" lon="103.3382961"><ele>2406.83</ele><time>2026-05-23T21:42:41.000Z</time></trkpt>
        <trkpt lat="29.5461654" lon="103.338248"><ele>2407.03</ele><time>2026-05-23T21:42:55.000Z</time></trkpt>
        <trkpt lat="29.5462004" lon="103.3382115"><ele>2408.35</ele><time>2026-05-23T21:43:03.000Z</time></trkpt>
        <trkpt lat="29.5462011" lon="103.3381678"><ele>2410.52</ele><time>2026-05-23T21:43:13.000Z</time></trkpt>
        <trkpt lat="29.5461838" lon="103.3381226"><ele>2411.86</ele><time>2026-05-23T21:43:31.000Z</time></trkpt>
        <trkpt lat="29.5461945" lon="103.3380702"><ele>2413.15</ele><time>2026-05-23T21:43:43.000Z</time></trkpt>
        <trkpt lat="29.5462131" lon="103.3380207"><ele>2414.12</ele><time>2026-05-23T21:43:55.000Z</time></trkpt>
        <trkpt lat="29.5462497" lon="103.337981"><ele>2415.55</ele><time>2026-05-23T21:44:07.000Z</time></trkpt>
        <trkpt lat="29.5462761" lon="103.337931"><ele>2416.98</ele><time>2026-05-23T21:44:13.000Z</time></trkpt>
        <trkpt lat="29.5463174" lon="103.3378738"><ele>2418.03</ele><time>2026-05-23T21:44:21.000Z</time></trkpt>
        <trkpt lat="29.5463579" lon="103.3378174"><ele>2418.25</ele><time>2026-05-23T21:44:27.000Z</time></trkpt>
        <trkpt lat="29.5463918" lon="103.3377609"><ele>2418.03</ele><time>2026-05-23T21:44:33.000Z</time></trkpt>
        <trkpt lat="29.5464131" lon="103.3377085"><ele>2418.24</ele><time>2026-05-23T21:44:39.000Z</time></trkpt>
        <trkpt lat="29.5464286" lon="103.3376522"><ele>2419.62</ele><time>2026-05-23T21:44:47.000Z</time></trkpt>
        <trkpt lat="29.5464361" lon="103.3375933"><ele>2421.15</ele><time>2026-05-23T21:44:55.000Z</time></trkpt>
        <trkpt lat="29.5464364" lon="103.3375299"><ele>2420.15</ele><time>2026-05-23T21:45:01.000Z</time></trkpt>
        <trkpt lat="29.5464678" lon="103.3374836"><ele>2419.15</ele><time>2026-05-23T21:45:05.000Z</time></trkpt>
        <trkpt lat="29.5465084" lon="103.3374512"><ele>2418.91</ele><time>2026-05-23T21:45:09.000Z</time></trkpt>
        <trkpt lat="29.5465355" lon="103.3374093"><ele>2418.48</ele><time>2026-05-23T21:45:13.000Z</time></trkpt>
        <trkpt lat="29.5465574" lon="103.3373568"><ele>2417.97</ele><time>2026-05-23T21:45:17.000Z</time></trkpt>
        <trkpt lat="29.546588" lon="103.3373153"><ele>2418.37</ele><time>2026-05-23T21:45:21.000Z</time></trkpt>
        <trkpt lat="29.5466194" lon="103.3372757"><ele>2419.43</ele><time>2026-05-23T21:45:27.000Z</time></trkpt>
        <trkpt lat="29.5466313" lon="103.3372199"><ele>2420.67</ele><time>2026-05-23T21:45:33.000Z</time></trkpt>
        <trkpt lat="29.5466309" lon="103.3371563"><ele>2421.42</ele><time>2026-05-23T21:45:41.000Z</time></trkpt>
        <trkpt lat="29.5466168" lon="103.3370966"><ele>2422.63</ele><time>2026-05-23T21:45:49.000Z</time></trkpt>
        <trkpt lat="29.5465809" lon="103.337055"><ele>2424.05</ele><time>2026-05-23T21:46:00.000Z</time></trkpt>
        <trkpt lat="29.546534" lon="103.3370132"><ele>2425.28</ele><time>2026-05-23T21:46:07.000Z</time></trkpt>
        <trkpt lat="29.5464949" lon="103.3369751"><ele>2425.35</ele><time>2026-05-23T21:46:13.000Z</time></trkpt>
        <trkpt lat="29.5464701" lon="103.3369219"><ele>2425.09</ele><time>2026-05-23T21:46:19.000Z</time></trkpt>
        <trkpt lat="29.5464505" lon="103.3368676"><ele>2424.51</ele><time>2026-05-23T21:46:23.000Z</time></trkpt>
        <trkpt lat="29.546437" lon="103.3368074"><ele>2422.65</ele><time>2026-05-23T21:46:27.000Z</time></trkpt>
        <trkpt lat="29.5464347" lon="103.3367276"><ele>2421.05</ele><time>2026-05-23T21:46:31.000Z</time></trkpt>
        <trkpt lat="29.5464431" lon="103.336642"><ele>2418.83</ele><time>2026-05-23T21:46:35.000Z</time></trkpt>
        <trkpt lat="29.5464617" lon="103.3365645"><ele>2417.08</ele><time>2026-05-23T21:46:39.000Z</time></trkpt>
        <trkpt lat="29.5464771" lon="103.3364999"><ele>2416.45</ele><time>2026-05-23T21:46:43.000Z</time></trkpt>
        <trkpt lat="29.5464919" lon="103.3364457"><ele>2416.1</ele><time>2026-05-23T21:46:47.000Z</time></trkpt>
        <trkpt lat="29.546516" lon="103.3363892"><ele>2415.37</ele><time>2026-05-23T21:46:51.000Z</time></trkpt>
        <trkpt lat="29.546522" lon="103.3363237"><ele>2415.19</ele><time>2026-05-23T21:46:55.000Z</time></trkpt>
        <trkpt lat="29.5465344" lon="103.3362468"><ele>2414.54</ele><time>2026-05-23T21:46:59.000Z</time></trkpt>
        <trkpt lat="29.5465623" lon="103.3361543"><ele>2410.75</ele><time>2026-05-23T21:47:03.000Z</time></trkpt>
        <trkpt lat="29.5465845" lon="103.3360924"><ele>2407.91</ele><time>2026-05-23T21:47:05.000Z</time></trkpt>
        <trkpt lat="29.5466154" lon="103.3360174"><ele>2405.52</ele><time>2026-05-23T21:47:09.000Z</time></trkpt>
        <trkpt lat="29.5466423" lon="103.3359438"><ele>2403.71</ele><time>2026-05-23T21:47:13.000Z</time></trkpt>
        <trkpt lat="29.5466599" lon="103.3358782"><ele>2402.69</ele><time>2026-05-23T21:47:17.000Z</time></trkpt>
        <trkpt lat="29.5466646" lon="103.3358175"><ele>2401.19</ele><time>2026-05-23T21:47:21.000Z</time></trkpt>
        <trkpt lat="29.5466711" lon="103.3357429"><ele>2400.64</ele><time>2026-05-23T21:47:25.000Z</time></trkpt>
        <trkpt lat="29.5466769" lon="103.3356811"><ele>2399.91</ele><time>2026-05-23T21:47:27.000Z</time></trkpt>
        <trkpt lat="29.5467037" lon="103.3356158"><ele>2399.59</ele><time>2026-05-23T21:47:31.000Z</time></trkpt>
        <trkpt lat="29.5467209" lon="103.335539"><ele>2399.28</ele><time>2026-05-23T21:47:35.000Z</time></trkpt>
        <trkpt lat="29.5467327" lon="103.3354719"><ele>2399.68</ele><time>2026-05-23T21:47:39.000Z</time></trkpt>
        <trkpt lat="29.5467472" lon="103.3354085"><ele>2399.25</ele><time>2026-05-23T21:47:43.000Z</time></trkpt>
        <trkpt lat="29.5467712" lon="103.3353499"><ele>2399.77</ele><time>2026-05-23T21:47:47.000Z</time></trkpt>
        <trkpt lat="29.546789" lon="103.335298"><ele>2399.48</ele><time>2026-05-23T21:47:51.000Z</time></trkpt>
        <trkpt lat="29.5468036" lon="103.3352317"><ele>2399.64</ele><time>2026-05-23T21:47:57.000Z</time></trkpt>
        <trkpt lat="29.5468023" lon="103.3351754"><ele>2398.48</ele><time>2026-05-23T21:48:01.000Z</time></trkpt>
        <trkpt lat="29.5467885" lon="103.3351237"><ele>2398</ele><time>2026-05-23T21:48:05.000Z</time></trkpt>
        <trkpt lat="29.5467607" lon="103.3350603"><ele>2396</ele><time>2026-05-23T21:48:11.000Z</time></trkpt>
        <trkpt lat="29.5467163" lon="103.3350122"><ele>2396.08</ele><time>2026-05-23T21:48:15.000Z</time></trkpt>
        <trkpt lat="29.5466623" lon="103.3349596"><ele>2396.56</ele><time>2026-05-23T21:48:19.000Z</time></trkpt>
        <trkpt lat="29.5466008" lon="103.3349231"><ele>2397.02</ele><time>2026-05-23T21:48:23.000Z</time></trkpt>
        <trkpt lat="29.5465587" lon="103.3348834"><ele>2397.51</ele><time>2026-05-23T21:48:27.000Z</time></trkpt>
        <trkpt lat="29.5465249" lon="103.3348386"><ele>2396.93</ele><time>2026-05-23T21:48:31.000Z</time></trkpt>
        <trkpt lat="29.5464698" lon="103.3348116"><ele>2396.77</ele><time>2026-05-23T21:48:37.000Z</time></trkpt>
        <trkpt lat="29.546407" lon="103.3348053"><ele>2396.72</ele><time>2026-05-23T21:48:43.000Z</time></trkpt>
        <trkpt lat="29.5463665" lon="103.3348102"><ele>2396.24</ele><time>2026-05-23T21:48:51.000Z</time></trkpt>
        <trkpt lat="29.5463262" lon="103.3347976"><ele>2397.64</ele><time>2026-05-23T21:48:59.000Z</time></trkpt>
        <trkpt lat="29.546286" lon="103.3347647"><ele>2398.64</ele><time>2026-05-23T21:49:11.000Z</time></trkpt>
        <trkpt lat="29.5462421" lon="103.3347728"><ele>2399.12</ele><time>2026-05-23T21:49:41.000Z</time></trkpt>
        <trkpt lat="29.5461879" lon="103.3347796"><ele>2400.13</ele><time>2026-05-23T21:49:47.000Z</time></trkpt>
        <trkpt lat="29.5461294" lon="103.3347777"><ele>2400.89</ele><time>2026-05-23T21:49:53.000Z</time></trkpt>
        <trkpt lat="29.5460768" lon="103.3347693"><ele>2400.87</ele><time>2026-05-23T21:49:59.000Z</time></trkpt>
        <trkpt lat="29.5460294" lon="103.334756"><ele>2401.05</ele><time>2026-05-23T21:50:05.000Z</time></trkpt>
        <trkpt lat="29.5459781" lon="103.3347591"><ele>2400.54</ele><time>2026-05-23T21:50:11.000Z</time></trkpt>
        <trkpt lat="29.54592" lon="103.33474"><ele>2399.28</ele><time>2026-05-23T21:50:17.000Z</time></trkpt>
        <trkpt lat="29.5458873" lon="103.334698"><ele>2396.9</ele><time>2026-05-23T21:50:21.000Z</time></trkpt>
        <trkpt lat="29.5458642" lon="103.3346484"><ele>2395.68</ele><time>2026-05-23T21:50:25.000Z</time></trkpt>
        <trkpt lat="29.5458393" lon="103.3345958"><ele>2395.52</ele><time>2026-05-23T21:50:29.000Z</time></trkpt>
        <trkpt lat="29.5458041" lon="103.3345436"><ele>2395.36</ele><time>2026-05-23T21:50:33.000Z</time></trkpt>
        <trkpt lat="29.5457552" lon="103.3344968"><ele>2394.78</ele><time>2026-05-23T21:50:37.000Z</time></trkpt>
        <trkpt lat="29.5456937" lon="103.334458"><ele>2394.56</ele><time>2026-05-23T21:50:41.000Z</time></trkpt>
        <trkpt lat="29.5456444" lon="103.3344238"><ele>2394.68</ele><time>2026-05-23T21:50:45.000Z</time></trkpt>
        <trkpt lat="29.5455886" lon="103.3344133"><ele>2394.39</ele><time>2026-05-23T21:50:49.000Z</time></trkpt>
        <trkpt lat="29.5455289" lon="103.3343841"><ele>2393.57</ele><time>2026-05-23T21:50:53.000Z</time></trkpt>
        <trkpt lat="29.5454749" lon="103.3343692"><ele>2393.32</ele><time>2026-05-23T21:50:57.000Z</time></trkpt>
        <trkpt lat="29.5454143" lon="103.3343672"><ele>2393.19</ele><time>2026-05-23T21:51:01.000Z</time></trkpt>
        <trkpt lat="29.5453767" lon="103.3343273"><ele>2394.49</ele><time>2026-05-23T21:51:05.000Z</time></trkpt>
        <trkpt lat="29.5453469" lon="103.3342827"><ele>2395.68</ele><time>2026-05-23T21:51:09.000Z</time></trkpt>
        <trkpt lat="29.5453205" lon="103.3342319"><ele>2398.13</ele><time>2026-05-23T21:51:17.000Z</time></trkpt>
        <trkpt lat="29.5452934" lon="103.3342029"><ele>2398.17</ele><time>2026-05-23T21:51:23.000Z</time></trkpt>
        <trkpt lat="29.5452934" lon="103.3342029"><ele>2398.17</ele><time>2026-05-23T21:51:31.000Z</time></trkpt>
        <trkpt lat="29.5452448" lon="103.3342053"><ele>2399.24</ele><time>2026-05-23T21:51:34.000Z</time></trkpt>
        <trkpt lat="29.5452448" lon="103.3342053"><ele>2399.24</ele><time>2026-05-23T21:51:39.000Z</time></trkpt>
        <trkpt lat="29.5452199" lon="103.3341735"><ele>2397.79</ele><time>2026-05-23T21:51:47.000Z</time></trkpt>
        <trkpt lat="29.5451881" lon="103.3341293"><ele>2395.39</ele><time>2026-05-23T21:51:53.000Z</time></trkpt>
        <trkpt lat="29.5451391" lon="103.3341017"><ele>2395.99</ele><time>2026-05-23T21:52:03.000Z</time></trkpt>
        <trkpt lat="29.5450774" lon="103.3340803"><ele>2396.98</ele><time>2026-05-23T21:52:09.000Z</time></trkpt>
        <trkpt lat="29.5450204" lon="103.3340834"><ele>2398.32</ele><time>2026-05-23T21:52:13.000Z</time></trkpt>
        <trkpt lat="29.5449716" lon="103.3340923"><ele>2398.46</ele><time>2026-05-23T21:52:17.000Z</time></trkpt>
        <trkpt lat="29.5449201" lon="103.3340977"><ele>2398.03</ele><time>2026-05-23T21:52:21.000Z</time></trkpt>
        <trkpt lat="29.544867" lon="103.3341087"><ele>2397</ele><time>2026-05-23T21:52:25.000Z</time></trkpt>
        <trkpt lat="29.5448257" lon="103.3341525"><ele>2396.75</ele><time>2026-05-23T21:52:29.000Z</time></trkpt>
        <trkpt lat="29.5447894" lon="103.334199"><ele>2396.14</ele><time>2026-05-23T21:52:33.000Z</time></trkpt>
        <trkpt lat="29.5447496" lon="103.3342282"><ele>2395.84</ele><time>2026-05-23T21:52:37.000Z</time></trkpt>
        <trkpt lat="29.5447048" lon="103.3342462"><ele>2394.97</ele><time>2026-05-23T21:52:41.000Z</time></trkpt>
        <trkpt lat="29.5446531" lon="103.3342471"><ele>2393.61</ele><time>2026-05-23T21:52:45.000Z</time></trkpt>
        <trkpt lat="29.5445867" lon="103.3342278"><ele>2392.87</ele><time>2026-05-23T21:52:51.000Z</time></trkpt>
        <trkpt lat="29.5445267" lon="103.3341964"><ele>2392.93</ele><time>2026-05-23T21:52:55.000Z</time></trkpt>
        <trkpt lat="29.5444731" lon="103.3341702"><ele>2392.87</ele><time>2026-05-23T21:52:59.000Z</time></trkpt>
        <trkpt lat="29.5444196" lon="103.334168"><ele>2392.55</ele><time>2026-05-23T21:53:03.000Z</time></trkpt>
        <trkpt lat="29.5443646" lon="103.3341627"><ele>2391.51</ele><time>2026-05-23T21:53:07.000Z</time></trkpt>
        <trkpt lat="29.544311" lon="103.3341546"><ele>2390.85</ele><time>2026-05-23T21:53:11.000Z</time></trkpt>
        <trkpt lat="29.5442552" lon="103.3341608"><ele>2390.48</ele><time>2026-05-23T21:53:15.000Z</time></trkpt>
        <trkpt lat="29.5442065" lon="103.3341557"><ele>2391.05</ele><time>2026-05-23T21:53:19.000Z</time></trkpt>
        <trkpt lat="29.5441462" lon="103.33414"><ele>2392.04</ele><time>2026-05-23T21:53:25.000Z</time></trkpt>
        <trkpt lat="29.5440944" lon="103.334129"><ele>2392.55</ele><time>2026-05-23T21:53:29.000Z</time></trkpt>
        <trkpt lat="29.544041" lon="103.3340967"><ele>2392.05</ele><time>2026-05-23T21:53:35.000Z</time></trkpt>
        <trkpt lat="29.5439927" lon="103.3340597"><ele>2392.71</ele><time>2026-05-23T21:53:39.000Z</time></trkpt>
        <trkpt lat="29.5439524" lon="103.3340223"><ele>2393.73</ele><time>2026-05-23T21:53:43.000Z</time></trkpt>
        <trkpt lat="29.543921" lon="103.3339651"><ele>2394.66</ele><time>2026-05-23T21:53:49.000Z</time></trkpt>
        <trkpt lat="29.5439202" lon="103.3339437"><ele>2394.95</ele><time>2026-05-23T21:53:51.000Z</time></trkpt>
        <trkpt lat="29.5439022" lon="103.3339064"><ele>2395.01</ele><time>2026-05-23T21:54:02.000Z</time></trkpt>
        <trkpt lat="29.5438666" lon="103.3338795"><ele>2395.08</ele><time>2026-05-23T21:54:06.000Z</time></trkpt>
        <trkpt lat="29.5438171" lon="103.3338871"><ele>2394.11</ele><time>2026-05-23T21:54:10.000Z</time></trkpt>
        <trkpt lat="29.5437679" lon="103.3339184"><ele>2392.6</ele><time>2026-05-23T21:54:14.000Z</time></trkpt>
        <trkpt lat="29.5437142" lon="103.3339223"><ele>2392.12</ele><time>2026-05-23T21:54:18.000Z</time></trkpt>
        <trkpt lat="29.5436664" lon="103.3338977"><ele>2391.14</ele><time>2026-05-23T21:54:22.000Z</time></trkpt>
        <trkpt lat="29.5436209" lon="103.3338615"><ele>2390.98</ele><time>2026-05-23T21:54:26.000Z</time></trkpt>
        <trkpt lat="29.5435772" lon="103.3338148"><ele>2391.14</ele><time>2026-05-23T21:54:32.000Z</time></trkpt>
        <trkpt lat="29.5435439" lon="103.3337505"><ele>2390.91</ele><time>2026-05-23T21:54:38.000Z</time></trkpt>
        <trkpt lat="29.5435063" lon="103.3336969"><ele>2391.21</ele><time>2026-05-23T21:54:42.000Z</time></trkpt>
        <trkpt lat="29.5434615" lon="103.3336587"><ele>2390.8</ele><time>2026-05-23T21:54:46.000Z</time></trkpt>
        <trkpt lat="29.5434347" lon="103.3335945"><ele>2390.44</ele><time>2026-05-23T21:54:52.000Z</time></trkpt>
        <trkpt lat="29.5434165" lon="103.333529"><ele>2389.07</ele><time>2026-05-23T21:54:56.000Z</time></trkpt>
        <trkpt lat="29.5433901" lon="103.333478"><ele>2388.78</ele><time>2026-05-23T21:55:00.000Z</time></trkpt>
        <trkpt lat="29.543369" lon="103.3334164"><ele>2389.1</ele><time>2026-05-23T21:55:14.000Z</time></trkpt>
        <trkpt lat="29.5433524" lon="103.3333629"><ele>2389.42</ele><time>2026-05-23T21:55:19.000Z</time></trkpt>
        <trkpt lat="29.5433344" lon="103.3333101"><ele>2389.73</ele><time>2026-05-23T21:55:28.000Z</time></trkpt>
        <trkpt lat="29.5433284" lon="103.3332377"><ele>2389.53</ele><time>2026-05-23T21:55:34.000Z</time></trkpt>
        <trkpt lat="29.5432996" lon="103.3331858"><ele>2388.66</ele><time>2026-05-23T21:55:38.000Z</time></trkpt>
        <trkpt lat="29.5432578" lon="103.3331642"><ele>2388.7</ele><time>2026-05-23T21:55:42.000Z</time></trkpt>
        <trkpt lat="29.5432396" lon="103.3331577"><ele>2388.46</ele><time>2026-05-23T21:55:46.000Z</time></trkpt>
        <trkpt lat="29.5432146" lon="103.3331263"><ele>2388.72</ele><time>2026-05-23T21:56:11.000Z</time></trkpt>
        <trkpt lat="29.5431649" lon="103.3331084"><ele>2387.43</ele><time>2026-05-23T21:56:15.000Z</time></trkpt>
        <trkpt lat="29.5431202" lon="103.3330688"><ele>2387.69</ele><time>2026-05-23T21:56:21.000Z</time></trkpt>
        <trkpt lat="29.5431153" lon="103.3330524"><ele>2386.3</ele><time>2026-05-23T21:56:23.000Z</time></trkpt>
        <trkpt lat="29.5430779" lon="103.3330178"><ele>2385.64</ele><time>2026-05-23T21:56:41.000Z</time></trkpt>
        <trkpt lat="29.5430328" lon="103.3329958"><ele>2384.57</ele><time>2026-05-23T21:56:45.000Z</time></trkpt>
        <trkpt lat="29.5429807" lon="103.3329603"><ele>2384.21</ele><time>2026-05-23T21:56:49.000Z</time></trkpt>
        <trkpt lat="29.5429334" lon="103.3329297"><ele>2384.93</ele><time>2026-05-23T21:56:53.000Z</time></trkpt>
        <trkpt lat="29.5428876" lon="103.3328932"><ele>2385.12</ele><time>2026-05-23T21:56:57.000Z</time></trkpt>
        <trkpt lat="29.5428487" lon="103.332839"><ele>2384.98</ele><time>2026-05-23T21:57:01.000Z</time></trkpt>
        <trkpt lat="29.542814" lon="103.3327787"><ele>2385.44</ele><time>2026-05-23T21:57:05.000Z</time></trkpt>
        <trkpt lat="29.5427904" lon="103.3327259"><ele>2385.7</ele><time>2026-05-23T21:57:09.000Z</time></trkpt>
        <trkpt lat="29.5427681" lon="103.3326794"><ele>2385.39</ele><time>2026-05-23T21:57:13.000Z</time></trkpt>
        <trkpt lat="29.542725" lon="103.3326524"><ele>2386.23</ele><time>2026-05-23T21:57:17.000Z</time></trkpt>
        <trkpt lat="29.5426717" lon="103.3326402"><ele>2386.15</ele><time>2026-05-23T21:57:21.000Z</time></trkpt>
        <trkpt lat="29.5426137" lon="103.3326173"><ele>2386.58</ele><time>2026-05-23T21:57:25.000Z</time></trkpt>
        <trkpt lat="29.5425723" lon="103.3325707"><ele>2387</ele><time>2026-05-23T21:57:31.000Z</time></trkpt>
        <trkpt lat="29.5425595" lon="103.3325157"><ele>2387.96</ele><time>2026-05-23T21:57:35.000Z</time></trkpt>
        <trkpt lat="29.5425611" lon="103.3324539"><ele>2389.15</ele><time>2026-05-23T21:57:39.000Z</time></trkpt>
        <trkpt lat="29.5425374" lon="103.3323998"><ele>2388.48</ele><time>2026-05-23T21:57:43.000Z</time></trkpt>
        <trkpt lat="29.5425129" lon="103.332342"><ele>2387.62</ele><time>2026-05-23T21:57:47.000Z</time></trkpt>
        <trkpt lat="29.5424869" lon="103.3322901"><ele>2387.59</ele><time>2026-05-23T21:57:51.000Z</time></trkpt>
        <trkpt lat="29.5424606" lon="103.3322423"><ele>2387.68</ele><time>2026-05-23T21:57:55.000Z</time></trkpt>
        <trkpt lat="29.5424373" lon="103.3321938"><ele>2387.67</ele><time>2026-05-23T21:57:59.000Z</time></trkpt>
        <trkpt lat="29.5424117" lon="103.3321442"><ele>2387.81</ele><time>2026-05-23T21:58:03.000Z</time></trkpt>
        <trkpt lat="29.5423615" lon="103.3321033"><ele>2388.49</ele><time>2026-05-23T21:58:09.000Z</time></trkpt>
        <trkpt lat="29.5423141" lon="103.3320756"><ele>2388.59</ele><time>2026-05-23T21:58:13.000Z</time></trkpt>
        <trkpt lat="29.5422724" lon="103.3320402"><ele>2388.46</ele><time>2026-05-23T21:58:17.000Z</time></trkpt>
        <trkpt lat="29.542233" lon="103.3320044"><ele>2388.47</ele><time>2026-05-23T21:58:21.000Z</time></trkpt>
        <trkpt lat="29.542172" lon="103.3320017"><ele>2388.56</ele><time>2026-05-23T21:58:27.000Z</time></trkpt>
        <trkpt lat="29.5421171" lon="103.3319993"><ele>2388.36</ele><time>2026-05-23T21:58:31.000Z</time></trkpt>
        <trkpt lat="29.5420672" lon="103.3319971"><ele>2387.63</ele><time>2026-05-23T21:58:35.000Z</time></trkpt>
        <trkpt lat="29.5420185" lon="103.3320145"><ele>2386.97</ele><time>2026-05-23T21:58:41.000Z</time></trkpt>
        <trkpt lat="29.5419987" lon="103.3320641"><ele>2386.14</ele><time>2026-05-23T21:58:47.000Z</time></trkpt>
        <trkpt lat="29.5419564" lon="103.3320702"><ele>2385.37</ele><time>2026-05-23T21:58:53.000Z</time></trkpt>
        <trkpt lat="29.5419074" lon="103.3320666"><ele>2386.22</ele><time>2026-05-23T21:58:57.000Z</time></trkpt>
        <trkpt lat="29.5418436" lon="103.3320697"><ele>2385.05</ele><time>2026-05-23T21:59:03.000Z</time></trkpt>
        <trkpt lat="29.5417863" lon="103.3320742"><ele>2384.4</ele><time>2026-05-23T21:59:19.000Z</time></trkpt>
        <trkpt lat="29.5417384" lon="103.3320519"><ele>2383.24</ele><time>2026-05-23T21:59:23.000Z</time></trkpt>
        <trkpt lat="29.5417318" lon="103.3319852"><ele>2382.8</ele><time>2026-05-23T21:59:27.000Z</time></trkpt>
        <trkpt lat="29.5417381" lon="103.331917"><ele>2382.31</ele><time>2026-05-23T21:59:31.000Z</time></trkpt>
        <trkpt lat="29.5417612" lon="103.3318566"><ele>2381.41</ele><time>2026-05-23T21:59:35.000Z</time></trkpt>
        <trkpt lat="29.5418035" lon="103.3318057"><ele>2380.52</ele><time>2026-05-23T21:59:39.000Z</time></trkpt>
        <trkpt lat="29.54184" lon="103.3317508"><ele>2379.69</ele><time>2026-05-23T21:59:43.000Z</time></trkpt>
        <trkpt lat="29.5418506" lon="103.3316934"><ele>2379.95</ele><time>2026-05-23T21:59:47.000Z</time></trkpt>
        <trkpt lat="29.5418218" lon="103.3316566"><ele>2379.9</ele><time>2026-05-23T21:59:51.000Z</time></trkpt>
        <trkpt lat="29.5417755" lon="103.3316563"><ele>2380.14</ele><time>2026-05-23T21:59:55.000Z</time></trkpt>
        <trkpt lat="29.5417289" lon="103.3316822"><ele>2380.6</ele><time>2026-05-23T21:59:59.000Z</time></trkpt>
        <trkpt lat="29.5416747" lon="103.331698"><ele>2380.54</ele><time>2026-05-23T22:00:03.000Z</time></trkpt>
        <trkpt lat="29.5416227" lon="103.3317217"><ele>2381.8</ele><time>2026-05-23T22:00:07.000Z</time></trkpt>
        <trkpt lat="29.5415527" lon="103.3317327"><ele>2382.53</ele><time>2026-05-23T22:00:13.000Z</time></trkpt>
        <trkpt lat="29.5414888" lon="103.331732"><ele>2383.11</ele><time>2026-05-23T22:00:17.000Z</time></trkpt>
        <trkpt lat="29.5414363" lon="103.3317496"><ele>2383.75</ele><time>2026-05-23T22:00:21.000Z</time></trkpt>
        <trkpt lat="29.5413854" lon="103.3317617"><ele>2384.54</ele><time>2026-05-23T22:00:25.000Z</time></trkpt>
        <trkpt lat="29.541328" lon="103.3317577"><ele>2385.16</ele><time>2026-05-23T22:00:29.000Z</time></trkpt>
        <trkpt lat="29.5412694" lon="103.3317603"><ele>2385.64</ele><time>2026-05-23T22:00:33.000Z</time></trkpt>
        <trkpt lat="29.5412119" lon="103.3317748"><ele>2386.18</ele><time>2026-05-23T22:00:37.000Z</time></trkpt>
        <trkpt lat="29.5411558" lon="103.3317817"><ele>2386.75</ele><time>2026-05-23T22:00:41.000Z</time></trkpt>
        <trkpt lat="29.5411058" lon="103.3317724"><ele>2387.21</ele><time>2026-05-23T22:00:45.000Z</time></trkpt>
        <trkpt lat="29.5410483" lon="103.3317632"><ele>2386.76</ele><time>2026-05-23T22:00:53.000Z</time></trkpt>
        <trkpt lat="29.5409994" lon="103.3317527"><ele>2386.37</ele><time>2026-05-23T22:00:59.000Z</time></trkpt>
        <trkpt lat="29.5409492" lon="103.3317528"><ele>2386.9</ele><time>2026-05-23T22:01:07.000Z</time></trkpt>
        <trkpt lat="29.5408955" lon="103.3317431"><ele>2389.28</ele><time>2026-05-23T22:01:13.000Z</time></trkpt>
        <trkpt lat="29.5408313" lon="103.3317341"><ele>2390.89</ele><time>2026-05-23T22:01:19.000Z</time></trkpt>
        <trkpt lat="29.540765" lon="103.3317341"><ele>2390.92</ele><time>2026-05-23T22:01:25.000Z</time></trkpt>
        <trkpt lat="29.5407051" lon="103.3317401"><ele>2391.91</ele><time>2026-05-23T22:01:31.000Z</time></trkpt>
        <trkpt lat="29.5406547" lon="103.3317669"><ele>2392.51</ele><time>2026-05-23T22:01:37.000Z</time></trkpt>
        <trkpt lat="29.5406171" lon="103.3318056"><ele>2393.2</ele><time>2026-05-23T22:01:41.000Z</time></trkpt>
        <trkpt lat="29.5405721" lon="103.3318457"><ele>2394.23</ele><time>2026-05-23T22:01:47.000Z</time></trkpt>
        <trkpt lat="29.540521" lon="103.3318741"><ele>2393.42</ele><time>2026-05-23T22:01:53.000Z</time></trkpt>
        <trkpt lat="29.5404731" lon="103.3318959"><ele>2393.15</ele><time>2026-05-23T22:01:59.000Z</time></trkpt>
        <trkpt lat="29.540427" lon="103.3319076"><ele>2392.89</ele><time>2026-05-23T22:02:03.000Z</time></trkpt>
        <trkpt lat="29.5403706" lon="103.3319263"><ele>2392.37</ele><time>2026-05-23T22:02:09.000Z</time></trkpt>
        <trkpt lat="29.5403162" lon="103.331947"><ele>2391.74</ele><time>2026-05-23T22:02:14.000Z</time></trkpt>
        <trkpt lat="29.5402699" lon="103.3319714"><ele>2390.5</ele><time>2026-05-23T22:02:18.000Z</time></trkpt>
        <trkpt lat="29.5402582" lon="103.3320289"><ele>2390.38</ele><time>2026-05-23T22:02:22.000Z</time></trkpt>
        <trkpt lat="29.5402276" lon="103.3320816"><ele>2390.35</ele><time>2026-05-23T22:02:28.000Z</time></trkpt>
        <trkpt lat="29.5401766" lon="103.3321125"><ele>2390.35</ele><time>2026-05-23T22:02:34.000Z</time></trkpt>
        <trkpt lat="29.5401289" lon="103.3321376"><ele>2391.22</ele><time>2026-05-23T22:02:38.000Z</time></trkpt>
        <trkpt lat="29.5400826" lon="103.3321679"><ele>2392.24</ele><time>2026-05-23T22:02:42.000Z</time></trkpt>
        <trkpt lat="29.5400389" lon="103.3322004"><ele>2393.66</ele><time>2026-05-23T22:02:46.000Z</time></trkpt>
        <trkpt lat="29.5400038" lon="103.3322237"><ele>2393.2</ele><time>2026-05-23T22:02:52.000Z</time></trkpt>
        <trkpt lat="29.5399584" lon="103.3322709"><ele>2393.29</ele><time>2026-05-23T22:03:40.000Z</time></trkpt>
        <trkpt lat="29.5399137" lon="103.3323037"><ele>2391.54</ele><time>2026-05-23T22:03:46.000Z</time></trkpt>
        <trkpt lat="29.5398599" lon="103.3323286"><ele>2390.58</ele><time>2026-05-23T22:03:52.000Z</time></trkpt>
        <trkpt lat="29.5398037" lon="103.3323542"><ele>2389.55</ele><time>2026-05-23T22:03:58.000Z</time></trkpt>
        <trkpt lat="29.5397443" lon="103.3323626"><ele>2388.9</ele><time>2026-05-23T22:04:04.000Z</time></trkpt>
        <trkpt lat="29.5397037" lon="103.3323966"><ele>2389.21</ele><time>2026-05-23T22:04:12.000Z</time></trkpt>
        <trkpt lat="29.5396614" lon="103.332407"><ele>2388.27</ele><time>2026-05-23T22:04:20.000Z</time></trkpt>
        <trkpt lat="29.5396123" lon="103.3324325"><ele>2387.6</ele><time>2026-05-23T22:04:32.000Z</time></trkpt>
        <trkpt lat="29.5395724" lon="103.3324626"><ele>2390.25</ele><time>2026-05-23T22:04:42.000Z</time></trkpt>
        <trkpt lat="29.5395475" lon="103.3325075"><ele>2391.64</ele><time>2026-05-23T22:04:56.000Z</time></trkpt>
        <trkpt lat="29.5395293" lon="103.3325597"><ele>2393.59</ele><time>2026-05-23T22:05:18.000Z</time></trkpt>
        <trkpt lat="29.5394954" lon="103.3325938"><ele>2395.57</ele><time>2026-05-23T22:05:26.000Z</time></trkpt>
        <trkpt lat="29.5394539" lon="103.3326273"><ele>2397.41</ele><time>2026-05-23T22:05:44.000Z</time></trkpt>
        <trkpt lat="29.5394172" lon="103.3326732"><ele>2399.18</ele><time>2026-05-23T22:05:52.000Z</time></trkpt>
        <trkpt lat="29.5394172" lon="103.3326732"><ele>2399.18</ele><time>2026-05-23T22:06:03.000Z</time></trkpt>
        <trkpt lat="29.5393535" lon="103.3327255"><ele>2400.32</ele><time>2026-05-23T22:06:08.000Z</time></trkpt>
        <trkpt lat="29.5393535" lon="103.3327255"><ele>2400.32</ele><time>2026-05-23T22:06:11.000Z</time></trkpt>
        <trkpt lat="29.5393067" lon="103.3327729"><ele>2402.18</ele><time>2026-05-23T22:06:35.000Z</time></trkpt>
        <trkpt lat="29.5392621" lon="103.3328093"><ele>2404</ele><time>2026-05-23T22:06:41.000Z</time></trkpt>
        <trkpt lat="29.539215" lon="103.3328524"><ele>2405.83</ele><time>2026-05-23T22:06:47.000Z</time></trkpt>
        <trkpt lat="29.5391691" lon="103.3328523"><ele>2407.92</ele><time>2026-05-23T22:06:51.000Z</time></trkpt>
        <trkpt lat="29.5391236" lon="103.3328652"><ele>2409.07</ele><time>2026-05-23T22:06:57.000Z</time></trkpt>
        <trkpt lat="29.5390852" lon="103.3329057"><ele>2409.54</ele><time>2026-05-23T22:07:03.000Z</time></trkpt>
        <trkpt lat="29.5390378" lon="103.3329427"><ele>2409.87</ele><time>2026-05-23T22:07:11.000Z</time></trkpt>
        <trkpt lat="29.5390009" lon="103.3329941"><ele>2410.64</ele><time>2026-05-23T22:07:19.000Z</time></trkpt>
        <trkpt lat="29.5389557" lon="103.3330377"><ele>2410.58</ele><time>2026-05-23T22:07:27.000Z</time></trkpt>
        <trkpt lat="29.5389068" lon="103.3330662"><ele>2410.03</ele><time>2026-05-23T22:07:33.000Z</time></trkpt>
        <trkpt lat="29.5388736" lon="103.3331026"><ele>2409.6</ele><time>2026-05-23T22:07:37.000Z</time></trkpt>
        <trkpt lat="29.5388185" lon="103.3331018"><ele>2409.51</ele><time>2026-05-23T22:07:43.000Z</time></trkpt>
        <trkpt lat="29.538759" lon="103.3331089"><ele>2409.55</ele><time>2026-05-23T22:07:49.000Z</time></trkpt>
        <trkpt lat="29.5387049" lon="103.3331219"><ele>2410.29</ele><time>2026-05-23T22:07:55.000Z</time></trkpt>
        <trkpt lat="29.5386454" lon="103.3331353"><ele>2410.57</ele><time>2026-05-23T22:08:03.000Z</time></trkpt>
        <trkpt lat="29.5385961" lon="103.3331478"><ele>2411.82</ele><time>2026-05-23T22:08:09.000Z</time></trkpt>
        <trkpt lat="29.5385381" lon="103.3331586"><ele>2411.76</ele><time>2026-05-23T22:08:15.000Z</time></trkpt>
        <trkpt lat="29.5384864" lon="103.3331737"><ele>2411.82</ele><time>2026-05-23T22:08:23.000Z</time></trkpt>
        <trkpt lat="29.5384258" lon="103.3331846"><ele>2412</ele><time>2026-05-23T22:08:29.000Z</time></trkpt>
        <trkpt lat="29.5383759" lon="103.3332069"><ele>2412.6</ele><time>2026-05-23T22:08:39.000Z</time></trkpt>
        <trkpt lat="29.5383364" lon="103.3332387"><ele>2412.98</ele><time>2026-05-23T22:08:49.000Z</time></trkpt>
        <trkpt lat="29.5382978" lon="103.333266"><ele>2414.87</ele><time>2026-05-23T22:08:55.000Z</time></trkpt>
        <trkpt lat="29.5382425" lon="103.3333008"><ele>2415.99</ele><time>2026-05-23T22:09:01.000Z</time></trkpt>
        <trkpt lat="29.5381884" lon="103.3333482"><ele>2417</ele><time>2026-05-23T22:09:07.000Z</time></trkpt>
        <trkpt lat="29.5381371" lon="103.333387"><ele>2417.1</ele><time>2026-05-23T22:09:13.000Z</time></trkpt>
        <trkpt lat="29.5380758" lon="103.3334184"><ele>2417.46</ele><time>2026-05-23T22:09:19.000Z</time></trkpt>
        <trkpt lat="29.5380247" lon="103.3334333"><ele>2417.85</ele><time>2026-05-23T22:09:23.000Z</time></trkpt>
        <trkpt lat="29.5379785" lon="103.3334566"><ele>2417.73</ele><time>2026-05-23T22:09:29.000Z</time></trkpt>
        <trkpt lat="29.5379308" lon="103.3334809"><ele>2417.81</ele><time>2026-05-23T22:09:33.000Z</time></trkpt>
        <trkpt lat="29.5378872" lon="103.3335096"><ele>2417.88</ele><time>2026-05-23T22:09:39.000Z</time></trkpt>
        <trkpt lat="29.5378357" lon="103.3335266"><ele>2417.88</ele><time>2026-05-23T22:09:43.000Z</time></trkpt>
        <trkpt lat="29.5377838" lon="103.3335545"><ele>2418.45</ele><time>2026-05-23T22:09:47.000Z</time></trkpt>
        <trkpt lat="29.5377509" lon="103.333595"><ele>2418.64</ele><time>2026-05-23T22:09:51.000Z</time></trkpt>
        <trkpt lat="29.537716" lon="103.3336466"><ele>2418.59</ele><time>2026-05-23T22:09:57.000Z</time></trkpt>
        <trkpt lat="29.5376939" lon="103.3337056"><ele>2419.25</ele><time>2026-05-23T22:10:03.000Z</time></trkpt>
        <trkpt lat="29.5376581" lon="103.333746"><ele>2420.66</ele><time>2026-05-23T22:10:09.000Z</time></trkpt>
        <trkpt lat="29.537614" lon="103.3337695"><ele>2422.06</ele><time>2026-05-23T22:10:15.000Z</time></trkpt>
        <trkpt lat="29.5375674" lon="103.3337772"><ele>2423.54</ele><time>2026-05-23T22:10:21.000Z</time></trkpt>
        <trkpt lat="29.5375169" lon="103.333762"><ele>2424.96</ele><time>2026-05-23T22:10:31.000Z</time></trkpt>
        <trkpt lat="29.5374719" lon="103.3337709"><ele>2425.51</ele><time>2026-05-23T22:10:37.000Z</time></trkpt>
        <trkpt lat="29.5374219" lon="103.3337611"><ele>2425.6</ele><time>2026-05-23T22:10:43.000Z</time></trkpt>
        <trkpt lat="29.5373741" lon="103.3337541"><ele>2426.17</ele><time>2026-05-23T22:10:49.000Z</time></trkpt>
        <trkpt lat="29.5373279" lon="103.3337806"><ele>2427.77</ele><time>2026-05-23T22:10:59.000Z</time></trkpt>
        <trkpt lat="29.5373039" lon="103.3338327"><ele>2428.13</ele><time>2026-05-23T22:11:05.000Z</time></trkpt>
        <trkpt lat="29.5372957" lon="103.3339026"><ele>2428.99</ele><time>2026-05-23T22:11:17.000Z</time></trkpt>
        <trkpt lat="29.5372688" lon="103.3339527"><ele>2430.23</ele><time>2026-05-23T22:11:29.000Z</time></trkpt>
        <trkpt lat="29.5372691" lon="103.3339717"><ele>2432.04</ele><time>2026-05-23T22:11:33.000Z</time></trkpt>
        <trkpt lat="29.5372607" lon="103.3340179"><ele>2432.61</ele><time>2026-05-23T22:11:41.000Z</time></trkpt>
        <trkpt lat="29.5372493" lon="103.3340696"><ele>2433.08</ele><time>2026-05-23T22:11:51.000Z</time></trkpt>
        <trkpt lat="29.5372299" lon="103.3341214"><ele>2433.87</ele><time>2026-05-23T22:11:57.000Z</time></trkpt>
        <trkpt lat="29.5371952" lon="103.3341551"><ele>2434.84</ele><time>2026-05-23T22:12:05.000Z</time></trkpt>
        <trkpt lat="29.5371427" lon="103.3341697"><ele>2436.09</ele><time>2026-05-23T22:12:13.000Z</time></trkpt>
        <trkpt lat="29.5370922" lon="103.3341843"><ele>2436.97</ele><time>2026-05-23T22:12:23.000Z</time></trkpt>
        <trkpt lat="29.5370386" lon="103.3341925"><ele>2436.91</ele><time>2026-05-23T22:12:37.000Z</time></trkpt>
        <trkpt lat="29.5369783" lon="103.3342006"><ele>2438.33</ele><time>2026-05-23T22:12:57.000Z</time></trkpt>
        <trkpt lat="29.5369309" lon="103.3342226"><ele>2440.61</ele><time>2026-05-23T22:13:05.000Z</time></trkpt>
        <trkpt lat="29.5368838" lon="103.3342507"><ele>2443.26</ele><time>2026-05-23T22:13:25.000Z</time></trkpt>
        <trkpt lat="29.5368368" lon="103.3342797"><ele>2444.48</ele><time>2026-05-23T22:13:37.000Z</time></trkpt>
        <trkpt lat="29.5367887" lon="103.3343082"><ele>2445.15</ele><time>2026-05-23T22:13:47.000Z</time></trkpt>
        <trkpt lat="29.5367354" lon="103.3343007"><ele>2446.47</ele><time>2026-05-23T22:13:55.000Z</time></trkpt>
        <trkpt lat="29.5366878" lon="103.3343237"><ele>2447.31</ele><time>2026-05-23T22:13:59.000Z</time></trkpt>
        <trkpt lat="29.536658" lon="103.3343681"><ele>2448.96</ele><time>2026-05-23T22:14:03.000Z</time></trkpt>
        <trkpt lat="29.5366175" lon="103.3343756"><ele>2450.56</ele><time>2026-05-23T22:14:07.000Z</time></trkpt>
        <trkpt lat="29.5365704" lon="103.3343477"><ele>2450.31</ele><time>2026-05-23T22:14:13.000Z</time></trkpt>
        <trkpt lat="29.5365217" lon="103.3343332"><ele>2449.43</ele><time>2026-05-23T22:14:19.000Z</time></trkpt>
        <trkpt lat="29.5364656" lon="103.3343147"><ele>2448.6</ele><time>2026-05-23T22:14:25.000Z</time></trkpt>
        <trkpt lat="29.5364055" lon="103.3343186"><ele>2447.82</ele><time>2026-05-23T22:14:31.000Z</time></trkpt>
        <trkpt lat="29.5363508" lon="103.3343215"><ele>2446.87</ele><time>2026-05-23T22:14:37.000Z</time></trkpt>
        <trkpt lat="29.5363058" lon="103.3343421"><ele>2446.09</ele><time>2026-05-23T22:14:47.000Z</time></trkpt>
        <trkpt lat="29.5362721" lon="103.3343485"><ele>2447.64</ele><time>2026-05-23T22:14:55.000Z</time></trkpt>
        <trkpt lat="29.5362315" lon="103.3343384"><ele>2449.65</ele><time>2026-05-23T22:15:09.000Z</time></trkpt>
        <trkpt lat="29.5361852" lon="103.3343376"><ele>2450.65</ele><time>2026-05-23T22:15:17.000Z</time></trkpt>
        <trkpt lat="29.5361554" lon="103.3343039"><ele>2452.2</ele><time>2026-05-23T22:15:25.000Z</time></trkpt>
        <trkpt lat="29.5361315" lon="103.3342507"><ele>2453.43</ele><time>2026-05-23T22:15:33.000Z</time></trkpt>
        <trkpt lat="29.5360939" lon="103.3342215"><ele>2454.19</ele><time>2026-05-23T22:15:45.000Z</time></trkpt>
        <trkpt lat="29.5360451" lon="103.3342013"><ele>2455.46</ele><time>2026-05-23T22:15:55.000Z</time></trkpt>
        <trkpt lat="29.5360007" lon="103.3341774"><ele>2456.83</ele><time>2026-05-23T22:16:13.000Z</time></trkpt>
        <trkpt lat="29.5359541" lon="103.3341676"><ele>2457.56</ele><time>2026-05-23T22:16:23.000Z</time></trkpt>
        <trkpt lat="29.5359087" lon="103.3341364"><ele>2459</ele><time>2026-05-23T22:16:33.000Z</time></trkpt>
        <trkpt lat="29.5358623" lon="103.3341228"><ele>2459.21</ele><time>2026-05-23T22:16:41.000Z</time></trkpt>
        <trkpt lat="29.5358224" lon="103.3340952"><ele>2460.7</ele><time>2026-05-23T22:16:49.000Z</time></trkpt>
        <trkpt lat="29.5357753" lon="103.3340683"><ele>2461.59</ele><time>2026-05-23T22:16:55.000Z</time></trkpt>
        <trkpt lat="29.535732" lon="103.3340329"><ele>2462.25</ele><time>2026-05-23T22:17:01.000Z</time></trkpt>
        <trkpt lat="29.5356801" lon="103.3340114"><ele>2463.32</ele><time>2026-05-23T22:17:09.000Z</time></trkpt>
        <trkpt lat="29.5356337" lon="103.333982"><ele>2463.13</ele><time>2026-05-23T22:17:31.000Z</time></trkpt>
        <trkpt lat="29.5356116" lon="103.3339374"><ele>2463.57</ele><time>2026-05-23T22:17:43.000Z</time></trkpt>
        <trkpt lat="29.5355798" lon="103.3339013"><ele>2465.81</ele><time>2026-05-23T22:17:55.000Z</time></trkpt>
        <trkpt lat="29.5355588" lon="103.3338555"><ele>2468.31</ele><time>2026-05-23T22:18:05.000Z</time></trkpt>
        <trkpt lat="29.5355556" lon="103.3337913"><ele>2469.28</ele><time>2026-05-23T22:18:11.000Z</time></trkpt>
        <trkpt lat="29.5355703" lon="103.3337785"><ele>2469.56</ele><time>2026-05-23T22:18:15.000Z</time></trkpt>
        <trkpt lat="29.5355967" lon="103.3337391"><ele>2470.48</ele><time>2026-05-23T22:18:25.000Z</time></trkpt>
        <trkpt lat="29.5355637" lon="103.3337089"><ele>2471.69</ele><time>2026-05-23T22:18:33.000Z</time></trkpt>
        <trkpt lat="29.535521" lon="103.3336776"><ele>2472.22</ele><time>2026-05-23T22:18:37.000Z</time></trkpt>
        <trkpt lat="29.5354837" lon="103.3336369"><ele>2473.72</ele><time>2026-05-23T22:18:43.000Z</time></trkpt>
        <trkpt lat="29.5354553" lon="103.3335868"><ele>2475.26</ele><time>2026-05-23T22:18:49.000Z</time></trkpt>
        <trkpt lat="29.5354489" lon="103.3335208"><ele>2476.41</ele><time>2026-05-23T22:18:55.000Z</time></trkpt>
        <trkpt lat="29.5354211" lon="103.3334579"><ele>2476.25</ele><time>2026-05-23T22:19:01.000Z</time></trkpt>
        <trkpt lat="29.5353766" lon="103.3334665"><ele>2476.42</ele><time>2026-05-23T22:19:07.000Z</time></trkpt>
        <trkpt lat="29.5353773" lon="103.3335262"><ele>2476.48</ele><time>2026-05-23T22:19:13.000Z</time></trkpt>
        <trkpt lat="29.5353831" lon="103.3335541"><ele>2475.7</ele><time>2026-05-23T22:19:15.000Z</time></trkpt>
        <trkpt lat="29.5353831" lon="103.3335541"><ele>2475.7</ele><time>2026-05-23T22:20:09.000Z</time></trkpt>
        <trkpt lat="29.5354189" lon="103.333446"><ele>2475.27</ele><time>2026-05-23T22:20:40.000Z</time></trkpt>
        <trkpt lat="29.5354189" lon="103.333446"><ele>2475.27</ele><time>2026-05-23T22:20:43.000Z</time></trkpt>
        <trkpt lat="29.5354186" lon="103.3335238"><ele>2480.29</ele><time>2026-05-23T22:20:45.000Z</time></trkpt>
        <trkpt lat="29.5353769" lon="103.3335216"><ele>2477.86</ele><time>2026-05-23T22:21:07.000Z</time></trkpt>
        <trkpt lat="29.535335" lon="103.3334899"><ele>2477.78</ele><time>2026-05-23T22:21:21.000Z</time></trkpt>
        <trkpt lat="29.5353177" lon="103.3334318"><ele>2477.27</ele><time>2026-05-23T22:21:33.000Z</time></trkpt>
        <trkpt lat="29.5352946" lon="103.3333761"><ele>2476.86</ele><time>2026-05-23T22:21:45.000Z</time></trkpt>
        <trkpt lat="29.5352811" lon="103.33331"><ele>2476.86</ele><time>2026-05-23T22:21:55.000Z</time></trkpt>
        <trkpt lat="29.5352639" lon="103.3332543"><ele>2477.21</ele><time>2026-05-23T22:22:05.000Z</time></trkpt>
        <trkpt lat="29.5352561" lon="103.3331985"><ele>2477.9</ele><time>2026-05-23T22:22:17.000Z</time></trkpt>
        <trkpt lat="29.5352306" lon="103.3331509"><ele>2479.14</ele><time>2026-05-23T22:22:29.000Z</time></trkpt>
        <trkpt lat="29.5352216" lon="103.3330994"><ele>2480.71</ele><time>2026-05-23T22:22:35.000Z</time></trkpt>
        <trkpt lat="29.5351902" lon="103.3330555"><ele>2481.96</ele><time>2026-05-23T22:22:59.000Z</time></trkpt>
        <trkpt lat="29.535156" lon="103.3330069"><ele>2484.53</ele><time>2026-05-23T22:23:17.000Z</time></trkpt>
        <trkpt lat="29.5351186" lon="103.3329627"><ele>2487.3</ele><time>2026-05-23T22:23:29.000Z</time></trkpt>
        <trkpt lat="29.5350978" lon="103.3329085"><ele>2489.68</ele><time>2026-05-23T22:23:33.000Z</time></trkpt>
        <trkpt lat="29.5350754" lon="103.3328577"><ele>2491.45</ele><time>2026-05-23T22:23:41.000Z</time></trkpt>
        <trkpt lat="29.5350388" lon="103.3328108"><ele>2492.93</ele><time>2026-05-23T22:23:47.000Z</time></trkpt>
        <trkpt lat="29.534983" lon="103.3327964"><ele>2493.41</ele><time>2026-05-23T22:23:51.000Z</time></trkpt>
        <trkpt lat="29.534925" lon="103.3328272"><ele>2493.59</ele><time>2026-05-23T22:23:57.000Z</time></trkpt>
        <trkpt lat="29.5348896" lon="103.3328744"><ele>2493.5</ele><time>2026-05-23T22:24:03.000Z</time></trkpt>
        <trkpt lat="29.5348706" lon="103.3329307"><ele>2493.73</ele><time>2026-05-23T22:24:19.000Z</time></trkpt>
        <trkpt lat="29.5348595" lon="103.3329574"><ele>2494.93</ele><time>2026-05-23T22:24:23.000Z</time></trkpt>
        <trkpt lat="29.5348236" lon="103.3329662"><ele>2495.81</ele><time>2026-05-23T22:24:33.000Z</time></trkpt>
        <trkpt lat="29.5347757" lon="103.332961"><ele>2495.66</ele><time>2026-05-23T22:25:06.000Z</time></trkpt>
        <trkpt lat="29.5347305" lon="103.3329878"><ele>2495.04</ele><time>2026-05-23T22:25:40.000Z</time></trkpt>
        <trkpt lat="29.5346822" lon="103.3330076"><ele>2496.19</ele><time>2026-05-23T22:25:50.000Z</time></trkpt>
        <trkpt lat="29.5346331" lon="103.3330128"><ele>2497.86</ele><time>2026-05-23T22:26:08.000Z</time></trkpt>
        <trkpt lat="29.5345852" lon="103.3330189"><ele>2499.5</ele><time>2026-05-23T22:26:16.000Z</time></trkpt>
        <trkpt lat="29.5345328" lon="103.3330366"><ele>2500.85</ele><time>2026-05-23T22:26:26.000Z</time></trkpt>
        <trkpt lat="29.534479" lon="103.3330607"><ele>2501.62</ele><time>2026-05-23T22:26:34.000Z</time></trkpt>
        <trkpt lat="29.5344409" lon="103.3330954"><ele>2503.37</ele><time>2026-05-23T22:26:42.000Z</time></trkpt>
        <trkpt lat="29.534402" lon="103.3331333"><ele>2505.41</ele><time>2026-05-23T22:27:02.000Z</time></trkpt>
        <trkpt lat="29.5343583" lon="103.333162"><ele>2507.47</ele><time>2026-05-23T22:27:30.000Z</time></trkpt>
        <trkpt lat="29.5343139" lon="103.333144"><ele>2508.79</ele><time>2026-05-23T22:27:40.000Z</time></trkpt>
        <trkpt lat="29.5342616" lon="103.3331372"><ele>2510.78</ele><time>2026-05-23T22:28:02.000Z</time></trkpt>
        <trkpt lat="29.5342129" lon="103.3331417"><ele>2513.14</ele><time>2026-05-23T22:28:06.000Z</time></trkpt>
        <trkpt lat="29.5341587" lon="103.3331248"><ele>2514.15</ele><time>2026-05-23T22:28:18.000Z</time></trkpt>
        <trkpt lat="29.5341449" lon="103.3331191"><ele>2515.93</ele><time>2026-05-23T22:28:22.000Z</time></trkpt>
        <trkpt lat="29.5341132" lon="103.3331523"><ele>2516.46</ele><time>2026-05-23T22:28:32.000Z</time></trkpt>
        <trkpt lat="29.5340754" lon="103.3331843"><ele>2516.51</ele><time>2026-05-23T22:28:48.000Z</time></trkpt>
        <trkpt lat="29.5340754" lon="103.3331843"><ele>2516.51</ele><time>2026-05-23T22:29:13.000Z</time></trkpt>
        <trkpt lat="29.5340179" lon="103.3332067"><ele>2517.33</ele><time>2026-05-23T22:29:16.000Z</time></trkpt>
        <trkpt lat="29.5340179" lon="103.3332067"><ele>2517.33</ele><time>2026-05-23T22:29:57.000Z</time></trkpt>
        <trkpt lat="29.5339632" lon="103.3331912"><ele>2521.06</ele><time>2026-05-23T22:30:07.000Z</time></trkpt>
        <trkpt lat="29.5339219" lon="103.3332137"><ele>2522.61</ele><time>2026-05-23T22:30:15.000Z</time></trkpt>
        <trkpt lat="29.5338736" lon="103.3332049"><ele>2523.37</ele><time>2026-05-23T22:30:33.000Z</time></trkpt>
        <trkpt lat="29.5338495" lon="103.3331553"><ele>2527.05</ele><time>2026-05-23T22:30:47.000Z</time></trkpt>
        <trkpt lat="29.5338119" lon="103.3331391"><ele>2529.12</ele><time>2026-05-23T22:31:01.000Z</time></trkpt>
        <trkpt lat="29.5337886" lon="103.3331003"><ele>2529.79</ele><time>2026-05-23T22:31:13.000Z</time></trkpt>
        <trkpt lat="29.5337598" lon="103.3330557"><ele>2531.01</ele><time>2026-05-23T22:31:41.000Z</time></trkpt>
        <trkpt lat="29.5337382" lon="103.3330011"><ele>2531.32</ele><time>2026-05-23T22:31:51.000Z</time></trkpt>
        <trkpt lat="29.5336969" lon="103.3329708"><ele>2534.3</ele><time>2026-05-23T22:32:25.000Z</time></trkpt>
        <trkpt lat="29.5336828" lon="103.332965"><ele>2536.88</ele><time>2026-05-23T22:32:27.000Z</time></trkpt>
        <trkpt lat="29.5336456" lon="103.3329716"><ele>2538.91</ele><time>2026-05-23T22:32:43.000Z</time></trkpt>
        <trkpt lat="29.5336015" lon="103.3329521"><ele>2539.68</ele><time>2026-05-23T22:32:49.000Z</time></trkpt>
        <trkpt lat="29.5335788" lon="103.3329054"><ele>2539.4</ele><time>2026-05-23T22:32:57.000Z</time></trkpt>
        <trkpt lat="29.5335783" lon="103.3329373"><ele>2540.94</ele><time>2026-05-23T22:33:07.000Z</time></trkpt>
        <trkpt lat="29.5335362" lon="103.3329393"><ele>2542.48</ele><time>2026-05-23T22:33:13.000Z</time></trkpt>
        <trkpt lat="29.5335302" lon="103.3328993"><ele>2542.88</ele><time>2026-05-23T22:33:23.000Z</time></trkpt>
        <trkpt lat="29.5334991" lon="103.3328542"><ele>2544.71</ele><time>2026-05-23T22:33:41.000Z</time></trkpt>
        <trkpt lat="29.5334647" lon="103.332813"><ele>2545.7</ele><time>2026-05-23T22:33:55.000Z</time></trkpt>
        <trkpt lat="29.533429" lon="103.3327695"><ele>2547.35</ele><time>2026-05-23T22:34:27.000Z</time></trkpt>
        <trkpt lat="29.5333915" lon="103.3327345"><ele>2549.68</ele><time>2026-05-23T22:34:39.000Z</time></trkpt>
        <trkpt lat="29.5333414" lon="103.3327054"><ele>2552.27</ele><time>2026-05-23T22:34:47.000Z</time></trkpt>
        <trkpt lat="29.5332973" lon="103.3326789"><ele>2553.05</ele><time>2026-05-23T22:35:09.000Z</time></trkpt>
        <trkpt lat="29.5332533" lon="103.3326473"><ele>2555.94</ele><time>2026-05-23T22:35:21.000Z</time></trkpt>
        <trkpt lat="29.5332102" lon="103.3326058"><ele>2558.44</ele><time>2026-05-23T22:35:45.000Z</time></trkpt>
        <trkpt lat="29.5331656" lon="103.3325648"><ele>2561.01</ele><time>2026-05-23T22:35:51.000Z</time></trkpt>
        <trkpt lat="29.5331656" lon="103.3325648"><ele>2561.01</ele><time>2026-05-23T22:36:03.000Z</time></trkpt>
        <trkpt lat="29.5331416" lon="103.3325125"><ele>2563.42</ele><time>2026-05-23T22:36:08.000Z</time></trkpt>
        <trkpt lat="29.5331416" lon="103.3325125"><ele>2563.42</ele><time>2026-05-23T22:36:27.000Z</time></trkpt>
        <trkpt lat="29.5331034" lon="103.332497"><ele>2567.36</ele><time>2026-05-23T22:36:35.000Z</time></trkpt>
        <trkpt lat="29.5331034" lon="103.332497"><ele>2567.36</ele><time>2026-05-23T22:36:47.000Z</time></trkpt>
        <trkpt lat="29.533065" lon="103.3324696"><ele>2569.36</ele><time>2026-05-23T22:36:50.000Z</time></trkpt>
        <trkpt lat="29.533065" lon="103.3324696"><ele>2569.36</ele><time>2026-05-23T22:37:05.000Z</time></trkpt>
        <trkpt lat="29.5330256" lon="103.3324339"><ele>2568.68</ele><time>2026-05-23T22:37:15.000Z</time></trkpt>
        <trkpt lat="29.532995" lon="103.332384"><ele>2569.3</ele><time>2026-05-23T22:37:25.000Z</time></trkpt>
        <trkpt lat="29.5329592" lon="103.3323439"><ele>2570.63</ele><time>2026-05-23T22:37:39.000Z</time></trkpt>
        <trkpt lat="29.5329277" lon="103.3322998"><ele>2572.53</ele><time>2026-05-23T22:37:55.000Z</time></trkpt>
        <trkpt lat="29.5329029" lon="103.3322547"><ele>2574.05</ele><time>2026-05-23T22:38:13.000Z</time></trkpt>
        <trkpt lat="29.5328674" lon="103.3322238"><ele>2576.35</ele><time>2026-05-23T22:38:27.000Z</time></trkpt>
        <trkpt lat="29.5328419" lon="103.33218"><ele>2578.38</ele><time>2026-05-23T22:38:37.000Z</time></trkpt>
        <trkpt lat="29.5328098" lon="103.3321338"><ele>2579.69</ele><time>2026-05-23T22:38:49.000Z</time></trkpt>
        <trkpt lat="29.5327793" lon="103.3320871"><ele>2580.92</ele><time>2026-05-23T22:39:07.000Z</time></trkpt>
        <trkpt lat="29.532744" lon="103.332035"><ele>2582.16</ele><time>2026-05-23T22:39:15.000Z</time></trkpt>
        <trkpt lat="29.532744" lon="103.332035"><ele>2582.16</ele><time>2026-05-23T22:39:43.000Z</time></trkpt>
        <trkpt lat="29.5326954" lon="103.3319991"><ele>2583.86</ele><time>2026-05-23T22:39:46.000Z</time></trkpt>
        <trkpt lat="29.5326954" lon="103.3319991"><ele>2583.86</ele><time>2026-05-23T22:39:53.000Z</time></trkpt>
        <trkpt lat="29.5326559" lon="103.3319542"><ele>2584.8</ele><time>2026-05-23T22:40:03.000Z</time></trkpt>
        <trkpt lat="29.5326259" lon="103.3319081"><ele>2586.04</ele><time>2026-05-23T22:40:13.000Z</time></trkpt>
        <trkpt lat="29.5326028" lon="103.3318583"><ele>2588.18</ele><time>2026-05-23T22:41:19.000Z</time></trkpt>
        <trkpt lat="29.5325665" lon="103.3318242"><ele>2590.58</ele><time>2026-05-23T22:41:37.000Z</time></trkpt>
        <trkpt lat="29.5325353" lon="103.3317717"><ele>2592.69</ele><time>2026-05-23T22:42:13.000Z</time></trkpt>
        <trkpt lat="29.5325283" lon="103.331716"><ele>2593.58</ele><time>2026-05-23T22:42:55.000Z</time></trkpt>
        <trkpt lat="29.5325173" lon="103.3316644"><ele>2596.17</ele><time>2026-05-23T22:43:11.000Z</time></trkpt>
        <trkpt lat="29.5325063" lon="103.3315996"><ele>2598.99</ele><time>2026-05-23T22:43:33.000Z</time></trkpt>
        <trkpt lat="29.5325102" lon="103.3315425"><ele>2602.38</ele><time>2026-05-23T22:43:37.000Z</time></trkpt>
        <trkpt lat="29.5324914" lon="103.3314957"><ele>2605.41</ele><time>2026-05-23T22:43:51.000Z</time></trkpt>
        <trkpt lat="29.532469" lon="103.3314478"><ele>2607.62</ele><time>2026-05-23T22:44:07.000Z</time></trkpt>
        <trkpt lat="29.5324404" lon="103.3314006"><ele>2609.29</ele><time>2026-05-23T22:44:19.000Z</time></trkpt>
        <trkpt lat="29.5324245" lon="103.3313443"><ele>2610.43</ele><time>2026-05-23T22:44:31.000Z</time></trkpt>
        <trkpt lat="29.5323993" lon="103.3312882"><ele>2613.24</ele><time>2026-05-23T22:44:43.000Z</time></trkpt>
        <trkpt lat="29.5323489" lon="103.331284"><ele>2615.34</ele><time>2026-05-23T22:45:01.000Z</time></trkpt>
        <trkpt lat="29.5323322" lon="103.3312682"><ele>2616.18</ele><time>2026-05-23T22:45:05.000Z</time></trkpt>
        <trkpt lat="29.5323388" lon="103.3312204"><ele>2616.22</ele><time>2026-05-23T22:45:13.000Z</time></trkpt>
        <trkpt lat="29.5323327" lon="103.3311668"><ele>2616.61</ele><time>2026-05-23T22:45:21.000Z</time></trkpt>
        <trkpt lat="29.5323125" lon="103.3311883"><ele>2618.55</ele><time>2026-05-23T22:45:43.000Z</time></trkpt>
        <trkpt lat="29.5322925" lon="103.3312411"><ele>2619.23</ele><time>2026-05-23T22:45:49.000Z</time></trkpt>
        <trkpt lat="29.5322619" lon="103.3312895"><ele>2620.73</ele><time>2026-05-23T22:46:01.000Z</time></trkpt>
        <trkpt lat="29.5322184" lon="103.3313418"><ele>2621.75</ele><time>2026-05-23T22:46:19.000Z</time></trkpt>
        <trkpt lat="29.5321889" lon="103.3313939"><ele>2622.87</ele><time>2026-05-23T22:46:29.000Z</time></trkpt>
        <trkpt lat="29.5321493" lon="103.331424"><ele>2624.08</ele><time>2026-05-23T22:46:35.000Z</time></trkpt>
        <trkpt lat="29.5321371" lon="103.3313831"><ele>2624.05</ele><time>2026-05-23T22:46:43.000Z</time></trkpt>
        <trkpt lat="29.5321651" lon="103.331335"><ele>2624.46</ele><time>2026-05-23T22:46:47.000Z</time></trkpt>
        <trkpt lat="29.5322119" lon="103.3312957"><ele>2625.85</ele><time>2026-05-23T22:46:51.000Z</time></trkpt>
        <trkpt lat="29.5322165" lon="103.3312428"><ele>2628.17</ele><time>2026-05-23T22:46:59.000Z</time></trkpt>
        <trkpt lat="29.5321886" lon="103.3311973"><ele>2630.82</ele><time>2026-05-23T22:47:07.000Z</time></trkpt>
        <trkpt lat="29.532183" lon="103.3311465"><ele>2630.81</ele><time>2026-05-23T22:47:15.000Z</time></trkpt>
        <trkpt lat="29.5321699" lon="103.3310895"><ele>2632.79</ele><time>2026-05-23T22:47:25.000Z</time></trkpt>
        <trkpt lat="29.5321923" lon="103.3310458"><ele>2633.97</ele><time>2026-05-23T22:47:43.000Z</time></trkpt>
        <trkpt lat="29.5321827" lon="103.3309988"><ele>2635.52</ele><time>2026-05-23T22:47:59.000Z</time></trkpt>
        <trkpt lat="29.5321888" lon="103.33095"><ele>2637.45</ele><time>2026-05-23T22:48:17.000Z</time></trkpt>
        <trkpt lat="29.5321888" lon="103.33095"><ele>2637.45</ele><time>2026-05-23T22:48:27.000Z</time></trkpt>
        <trkpt lat="29.5321955" lon="103.3308773"><ele>2639.13</ele><time>2026-05-23T22:48:28.000Z</time></trkpt>
        <trkpt lat="29.5321955" lon="103.3308773"><ele>2639.13</ele><time>2026-05-23T22:48:35.000Z</time></trkpt>
        <trkpt lat="29.5322023" lon="103.330812"><ele>2641.55</ele><time>2026-05-23T22:48:43.000Z</time></trkpt>
        <trkpt lat="29.5322015" lon="103.3307292"><ele>2643.25</ele><time>2026-05-23T22:48:53.000Z</time></trkpt>
        <trkpt lat="29.5321978" lon="103.3306603"><ele>2643.38</ele><time>2026-05-23T22:48:59.000Z</time></trkpt>
        <trkpt lat="29.5321926" lon="103.330602"><ele>2644.86</ele><time>2026-05-23T22:49:11.000Z</time></trkpt>
        <trkpt lat="29.5321637" lon="103.3305624"><ele>2644.87</ele><time>2026-05-23T22:49:15.000Z</time></trkpt>
        <trkpt lat="29.5321756" lon="103.3305161"><ele>2643.34</ele><time>2026-05-23T22:49:27.000Z</time></trkpt>
        <trkpt lat="29.5322118" lon="103.3304731"><ele>2644.66</ele><time>2026-05-23T22:49:31.000Z</time></trkpt>
        <trkpt lat="29.5322118" lon="103.3304731"><ele>2644.66</ele><time>2026-05-23T22:49:45.000Z</time></trkpt>
        <trkpt lat="29.5322166" lon="103.3305114"><ele>2646.43</ele><time>2026-05-23T22:49:48.000Z</time></trkpt>
        <trkpt lat="29.5322166" lon="103.3305114"><ele>2646.43</ele><time>2026-05-23T22:49:53.000Z</time></trkpt>
        <trkpt lat="29.5321831" lon="103.3304902"><ele>2651.57</ele><time>2026-05-23T22:49:57.000Z</time></trkpt>
        <trkpt lat="29.5321381" lon="103.3304631"><ele>2653</ele><time>2026-05-23T22:50:05.000Z</time></trkpt>
        <trkpt lat="29.5321541" lon="103.3304369"><ele>2653.41</ele><time>2026-05-23T22:50:13.000Z</time></trkpt>
        <trkpt lat="29.5321382" lon="103.3304005"><ele>2654.18</ele><time>2026-05-23T22:50:35.000Z</time></trkpt>
        <trkpt lat="29.5321248" lon="103.3303458"><ele>2653.55</ele><time>2026-05-23T22:50:51.000Z</time></trkpt>
        <trkpt lat="29.532132" lon="103.3303341"><ele>2653.87</ele><time>2026-05-23T22:50:55.000Z</time></trkpt>
        <trkpt lat="29.5321411" lon="103.3302927"><ele>2654.63</ele><time>2026-05-23T22:51:17.000Z</time></trkpt>
        <trkpt lat="29.5321631" lon="103.3302447"><ele>2655.69</ele><time>2026-05-23T22:51:29.000Z</time></trkpt>
        <trkpt lat="29.5321905" lon="103.3301946"><ele>2657.15</ele><time>2026-05-23T22:51:43.000Z</time></trkpt>
        <trkpt lat="29.5321905" lon="103.3301946"><ele>2657.15</ele><time>2026-05-23T22:52:29.000Z</time></trkpt>
        <trkpt lat="29.5322256" lon="103.3302068"><ele>2659.04</ele><time>2026-05-23T22:52:38.000Z</time></trkpt>
        <trkpt lat="29.5322256" lon="103.3302068"><ele>2659.04</ele><time>2026-05-23T22:52:43.000Z</time></trkpt>
        <trkpt lat="29.532205" lon="103.3301658"><ele>2661.01</ele><time>2026-05-23T22:52:53.000Z</time></trkpt>
        <trkpt lat="29.5321552" lon="103.3301228"><ele>2661.43</ele><time>2026-05-23T22:53:01.000Z</time></trkpt>
        <trkpt lat="29.5321137" lon="103.3300809"><ele>2660.12</ele><time>2026-05-23T22:53:05.000Z</time></trkpt>
        <trkpt lat="29.5320993" lon="103.330067"><ele>2659.32</ele><time>2026-05-23T22:53:07.000Z</time></trkpt>
        <trkpt lat="29.5320993" lon="103.330067"><ele>2659.32</ele><time>2026-05-23T22:53:23.000Z</time></trkpt>
        <trkpt lat="29.532146" lon="103.3301484"><ele>2658.87</ele><time>2026-05-23T22:53:40.000Z</time></trkpt>
        <trkpt lat="29.532146" lon="103.3301484"><ele>2658.87</ele><time>2026-05-23T22:54:11.000Z</time></trkpt>
        <trkpt lat="29.5321771" lon="103.3301867"><ele>2658.54</ele><time>2026-05-23T22:54:14.000Z</time></trkpt>
        <trkpt lat="29.5322049" lon="103.3302215"><ele>2659.86</ele><time>2026-05-23T22:54:22.000Z</time></trkpt>
        <trkpt lat="29.5321928" lon="103.3302638"><ele>2660.03</ele><time>2026-05-23T22:55:10.000Z</time></trkpt>
        <trkpt lat="29.5321419" lon="103.3302488"><ele>2659.89</ele><time>2026-05-23T22:55:18.000Z</time></trkpt>
        <trkpt lat="29.5320872" lon="103.330236"><ele>2660.16</ele><time>2026-05-23T22:55:24.000Z</time></trkpt>
        <trkpt lat="29.5320356" lon="103.3302376"><ele>2660.44</ele><time>2026-05-23T22:55:32.000Z</time></trkpt>
        <trkpt lat="29.5320356" lon="103.3302376"><ele>2660.44</ele><time>2026-05-23T22:56:03.000Z</time></trkpt>
        <trkpt lat="29.5319982" lon="103.3302873"><ele>2662.49</ele><time>2026-05-23T22:56:06.000Z</time></trkpt>
        <trkpt lat="29.5319982" lon="103.3302873"><ele>2662.49</ele><time>2026-05-23T22:56:11.000Z</time></trkpt>
        <trkpt lat="29.5319636" lon="103.3302733"><ele>2671.88</ele><time>2026-05-23T22:56:25.000Z</time></trkpt>
        <trkpt lat="29.5319215" lon="103.3302776"><ele>2673.86</ele><time>2026-05-23T22:56:41.000Z</time></trkpt>
        <trkpt lat="29.5319215" lon="103.3302776"><ele>2673.86</ele><time>2026-05-23T22:57:05.000Z</time></trkpt>
        <trkpt lat="29.5319393" lon="103.3302507"><ele>2674.07</ele><time>2026-05-23T22:57:10.000Z</time></trkpt>
        <trkpt lat="29.5319393" lon="103.3302507"><ele>2674.07</ele><time>2026-05-23T22:57:15.000Z</time></trkpt>
        <trkpt lat="29.5319139" lon="103.330237"><ele>2678.49</ele><time>2026-05-23T22:57:23.000Z</time></trkpt>
        <trkpt lat="29.5318719" lon="103.3302154"><ele>2679.99</ele><time>2026-05-23T22:57:31.000Z</time></trkpt>
        <trkpt lat="29.5318281" lon="103.3301705"><ele>2679.15</ele><time>2026-05-23T22:57:37.000Z</time></trkpt>
        <trkpt lat="29.5318001" lon="103.3301112"><ele>2678.82</ele><time>2026-05-23T22:58:05.000Z</time></trkpt>
        <trkpt lat="29.5317731" lon="103.3300605"><ele>2679.32</ele><time>2026-05-23T22:58:11.000Z</time></trkpt>
        <trkpt lat="29.5317362" lon="103.3300304"><ele>2681.31</ele><time>2026-05-23T22:58:19.000Z</time></trkpt>
        <trkpt lat="29.531714" lon="103.3299995"><ele>2682.94</ele><time>2026-05-23T22:58:31.000Z</time></trkpt>
        <trkpt lat="29.5316715" lon="103.3299882"><ele>2685.01</ele><time>2026-05-23T22:58:59.000Z</time></trkpt>
        <trkpt lat="29.5316227" lon="103.3299808"><ele>2684.82</ele><time>2026-05-23T22:59:24.000Z</time></trkpt>
        <trkpt lat="29.5315651" lon="103.3299649"><ele>2687.04</ele><time>2026-05-23T22:59:32.000Z</time></trkpt>
        <trkpt lat="29.5315348" lon="103.3299625"><ele>2690.6</ele><time>2026-05-23T22:59:38.000Z</time></trkpt>
        <trkpt lat="29.531495" lon="103.329964"><ele>2692.76</ele><time>2026-05-23T22:59:54.000Z</time></trkpt>
        <trkpt lat="29.531495" lon="103.329964"><ele>2692.76</ele><time>2026-05-23T23:00:05.000Z</time></trkpt>
        <trkpt lat="29.531495" lon="103.329964"><ele>2692.76</ele><time>2026-05-23T23:00:08.000Z</time></trkpt>
        <trkpt lat="29.531495" lon="103.329964"><ele>2692.76</ele><time>2026-05-23T23:00:21.000Z</time></trkpt>
        <trkpt lat="29.5314658" lon="103.3299319"><ele>2692.77</ele><time>2026-05-23T23:00:24.000Z</time></trkpt>
        <trkpt lat="29.5314658" lon="103.3299319"><ele>2692.77</ele><time>2026-05-23T23:00:33.000Z</time></trkpt>
        <trkpt lat="29.5314658" lon="103.3299319"><ele>2692.77</ele><time>2026-05-23T23:01:11.000Z</time></trkpt>
        <trkpt lat="29.5314372" lon="103.3298703"><ele>2694.36</ele><time>2026-05-23T23:01:12.000Z</time></trkpt>
        <trkpt lat="29.5314372" lon="103.3298703"><ele>2694.36</ele><time>2026-05-23T23:01:19.000Z</time></trkpt>
        <trkpt lat="29.531403" lon="103.3298789"><ele>2698.33</ele><time>2026-05-23T23:01:55.000Z</time></trkpt>
        <trkpt lat="29.5313649" lon="103.3298622"><ele>2701.88</ele><time>2026-05-23T23:02:13.000Z</time></trkpt>
        <trkpt lat="29.5313649" lon="103.3298622"><ele>2701.88</ele><time>2026-05-23T23:02:29.000Z</time></trkpt>
        <trkpt lat="29.5313344" lon="103.3298254"><ele>2703.7</ele><time>2026-05-23T23:02:34.000Z</time></trkpt>
        <trkpt lat="29.5313344" lon="103.3298254"><ele>2703.7</ele><time>2026-05-23T23:02:43.000Z</time></trkpt>
        <trkpt lat="29.5313185" lon="103.3297729"><ele>2705.48</ele><time>2026-05-23T23:03:01.000Z</time></trkpt>
        <trkpt lat="29.5312953" lon="103.3297226"><ele>2706.79</ele><time>2026-05-23T23:03:11.000Z</time></trkpt>
        <trkpt lat="29.5312584" lon="103.329681"><ele>2709.5</ele><time>2026-05-23T23:04:34.000Z</time></trkpt>
        <trkpt lat="29.5312495" lon="103.3296299"><ele>2712.26</ele><time>2026-05-23T23:04:48.000Z</time></trkpt>
        <trkpt lat="29.531207" lon="103.329612"><ele>2715.61</ele><time>2026-05-23T23:05:00.000Z</time></trkpt>
        <trkpt lat="29.5311748" lon="103.3295749"><ele>2717.52</ele><time>2026-05-23T23:05:16.000Z</time></trkpt>
        <trkpt lat="29.5311585" lon="103.3295263"><ele>2720.16</ele><time>2026-05-23T23:05:44.000Z</time></trkpt>
        <trkpt lat="29.5311391" lon="103.3294786"><ele>2723.44</ele><time>2026-05-23T23:05:56.000Z</time></trkpt>
        <trkpt lat="29.5311283" lon="103.3294259"><ele>2725.52</ele><time>2026-05-23T23:06:04.000Z</time></trkpt>
        <trkpt lat="29.5311207" lon="103.3293722"><ele>2727.06</ele><time>2026-05-23T23:06:14.000Z</time></trkpt>
        <trkpt lat="29.5311059" lon="103.3293168"><ele>2727.3</ele><time>2026-05-23T23:06:28.000Z</time></trkpt>
        <trkpt lat="29.5311038" lon="103.3292624"><ele>2729.26</ele><time>2026-05-23T23:06:36.000Z</time></trkpt>
        <trkpt lat="29.5311011" lon="103.3291975"><ele>2730.32</ele><time>2026-05-23T23:06:42.000Z</time></trkpt>
        <trkpt lat="29.5311006" lon="103.3291675"><ele>2731.18</ele><time>2026-05-23T23:06:44.000Z</time></trkpt>
        <trkpt lat="29.5310957" lon="103.3291065"><ele>2731.42</ele><time>2026-05-23T23:06:52.000Z</time></trkpt>
        <trkpt lat="29.5310804" lon="103.3290437"><ele>2731.69</ele><time>2026-05-23T23:06:58.000Z</time></trkpt>
        <trkpt lat="29.5310689" lon="103.3289788"><ele>2732.28</ele><time>2026-05-23T23:07:04.000Z</time></trkpt>
        <trkpt lat="29.5310689" lon="103.3289788"><ele>2732.28</ele><time>2026-05-23T23:07:23.000Z</time></trkpt>
        <trkpt lat="29.5310565" lon="103.3288844"><ele>2733.61</ele><time>2026-05-23T23:07:30.000Z</time></trkpt>
        <trkpt lat="29.5310565" lon="103.3288844"><ele>2733.61</ele><time>2026-05-23T23:07:33.000Z</time></trkpt>
        <trkpt lat="29.5310652" lon="103.3288179"><ele>2739.1</ele><time>2026-05-23T23:07:51.000Z</time></trkpt>
        <trkpt lat="29.5310898" lon="103.3287681"><ele>2741.44</ele><time>2026-05-23T23:08:03.000Z</time></trkpt>
        <trkpt lat="29.531106" lon="103.3287183"><ele>2742.6</ele><time>2026-05-23T23:08:17.000Z</time></trkpt>
        <trkpt lat="29.5311116" lon="103.3286657"><ele>2744.23</ele><time>2026-05-23T23:08:29.000Z</time></trkpt>
        <trkpt lat="29.53112" lon="103.3286114"><ele>2744.47</ele><time>2026-05-23T23:08:39.000Z</time></trkpt>
        <trkpt lat="29.5311423" lon="103.3285598"><ele>2744.55</ele><time>2026-05-23T23:08:51.000Z</time></trkpt>
        <trkpt lat="29.5311438" lon="103.3285055"><ele>2744.13</ele><time>2026-05-23T23:08:57.000Z</time></trkpt>
        <trkpt lat="29.5311516" lon="103.3284507"><ele>2743.72</ele><time>2026-05-23T23:09:11.000Z</time></trkpt>
        <trkpt lat="29.5311832" lon="103.3283988"><ele>2743</ele><time>2026-05-23T23:09:21.000Z</time></trkpt>
        <trkpt lat="29.5312052" lon="103.3283436"><ele>2742.52</ele><time>2026-05-23T23:09:27.000Z</time></trkpt>
        <trkpt lat="29.5312134" lon="103.3282725"><ele>2742.93</ele><time>2026-05-23T23:09:31.000Z</time></trkpt>
        <trkpt lat="29.5312155" lon="103.3282091"><ele>2744.93</ele><time>2026-05-23T23:09:35.000Z</time></trkpt>
        <trkpt lat="29.5312286" lon="103.3281539"><ele>2745.76</ele><time>2026-05-23T23:09:41.000Z</time></trkpt>
        <trkpt lat="29.5312467" lon="103.3281031"><ele>2747.01</ele><time>2026-05-23T23:09:47.000Z</time></trkpt>
        <trkpt lat="29.531231" lon="103.328047"><ele>2748.32</ele><time>2026-05-23T23:09:59.000Z</time></trkpt>
        <trkpt lat="29.5312356" lon="103.3279937"><ele>2748.77</ele><time>2026-05-23T23:10:05.000Z</time></trkpt>
        <trkpt lat="29.5312408" lon="103.3279389"><ele>2749.05</ele><time>2026-05-23T23:10:13.000Z</time></trkpt>
        <trkpt lat="29.5312353" lon="103.3278826"><ele>2749.23</ele><time>2026-05-23T23:10:33.000Z</time></trkpt>
        <trkpt lat="29.5312127" lon="103.3278279"><ele>2749.46</ele><time>2026-05-23T23:11:03.000Z</time></trkpt>
        <trkpt lat="29.5311977" lon="103.3277712"><ele>2750.93</ele><time>2026-05-23T23:11:13.000Z</time></trkpt>
        <trkpt lat="29.5312066" lon="103.3277103"><ele>2751.6</ele><time>2026-05-23T23:11:27.000Z</time></trkpt>
        <trkpt lat="29.5312155" lon="103.3276503"><ele>2753.51</ele><time>2026-05-23T23:11:33.000Z</time></trkpt>
        <trkpt lat="29.5312238" lon="103.3275945"><ele>2755.44</ele><time>2026-05-23T23:12:01.000Z</time></trkpt>
        <trkpt lat="29.5312238" lon="103.3275945"><ele>2755.44</ele><time>2026-05-23T23:12:11.000Z</time></trkpt>
        <trkpt lat="29.5312238" lon="103.3275945"><ele>2755.44</ele><time>2026-05-23T23:12:16.000Z</time></trkpt>
        <trkpt lat="29.5312238" lon="103.3275945"><ele>2755.44</ele><time>2026-05-23T23:12:27.000Z</time></trkpt>
        <trkpt lat="29.5312314" lon="103.3275353"><ele>2757.74</ele><time>2026-05-23T23:12:30.000Z</time></trkpt>
        <trkpt lat="29.5312314" lon="103.3275353"><ele>2757.74</ele><time>2026-05-23T23:12:43.000Z</time></trkpt>
        <trkpt lat="29.5312273" lon="103.3274748"><ele>2761.04</ele><time>2026-05-23T23:12:57.000Z</time></trkpt>
        <trkpt lat="29.531212" lon="103.3274146"><ele>2764.47</ele><time>2026-05-23T23:13:05.000Z</time></trkpt>
        <trkpt lat="29.5311882" lon="103.3273639"><ele>2765.69</ele><time>2026-05-23T23:13:25.000Z</time></trkpt>
        <trkpt lat="29.5311954" lon="103.327314"><ele>2766.01</ele><time>2026-05-23T23:13:55.000Z</time></trkpt>
        <trkpt lat="29.5312163" lon="103.3272681"><ele>2768.43</ele><time>2026-05-23T23:14:05.000Z</time></trkpt>
        <trkpt lat="29.5312163" lon="103.3272681"><ele>2768.43</ele><time>2026-05-23T23:14:31.000Z</time></trkpt>
        <trkpt lat="29.5312616" lon="103.3272652"><ele>2769.75</ele><time>2026-05-23T23:14:34.000Z</time></trkpt>
        <trkpt lat="29.5312616" lon="103.3272652"><ele>2769.75</ele><time>2026-05-23T23:14:39.000Z</time></trkpt>
        <trkpt lat="29.5312478" lon="103.327236"><ele>2771.35</ele><time>2026-05-23T23:14:43.000Z</time></trkpt>
        <trkpt lat="29.5312074" lon="103.3272013"><ele>2772.73</ele><time>2026-05-23T23:14:51.000Z</time></trkpt>
        <trkpt lat="29.5311835" lon="103.3271543"><ele>2773.63</ele><time>2026-05-23T23:15:05.000Z</time></trkpt>
        <trkpt lat="29.5311306" lon="103.3271237"><ele>2773.72</ele><time>2026-05-23T23:15:23.000Z</time></trkpt>
        <trkpt lat="29.5310933" lon="103.3271064"><ele>2773.78</ele><time>2026-05-23T23:15:27.000Z</time></trkpt>
        <trkpt lat="29.5310432" lon="103.3270784"><ele>2774.33</ele><time>2026-05-23T23:15:45.000Z</time></trkpt>
        <trkpt lat="29.5310432" lon="103.3270784"><ele>2774.33</ele><time>2026-05-23T23:16:25.000Z</time></trkpt>
        <trkpt lat="29.5309176" lon="103.3269629"><ele>2775.58</ele><time>2026-05-23T23:18:04.000Z</time></trkpt>
        <trkpt lat="29.5309176" lon="103.3269629"><ele>2775.58</ele><time>2026-05-23T23:18:08.000Z</time></trkpt>
        <trkpt lat="29.5309657" lon="103.3270028"><ele>2782.16</ele><time>2026-05-23T23:18:11.000Z</time></trkpt>
        <trkpt lat="29.5310051" lon="103.327034"><ele>2781.72</ele><time>2026-05-23T23:18:13.000Z</time></trkpt>
        <trkpt lat="29.5310051" lon="103.327034"><ele>2781.72</ele><time>2026-05-23T23:18:13.000Z</time></trkpt>
        <trkpt lat="29.5310007" lon="103.327096"><ele>2782.17</ele><time>2026-05-23T23:18:26.000Z</time></trkpt>
        <trkpt lat="29.5310007" lon="103.327096"><ele>2782.17</ele><time>2026-05-23T23:18:31.000Z</time></trkpt>
        <trkpt lat="29.5309732" lon="103.3270707"><ele>2781.45</ele><time>2026-05-23T23:18:39.000Z</time></trkpt>
        <trkpt lat="29.5309321" lon="103.3270231"><ele>2782.8</ele><time>2026-05-23T23:18:47.000Z</time></trkpt>
        <trkpt lat="29.5308861" lon="103.3269994"><ele>2783.1</ele><time>2026-05-23T23:18:57.000Z</time></trkpt>
        <trkpt lat="29.5308373" lon="103.3269986"><ele>2784.24</ele><time>2026-05-23T23:19:13.000Z</time></trkpt>
        <trkpt lat="29.5308076" lon="103.3269647"><ele>2785.17</ele><time>2026-05-23T23:19:23.000Z</time></trkpt>
        <trkpt lat="29.5308026" lon="103.3269094"><ele>2785.77</ele><time>2026-05-23T23:19:37.000Z</time></trkpt>
        <trkpt lat="29.5307935" lon="103.326854"><ele>2788.48</ele><time>2026-05-23T23:19:47.000Z</time></trkpt>
        <trkpt lat="29.5307542" lon="103.3268463"><ele>2789.41</ele><time>2026-05-23T23:20:17.000Z</time></trkpt>
        <trkpt lat="29.5307092" lon="103.3268728"><ele>2790.93</ele><time>2026-05-23T23:20:47.000Z</time></trkpt>
        <trkpt lat="29.5306587" lon="103.3268944"><ele>2792.97</ele><time>2026-05-23T23:21:05.000Z</time></trkpt>
        <trkpt lat="29.5306131" lon="103.3269205"><ele>2793.34</ele><time>2026-05-23T23:21:17.000Z</time></trkpt>
        <trkpt lat="29.5305678" lon="103.3269489"><ele>2793.71</ele><time>2026-05-23T23:21:23.000Z</time></trkpt>
        <trkpt lat="29.5305216" lon="103.3269612"><ele>2793.68</ele><time>2026-05-23T23:21:32.000Z</time></trkpt>
        <trkpt lat="29.5304755" lon="103.3269743"><ele>2793.78</ele><time>2026-05-23T23:22:02.000Z</time></trkpt>
        <trkpt lat="29.5304317" lon="103.3269998"><ele>2795.6</ele><time>2026-05-23T23:22:12.000Z</time></trkpt>
        <trkpt lat="29.5303919" lon="103.327035"><ele>2797.89</ele><time>2026-05-23T23:22:20.000Z</time></trkpt>
        <trkpt lat="29.530344" lon="103.3270516"><ele>2800.18</ele><time>2026-05-23T23:22:59.000Z</time></trkpt>
        <trkpt lat="29.5302989" lon="103.3270691"><ele>2802.42</ele><time>2026-05-23T23:23:07.000Z</time></trkpt>
        <trkpt lat="29.5302539" lon="103.3270876"><ele>2802.85</ele><time>2026-05-23T23:23:15.000Z</time></trkpt>
        <trkpt lat="29.5302008" lon="103.3270982"><ele>2803.77</ele><time>2026-05-23T23:23:46.000Z</time></trkpt>
        <trkpt lat="29.5301555" lon="103.3271332"><ele>2806.46</ele><time>2026-05-23T23:23:54.000Z</time></trkpt>
        <trkpt lat="29.5301135" lon="103.3271802"><ele>2808.02</ele><time>2026-05-23T23:24:02.000Z</time></trkpt>
        <trkpt lat="29.5300696" lon="103.3272181"><ele>2809.84</ele><time>2026-05-23T23:24:08.000Z</time></trkpt>
        <trkpt lat="29.5300238" lon="103.3272547"><ele>2810.12</ele><time>2026-05-23T23:24:14.000Z</time></trkpt>
        <trkpt lat="29.5299767" lon="103.3272916"><ele>2810.57</ele><time>2026-05-23T23:24:20.000Z</time></trkpt>
        <trkpt lat="29.5299363" lon="103.3273394"><ele>2810.4</ele><time>2026-05-23T23:24:28.000Z</time></trkpt>
        <trkpt lat="29.5298951" lon="103.3273948"><ele>2810.62</ele><time>2026-05-23T23:24:36.000Z</time></trkpt>
        <trkpt lat="29.5298615" lon="103.3274525"><ele>2809.88</ele><time>2026-05-23T23:24:42.000Z</time></trkpt>
        <trkpt lat="29.5298342" lon="103.327519"><ele>2809.68</ele><time>2026-05-23T23:24:48.000Z</time></trkpt>
        <trkpt lat="29.5297987" lon="103.3275674"><ele>2811.31</ele><time>2026-05-23T23:24:54.000Z</time></trkpt>
        <trkpt lat="29.5297689" lon="103.3276178"><ele>2810.38</ele><time>2026-05-23T23:25:00.000Z</time></trkpt>
        <trkpt lat="29.5297451" lon="103.327664"><ele>2809.43</ele><time>2026-05-23T23:25:06.000Z</time></trkpt>
        <trkpt lat="29.5297106" lon="103.3277221"><ele>2809.23</ele><time>2026-05-23T23:25:12.000Z</time></trkpt>
        <trkpt lat="29.5296759" lon="103.3277766"><ele>2809.88</ele><time>2026-05-23T23:25:18.000Z</time></trkpt>
        <trkpt lat="29.5296286" lon="103.3278098"><ele>2810.85</ele><time>2026-05-23T23:25:26.000Z</time></trkpt>
        <trkpt lat="29.5295757" lon="103.3278304"><ele>2811.71</ele><time>2026-05-23T23:25:34.000Z</time></trkpt>
        <trkpt lat="29.5295435" lon="103.3278778"><ele>2812.24</ele><time>2026-05-23T23:25:47.000Z</time></trkpt>
        <trkpt lat="29.5295371" lon="103.3279347"><ele>2812.43</ele><time>2026-05-23T23:25:53.000Z</time></trkpt>
        <trkpt lat="29.529529" lon="103.3279956"><ele>2812.75</ele><time>2026-05-23T23:25:59.000Z</time></trkpt>
        <trkpt lat="29.529529" lon="103.3279956"><ele>2812.75</ele><time>2026-05-23T23:26:25.000Z</time></trkpt>
        <trkpt lat="29.529536" lon="103.3279681"><ele>2813.09</ele><time>2026-05-23T23:26:28.000Z</time></trkpt>
        <trkpt lat="29.529536" lon="103.3279681"><ele>2813.09</ele><time>2026-05-23T23:26:34.000Z</time></trkpt>
        <trkpt lat="29.5295503" lon="103.3279133"><ele>2816.21</ele><time>2026-05-23T23:26:38.000Z</time></trkpt>
        <trkpt lat="29.5295605" lon="103.3278463"><ele>2817.36</ele><time>2026-05-23T23:26:42.000Z</time></trkpt>
        <trkpt lat="29.5295374" lon="103.3277887"><ele>2818.32</ele><time>2026-05-23T23:26:46.000Z</time></trkpt>
        <trkpt lat="29.5294819" lon="103.3277759"><ele>2818.59</ele><time>2026-05-23T23:26:50.000Z</time></trkpt>
        <trkpt lat="29.5294245" lon="103.3277735"><ele>2818.02</ele><time>2026-05-23T23:26:54.000Z</time></trkpt>
        <trkpt lat="29.5293709" lon="103.3277768"><ele>2817.32</ele><time>2026-05-23T23:26:58.000Z</time></trkpt>
        <trkpt lat="29.5293185" lon="103.3277888"><ele>2817.73</ele><time>2026-05-23T23:27:02.000Z</time></trkpt>
        <trkpt lat="29.52929" lon="103.327844"><ele>2818.51</ele><time>2026-05-23T23:27:08.000Z</time></trkpt>
        <trkpt lat="29.5292879" lon="103.3279112"><ele>2819.34</ele><time>2026-05-23T23:27:14.000Z</time></trkpt>
        <trkpt lat="29.5292774" lon="103.3279704"><ele>2819.19</ele><time>2026-05-23T23:27:24.000Z</time></trkpt>
        <trkpt lat="29.5292693" lon="103.3280298"><ele>2818.74</ele><time>2026-05-23T23:27:32.000Z</time></trkpt>
        <trkpt lat="29.5292647" lon="103.3280929"><ele>2819.58</ele><time>2026-05-23T23:27:44.000Z</time></trkpt>
        <trkpt lat="29.5292316" lon="103.3281391"><ele>2821.52</ele><time>2026-05-23T23:28:02.000Z</time></trkpt>
        <trkpt lat="29.5292145" lon="103.3281966"><ele>2821.55</ele><time>2026-05-23T23:28:12.000Z</time></trkpt>
        <trkpt lat="29.5291824" lon="103.3282506"><ele>2821.12</ele><time>2026-05-23T23:28:34.000Z</time></trkpt>
        <trkpt lat="29.5291763" lon="103.328309"><ele>2822.27</ele><time>2026-05-23T23:28:44.000Z</time></trkpt>
        <trkpt lat="29.5291787" lon="103.3283389"><ele>2823.3</ele><time>2026-05-23T23:28:46.000Z</time></trkpt>
        <trkpt lat="29.5291649" lon="103.3283828"><ele>2824.14</ele><time>2026-05-23T23:29:08.000Z</time></trkpt>
        <trkpt lat="29.5291499" lon="103.3284316"><ele>2825.56</ele><time>2026-05-23T23:29:20.000Z</time></trkpt>
        <trkpt lat="29.5291185" lon="103.3284789"><ele>2826.79</ele><time>2026-05-23T23:29:36.000Z</time></trkpt>
        <trkpt lat="29.5290955" lon="103.3285286"><ele>2827.06</ele><time>2026-05-23T23:29:44.000Z</time></trkpt>
        <trkpt lat="29.5291021" lon="103.3285483"><ele>2828.34</ele><time>2026-05-23T23:29:46.000Z</time></trkpt>
        <trkpt lat="29.5290923" lon="103.3285892"><ele>2829.25</ele><time>2026-05-23T23:29:58.000Z</time></trkpt>
        <trkpt lat="29.5290703" lon="103.3286444"><ele>2829.87</ele><time>2026-05-23T23:30:06.000Z</time></trkpt>
        <trkpt lat="29.5290585" lon="103.328699"><ele>2832.23</ele><time>2026-05-23T23:30:12.000Z</time></trkpt>
        <trkpt lat="29.5290589" lon="103.3287063"><ele>2834.04</ele><time>2026-05-23T23:30:14.000Z</time></trkpt>
        <trkpt lat="29.5290374" lon="103.3287423"><ele>2835.29</ele><time>2026-05-23T23:30:50.000Z</time></trkpt>
        <trkpt lat="29.5290091" lon="103.3288021"><ele>2834.6</ele><time>2026-05-23T23:30:58.000Z</time></trkpt>
        <trkpt lat="29.5290026" lon="103.3288717"><ele>2834.7</ele><time>2026-05-23T23:31:02.000Z</time></trkpt>
        <trkpt lat="29.5289832" lon="103.3289466"><ele>2834.7</ele><time>2026-05-23T23:31:08.000Z</time></trkpt>
        <trkpt lat="29.5289409" lon="103.3289958"><ele>2835.23</ele><time>2026-05-23T23:31:16.000Z</time></trkpt>
        <trkpt lat="29.5289033" lon="103.3290434"><ele>2837.84</ele><time>2026-05-23T23:31:42.000Z</time></trkpt>
        <trkpt lat="29.528871" lon="103.3290837"><ele>2840.09</ele><time>2026-05-23T23:31:52.000Z</time></trkpt>
        <trkpt lat="29.5288503" lon="103.3291402"><ele>2841.95</ele><time>2026-05-23T23:32:02.000Z</time></trkpt>
        <trkpt lat="29.5288238" lon="103.3291864"><ele>2843.42</ele><time>2026-05-23T23:32:12.000Z</time></trkpt>
        <trkpt lat="29.5287912" lon="103.3292354"><ele>2844.3</ele><time>2026-05-23T23:32:18.000Z</time></trkpt>
        <trkpt lat="29.5287606" lon="103.3292797"><ele>2845.13</ele><time>2026-05-23T23:32:24.000Z</time></trkpt>
        <trkpt lat="29.528728" lon="103.3293321"><ele>2845.57</ele><time>2026-05-23T23:32:32.000Z</time></trkpt>
        <trkpt lat="29.5286967" lon="103.3293847"><ele>2845.71</ele><time>2026-05-23T23:32:38.000Z</time></trkpt>
        <trkpt lat="29.5286809" lon="103.3294385"><ele>2846.58</ele><time>2026-05-23T23:32:44.000Z</time></trkpt>
        <trkpt lat="29.5286728" lon="103.329506"><ele>2846.72</ele><time>2026-05-23T23:32:52.000Z</time></trkpt>
        <trkpt lat="29.5286647" lon="103.3295769"><ele>2846.82</ele><time>2026-05-23T23:33:06.000Z</time></trkpt>
        <trkpt lat="29.5286577" lon="103.3296438"><ele>2848.42</ele><time>2026-05-23T23:33:12.000Z</time></trkpt>
        <trkpt lat="29.5286427" lon="103.3297013"><ele>2850.02</ele><time>2026-05-23T23:33:18.000Z</time></trkpt>
        <trkpt lat="29.5286327" lon="103.3297568"><ele>2851.92</ele><time>2026-05-23T23:33:24.000Z</time></trkpt>
        <trkpt lat="29.5286333" lon="103.3298218"><ele>2853.66</ele><time>2026-05-23T23:33:30.000Z</time></trkpt>
        <trkpt lat="29.5286332" lon="103.3298802"><ele>2855.41</ele><time>2026-05-23T23:33:36.000Z</time></trkpt>
        <trkpt lat="29.5286323" lon="103.3299471"><ele>2857.64</ele><time>2026-05-23T23:33:44.000Z</time></trkpt>
        <trkpt lat="29.5286132" lon="103.3299986"><ele>2859.91</ele><time>2026-05-23T23:33:50.000Z</time></trkpt>
        <trkpt lat="29.5285819" lon="103.3300375"><ele>2861.17</ele><time>2026-05-23T23:33:54.000Z</time></trkpt>
        <trkpt lat="29.5285492" lon="103.3300793"><ele>2861.55</ele><time>2026-05-23T23:34:00.000Z</time></trkpt>
        <trkpt lat="29.5285212" lon="103.3301274"><ele>2861.27</ele><time>2026-05-23T23:34:04.000Z</time></trkpt>
        <trkpt lat="29.5284776" lon="103.3301596"><ele>2862.09</ele><time>2026-05-23T23:34:10.000Z</time></trkpt>
        <trkpt lat="29.5284182" lon="103.3301878"><ele>2861.76</ele><time>2026-05-23T23:34:16.000Z</time></trkpt>
        <trkpt lat="29.528375" lon="103.3302189"><ele>2861.69</ele><time>2026-05-23T23:34:20.000Z</time></trkpt>
        <trkpt lat="29.5283316" lon="103.3302593"><ele>2860.32</ele><time>2026-05-23T23:34:26.000Z</time></trkpt>
        <trkpt lat="29.5283017" lon="103.3303258"><ele>2859.61</ele><time>2026-05-23T23:34:32.000Z</time></trkpt>
        <trkpt lat="29.5282858" lon="103.330396"><ele>2859.96</ele><time>2026-05-23T23:34:38.000Z</time></trkpt>
        <trkpt lat="29.5282987" lon="103.3304625"><ele>2860.94</ele><time>2026-05-23T23:34:44.000Z</time></trkpt>
        <trkpt lat="29.5283199" lon="103.3305175"><ele>2862.05</ele><time>2026-05-23T23:34:48.000Z</time></trkpt>
        <trkpt lat="29.5283443" lon="103.3305707"><ele>2863.08</ele><time>2026-05-23T23:34:54.000Z</time></trkpt>
        <trkpt lat="29.5283611" lon="103.3306272"><ele>2863.8</ele><time>2026-05-23T23:35:02.000Z</time></trkpt>
        <trkpt lat="29.5283475" lon="103.3306863"><ele>2864.91</ele><time>2026-05-23T23:35:12.000Z</time></trkpt>
        <trkpt lat="29.5283162" lon="103.3307015"><ele>2866.66</ele><time>2026-05-23T23:35:18.000Z</time></trkpt>
        <trkpt lat="29.5282822" lon="103.3307333"><ele>2867.05</ele><time>2026-05-23T23:35:28.000Z</time></trkpt>
        <trkpt lat="29.5282455" lon="103.3307656"><ele>2868.93</ele><time>2026-05-23T23:35:34.000Z</time></trkpt>
        <trkpt lat="29.528194" lon="103.3307917"><ele>2870.04</ele><time>2026-05-23T23:35:54.000Z</time></trkpt>
        <trkpt lat="29.5281542" lon="103.330827"><ele>2871.82</ele><time>2026-05-23T23:36:12.000Z</time></trkpt>
        <trkpt lat="29.5281253" lon="103.3308754"><ele>2874.18</ele><time>2026-05-23T23:36:20.000Z</time></trkpt>
        <trkpt lat="29.5281052" lon="103.3309385"><ele>2875.62</ele><time>2026-05-23T23:36:26.000Z</time></trkpt>
        <trkpt lat="29.5280914" lon="103.331004"><ele>2876.83</ele><time>2026-05-23T23:36:32.000Z</time></trkpt>
        <trkpt lat="29.528067" lon="103.3310573"><ele>2878.75</ele><time>2026-05-23T23:36:42.000Z</time></trkpt>
        <trkpt lat="29.5280596" lon="103.3311208"><ele>2879.33</ele><time>2026-05-23T23:36:50.000Z</time></trkpt>
        <trkpt lat="29.5280547" lon="103.3311773"><ele>2880.61</ele><time>2026-05-23T23:36:56.000Z</time></trkpt>
        <trkpt lat="29.528052" lon="103.3312031"><ele>2881.1</ele><time>2026-05-23T23:36:58.000Z</time></trkpt>
        <trkpt lat="29.5280376" lon="103.3312528"><ele>2881.67</ele><time>2026-05-23T23:37:10.000Z</time></trkpt>
        <trkpt lat="29.5280248" lon="103.331305"><ele>2882.05</ele><time>2026-05-23T23:37:18.000Z</time></trkpt>
        <trkpt lat="29.5279841" lon="103.3313197"><ele>2883.14</ele><time>2026-05-23T23:37:24.000Z</time></trkpt>
        <trkpt lat="29.5279351" lon="103.3313299"><ele>2884.54</ele><time>2026-05-23T23:37:30.000Z</time></trkpt>
        <trkpt lat="29.5278951" lon="103.3313616"><ele>2885.52</ele><time>2026-05-23T23:37:40.000Z</time></trkpt>
        <trkpt lat="29.527851" lon="103.3314052"><ele>2885.67</ele><time>2026-05-23T23:37:50.000Z</time></trkpt>
        <trkpt lat="29.5278109" lon="103.3314465"><ele>2885.6</ele><time>2026-05-23T23:37:58.000Z</time></trkpt>
        <trkpt lat="29.5277922" lon="103.3314998"><ele>2885.58</ele><time>2026-05-23T23:38:06.000Z</time></trkpt>
        <trkpt lat="29.5277726" lon="103.3315558"><ele>2885.44</ele><time>2026-05-23T23:38:14.000Z</time></trkpt>
        <trkpt lat="29.5277599" lon="103.3316033"><ele>2886.81</ele><time>2026-05-23T23:38:22.000Z</time></trkpt>
        <trkpt lat="29.5277545" lon="103.3316582"><ele>2888</ele><time>2026-05-23T23:38:34.000Z</time></trkpt>
        <trkpt lat="29.5277545" lon="103.331716"><ele>2888.39</ele><time>2026-05-23T23:38:44.000Z</time></trkpt>
        <trkpt lat="29.5277398" lon="103.3317781"><ele>2888.62</ele><time>2026-05-23T23:38:50.000Z</time></trkpt>
        <trkpt lat="29.5277282" lon="103.3318436"><ele>2889.49</ele><time>2026-05-23T23:38:58.000Z</time></trkpt>
        <trkpt lat="29.52772" lon="103.331905"><ele>2890.32</ele><time>2026-05-23T23:39:04.000Z</time></trkpt>
        <trkpt lat="29.5277088" lon="103.3319653"><ele>2890.79</ele><time>2026-05-23T23:39:08.000Z</time></trkpt>
        <trkpt lat="29.5277157" lon="103.3320225"><ele>2891.98</ele><time>2026-05-23T23:39:14.000Z</time></trkpt>
        <trkpt lat="29.5276995" lon="103.3320894"><ele>2893.84</ele><time>2026-05-23T23:39:22.000Z</time></trkpt>
        <trkpt lat="29.5276621" lon="103.3321205"><ele>2895.66</ele><time>2026-05-23T23:39:28.000Z</time></trkpt>
        <trkpt lat="29.5276144" lon="103.332152"><ele>2895.89</ele><time>2026-05-23T23:39:34.000Z</time></trkpt>
        <trkpt lat="29.527551" lon="103.3321554"><ele>2896.92</ele><time>2026-05-23T23:39:44.000Z</time></trkpt>
        <trkpt lat="29.527506" lon="103.3321798"><ele>2897.29</ele><time>2026-05-23T23:40:02.000Z</time></trkpt>
        <trkpt lat="29.5274605" lon="103.3322033"><ele>2897.62</ele><time>2026-05-23T23:40:10.000Z</time></trkpt>
        <trkpt lat="29.5274568" lon="103.3322065"><ele>2897.23</ele><time>2026-05-23T23:40:12.000Z</time></trkpt>
        <trkpt lat="29.5274568" lon="103.3322065"><ele>2897.23</ele><time>2026-05-23T23:40:33.000Z</time></trkpt>
        <trkpt lat="29.5274956" lon="103.3322406"><ele>2897.03</ele><time>2026-05-23T23:40:38.000Z</time></trkpt>
        <trkpt lat="29.5274956" lon="103.3322406"><ele>2897.03</ele><time>2026-05-23T23:40:41.000Z</time></trkpt>
        <trkpt lat="29.5275336" lon="103.3322856"><ele>2897.23</ele><time>2026-05-23T23:40:45.000Z</time></trkpt>
        <trkpt lat="29.5275696" lon="103.3323281"><ele>2897.92</ele><time>2026-05-23T23:40:55.000Z</time></trkpt>
        <trkpt lat="29.5275916" lon="103.3323792"><ele>2898.89</ele><time>2026-05-23T23:41:18.000Z</time></trkpt>
        <trkpt lat="29.5275646" lon="103.3324137"><ele>2900.44</ele><time>2026-05-23T23:41:24.000Z</time></trkpt>
        <trkpt lat="29.5275289" lon="103.3324483"><ele>2901.54</ele><time>2026-05-23T23:41:32.000Z</time></trkpt>
        <trkpt lat="29.5274857" lon="103.3324772"><ele>2903.49</ele><time>2026-05-23T23:41:46.000Z</time></trkpt>
        <trkpt lat="29.5274407" lon="103.3325107"><ele>2904.85</ele><time>2026-05-23T23:41:54.000Z</time></trkpt>
        <trkpt lat="29.5274052" lon="103.3325544"><ele>2906.58</ele><time>2026-05-23T23:42:12.000Z</time></trkpt>
        <trkpt lat="29.5273632" lon="103.332542"><ele>2907.97</ele><time>2026-05-23T23:42:20.000Z</time></trkpt>
        <trkpt lat="29.5273148" lon="103.3324971"><ele>2909.05</ele><time>2026-05-23T23:42:26.000Z</time></trkpt>
        <trkpt lat="29.5272724" lon="103.3324371"><ele>2909.66</ele><time>2026-05-23T23:42:32.000Z</time></trkpt>
        <trkpt lat="29.5272327" lon="103.3323688"><ele>2909.9</ele><time>2026-05-23T23:42:38.000Z</time></trkpt>
        <trkpt lat="29.5271958" lon="103.3323068"><ele>2909.15</ele><time>2026-05-23T23:42:44.000Z</time></trkpt>
        <trkpt lat="29.5271562" lon="103.3322716"><ele>2907.74</ele><time>2026-05-23T23:42:50.000Z</time></trkpt>
        <trkpt lat="29.5271159" lon="103.3323012"><ele>2907.03</ele><time>2026-05-23T23:42:56.000Z</time></trkpt>
        <trkpt lat="29.52709" lon="103.3323594"><ele>2907.11</ele><time>2026-05-23T23:43:02.000Z</time></trkpt>
        <trkpt lat="29.5270729" lon="103.3324246"><ele>2908.66</ele><time>2026-05-23T23:43:12.000Z</time></trkpt>
        <trkpt lat="29.5270594" lon="103.332486"><ele>2910.46</ele><time>2026-05-23T23:43:26.000Z</time></trkpt>
        <trkpt lat="29.5270834" lon="103.3325289"><ele>2912.64</ele><time>2026-05-23T23:43:40.000Z</time></trkpt>
        <trkpt lat="29.527093" lon="103.3325884"><ele>2915.55</ele><time>2026-05-23T23:43:44.000Z</time></trkpt>
        <trkpt lat="29.5271127" lon="103.3326424"><ele>2917.46</ele><time>2026-05-23T23:43:50.000Z</time></trkpt>
        <trkpt lat="29.5271105" lon="103.3327122"><ele>2917.97</ele><time>2026-05-23T23:43:56.000Z</time></trkpt>
        <trkpt lat="29.5270954" lon="103.3327794"><ele>2918.46</ele><time>2026-05-23T23:44:04.000Z</time></trkpt>
        <trkpt lat="29.5270763" lon="103.3328393"><ele>2919.71</ele><time>2026-05-23T23:44:10.000Z</time></trkpt>
        <trkpt lat="29.5270679" lon="103.3329062"><ele>2919.43</ele><time>2026-05-23T23:44:24.000Z</time></trkpt>
        <trkpt lat="29.5270549" lon="103.33296"><ele>2919.67</ele><time>2026-05-23T23:44:28.000Z</time></trkpt>
        <trkpt lat="29.527054" lon="103.3330122"><ele>2920.49</ele><time>2026-05-23T23:44:36.000Z</time></trkpt>
        <trkpt lat="29.5270756" lon="103.3330733"><ele>2921.6</ele><time>2026-05-23T23:44:44.000Z</time></trkpt>
        <trkpt lat="29.5271062" lon="103.3331324"><ele>2921.45</ele><time>2026-05-23T23:44:50.000Z</time></trkpt>
        <trkpt lat="29.5271294" lon="103.3331911"><ele>2920.91</ele><time>2026-05-23T23:44:58.000Z</time></trkpt>
        <trkpt lat="29.5271321" lon="103.3332482"><ele>2920.7</ele><time>2026-05-23T23:45:04.000Z</time></trkpt>
        <trkpt lat="29.5271109" lon="103.3332944"><ele>2921</ele><time>2026-05-23T23:45:10.000Z</time></trkpt>
        <trkpt lat="29.5270845" lon="103.3333495"><ele>2922.98</ele><time>2026-05-23T23:45:16.000Z</time></trkpt>
        <trkpt lat="29.5270442" lon="103.3333964"><ele>2924.94</ele><time>2026-05-23T23:45:22.000Z</time></trkpt>
        <trkpt lat="29.5270041" lon="103.3334422"><ele>2926.26</ele><time>2026-05-23T23:45:28.000Z</time></trkpt>
        <trkpt lat="29.5269599" lon="103.3334874"><ele>2927.92</ele><time>2026-05-23T23:45:36.000Z</time></trkpt>
        <trkpt lat="29.5269048" lon="103.3335028"><ele>2929.33</ele><time>2026-05-23T23:45:48.000Z</time></trkpt>
        <trkpt lat="29.5268553" lon="103.3335234"><ele>2930.08</ele><time>2026-05-23T23:46:00.000Z</time></trkpt>
        <trkpt lat="29.5268073" lon="103.333531"><ele>2931.28</ele><time>2026-05-23T23:46:08.000Z</time></trkpt>
        <trkpt lat="29.5267582" lon="103.333551"><ele>2932.21</ele><time>2026-05-23T23:46:28.000Z</time></trkpt>
        <trkpt lat="29.5267197" lon="103.3335656"><ele>2934.49</ele><time>2026-05-23T23:46:38.000Z</time></trkpt>
        <trkpt lat="29.5266772" lon="103.3335705"><ele>2936.88</ele><time>2026-05-23T23:47:02.000Z</time></trkpt>
        <trkpt lat="29.5266356" lon="103.3335868"><ele>2939.78</ele><time>2026-05-23T23:47:14.000Z</time></trkpt>
        <trkpt lat="29.5265894" lon="103.3336214"><ele>2942.89</ele><time>2026-05-23T23:47:28.000Z</time></trkpt>
        <trkpt lat="29.5265508" lon="103.3336387"><ele>2945.08</ele><time>2026-05-23T23:47:34.000Z</time></trkpt>
        <trkpt lat="29.526502" lon="103.3336556"><ele>2946.4</ele><time>2026-05-23T23:47:48.000Z</time></trkpt>
        <trkpt lat="29.5264592" lon="103.3336796"><ele>2947.51</ele><time>2026-05-23T23:47:58.000Z</time></trkpt>
        <trkpt lat="29.5264158" lon="103.3336982"><ele>2948.08</ele><time>2026-05-23T23:48:04.000Z</time></trkpt>
        <trkpt lat="29.5263732" lon="103.3337216"><ele>2948.13</ele><time>2026-05-23T23:48:10.000Z</time></trkpt>
        <trkpt lat="29.5263236" lon="103.3337456"><ele>2948.38</ele><time>2026-05-23T23:48:16.000Z</time></trkpt>
        <trkpt lat="29.526269" lon="103.3337754"><ele>2948.5</ele><time>2026-05-23T23:48:22.000Z</time></trkpt>
        <trkpt lat="29.5262181" lon="103.3338098"><ele>2949.18</ele><time>2026-05-23T23:48:30.000Z</time></trkpt>
        <trkpt lat="29.5261719" lon="103.3338563"><ele>2950.09</ele><time>2026-05-23T23:48:36.000Z</time></trkpt>
        <trkpt lat="29.5261263" lon="103.3338937"><ele>2952.15</ele><time>2026-05-23T23:48:44.000Z</time></trkpt>
        <trkpt lat="29.5260799" lon="103.3339127"><ele>2953.78</ele><time>2026-05-23T23:48:56.000Z</time></trkpt>
        <trkpt lat="29.5260359" lon="103.333934"><ele>2954.77</ele><time>2026-05-23T23:49:02.000Z</time></trkpt>
        <trkpt lat="29.5259948" lon="103.3339642"><ele>2956.24</ele><time>2026-05-23T23:49:08.000Z</time></trkpt>
        <trkpt lat="29.5259948" lon="103.3339642"><ele>2956.24</ele><time>2026-05-23T23:49:17.000Z</time></trkpt>
        <trkpt lat="29.5259301" lon="103.3339802"><ele>2957.87</ele><time>2026-05-23T23:49:18.000Z</time></trkpt>
        <trkpt lat="29.5259301" lon="103.3339802"><ele>2957.87</ele><time>2026-05-23T23:49:25.000Z</time></trkpt>
        <trkpt lat="29.5258913" lon="103.3340196"><ele>2960.39</ele><time>2026-05-23T23:49:37.000Z</time></trkpt>
        <trkpt lat="29.5258563" lon="103.3340273"><ele>2962.16</ele><time>2026-05-23T23:49:45.000Z</time></trkpt>
        <trkpt lat="29.5258089" lon="103.3340538"><ele>2961.59</ele><time>2026-05-23T23:49:59.000Z</time></trkpt>
        <trkpt lat="29.5257505" lon="103.3340736"><ele>2962.95</ele><time>2026-05-23T23:50:05.000Z</time></trkpt>
        <trkpt lat="29.5257021" lon="103.3341101"><ele>2963.69</ele><time>2026-05-23T23:50:13.000Z</time></trkpt>
        <trkpt lat="29.5256702" lon="103.3341515"><ele>2963.28</ele><time>2026-05-23T23:50:21.000Z</time></trkpt>
        <trkpt lat="29.525621" lon="103.3341874"><ele>2963.26</ele><time>2026-05-23T23:50:41.000Z</time></trkpt>
        <trkpt lat="29.5255849" lon="103.3342299"><ele>2961.95</ele><time>2026-05-23T23:50:45.000Z</time></trkpt>
        <trkpt lat="29.5255543" lon="103.3342772"><ele>2961.67</ele><time>2026-05-23T23:50:49.000Z</time></trkpt>
        <trkpt lat="29.5255367" lon="103.334344"><ele>2961.83</ele><time>2026-05-23T23:50:55.000Z</time></trkpt>
        <trkpt lat="29.5255328" lon="103.3343533"><ele>2963.6</ele><time>2026-05-23T23:50:59.000Z</time></trkpt>
        <trkpt lat="29.5255112" lon="103.3343797"><ele>2964.72</ele><time>2026-05-23T23:51:07.000Z</time></trkpt>
        <trkpt lat="29.525478" lon="103.334426"><ele>2966.07</ele><time>2026-05-23T23:51:13.000Z</time></trkpt>
        <trkpt lat="29.5254344" lon="103.3344818"><ele>2967.64</ele><time>2026-05-23T23:51:19.000Z</time></trkpt>
        <trkpt lat="29.5253975" lon="103.3345272"><ele>2968.48</ele><time>2026-05-23T23:51:25.000Z</time></trkpt>
        <trkpt lat="29.5253515" lon="103.3345578"><ele>2967.2</ele><time>2026-05-23T23:51:31.000Z</time></trkpt>
        <trkpt lat="29.5253092" lon="103.3345448"><ele>2966.46</ele><time>2026-05-23T23:51:35.000Z</time></trkpt>
        <trkpt lat="29.5252971" lon="103.3345635"><ele>2967.03</ele><time>2026-05-23T23:51:39.000Z</time></trkpt>
        <trkpt lat="29.5253034" lon="103.3346211"><ele>2966.54</ele><time>2026-05-23T23:51:53.000Z</time></trkpt>
        <trkpt lat="29.5252835" lon="103.3346763"><ele>2968.04</ele><time>2026-05-23T23:52:03.000Z</time></trkpt>
        <trkpt lat="29.5252835" lon="103.3346928"><ele>2969.11</ele><time>2026-05-23T23:52:05.000Z</time></trkpt>
        <trkpt lat="29.52525" lon="103.3347129"><ele>2969.73</ele><time>2026-05-23T23:52:11.000Z</time></trkpt>
        <trkpt lat="29.525211" lon="103.3347451"><ele>2971.71</ele><time>2026-05-23T23:52:19.000Z</time></trkpt>
        <trkpt lat="29.5251599" lon="103.3347744"><ele>2973.25</ele><time>2026-05-23T23:52:25.000Z</time></trkpt>
        <trkpt lat="29.5250999" lon="103.3347934"><ele>2975.78</ele><time>2026-05-23T23:52:33.000Z</time></trkpt>
        <trkpt lat="29.52506" lon="103.3348353"><ele>2978.06</ele><time>2026-05-23T23:52:55.000Z</time></trkpt>
        <trkpt lat="29.5250141" lon="103.3348788"><ele>2980.14</ele><time>2026-05-23T23:53:05.000Z</time></trkpt>
        <trkpt lat="29.5249653" lon="103.3348831"><ele>2981.75</ele><time>2026-05-23T23:53:09.000Z</time></trkpt>
        <trkpt lat="29.5249141" lon="103.3348713"><ele>2982.68</ele><time>2026-05-23T23:53:13.000Z</time></trkpt>
        <trkpt lat="29.5248693" lon="103.334844"><ele>2983.28</ele><time>2026-05-23T23:53:17.000Z</time></trkpt>
        <trkpt lat="29.5248177" lon="103.3348224"><ele>2982.99</ele><time>2026-05-23T23:53:23.000Z</time></trkpt>
        <trkpt lat="29.5247681" lon="103.3348167"><ele>2983.61</ele><time>2026-05-23T23:53:31.000Z</time></trkpt>
        <trkpt lat="29.5247219" lon="103.3348034"><ele>2983.93</ele><time>2026-05-23T23:53:43.000Z</time></trkpt>
        <trkpt lat="29.5246759" lon="103.3348117"><ele>2984.86</ele><time>2026-05-23T23:53:55.000Z</time></trkpt>
        <trkpt lat="29.5246303" lon="103.3348021"><ele>2987.44</ele><time>2026-05-23T23:54:03.000Z</time></trkpt>
        <trkpt lat="29.5245859" lon="103.3348174"><ele>2989.54</ele><time>2026-05-23T23:54:07.000Z</time></trkpt>
        <trkpt lat="29.5245466" lon="103.3348594"><ele>2991.8</ele><time>2026-05-23T23:54:11.000Z</time></trkpt>
        <trkpt lat="29.5245033" lon="103.3349117"><ele>2993.21</ele><time>2026-05-23T23:54:17.000Z</time></trkpt>
        <trkpt lat="29.5244536" lon="103.3349306"><ele>2993.27</ele><time>2026-05-23T23:54:21.000Z</time></trkpt>
        <trkpt lat="29.5243991" lon="103.3349442"><ele>2993.09</ele><time>2026-05-23T23:54:25.000Z</time></trkpt>
        <trkpt lat="29.5243418" lon="103.3349591"><ele>2992.87</ele><time>2026-05-23T23:54:29.000Z</time></trkpt>
        <trkpt lat="29.5242822" lon="103.3349692"><ele>2993.87</ele><time>2026-05-23T23:54:33.000Z</time></trkpt>
        <trkpt lat="29.5242264" lon="103.334974"><ele>2994.2</ele><time>2026-05-23T23:54:37.000Z</time></trkpt>
        <trkpt lat="29.5241739" lon="103.334973"><ele>2993.69</ele><time>2026-05-23T23:54:41.000Z</time></trkpt>
        <trkpt lat="29.5241172" lon="103.3349749"><ele>2993.62</ele><time>2026-05-23T23:54:45.000Z</time></trkpt>
        <trkpt lat="29.5240588" lon="103.3349734"><ele>2993.49</ele><time>2026-05-23T23:54:49.000Z</time></trkpt>
        <trkpt lat="29.5240034" lon="103.3349727"><ele>2993.96</ele><time>2026-05-23T23:54:53.000Z</time></trkpt>
        <trkpt lat="29.5239534" lon="103.3349708"><ele>2994.02</ele><time>2026-05-23T23:54:57.000Z</time></trkpt>
        <trkpt lat="29.5239199" lon="103.3349353"><ele>2994.05</ele><time>2026-05-23T23:55:01.000Z</time></trkpt>
        <trkpt lat="29.5239059" lon="103.3349109"><ele>2993.7</ele><time>2026-05-23T23:55:05.000Z</time></trkpt>
        <trkpt lat="29.523864" lon="103.334917"><ele>2993.05</ele><time>2026-05-23T23:55:13.000Z</time></trkpt>
        <trkpt lat="29.5238159" lon="103.3349133"><ele>2991.84</ele><time>2026-05-23T23:55:17.000Z</time></trkpt>
        <trkpt lat="29.5237537" lon="103.3349137"><ele>2991</ele><time>2026-05-23T23:55:23.000Z</time></trkpt>
        <trkpt lat="29.5236875" lon="103.3349085"><ele>2991.16</ele><time>2026-05-23T23:55:29.000Z</time></trkpt>
        <trkpt lat="29.5236201" lon="103.3349137"><ele>2991.63</ele><time>2026-05-23T23:55:35.000Z</time></trkpt>
        <trkpt lat="29.5235535" lon="103.334921"><ele>2992.36</ele><time>2026-05-23T23:55:41.000Z</time></trkpt>
        <trkpt lat="29.52349" lon="103.3349095"><ele>2993.53</ele><time>2026-05-23T23:55:47.000Z</time></trkpt>
        <trkpt lat="29.5234325" lon="103.3348935"><ele>2993.92</ele><time>2026-05-23T23:55:55.000Z</time></trkpt>
        <trkpt lat="29.5233819" lon="103.334866"><ele>2994.15</ele><time>2026-05-23T23:56:01.000Z</time></trkpt>
        <trkpt lat="29.5233207" lon="103.3348526"><ele>2994.08</ele><time>2026-05-23T23:56:07.000Z</time></trkpt>
        <trkpt lat="29.5232595" lon="103.3348264"><ele>2994.25</ele><time>2026-05-23T23:56:13.000Z</time></trkpt>
        <trkpt lat="29.5231962" lon="103.3348074"><ele>2994.48</ele><time>2026-05-23T23:56:17.000Z</time></trkpt>
        <trkpt lat="29.5231472" lon="103.3347777"><ele>2994.69</ele><time>2026-05-23T23:56:21.000Z</time></trkpt>
        <trkpt lat="29.5230967" lon="103.3347465"><ele>2995.55</ele><time>2026-05-23T23:56:27.000Z</time></trkpt>
        <trkpt lat="29.5230643" lon="103.3347282"><ele>2995.4</ele><time>2026-05-23T23:56:33.000Z</time></trkpt>
        <trkpt lat="29.5230112" lon="103.3347246"><ele>2995.92</ele><time>2026-05-23T23:56:39.000Z</time></trkpt>
        <trkpt lat="29.5229593" lon="103.3347382"><ele>2996.52</ele><time>2026-05-23T23:56:43.000Z</time></trkpt>
        <trkpt lat="29.5229103" lon="103.3347433"><ele>2997.74</ele><time>2026-05-23T23:56:49.000Z</time></trkpt>
        <trkpt lat="29.5228608" lon="103.3347375"><ele>2999.74</ele><time>2026-05-23T23:57:03.000Z</time></trkpt>
        <trkpt lat="29.5228156" lon="103.3347457"><ele>3001.5</ele><time>2026-05-23T23:57:11.000Z</time></trkpt>
        <trkpt lat="29.5227674" lon="103.3347756"><ele>3002.27</ele><time>2026-05-23T23:57:17.000Z</time></trkpt>
        <trkpt lat="29.5227315" lon="103.334814"><ele>3002.55</ele><time>2026-05-23T23:57:23.000Z</time></trkpt>
        <trkpt lat="29.5227217" lon="103.3348686"><ele>3002.98</ele><time>2026-05-23T23:57:31.000Z</time></trkpt>
        <trkpt lat="29.522711" lon="103.3349244"><ele>3003.58</ele><time>2026-05-23T23:57:35.000Z</time></trkpt>
        <trkpt lat="29.5227363" lon="103.3349913"><ele>3003.65</ele><time>2026-05-23T23:57:41.000Z</time></trkpt>
        <trkpt lat="29.5227504" lon="103.3350576"><ele>3003.82</ele><time>2026-05-23T23:57:47.000Z</time></trkpt>
        <trkpt lat="29.522764" lon="103.3351144"><ele>3004.91</ele><time>2026-05-23T23:57:53.000Z</time></trkpt>
        <trkpt lat="29.5227811" lon="103.3351739"><ele>3006.6</ele><time>2026-05-23T23:58:01.000Z</time></trkpt>
        <trkpt lat="29.5227975" lon="103.3352294"><ele>3007.29</ele><time>2026-05-23T23:58:07.000Z</time></trkpt>
        <trkpt lat="29.5227865" lon="103.3352788"><ele>3008.57</ele><time>2026-05-23T23:58:13.000Z</time></trkpt>
        <trkpt lat="29.5227962" lon="103.3353316"><ele>3009.86</ele><time>2026-05-23T23:58:29.000Z</time></trkpt>
        <trkpt lat="29.5227987" lon="103.3353922"><ele>3012.55</ele><time>2026-05-23T23:58:35.000Z</time></trkpt>
        <trkpt lat="29.5227751" lon="103.3354453"><ele>3014.88</ele><time>2026-05-23T23:58:43.000Z</time></trkpt>
        <trkpt lat="29.5227735" lon="103.3355064"><ele>3017.11</ele><time>2026-05-23T23:58:49.000Z</time></trkpt>
        <trkpt lat="29.522757" lon="103.3355636"><ele>3017.76</ele><time>2026-05-23T23:58:55.000Z</time></trkpt>
        <trkpt lat="29.5227489" lon="103.335623"><ele>3017.78</ele><time>2026-05-23T23:59:04.000Z</time></trkpt>
        <trkpt lat="29.5227533" lon="103.335677"><ele>3017.71</ele><time>2026-05-23T23:59:10.000Z</time></trkpt>
        <trkpt lat="29.522771" lon="103.3357274"><ele>3017.75</ele><time>2026-05-23T23:59:20.000Z</time></trkpt>
        <trkpt lat="29.522773" lon="103.3357792"><ele>3018.45</ele><time>2026-05-23T23:59:28.000Z</time></trkpt>
        <trkpt lat="29.5227761" lon="103.3358316"><ele>3019.5</ele><time>2026-05-23T23:59:34.000Z</time></trkpt>
        <trkpt lat="29.5227727" lon="103.3358851"><ele>3020.39</ele><time>2026-05-23T23:59:44.000Z</time></trkpt>
        <trkpt lat="29.5227711" lon="103.3359306"><ele>3020.93</ele><time>2026-05-23T23:59:56.000Z</time></trkpt>
        <trkpt lat="29.5227308" lon="103.3359587"><ele>3022.98</ele><time>2026-05-24T00:00:14.000Z</time></trkpt>
        <trkpt lat="29.5226809" lon="103.3359622"><ele>3024.42</ele><time>2026-05-24T00:00:22.000Z</time></trkpt>
        <trkpt lat="29.5226367" lon="103.335989"><ele>3026.38</ele><time>2026-05-24T00:00:30.000Z</time></trkpt>
        <trkpt lat="29.5226133" lon="103.3360407"><ele>3028.08</ele><time>2026-05-24T00:00:36.000Z</time></trkpt>
        <trkpt lat="29.5225863" lon="103.3360908"><ele>3029.7</ele><time>2026-05-24T00:00:41.000Z</time></trkpt>
        <trkpt lat="29.5225794" lon="103.3361338"><ele>3030.81</ele><time>2026-05-24T00:00:49.000Z</time></trkpt>
        <trkpt lat="29.5225794" lon="103.3361338"><ele>3030.81</ele><time>2026-05-24T00:00:59.000Z</time></trkpt>
      </trkseg>
  </trk>
</gpx>